<
# Wetter Temperatur Luftdruck Luftfeuchtigkeit Sichtweite Windgeschwindigkeit Windrichtung Zeit
1 Clouds 26 1015 82 10000 0 0 11:31 14.08.2022
2 Clouds 26 1015 79 10000 0 0 10:26 14.08.2022
3 Clear 25 1015 86 10000 0 0 08:45 14.08.2022
4 Clouds 26 1017 81 10000 0 0 06:20 14.08.2022
5 Clouds 28 1016 75 10000 3.09 290 02:35 14.08.2022
6 Clouds 30 1016 69 10000 4.12 130 23:36 13.08.2022
7 Clouds 29 1016 75 10000 4.12 120 22:28 13.08.2022
8 Clouds 29 1016 77 10000 0.89 107 20:58 13.08.2022
9 Thunderstorm 30 1017 70 10000 6.26 110 20:19 13.08.2022
10 Thunderstorm 32 1017 66 10000 4.12 150 19:20 13.08.2022
11 Clouds 32 1017 65 10000 3.13 220 17:36 13.08.2022
12 Clouds 30 1017 75 10000 1.54 360 15:18 13.08.2022
13 Clouds 28 1016 84 10000 3.6 350 14:24 13.08.2022
14 Clouds 27 1016 85 10000 2.57 340 13:38 13.08.2022
15 Clouds 27 1016 84 10000 0.45 80 11:51 13.08.2022
16 Clouds 27 1016 81 10000 2.24 110 09:50 13.08.2022
17 Clouds 27 1017 82 10000 1.54 150 07:51 13.08.2022
18 Clouds 29 1016 78 10000 4.41 108 02:56 13.08.2022
19 Clouds 31 1015 70 10000 5.66 120 23:46 12.08.2022
20 Clouds 32 1017 65 10000 5.14 110 21:40 12.08.2022
21 Clouds 32 1017 65 10000 5.66 110 19:51 12.08.2022
22 Clouds 32 1018 65 10000 5.66 110 19:26 12.08.2022
23 Clouds 32 1018 66 10000 5.66 90 18:34 12.08.2022
24 Clouds 31 1018 71 10000 5.66 100 16:28 12.08.2022
25 Clouds 30 1018 72 10000 4.63 110 15:31 12.08.2022
26 Clouds 29 1018 76 10000 3.09 100 14:27 12.08.2022
27 Clouds 27 1017 75 10000 3.09 90 12:51 12.08.2022
28 Clouds 28 1017 79 10000 3.09 100 09:51 12.08.2022
29 Clouds 28 1018 78 10000 3.6 90 07:47 12.08.2022
30 Clouds 28 1019 79 10000 3.6 80 06:31 12.08.2022
31 Clouds 29 1018 76 10000 5.14 90 02:22 12.08.2022
32 Clouds 30 1017 70 10000 5.66 110 00:23 12.08.2022
33 Clouds 31 1017 67 10000 5.14 110 23:34 11.08.2022
34 Clouds 32 1017 66 10000 1.34 37 21:58 11.08.2022
35 Clouds 32 1018 63 10000 5.66 80 21:39 11.08.2022
36 Clouds 32 1019 64 10000 6.17 110 20:32 11.08.2022
37 Clouds 32 1019 68 10000 1.79 75 19:57 11.08.2022
38 Clouds 32 1019 66 10000 6.69 100 19:32 11.08.2022
39 Clouds 32 1020 67 10000 6.69 130 17:48 11.08.2022
40 Clouds 31 1020 69 10000 5.14 110 16:34 11.08.2022
41 Clouds 30 1019 73 10000 4.12 110 15:21 11.08.2022
42 Clouds 28 1019 81 10000 3.09 90 12:44 11.08.2022
43 Clouds 28 1019 81 10000 3.6 80 10:18 11.08.2022
44 Clouds 28 1020 80 10000 4.63 100 07:19 11.08.2022
45 Clouds 29 1019 77 10000 5.14 100 03:46 11.08.2022
46 Clouds 31 1019 74 10000 7.2 100 00:37 11.08.2022
47 Clouds 32 1020 69 10000 7.72 90 22:32 10.08.2022
48 Clouds 32 1021 69 10000 7.2 90 21:25 10.08.2022
49 Clear 32 1021 72 10000 1.34 88 20:55 10.08.2022
50 Clouds 33 1022 67 10000 5.66 110 19:27 10.08.2022
51 Clouds 32 1022 66 10000 7.2 120 18:22 10.08.2022
52 Clouds 31 1022 69 10000 6.17 100 16:36 10.08.2022
53 Clouds 28 1021 81 10000 3.09 110 13:36 10.08.2022
54 Clouds 28 1020 81 10000 3.6 110 12:41 10.08.2022
55 Clouds 28 1019 78 10000 4.12 120 09:25 10.08.2022
56 Clouds 29 1020 78 10000 5.14 110 08:33 10.08.2022
57 Clouds 29 1020 79 10000 4.12 100 07:19 10.08.2022
58 Clouds 29 1019 78 10000 7.2 110 03:28 10.08.2022
59 Clouds 31 1018 76 10000 8.23 100 23:34 09.08.2022
60 Clouds 31 1018 75 10000 7.2 90 22:56 09.08.2022
61 Clouds 31 1018 75 10000 1.79 93 21:36 09.08.2022
62 Clouds 32 1019 70 10000 6.69 120 20:30 09.08.2022
63 Clouds 32 1020 70 10000 8.75 120 18:44 09.08.2022
64 Clouds 31 1020 73 10000 7.72 100 17:28 09.08.2022
65 Clouds 31 1020 73 10000 7.72 100 17:28 09.08.2022
66 Clouds 31 1020 75 10000 6.17 100 16:41 09.08.2022
67 Clouds 30 1020 78 10000 5.66 120 15:58 09.08.2022
68 Clouds 28 1018 83 10000 4.63 70 13:51 09.08.2022
69 Clouds 28 1018 83 10000 1.34 97 09:56 09.08.2022
70 Clouds 28 1018 86 10000 4.12 90 08:50 09.08.2022
71 Clouds 28 1019 85 10000 1.34 84 07:53 09.08.2022
72 Clouds 29 1019 79 10000 3.6 90 04:28 09.08.2022
73 Clouds 31 1017 70 10000 6.17 120 23:35 08.08.2022
74 Clouds 32 1017 69 10000 5.66 110 22:56 08.08.2022
75 Clouds 32 1018 68 10000 5.66 110 22:22 08.08.2022
76 Clouds 32 1019 66 10000 6.69 110 21:22 08.08.2022
77 Clouds 32 1019 66 10000 6.69 100 19:51 08.08.2022
78 Clouds 32 1019 69 10000 2.24 88 18:58 08.08.2022
79 Clouds 30 1019 73 10000 6.71 90 16:47 08.08.2022
80 Clouds 29 1019 78 10000 4.63 80 15:40 08.08.2022
81 Clouds 27 1018 87 10000 2.24 30 14:29 08.08.2022
82 Clouds 26 1018 89 10000 3.6 120 12:27 08.08.2022
83 Clouds 27 1018 86 10000 0.45 67 10:19 08.08.2022
84 Clouds 28 1019 82 10000 3.6 90 06:54 08.08.2022
85 Clouds 28 1019 78 10000 5.81 90 03:31 08.08.2022
86 Clouds 31 1018 69 10000 6.71 110 22:44 07.08.2022
87 Clouds 31 1018 72 10000 6.26 110 21:40 07.08.2022
88 Clear 30 1019 75 10000 5.14 110 20:42 07.08.2022
89 Clear 30 1019 76 10000 5.14 110 20:18 07.08.2022
90 Clouds 29 1020 78 10000 6.17 110 19:41 07.08.2022
91 Clouds 30 1020 70 10000 5.81 100 18:36 07.08.2022
92 Clouds 31 1021 74 10000 2.24 85 16:55 07.08.2022
93 Clouds 30 1020 74 10000 6.17 90 16:35 07.08.2022
94 Clouds 29 1020 76 10000 5.66 90 15:24 07.08.2022
95 Clouds 27 1019 84 10000 3.6 80 13:37 07.08.2022
96 Clouds 27 1019 86 10000 3.6 110 12:18 07.08.2022
97 Clouds 27 1019 86 10000 7.2 160 10:35 07.08.2022
98 Clear 28 1019 78 10000 1.34 64 07:59 07.08.2022
99 Clouds 29 1019 75 10000 6.71 100 03:32 07.08.2022
100 Clouds 30 1018 71 10000 8.94 90 01:50 07.08.2022
101 Rain 32 1019 67 10000 7.72 80 22:28 06.08.2022
102 Clouds 32 1020 67 10000 8.75 90 21:28 06.08.2022
103 Clouds 31 1021 69 10000 7.2 90 19:42 06.08.2022
104 Clouds 32 1021 68 10000 9.77 110 18:33 06.08.2022
105 Clouds 31 1021 70 10000 8.75 90 17:37 06.08.2022
106 Clouds 29 1020 75 10000 6.17 80 15:21 06.08.2022
107 Clouds 27 1019 77 10000 5.14 80 13:50 06.08.2022
108 Clouds 28 1019 79 10000 5.14 100 12:19 06.08.2022
109 Clouds 28 1018 80 10000 4.12 100 10:37 06.08.2022
110 Clouds 28 1019 80 10000 5.14 80 09:21 06.08.2022
111 Clouds 28 1019 79 10000 1.34 92 03:55 06.08.2022
112 Clouds 31 1018 74 10000 1.79 95 23:56 05.08.2022
113 Clouds 31 1018 68 10000 7.2 90 22:34 05.08.2022
114 Clouds 32 1019 67 10000 8.23 100 20:30 05.08.2022
115 Clouds 32 1019 71 10000 3.13 90 18:53 05.08.2022
116 Clouds 32 1019 70 10000 5.66 110 18:35 05.08.2022
117 Clouds 30 1019 78 10000 4.12 80 16:51 05.08.2022
118 Clouds 27 1018 87 10000 3.6 100 15:24 05.08.2022
119 Clouds 27 1018 85 10000 3.6 40 14:34 05.08.2022
120 Clouds 27 1018 84 10000 1.54 80 13:26 05.08.2022
121 Clouds 27 1018 84 10000 0.45 79 12:59 05.08.2022
122 Clouds 28 1017 81 10000 4.12 120 11:20 05.08.2022
123 Clouds 28 1018 80 10000 2.57 80 08:46 05.08.2022
124 Clouds 28 1018 77 10000 5.14 90 07:33 05.08.2022
125 Clouds 29 1017 74 10000 4.12 120 02:33 05.08.2022
126 Clouds 32 1017 67 10000 7.72 120 22:43 04.08.2022
127 Clouds 32 1017 66 10000 6.17 110 21:28 04.08.2022
128 Clouds 33 1017 66 10000 2.24 87 20:53 04.08.2022
129 Clouds 33 1018 65 10000 6.17 100 20:33 04.08.2022
130 Clear 32 1018 68 10000 1.34 0 18:58 04.08.2022
131 Clouds 32 1018 68 10000 6.69 130 18:33 04.08.2022
132 Clouds 29 1018 77 10000 4.12 110 15:51 04.08.2022
133 Clouds 27 1018 84 10000 4.12 100 13:26 04.08.2022
134 Clouds 28 1017 81 10000 3.6 90 11:39 04.08.2022
135 Clouds 28 1017 82 10000 2.06 0 10:21 04.08.2022
136 Clouds 28 1018 82 10000 3.09 80 07:45 04.08.2022
137 Clouds 29 1017 74 10000 4.63 110 02:48 04.08.2022
138 Clouds 31 1016 68 10000 5.66 130 00:43 04.08.2022
139 Clouds 32 1016 62 10000 5.66 130 23:40 03.08.2022
140 Clouds 32 1017 61 10000 4.63 110 21:31 03.08.2022
141 Clouds 33 1017 62 10000 5.66 120 20:21 03.08.2022
142 Clouds 32 1018 63 10000 4.63 130 19:24 03.08.2022
143 Clouds 31 1018 70 10000 3.09 110 16:50 03.08.2022
144 Clouds 31 1018 72 10000 3.09 110 16:22 03.08.2022
145 Clouds 27 1017 80 10000 2.06 50 13:52 03.08.2022
146 Clouds 26 1017 79 10000 4.21 99 10:57 03.08.2022
147 Clouds 26 1018 79 10000 1.54 20 07:32 03.08.2022
148 Clouds 28 1019 78 10000 1.54 40 04:22 03.08.2022
149 Clouds 28 1018 78 10000 2.06 60 03:23 03.08.2022
150 Clouds 30 1017 73 10000 1.79 93 00:53 03.08.2022
151 Clouds 32 1018 66 10000 4.63 110 22:43 02.08.2022
152 Thunderstorm 32 1018 66 10000 5.14 110 21:52 02.08.2022
153 Thunderstorm 32 1019 66 10000 4.12 130 20:32 02.08.2022
154 Clouds 33 1020 66 10000 3.09 120 18:39 02.08.2022
155 Clouds 30 1019 75 10000 4.63 110 15:27 02.08.2022
156 Clouds 27 1019 86 10000 4.12 110 11:30 02.08.2022
157 Clouds 28 1020 85 10000 0.45 87 08:59 02.08.2022
158 Clouds 28 1020 84 10000 4.63 110 07:52 02.08.2022
159 Clouds 29 1020 83 10000 4.12 100 06:42 02.08.2022
160 Clouds 29 1020 84 10000 1.34 73 04:54 02.08.2022
161 Clouds 32 1020 70 10000 6.69 130 23:35 01.08.2022
162 Clouds 32 1020 68 10000 6.69 120 22:23 01.08.2022
163 Clouds 32 1021 66 10000 6.69 110 20:51 01.08.2022
164 Clouds 33 1022 67 10000 8.23 130 19:23 01.08.2022
165 Clouds 32 1022 68 10000 6.17 130 18:30 01.08.2022
166 Clouds 31 1022 72 10000 5.66 110 16:53 01.08.2022
167 Clouds 30 1021 75 10000 5.14 100 15:52 01.08.2022
168 Clouds 30 1021 75 10000 5.14 100 15:52 01.08.2022
169 Clouds 30 1022 75 10000 5.14 100 15:30 01.08.2022
170 Clouds 28 1021 85 10000 4.12 130 13:48 01.08.2022
171 Clouds 27 1020 89 10000 3.09 80 11:50 01.08.2022
172 Clouds 27 1021 85 10000 4.63 70 09:39 01.08.2022
173 Clouds 29 1022 84 10000 3.6 110 08:22 01.08.2022
174 Clouds 29 1021 82 10000 5.14 100 04:48 01.08.2022
175 Clouds 29 1021 79 10000 6.17 100 02:32 01.08.2022
176 Clouds 31 1021 73 10000 1.79 80 23:54 31.07.2022
177 Clouds 32 1021 68 10000 6.69 100 22:38 31.07.2022
178 Clouds 32 1022 68 10000 6.69 90 21:24 31.07.2022
179 Clouds 32 1022 67 10000 6.69 120 19:41 31.07.2022
180 Clouds 32 1022 69 10000 6.69 90 17:48 31.07.2022
181 Clouds 30 1022 75 10000 6.17 80 15:37 31.07.2022
182 Clouds 28 1021 82 10000 3.09 80 13:42 31.07.2022
183 Clouds 28 1021 81 10000 1.34 84 11:55 31.07.2022
184 Clouds 28 1021 79 10000 5.66 100 09:36 31.07.2022
185 Clouds 28 1022 78 10000 5.66 90 07:38 31.07.2022
186 Clouds 29 1020 77 10000 1.79 80 02:58 31.07.2022
187 Clouds 31 1020 69 10000 6.69 90 23:36 30.07.2022
188 Clouds 31 1021 69 10000 6.69 90 22:19 30.07.2022
189 Clouds 32 1021 70 10000 6.17 110 21:48 30.07.2022
190 Clear 32 1021 68 10000 2.68 0 20:56 30.07.2022
191 Clear 32 1021 67 10000 2.68 85 19:58 30.07.2022
192 Clear 31 1022 70 10000 2.24 91 18:53 30.07.2022
193 Clouds 32 1022 67 10000 6.17 120 17:44 30.07.2022
194 Clouds 30 1021 72 10000 6.17 100 15:50 30.07.2022
195 Clouds 30 1021 72 10000 6.17 100 15:22 30.07.2022
196 Clouds 28 1020 81 10000 0.89 114 12:59 30.07.2022
197 Clouds 28 1019 80 10000 0.89 103 11:55 30.07.2022
198 Clouds 28 1019 81 10000 5.14 110 10:31 30.07.2022
199 Clouds 28 1019 83 10000 1.34 94 09:54 30.07.2022
200 Clear 28 1020 80 10000 2.24 93 07:55 30.07.2022
201 Clouds 29 1019 77 10000 6.17 100 02:37 30.07.2022
202 Clouds 29 1018 74 10000 5.66 80 01:49 30.07.2022
203 Clouds 32 1019 66 10000 6.17 120 22:41 29.07.2022
204 Clouds 32 1019 64 10000 6.69 110 21:24 29.07.2022
205 Clouds 32 1019 65 10000 7.2 120 20:35 29.07.2022
206 Clouds 32 1020 71 10000 2.24 89 17:59 29.07.2022
207 Clouds 30 1019 78 10000 7.2 130 15:35 29.07.2022
208 Clouds 28 1018 82 10000 3.09 70 13:19 29.07.2022
209 Clouds 28 1018 82 10000 3.6 90 11:22 29.07.2022
210 Clouds 28 1019 80 10000 3.6 100 08:50 29.07.2022
211 Clear 28 1019 81 10000 1.79 94 07:54 29.07.2022
212 Clouds 29 1019 77 10000 5.14 50 01:52 29.07.2022
213 Clouds 32 1019 67 10000 6.17 90 22:49 28.07.2022
214 Clouds 32 1019 66 10000 4.63 90 21:20 28.07.2022
215 Clouds 32 1020 67 10000 5.14 90 20:32 28.07.2022
216 Clouds 32 1020 68 10000 5.66 90 19:43 28.07.2022
217 Clouds 32 1020 68 10000 5.66 90 19:23 28.07.2022
218 Clouds 32 1020 68 10000 5.66 100 17:44 28.07.2022
219 Clouds 31 1020 72 10000 1.79 92 16:55 28.07.2022
220 Clouds 30 1019 75 10000 5.66 100 15:32 28.07.2022
221 Clouds 27 1019 83 10000 1.54 100 13:30 28.07.2022
222 Clouds 27 1018 83 10000 1.54 100 11:27 28.07.2022
223 Clouds 28 1021 81 10000 4.12 90 06:45 28.07.2022
224 Clouds 28 1021 81 10000 3.6 90 05:31 28.07.2022
225 Clouds 30 1019 74 10000 4.12 120 01:23 28.07.2022
226 Clouds 32 1019 69 10000 6.69 130 22:41 27.07.2022
227 Clouds 32 1020 70 10000 5.66 130 21:29 27.07.2022
228 Clouds 32 1020 70 10000 5.66 150 19:43 27.07.2022
229 Clouds 31 1020 73 10000 6.17 130 17:50 27.07.2022
230 Clouds 29 1020 83 10000 3.09 130 15:52 27.07.2022
231 Clouds 28 1019 87 10000 3.09 130 15:20 27.07.2022
232 Clouds 27 1019 91 10000 4.12 120 14:40 27.07.2022
233 Clouds 26 1018 94 10000 1.54 80 12:50 27.07.2022
234 Rain 23 1020 91 10000 3.09 30 08:44 27.07.2022
235 Mist 25 1021 87 6437 8.23 190 07:24 27.07.2022
236 Clouds 27 1019 86 10000 4.63 90 02:42 27.07.2022
237 Clouds 28 1019 85 10000 1.54 190 22:39 26.07.2022
238 Clouds 25 1020 88 10000 1.54 140 21:23 26.07.2022
239 Thunderstorm 24 1020 97 4828 2.57 300 20:43 26.07.2022
240 Thunderstorm 29 1020 82 10000 5.14 90 18:44 26.07.2022
241 Clouds 30 1020 79 10000 6.17 130 18:19 26.07.2022
242 Clouds 29 1020 82 10000 3.09 70 16:46 26.07.2022
243 Mist 27 1019 90 10000 1.54 30 15:42 26.07.2022
244 Thunderstorm 24 1019 91 4023 3.6 100 13:47 26.07.2022
245 Thunderstorm 27 1017 86 10000 6.17 100 11:39 26.07.2022
246 Thunderstorm 27 1018 87 10000 1.54 140 09:32 26.07.2022
247 Rain 27 1019 85 10000 4.63 120 07:31 26.07.2022
248 Clouds 30 1017 75 10000 2.24 81 00:57 26.07.2022
249 Clouds 31 1018 72 10000 7.2 100 23:33 25.07.2022
250 Clouds 31 1018 73 10000 6.17 90 22:27 25.07.2022
251 Clouds 31 1018 69 10000 6.17 110 21:43 25.07.2022
252 Clouds 32 1019 68 10000 6.17 80 20:42 25.07.2022
253 Clouds 31 1019 69 10000 6.69 90 19:51 25.07.2022
254 Clouds 31 1019 69 10000 6.69 100 18:23 25.07.2022
255 Clouds 31 1019 71 10000 7.2 110 17:33 25.07.2022
256 Clouds 30 1019 76 10000 6.17 110 15:37 25.07.2022
257 Clouds 27 1018 83 10000 6.17 90 12:33 25.07.2022
258 Clouds 28 1018 82 10000 4.63 90 10:38 25.07.2022
259 Clouds 28 1019 79 10000 5.66 70 06:51 25.07.2022
260 Clouds 31 1018 71 10000 1.34 73 23:56 24.07.2022
261 Clouds 32 1018 67 10000 6.17 100 23:19 24.07.2022
262 Clouds 32 1018 68 10000 6.69 120 22:35 24.07.2022
263 Clouds 32 1019 66 10000 6.17 90 21:28 24.07.2022
264 Clouds 32 1020 68 10000 2.24 91 20:53 24.07.2022
265 Clouds 32 1020 66 10000 6.69 90 20:29 24.07.2022
266 Clouds 32 1020 67 10000 4.63 160 18:57 24.07.2022
267 Clouds 31 1020 66 10000 7.2 100 16:51 24.07.2022
268 Clouds 31 1019 73 10000 2.24 166 15:53 24.07.2022
269 Clouds 29 1019 78 10000 5.14 90 14:40 24.07.2022
270 Clouds 28 1018 80 10000 4.63 100 13:25 24.07.2022
271 Clouds 28 1018 79 10000 5.14 90 12:19 24.07.2022
272 Clouds 28 1018 79 10000 5.14 90 11:26 24.07.2022
273 Clouds 28 1019 80 10000 3.6 60 09:33 24.07.2022
274 Clear 28 1019 81 10000 0.89 75 07:53 24.07.2022
275 Clouds 28 1020 78 10000 4.12 90 06:38 24.07.2022
276 Clouds 29 1019 76 10000 4.63 110 02:33 24.07.2022
277 Clouds 32 1019 65 10000 7.2 100 22:31 23.07.2022
278 Clouds 32 1020 69 10000 7.72 110 20:41 23.07.2022
279 Clouds 32 1020 67 10000 1.79 104 18:55 23.07.2022
280 Clouds 32 1020 69 10000 7.2 130 17:48 23.07.2022
281 Clouds 32 1020 69 10000 7.2 130 17:24 23.07.2022
282 Clouds 31 1020 75 10000 6.17 130 15:55 23.07.2022
283 Clouds 30 1020 77 10000 6.17 100 15:21 23.07.2022
284 Clouds 29 1019 80 10000 4.12 90 14:47 23.07.2022
285 Clouds 28 1019 85 10000 0.89 95 13:54 23.07.2022
286 Clouds 27 1019 83 10000 1.54 260 11:47 23.07.2022
287 Clouds 27 1019 86 10000 1.54 340 10:28 23.07.2022
288 Clouds 27 1019 84 10000 0.45 66 09:28 23.07.2022
289 Clouds 27 1019 80 10000 0 0 06:40 23.07.2022
290 Clouds 29 1019 77 10000 4.12 130 03:37 23.07.2022
291 Clouds 31 1018 72 10000 1.79 101 23:59 22.07.2022
292 Clouds 33 1019 67 10000 7.2 130 21:28 22.07.2022
293 Clouds 33 1019 67 10000 6.17 130 20:29 22.07.2022
294 Clouds 32 1019 73 10000 2.24 0 18:41 22.07.2022
295 Clouds 31 1019 71 10000 5.66 120 17:38 22.07.2022
296 Clouds 29 1018 79 10000 2.57 20 15:35 22.07.2022
297 Clouds 27 1017 84 10000 3.09 120 12:47 22.07.2022
298 Clouds 28 1016 82 10000 1.34 118 09:56 22.07.2022
299 Clouds 28 1017 80 10000 4.63 110 09:21 22.07.2022
300 Clouds 29 1017 79 10000 5.66 130 07:51 22.07.2022
301 Clouds 29 1018 76 10000 4.12 110 04:22 22.07.2022
302 Clouds 32 1017 65 10000 5.14 110 23:36 21.07.2022
303 Clouds 33 1017 63 10000 5.66 140 21:41 21.07.2022
304 Clouds 33 1018 64 10000 6.17 130 19:42 21.07.2022
305 Clouds 33 1019 62 10000 4.12 130 18:30 21.07.2022
306 Clouds 32 1018 64 10000 4.12 100 17:21 21.07.2022
307 Clouds 31 1018 67 10000 3.6 150 16:23 21.07.2022
308 Clouds 29 1017 76 10000 3.09 170 14:46 21.07.2022
309 Clouds 28 1017 79 10000 1.34 124 13:58 21.07.2022
310 Clear 28 1016 79 10000 1.79 136 11:58 21.07.2022
311 Clouds 28 1015 76 10000 5.14 130 10:20 21.07.2022
312 Clear 29 1016 78 10000 2.68 103 08:53 21.07.2022
313 Clouds 29 1017 78 10000 5.66 100 07:50 21.07.2022
314 Clouds 29 1017 78 10000 4.12 110 06:45 21.07.2022
315 Clear 29 1017 77 10000 0.89 112 02:59 21.07.2022
316 Clouds 32 1017 64 10000 5.66 130 22:49 20.07.2022
317 Clouds 32 1017 64 10000 5.66 130 22:19 20.07.2022
318 Clouds 33 1018 65 10000 5.66 120 20:46 20.07.2022
319 Clouds 33 1018 64 10000 6.17 120 19:47 20.07.2022
320 Clouds 33 1018 67 10000 2.24 102 18:56 20.07.2022
321 Clouds 32 1019 66 10000 5.66 120 18:31 20.07.2022
322 Clouds 32 1019 67 10000 6.17 120 17:33 20.07.2022
323 Clouds 30 1019 73 10000 4.12 110 15:38 20.07.2022
324 Clouds 29 1019 77 10000 4.63 120 14:49 20.07.2022
325 Clouds 28 1018 82 10000 2.06 90 13:44 20.07.2022
326 Clouds 28 1017 82 10000 3.09 90 11:29 20.07.2022
327 Clear 28 1019 82 10000 2.57 100 06:49 20.07.2022
328 Clear 30 1018 74 10000 0.89 86 01:58 20.07.2022
329 Clouds 31 1018 65 10000 4.12 130 00:43 20.07.2022
330 Clouds 32 1019 62 10000 5.66 110 22:39 19.07.2022
331 Clouds 32 1019 62 10000 5.66 110 22:21 19.07.2022
332 Clouds 33 1020 64 10000 4.12 150 20:50 19.07.2022
333 Clouds 33 1020 64 10000 5.66 120 19:38 19.07.2022
334 Clouds 32 1021 65 10000 5.66 130 18:43 19.07.2022
335 Clear 32 1021 66 10000 2.24 150 17:56 19.07.2022
336 Clouds 31 1020 72 10000 5.66 120 16:25 19.07.2022
337 Clear 28 1020 86 10000 1.34 83 14:20 19.07.2022
338 Clear 27 1019 86 10000 0 0 11:35 19.07.2022
339 Clear 27 1018 86 10000 0.45 114 09:58 19.07.2022
340 Clear 27 1019 84 10000 2.57 110 08:48 19.07.2022
341 Clear 27 1020 84 10000 2.57 110 08:22 19.07.2022
342 Clear 28 1020 83 10000 1.54 130 07:18 19.07.2022
343 Clear 28 1020 80 10000 3.09 140 05:26 19.07.2022
344 Clear 29 1020 77 10000 2.57 140 04:41 19.07.2022
345 Clouds 31 1019 73 10000 6.17 130 00:31 19.07.2022
346 Clouds 32 1019 71 10000 8.23 160 23:21 18.07.2022
347 Clouds 32 1019 72 10000 4.02 141 22:56 18.07.2022
348 Clouds 33 1019 72 10000 3.13 133 21:53 18.07.2022
349 Clouds 33 1020 71 10000 6.69 140 20:50 18.07.2022
350 Clouds 33 1020 70 10000 6.17 140 19:24 18.07.2022
351 Clouds 32 1020 73 10000 6.69 160 17:22 18.07.2022
352 Clouds 31 1019 76 10000 5.66 140 15:46 18.07.2022
353 Clouds 29 1019 81 10000 2.57 140 14:24 18.07.2022
354 Clouds 28 1018 86 10000 2.57 140 12:38 18.07.2022
355 Clouds 28 1018 84 10000 2.57 140 10:37 18.07.2022
356 Clouds 28 1018 85 10000 2.06 130 08:51 18.07.2022
357 Clouds 29 1018 83 10000 4.12 140 06:58 18.07.2022
358 Thunderstorm 30 1017 77 10000 4.63 140 00:36 18.07.2022
359 Thunderstorm 31 1017 73 10000 5.66 140 22:34 17.07.2022
360 Clouds 32 1017 70 10000 7.2 120 21:49 17.07.2022
361 Clouds 33 1017 69 10000 6.69 140 21:18 17.07.2022
362 Clouds 33 1018 66 10000 7.2 160 20:37 17.07.2022
363 Clouds 32 1018 66 10000 6.69 160 19:29 17.07.2022
364 Clouds 32 1017 71 10000 6.17 190 18:30 17.07.2022
365 Clouds 30 1017 78 10000 6.17 150 17:38 17.07.2022
366 Clear 29 1017 81 10000 5.66 160 16:51 17.07.2022
367 Clear 29 1017 81 10000 5.66 160 16:51 17.07.2022
368 Clear 29 1017 83 10000 5.66 160 16:26 17.07.2022
369 Clouds 27 1016 87 10000 4.63 150 14:44 17.07.2022
370 Clouds 26 1016 90 10000 4.63 140 13:31 17.07.2022
371 Clouds 27 1015 89 10000 1.54 130 11:35 17.07.2022
372 Clouds 27 1015 88 10000 1.54 130 09:24 17.07.2022
373 Thunderstorm 26 1017 87 10000 1.54 360 03:44 17.07.2022
374 Thunderstorm 26 1016 85 10000 2.06 330 02:32 17.07.2022
375 Clouds 30 1015 73 10000 6.69 120 23:20 16.07.2022
376 Clouds 31 1016 73 10000 5.66 140 21:30 16.07.2022
377 Clouds 32 1016 69 10000 5.14 120 19:40 16.07.2022
378 Clouds 31 1017 72 10000 5.14 120 18:32 16.07.2022
379 Clouds 31 1017 72 10000 5.14 120 18:32 16.07.2022
380 Clouds 30 1017 73 10000 4.63 130 16:34 16.07.2022
381 Clouds 28 1016 80 10000 0.89 120 13:56 16.07.2022
382 Clouds 27 1016 80 10000 1.34 100 10:55 16.07.2022
383 Clouds 27 1017 80 10000 3.09 80 09:33 16.07.2022
384 Clouds 27 1017 80 10000 3.6 110 08:44 16.07.2022
385 Clouds 27 1017 79 10000 3.6 110 08:23 16.07.2022
386 Clouds 28 1018 77 10000 5.66 100 04:21 16.07.2022
387 Clouds 28 1017 75 10000 5.14 90 03:22 16.07.2022
388 Clouds 30 1017 71 10000 7.2 100 23:34 15.07.2022
389 Clouds 30 1018 70 10000 8.23 90 22:41 15.07.2022
390 Clouds 31 1018 68 10000 7.72 110 21:29 15.07.2022
391 Clouds 30 1019 70 10000 6.17 70 20:30 15.07.2022
392 Clouds 30 1019 72 10000 4.63 40 18:42 15.07.2022
393 Clouds 30 1020 69 10000 6.69 90 17:44 15.07.2022
394 Clouds 29 1019 77 10000 1.34 81 14:54 15.07.2022
395 Clouds 27 1019 79 10000 2.06 360 13:18 15.07.2022
396 Clouds 26 1018 78 10000 0 0 11:44 15.07.2022
397 Clouds 26 1019 78 10000 2.06 210 10:27 15.07.2022
398 Clouds 28 1019 72 10000 1.54 80 06:30 15.07.2022
399 Clouds 31 1019 68 10000 5.66 120 01:32 15.07.2022
400 Clear 32 1018 66 10000 6.17 140 00:37 15.07.2022
401 Clear 33 1018 66 10000 1.79 145 22:53 14.07.2022
402 Clear 33 1019 68 10000 2.68 135 21:54 14.07.2022
403 Clear 33 1020 64 10000 6.69 120 21:30 14.07.2022
404 Clouds 33 1019 63 10000 6.69 130 20:45 14.07.2022
405 Clouds 33 1020 63 10000 6.69 130 20:26 14.07.2022
406 Clouds 33 1020 65 10000 5.66 140 19:45 14.07.2022
407 Clouds 31 1020 67 10000 2.06 160 16:23 14.07.2022
408 Clouds 30 1019 72 10000 1.79 153 15:50 14.07.2022
409 Clouds 29 1019 82 10000 3.6 110 14:43 14.07.2022
410 Clear 27 1019 85 10000 3.09 110 13:32 14.07.2022
411 Clouds 26 1018 87 10000 0 0 12:18 14.07.2022
412 Clouds 25 1019 89 10000 0 0 11:25 14.07.2022
413 Clouds 26 1018 88 10000 2.06 120 10:39 14.07.2022
414 Clouds 27 1019 86 10000 1.34 165 08:21 14.07.2022
415 Clouds 28 1019 77 10000 2.06 360 03:29 14.07.2022
416 Clouds 30 1018 70 10000 0.45 299 00:54 14.07.2022
417 Clouds 30 1019 67 10000 5.14 300 23:38 13.07.2022
418 Clouds 32 1018 66 10000 6.17 150 22:26 13.07.2022
419 Clouds 33 1018 66 10000 7.2 140 21:30 13.07.2022
420 Clouds 34 1019 65 10000 6.17 120 20:26 13.07.2022
421 Clouds 33 1019 69 10000 2.68 126 17:56 13.07.2022
422 Clouds 33 1019 72 10000 2.24 128 16:59 13.07.2022
423 Clouds 32 1019 73 10000 4.12 130 15:59 13.07.2022
424 Clouds 29 1018 82 10000 1.54 150 13:45 13.07.2022
425 Clouds 28 1018 85 10000 2.06 90 11:24 13.07.2022
426 Clouds 28 1017 84 10000 2.06 100 10:40 13.07.2022
427 Clouds 28 1018 85 10000 3.09 110 09:28 13.07.2022
428 Clouds 28 1018 84 10000 2.06 110 08:21 13.07.2022
429 Clouds 29 1018 79 10000 4.12 130 04:36 13.07.2022
430 Clouds 32 1016 69 10000 4.63 130 00:47 13.07.2022
431 Clouds 33 1016 64 10000 5.81 120 22:46 12.07.2022
432 Clouds 33 1016 64 10000 5.36 150 21:46 12.07.2022
433 Clear 34 1016 65 10000 3.13 129 20:53 12.07.2022
434 Clouds 33 1017 64 10000 5.36 130 19:48 12.07.2022
435 Clouds 33 1017 64 10000 3.6 150 18:43 12.07.2022
436 Clouds 31 1017 73 10000 4.63 160 16:36 12.07.2022
437 Clouds 29 1016 81 10000 4.12 180 14:32 12.07.2022
438 Clouds 29 1016 81 10000 4.12 180 14:32 12.07.2022
439 Clouds 28 1016 85 10000 1.54 120 13:43 12.07.2022
440 Clouds 27 1015 89 10000 0.45 3 11:54 12.07.2022
441 Clouds 27 1015 83 10000 0 0 10:27 12.07.2022
442 Clouds 27 1015 86 10000 1.66 207 08:58 12.07.2022
443 Clouds 27 1016 82 10000 0 0 07:48 12.07.2022
444 Clouds 27 1016 80 10000 0 0 05:47 12.07.2022
445 Clouds 28 1016 79 10000 0 0 05:29 12.07.2022
446 Clouds 31 1014 70 10000 5.36 160 01:31 12.07.2022
447 Clouds 33 1014 62 10000 7.2 140 22:48 11.07.2022
448 Clouds 34 1014 60 10000 6.26 160 21:34 11.07.2022
449 Clouds 33 1015 62 10000 6.26 120 20:33 11.07.2022
450 Clouds 33 1015 60 10000 5.36 110 19:27 11.07.2022
451 Clouds 33 1015 63 10000 3.6 210 18:30 11.07.2022
452 Clouds 31 1016 69 10000 4.12 180 16:34 11.07.2022
453 Clouds 30 1015 72 10000 4.12 190 15:33 11.07.2022
454 Clouds 27 1015 83 10000 0.45 204 13:27 11.07.2022
455 Clouds 27 1015 84 10000 2.24 180 11:24 11.07.2022
456 Clouds 27 1015 84 10000 2.57 160 10:18 11.07.2022
457 Clear 27 1015 84 10000 2.24 200 09:40 11.07.2022
458 Clouds 27 1015 83 10000 2.24 190 08:33 11.07.2022
459 Clouds 30 1015 72 10000 1.34 221 02:59 11.07.2022
460 Clouds 31 1015 64 10000 3.13 245 00:18 11.07.2022
461 Clouds 32 1015 67 10000 3.58 163 22:52 10.07.2022
462 Clouds 33 1016 67 10000 3.13 159 21:39 10.07.2022
463 Clouds 33 1016 65 10000 3.13 0 20:41 10.07.2022
464 Thunderstorm 33 1017 65 10000 7.2 210 19:48 10.07.2022
465 Clouds 32 1017 67 10000 4.12 170 18:43 10.07.2022
466 Clouds 32 1018 69 10000 4.12 160 17:36 10.07.2022
467 Clouds 31 1018 73 10000 4.63 190 16:45 10.07.2022
468 Clouds 29 1018 79 10000 3.6 180 15:25 10.07.2022
469 Clouds 28 1017 82 10000 2.24 200 14:21 10.07.2022
470 Clouds 27 1017 86 10000 1.54 160 12:27 10.07.2022
471 Clear 28 1017 84 10000 1.79 166 09:58 10.07.2022
472 Clouds 28 1017 82 10000 2.57 190 08:44 10.07.2022
473 Clouds 28 1018 81 10000 3.13 190 07:30 10.07.2022
474 Clouds 30 1017 73 10000 6.17 150 01:33 10.07.2022
475 Clouds 33 1018 67 10000 7.2 150 22:43 09.07.2022
476 Clouds 33 1018 66 10000 7.2 150 22:24 09.07.2022
477 Clouds 33 1019 64 10000 6.71 140 20:46 09.07.2022
478 Clouds 32 1020 68 10000 4.63 150 18:38 09.07.2022
479 Clouds 32 1020 68 10000 4.63 170 17:45 09.07.2022
480 Clouds 31 1020 71 10000 6.69 150 16:44 09.07.2022
481 Clouds 30 1019 75 10000 5.36 150 15:41 09.07.2022
482 Clouds 29 1019 81 10000 3.13 134 14:36 09.07.2022
483 Clouds 28 1019 84 10000 3.13 130 13:50 09.07.2022
484 Clouds 27 1018 85 10000 2.06 130 12:47 09.07.2022
485 Clouds 27 1018 86 10000 2.06 180 11:31 09.07.2022
486 Clouds 27 1018 86 10000 1.54 130 10:22 09.07.2022
487 Clouds 27 1019 85 10000 3.13 139 07:53 09.07.2022
488 Clouds 28 1020 83 10000 3.13 90 05:24 09.07.2022
489 Clouds 29 1018 77 10000 5.36 110 02:34 09.07.2022
490 Clouds 32 1018 70 10000 2.68 136 22:59 08.07.2022
491 Clouds 32 1018 69 10000 1.79 119 21:59 08.07.2022
492 Clouds 32 1018 67 10000 6.69 130 20:42 08.07.2022
493 Clouds 33 1018 66 10000 6.69 130 20:23 08.07.2022
494 Clouds 32 1019 69 10000 6.26 140 18:29 08.07.2022
495 Clouds 31 1019 74 10000 5.81 130 17:21 08.07.2022
496 Clouds 31 1019 74 10000 5.81 130 17:21 08.07.2022
497 Clouds 29 1018 80 10000 0.89 105 14:54 08.07.2022
498 Clouds 28 1017 83 10000 4.63 150 13:45 08.07.2022
499 Clouds 27 1017 86 10000 1.34 100 11:59 08.07.2022
500 Clouds 28 1017 78 10000 3.6 100 10:37 08.07.2022
501 Clouds 27 1017 78 10000 3.13 110 08:44 08.07.2022
502 Clouds 28 1018 77 10000 4.12 120 06:50 08.07.2022
503 Clouds 29 1016 72 10000 6.71 110 01:49 08.07.2022
504 Clouds 32 1016 65 10000 6.26 110 23:30 07.07.2022
505 Clouds 32 1017 63 10000 5.66 100 22:38 07.07.2022
506 Clouds 32 1017 64 10000 5.66 110 20:40 07.07.2022
507 Clouds 32 1018 65 10000 5.81 130 18:23 07.07.2022
508 Clouds 31 1017 67 10000 4.12 140 17:19 07.07.2022
509 Clouds 29 1018 78 10000 3.09 140 15:18 07.07.2022
510 Clouds 26 1017 90 10000 0.45 108 13:25 07.07.2022
511 Clouds 26 1017 86 10000 3.6 120 12:39 07.07.2022
512 Clouds 26 1016 86 10000 3.6 120 12:19 07.07.2022
513 Clouds 27 1017 87 10000 1.54 30 11:29 07.07.2022
514 Clouds 26 1016 87 10000 1.54 350 10:43 07.07.2022
515 Clouds 27 1016 86 10000 1.54 350 10:25 07.07.2022
516 Clouds 27 1017 84 10000 0.89 142 07:40 07.07.2022
517 Clouds 28 1017 81 10000 1.34 144 04:18 07.07.2022
518 Clouds 31 1016 74 10000 2.24 133 23:37 06.07.2022
519 Clouds 32 1016 72 10000 1.79 123 23:19 06.07.2022
520 Clouds 32 1017 69 10000 5.81 120 22:56 06.07.2022
521 Clouds 32 1017 68 10000 5.81 120 22:38 06.07.2022
522 Clouds 33 1017 68 10000 6.17 140 21:27 06.07.2022
523 Clouds 32 1018 70 10000 6.26 140 19:38 06.07.2022
524 Clouds 31 1018 76 10000 5.66 130 18:21 06.07.2022
525 Clouds 31 1017 74 10000 6.17 140 16:19 06.07.2022
526 Clouds 29 1017 83 10000 1.34 0 14:55 06.07.2022
527 Clouds 27 1016 86 10000 1.79 131 12:40 06.07.2022
528 Clouds 27 1016 85 10000 1.54 140 11:49 06.07.2022
529 Clouds 27 1016 85 10000 2.24 130 10:18 06.07.2022
530 Clouds 27 1017 86 10000 2.24 140 07:47 06.07.2022
531 Clouds 27 1017 87 10000 2.24 140 07:23 06.07.2022
532 Clouds 28 1017 86 10000 3.13 170 05:28 06.07.2022
533 Clouds 31 1016 73 10000 5.81 90 22:48 05.07.2022
534 Clouds 31 1016 74 10000 2.24 86 21:53 05.07.2022
535 Clouds 32 1018 68 10000 5.36 100 20:39 05.07.2022
536 Clouds 32 1018 72 10000 4.63 110 19:43 05.07.2022
537 Clouds 32 1017 73 10000 4.63 60 19:22 05.07.2022
538 Clouds 31 1018 73 10000 5.36 60 17:48 05.07.2022
539 Clouds 31 1018 73 10000 1.79 83 16:55 05.07.2022
540 Clouds 30 1018 77 10000 5.36 90 15:31 05.07.2022
541 Clouds 29 1018 82 10000 3.13 70 14:28 05.07.2022
542 Clouds 27 1017 85 10000 4.12 90 12:47 05.07.2022
543 Clouds 27 1017 84 10000 3.13 90 11:49 05.07.2022
544 Clouds 28 1017 83 10000 3.13 90 10:40 05.07.2022
545 Clouds 28 1017 83 10000 3.6 100 09:23 05.07.2022
546 Clouds 28 1018 82 10000 4.12 90 07:47 05.07.2022
547 Clouds 28 1019 81 10000 4.12 90 04:51 05.07.2022
548 Clouds 29 1019 80 10000 4.12 90 04:23 05.07.2022
549 Clouds 31 1017 69 10000 6.71 90 00:26 05.07.2022
550 Clouds 32 1017 67 10000 6.71 100 23:31 04.07.2022
551 Clouds 32 1018 68 10000 7.72 80 22:27 04.07.2022
552 Clouds 32 1018 69 10000 7.2 110 21:41 04.07.2022
553 Clear 32 1019 70 10000 2.68 74 20:53 04.07.2022
554 Clouds 32 1019 67 10000 5.81 80 20:33 04.07.2022
555 Clouds 33 1019 68 10000 2.68 87 19:54 04.07.2022
556 Clouds 32 1019 65 10000 4.63 90 19:35 04.07.2022
557 Clouds 32 1020 69 10000 2.68 95 17:58 04.07.2022
558 Clouds 30 1019 75 10000 3.6 110 15:50 04.07.2022
559 Clouds 29 1019 75 10000 3.6 110 15:31 04.07.2022
560 Clouds 27 1018 84 10000 3.13 90 13:29 04.07.2022
561 Clouds 27 1018 83 10000 2.24 100 12:21 04.07.2022
562 Clouds 27 1018 80 10000 4.12 90 10:34 04.07.2022
563 Clouds 28 1018 80 10000 2.68 100 09:41 04.07.2022
564 Clouds 28 1019 78 10000 5.81 110 07:33 04.07.2022
565 Clouds 29 1019 75 10000 5.14 100 03:36 04.07.2022
566 Clouds 31 1018 69 10000 6.26 100 00:36 04.07.2022
567 Clouds 32 1019 66 10000 1.79 92 22:59 03.07.2022
568 Clouds 32 1018 65 10000 2.24 90 20:58 03.07.2022
569 Clouds 32 1019 63 10000 5.36 90 20:26 03.07.2022
570 Clouds 32 1019 64 10000 4.63 140 19:27 03.07.2022
571 Clouds 32 1020 65 10000 5.36 110 18:43 03.07.2022
572 Clouds 31 1019 66 10000 6.26 100 17:43 03.07.2022
573 Clear 30 1019 73 10000 3.6 170 15:51 03.07.2022
574 Clouds 29 1019 78 10000 0.45 161 14:59 03.07.2022
575 Clouds 28 1019 78 10000 8.23 130 14:18 03.07.2022
576 Clouds 28 1018 79 10000 2.57 130 13:48 03.07.2022
577 Clouds 28 1018 78 10000 4.12 120 12:33 03.07.2022
578 Clouds 28 1018 78 10000 3.6 120 11:28 03.07.2022
579 Clouds 28 1017 79 10000 3.6 130 10:38 03.07.2022
580 Clouds 28 1017 78 10000 5.81 110 09:31 03.07.2022
581 Clouds 28 1018 78 10000 4.63 100 07:35 03.07.2022
582 Clouds 29 1017 76 10000 5.81 110 02:49 03.07.2022
583 Clouds 31 1017 66 10000 4.63 130 00:21 03.07.2022
584 Clouds 32 1017 66 10000 5.81 150 22:33 02.07.2022
585 Clouds 32 1017 67 10000 2.68 153 20:58 02.07.2022
586 Clouds 32 1018 64 10000 6.17 130 19:52 02.07.2022
587 Clouds 32 1018 65 10000 6.17 130 19:20 02.07.2022
588 Clouds 32 1018 68 10000 6.17 140 17:41 02.07.2022
589 Clouds 31 1018 71 10000 2.68 146 16:53 02.07.2022
590 Clouds 29 1017 75 10000 5.36 130 14:31 02.07.2022
591 Clouds 27 1017 81 10000 4.12 180 12:21 02.07.2022
592 Clouds 28 1016 80 10000 4.12 110 11:26 02.07.2022
593 Clouds 28 1016 79 10000 4.12 110 10:39 02.07.2022
594 Clouds 28 1016 81 10000 4.63 110 09:18 02.07.2022
595 Clouds 28 1017 82 10000 5.14 140 08:20 02.07.2022
596 Clouds 28 1017 81 10000 5.14 130 07:27 02.07.2022
597 Clouds 29 1017 77 10000 1.34 88 01:53 02.07.2022
598 Clouds 31 1017 71 10000 2.24 99 23:56 01.07.2022
599 Clouds 32 1018 64 10000 5.81 110 22:41 01.07.2022
600 Clouds 32 1018 65 10000 5.36 120 21:48 01.07.2022
601 Clouds 32 1018 66 10000 5.36 120 21:28 01.07.2022
602 Clouds 32 1018 68 10000 6.69 130 20:40 01.07.2022
603 Clouds 31 1018 73 10000 5.66 100 19:46 01.07.2022
604 Clouds 31 1019 69 10000 2.68 86 17:53 01.07.2022
605 Clouds 31 1019 71 10000 7.2 120 16:22 01.07.2022
606 Clouds 29 1018 79 10000 1.34 0 13:55 01.07.2022
607 Clouds 28 1018 81 10000 4.63 100 12:41 01.07.2022
608 Clouds 27 1018 84 10000 4.12 140 10:20 01.07.2022
609 Clouds 28 1018 83 10000 4.12 120 09:47 01.07.2022
610 Clouds 28 1019 81 10000 4.63 120 05:25 01.07.2022
611 Clouds 30 1019 71 10000 4.63 130 00:42 01.07.2022
612 Clouds 31 1019 69 10000 7.72 110 23:22 30.06.2022
613 Clouds 31 1019 68 10000 7.72 110 22:44 30.06.2022
614 Clouds 32 1018 68 10000 7.72 110 22:25 30.06.2022
615 Clouds 32 1019 68 10000 7.72 100 21:45 30.06.2022
616 Clouds 32 1019 69 10000 7.72 110 20:30 30.06.2022
617 Clouds 32 1019 69 10000 6.17 120 19:55 30.06.2022
618 Clouds 32 1020 68 10000 5.66 110 19:26 30.06.2022
619 Clouds 32 1020 66 10000 5.66 140 18:42 30.06.2022
620 Clouds 32 1020 69 10000 5.81 130 17:49 30.06.2022
621 Clear 31 1020 72 10000 1.79 138 16:55 30.06.2022
622 Clouds 30 1020 73 10000 5.36 120 15:44 30.06.2022
623 Clouds 27 1020 86 10000 1.54 120 13:49 30.06.2022
624 Clouds 26 1020 87 10000 1.54 70 12:36 30.06.2022
625 Clouds 27 1019 88 10000 0.45 107 11:59 30.06.2022
626 Clouds 27 1019 87 10000 0.89 126 09:55 30.06.2022
627 Clouds 27 1019 86 10000 1.54 130 09:37 30.06.2022
628 Clouds 27 1021 85 10000 2.57 120 08:19 30.06.2022
629 Clouds 27 1021 85 10000 2.57 120 08:19 30.06.2022
630 Clouds 27 1021 83 10000 3.6 130 07:40 30.06.2022
631 Thunderstorm 28 1020 78 10000 0.45 158 02:49 30.06.2022
632 Clouds 31 1020 69 10000 3.09 140 23:38 29.06.2022
633 Thunderstorm 31 1019 66 10000 3.6 110 22:41 29.06.2022
634 Thunderstorm 32 1020 67 10000 3.13 150 21:59 29.06.2022
635 Thunderstorm 31 1020 67 10000 6.17 250 20:35 29.06.2022
636 Thunderstorm 32 1020 64 10000 5.14 120 19:56 29.06.2022
637 Clouds 32 1020 69 10000 1.79 134 17:55 29.06.2022
638 Clouds 31 1020 69 10000 2.24 135 16:55 29.06.2022
639 Clouds 29 1020 75 10000 2.24 90 15:44 29.06.2022
640 Clouds 26 1019 85 10000 0 0 13:43 29.06.2022
641 Clouds 26 1019 84 10000 0 0 12:36 29.06.2022
642 Clouds 26 1019 84 10000 0 0 09:50 29.06.2022
643 Clouds 26 1019 83 10000 0.45 126 09:26 29.06.2022
644 Clouds 27 1019 80 10000 2.68 120 06:29 29.06.2022
645 Clouds 28 1019 74 10000 3.13 130 04:42 29.06.2022
646 Clear 30 1018 70 10000 2.24 89 00:53 29.06.2022
647 Clouds 30 1018 68 10000 4.12 100 00:33 29.06.2022
648 Clouds 31 1018 65 10000 6.71 100 22:50 28.06.2022
649 Clear 32 1018 66 10000 2.24 96 21:59 28.06.2022
650 Clouds 32 1018 63 10000 6.26 100 21:40 28.06.2022
651 Clouds 32 1018 63 10000 6.26 100 21:22 28.06.2022
652 Clouds 32 1020 64 10000 2.24 103 19:54 28.06.2022
653 Clouds 32 1019 62 10000 5.81 110 19:30 28.06.2022
654 Clouds 31 1019 64 10000 4.63 120 18:40 28.06.2022
655 Clouds 31 1019 67 10000 4.63 120 17:25 28.06.2022
656 Clouds 30 1018 73 10000 0.89 89 15:55 28.06.2022
657 Clouds 28 1018 78 10000 3.13 130 14:52 28.06.2022
658 Clouds 28 1017 80 10000 3.13 130 14:19 28.06.2022
659 Clouds 27 1017 82 10000 3.6 110 13:45 28.06.2022
660 Clouds 26 1016 83 10000 1.54 80 12:30 28.06.2022
661 Clouds 27 1016 82 10000 0.89 122 10:40 28.06.2022
662 Clouds 27 1016 82 10000 1.34 132 08:56 28.06.2022
663 Clouds 27 1016 81 10000 3.09 130 08:37 28.06.2022
664 Clouds 27 1017 81 10000 2.24 130 07:20 28.06.2022
665 Clear 28 1017 78 10000 1.34 130 03:55 28.06.2022
666 Clouds 31 1015 65 10000 7.2 130 23:51 27.06.2022
667 Clouds 31 1015 66 10000 7.2 130 23:27 27.06.2022
668 Thunderstorm 32 1015 66 10000 7.72 130 22:25 27.06.2022
669 Clouds 32 1016 64 10000 4.63 130 21:29 27.06.2022
670 Clouds 32 1016 64 10000 4.12 90 20:33 27.06.2022
671 Clouds 32 1016 66 10000 2.68 152 18:51 27.06.2022
672 Clouds 32 1017 65 10000 3.13 0 17:44 27.06.2022
673 Clouds 30 1017 71 10000 1.54 120 15:50 27.06.2022
674 Clouds 28 1016 78 10000 2.24 120 14:25 27.06.2022
675 Clouds 27 1016 83 10000 0.45 96 12:58 27.06.2022
676 Clouds 26 1016 83 10000 0.45 104 11:40 27.06.2022
677 Clear 26 1015 87 10000 2.08 126 09:53 27.06.2022
678 Clouds 26 1016 82 10000 0 0 08:43 27.06.2022
679 Clouds 26 1017 81 10000 1.54 340 07:52 27.06.2022
680 Clouds 27 1017 79 10000 1.54 270 06:28 27.06.2022
681 Clouds 29 1015 73 10000 2.06 300 01:25 27.06.2022
682 Clouds 29 1015 73 10000 4.12 270 23:27 26.06.2022
683 Clouds 30 1016 71 10000 5.36 140 21:40 26.06.2022
684 Clouds 32 1016 66 10000 6.26 130 20:33 26.06.2022
685 Clouds 32 1016 62 10000 4.63 110 18:38 26.06.2022
686 Clouds 32 1017 63 10000 4.63 110 18:20 26.06.2022
687 Clouds 29 1016 76 10000 2.24 0 15:37 26.06.2022
688 Clouds 27 1016 87 10000 0.45 177 14:23 26.06.2022
689 Clouds 25 1016 94 10000 0 0 13:26 26.06.2022
690 Clouds 25 1015 93 10000 0 0 12:37 26.06.2022
691 Clouds 25 1015 92 10000 1.43 141 10:53 26.06.2022
692 Clouds 25 1015 92 10000 0 0 10:22 26.06.2022
693 Clouds 25 1016 92 10000 0 0 08:36 26.06.2022
694 Clouds 26 1017 90 10000 0 0 06:50 26.06.2022
695 Clouds 26 1015 86 10000 2.06 220 00:38 26.06.2022
696 Clouds 27 1015 85 10000 2.06 220 00:19 26.06.2022
697 Clouds 27 1016 84 10000 3.09 240 23:31 25.06.2022
698 Mist 26 1016 81 1207 5.66 280 22:48 25.06.2022
699 Clouds 27 1016 80 8047 5.66 290 22:25 25.06.2022
700 Thunderstorm 31 1015 73 10000 6.17 160 21:21 25.06.2022
701 Clouds 31 1015 70 10000 6.69 150 20:48 25.06.2022
702 Thunderstorm 32 1016 65 10000 5.66 150 20:25 25.06.2022
703 Clouds 32 1016 67 10000 3.6 290 18:24 25.06.2022
704 Clouds 32 1016 69 10000 3.13 0 17:27 25.06.2022
705 Clouds 30 1016 71 10000 2.68 300 16:28 25.06.2022
706 Clouds 28 1016 82 10000 0.89 308 14:41 25.06.2022
707 Clouds 26 1015 88 10000 0 0 12:51 25.06.2022
708 Clouds 26 1015 88 10000 0 0 12:31 25.06.2022
709 Clouds 27 1014 81 10000 1.54 230 09:35 25.06.2022
710 Clouds 26 1014 83 10000 0.43 267 08:54 25.06.2022
711 Clouds 27 1014 80 10000 1.54 220 08:20 25.06.2022
712 Clouds 27 1015 78 10000 2.06 290 06:36 25.06.2022
713 Clear 31 1013 68 10000 5.36 150 00:50 25.06.2022
714 Clouds 32 1013 67 8979 1.79 141 23:58 24.06.2022
715 Thunderstorm 32 1013 67 10000 7.2 130 22:29 24.06.2022
716 Clouds 33 1014 65 10000 5.36 140 21:28 24.06.2022
717 Clouds 33 1015 64 10000 5.36 130 20:24 24.06.2022
718 Clouds 33 1015 61 10000 2.24 147 19:37 24.06.2022
719 Clouds 33 1015 61 10000 1.79 143 19:18 24.06.2022
720 Clouds 32 1015 61 10000 2.68 167 18:44 24.06.2022
721 Clouds 32 1015 61 10000 3.13 0 18:24 24.06.2022
722 Clouds 31 1015 65 10000 3.13 300 16:47 24.06.2022
723 Clouds 28 1014 72 10000 2.68 220 14:50 24.06.2022
724 Clouds 28 1014 76 10000 2.68 220 14:23 24.06.2022
725 Clouds 26 1014 82 10000 0 0 13:41 24.06.2022
726 Clouds 25 1013 82 10000 1.54 230 11:41 24.06.2022
727 Clouds 26 1013 80 10000 3.13 200 10:39 24.06.2022
728 Clouds 26 1013 82 10000 3.09 210 09:42 24.06.2022
729 Clouds 26 1013 82 10000 0.89 223 08:54 24.06.2022
730 Clouds 26 1013 80 10000 4.12 200 08:19 24.06.2022
731 Clear 27 1014 77 10000 4.63 200 06:44 24.06.2022
732 Clear 27 1014 76 10000 4.63 200 06:25 24.06.2022
733 Clouds 27 1013 73 10000 4.63 170 04:46 24.06.2022
734 Clouds 31 1011 61 10000 3.6 120 23:32 23.06.2022
735 Clouds 31 1012 59 10000 5.14 140 22:43 23.06.2022
736 Clouds 31 1012 58 10000 5.14 120 21:22 23.06.2022
737 Clouds 31 1013 58 10000 5.14 110 20:37 23.06.2022
738 Clouds 32 1013 61 10000 2.24 142 19:54 23.06.2022
739 Clouds 31 1014 61 10000 3.13 150 18:27 23.06.2022
740 Clouds 30 1014 60 10000 2.68 150 17:34 23.06.2022
741 Clouds 29 1014 63 10000 1.54 240 16:29 23.06.2022
742 Clouds 28 1014 67 10000 1.54 0 15:26 23.06.2022
743 Clouds 27 1014 73 10000 2.57 360 14:34 23.06.2022
744 Clouds 24 1013 78 10000 2.06 360 11:41 23.06.2022
745 Clear 25 1014 76 10000 2.57 360 10:41 23.06.2022
746 Clouds 25 1013 72 10000 1.54 20 09:19 23.06.2022
747 Clouds 26 1015 70 10000 4.63 80 04:48 23.06.2022
748 Clouds 29 1015 63 10000 5.81 80 00:27 23.06.2022
749 Clouds 29 1015 62 10000 6.71 80 23:52 22.06.2022
750 Clouds 29 1014 61 10000 6.71 80 23:18 22.06.2022
751 Clouds 30 1015 55 10000 5.66 60 21:36 22.06.2022
752 Clouds 30 1016 53 10000 9.39 80 20:51 22.06.2022
753 Clouds 30 1016 53 10000 9.39 80 20:18 22.06.2022
754 Clouds 30 1017 56 10000 6.69 60 19:27 22.06.2022
755 Clouds 29 1017 59 10000 5.81 50 17:33 22.06.2022
756 Clouds 29 1017 62 10000 6.69 60 16:41 22.06.2022
757 Clouds 29 1017 62 10000 6.69 60 16:41 22.06.2022
758 Clouds 28 1017 66 10000 5.81 50 15:28 22.06.2022
759 Clouds 27 1017 69 10000 3.09 50 14:47 22.06.2022
760 Clouds 26 1016 75 10000 1.54 10 13:47 22.06.2022
761 Clouds 26 1016 77 10000 1.54 10 13:24 22.06.2022
762 Clouds 25 1016 77 10000 1.34 54 11:54 22.06.2022
763 Clouds 26 1015 76 10000 1.34 80 10:58 22.06.2022
764 Clouds 25 1016 77 10000 3.09 360 10:36 22.06.2022
765 Clouds 25 1017 79 10000 1.79 59 08:57 22.06.2022
766 Clouds 26 1018 78 10000 1.34 72 06:55 22.06.2022
767 Clouds 28 1018 74 10000 2.24 17 01:59 22.06.2022
768 Clouds 29 1018 67 10000 2.24 42 00:56 22.06.2022
769 Clouds 30 1019 58 10000 7.72 40 22:49 21.06.2022
770 Clouds 30 1020 67 10000 7.72 50 20:47 21.06.2022
771 Clouds 29 1020 74 10000 7.72 60 19:20 21.06.2022
772 Clouds 31 1020 67 10000 5.66 70 17:47 21.06.2022
773 Clouds 30 1020 72 10000 4.63 80 16:38 21.06.2022
774 Clouds 26 1020 90 10000 4.26 60 11:57 21.06.2022
775 Clouds 25 1018 87 10000 2.24 360 10:38 21.06.2022
776 Clouds 26 1018 85 10000 0.45 360 09:20 21.06.2022
777 Clouds 26 1019 83 10000 2.68 350 07:44 21.06.2022
778 Clouds 27 1020 83 10000 2.06 310 04:43 21.06.2022
779 Thunderstorm 29 1019 74 10000 4.63 90 00:21 21.06.2022
780 Clouds 31 1019 68 10000 5.14 110 22:21 20.06.2022
781 Thunderstorm 31 1019 70 10000 3.6 130 21:36 20.06.2022
782 Thunderstorm 31 1020 74 10000 2.57 140 20:28 20.06.2022
783 Thunderstorm 29 1020 76 10000 3.09 130 19:35 20.06.2022
784 Thunderstorm 31 1021 71 10000 5.14 150 18:25 20.06.2022
785 Clouds 31 1020 70 10000 2.06 290 17:45 20.06.2022
786 Clouds 31 1020 72 10000 2.24 70 16:26 20.06.2022
787 Clouds 29 1019 78 10000 1.54 350 15:20 20.06.2022
788 Clouds 25 1018 93 10000 0 0 12:18 20.06.2022
789 Clouds 26 1019 92 10000 1.98 223 09:57 20.06.2022
790 Clouds 26 1017 92 10000 2.91 207 08:54 20.06.2022
791 Clouds 26 1018 87 10000 1.54 170 07:51 20.06.2022
792 Clouds 27 1017 84 10000 0 0 05:18 20.06.2022
793 Thunderstorm 28 1016 80 10000 1.34 210 01:33 20.06.2022
794 Clouds 29 1016 76 10000 1.54 330 23:57 19.06.2022
795 Clouds 30 1015 73 6437 2.06 0 22:40 19.06.2022
796 Thunderstorm 32 1015 69 10000 7.2 170 21:45 19.06.2022
797 Thunderstorm 32 1015 66 10000 5.14 110 21:26 19.06.2022
798 Clouds 32 1015 64 10000 3.6 250 20:25 19.06.2022
799 Clouds 33 1016 63 10000 4.63 310 19:46 19.06.2022
800 Clear 32 1016 64 10000 3.6 300 18:41 19.06.2022
801 Clouds 32 1016 65 10000 3.13 230 17:48 19.06.2022
802 Clouds 31 1016 65 10000 3.13 230 17:21 19.06.2022
803 Clouds 31 1016 66 10000 1.79 149 16:34 19.06.2022
804 Clouds 30 1016 68 10000 0.45 304 15:38 19.06.2022
805 Clouds 29 1015 73 10000 0.45 25 14:55 19.06.2022
806 Clouds 26 1015 86 10000 0.45 12 13:58 19.06.2022
807 Clouds 26 1014 88 10000 2.52 235 12:56 19.06.2022
808 Clouds 26 1015 85 10000 3.39 211 10:54 19.06.2022
809 Clouds 26 1014 83 10000 2.06 280 09:40 19.06.2022
810 Clear 26 1014 83 10000 0.45 252 08:47 19.06.2022
811 Clouds 27 1013 81 10000 1.54 180 07:51 19.06.2022
812 Clouds 27 1016 78 10000 3.6 270 04:45 19.06.2022
813 Clouds 30 1013 74 10000 4.12 130 01:29 19.06.2022
814 Clouds 31 1013 71 10000 4.63 120 00:24 19.06.2022
815 Clouds 31 1012 69 10000 5.14 120 23:35 18.06.2022
816 Clouds 32 1013 67 10000 4.12 110 22:36 18.06.2022
817 Clouds 32 1013 67 10000 4.12 110 22:36 18.06.2022
818 Clouds 33 1013 67 10000 0.89 83 20:56 18.06.2022
819 Clouds 32 1014 66 10000 4.63 160 20:28 18.06.2022
820 Clouds 32 1014 66 10000 3.09 350 19:38 18.06.2022
821 Clouds 31 1015 67 10000 2.24 0 18:45 18.06.2022
822 Clouds 31 1014 67 10000 1.54 0 17:34 18.06.2022
823 Clouds 30 1014 70 10000 1.34 108 16:47 18.06.2022
824 Clouds 29 1014 74 10000 2.24 0 15:31 18.06.2022
825 Clouds 28 1014 78 10000 2.57 10 14:44 18.06.2022
826 Clouds 26 1013 85 10000 1.54 350 13:22 18.06.2022
827 Clear 26 1014 83 10000 1.54 330 11:39 18.06.2022
828 Clear 26 1013 83 10000 1.54 30 10:46 18.06.2022
829 Clouds 26 1014 81 10000 1.54 360 09:22 18.06.2022
830 Clouds 26 1014 80 10000 0 0 08:24 18.06.2022
831 Clouds 27 1014 78 10000 2.68 70 06:46 18.06.2022
832 Clouds 28 1014 76 10000 5.14 60 03:30 18.06.2022
833 Clouds 29 1014 72 10000 5.66 80 01:25 18.06.2022
834 Clouds 30 1014 70 10000 6.17 90 00:48 18.06.2022
835 Clouds 31 1014 69 10000 4.12 70 23:52 17.06.2022
836 Clouds 31 1014 69 10000 4.12 70 23:24 17.06.2022
837 Clouds 32 1015 67 10000 6.69 70 21:18 17.06.2022
838 Clear 32 1016 69 10000 3.13 96 19:59 17.06.2022
839 Clouds 31 1015 67 10000 5.14 60 18:49 17.06.2022
840 Clouds 31 1016 70 10000 4.63 70 17:44 17.06.2022
841 Clouds 29 1016 78 10000 3.6 40 16:43 17.06.2022
842 Clouds 29 1016 78 10000 3.6 40 16:43 17.06.2022
843 Clouds 28 1016 84 10000 2.06 230 15:49 17.06.2022
844 Clouds 26 1016 86 10000 2.06 230 15:22 17.06.2022
845 Rain 26 1016 70 10000 4.14 21 14:20 17.06.2022
846 Thunderstorm 26 1017 88 10000 2.57 270 13:46 17.06.2022
847 Thunderstorm 27 1017 88 10000 1.54 350 13:24 17.06.2022
848 Clouds 26 1016 91 10000 0.45 333 11:58 17.06.2022
849 Clouds 26 1016 89 10000 2.06 360 11:36 17.06.2022
850 Clouds 26 1016 89 10000 0 0 10:52 17.06.2022
851 Clouds 27 1017 85 10000 1.54 40 08:30 17.06.2022
852 Clouds 27 1017 84 10000 2.24 40 07:48 17.06.2022
853 Clouds 28 1018 82 10000 2.24 50 06:22 17.06.2022
854 Clouds 28 1016 78 10000 4.63 90 03:19 17.06.2022
855 Clear 30 1016 68 10000 4.12 100 00:42 17.06.2022
856 Clouds 31 1018 68 10000 5.81 110 22:45 16.06.2022
857 Clouds 31 1018 68 10000 5.81 110 22:26 16.06.2022
858 Clouds 32 1018 67 10000 7.2 80 21:19 16.06.2022
859 Clouds 32 1018 67 10000 7.2 110 20:50 16.06.2022
860 Clouds 32 1018 68 10000 2.24 88 19:58 16.06.2022
861 Clouds 32 1019 66 10000 4.12 150 18:44 16.06.2022
862 Clouds 32 1019 67 10000 2.68 120 17:44 16.06.2022
863 Clouds 31 1019 68 10000 2.68 120 17:20 16.06.2022
864 Clouds 30 1018 73 10000 3.13 110 15:44 16.06.2022
865 Clouds 30 1018 74 10000 3.13 110 15:20 16.06.2022
866 Clouds 28 1018 84 10000 1.54 90 13:49 16.06.2022
867 Clouds 27 1017 84 10000 2.24 40 12:47 16.06.2022
868 Clouds 27 1017 84 10000 2.24 40 12:20 16.06.2022
869 Clouds 27 1017 84 10000 2.24 40 11:21 16.06.2022
870 Clouds 27 1016 85 10000 2.24 100 10:35 16.06.2022
871 Clouds 27 1017 85 10000 2.68 90 09:37 16.06.2022
872 Clouds 27 1017 82 10000 3.13 120 08:50 16.06.2022
873 Clouds 27 1017 82 10000 3.13 120 08:50 16.06.2022
874 Clouds 27 1017 81 10000 3.13 100 07:38 16.06.2022
875 Clouds 28 1017 80 10000 3.13 120 05:48 16.06.2022
876 Clouds 28 1017 80 10000 4.12 100 03:44 16.06.2022
877 Clouds 29 1017 75 10000 6.26 110 01:52 16.06.2022
878 Clouds 29 1017 75 10000 6.26 110 01:52 16.06.2022
879 Clouds 30 1017 74 10000 6.26 110 01:22 16.06.2022
880 Clouds 31 1016 69 10000 1.79 73 23:58 15.06.2022
881 Clouds 31 1017 68 10000 1.79 80 22:53 15.06.2022
882 Clouds 32 1017 66 10000 5.81 90 21:34 15.06.2022
883 Clouds 32 1017 69 10000 2.24 89 20:58 15.06.2022
884 Clouds 32 1017 67 10000 5.14 90 20:36 15.06.2022
885 Clouds 32 1017 67 10000 6.17 70 19:52 15.06.2022
886 Clouds 32 1018 67 10000 5.81 80 18:30 15.06.2022
887 Clouds 31 1018 68 10000 3.13 10 17:43 15.06.2022
888 Clouds 31 1017 70 10000 2.06 360 16:23 15.06.2022
889 Clouds 29 1017 77 10000 2.06 10 14:57 15.06.2022
890 Clouds 27 1015 84 10000 2.06 350 13:22 15.06.2022
891 Clouds 27 1016 83 10000 2.68 130 12:40 15.06.2022
892 Clouds 27 1016 84 10000 2.24 140 11:25 15.06.2022
893 Clouds 27 1016 83 10000 0.45 108 10:22 15.06.2022
894 Clouds 27 1016 85 10000 0.45 126 08:59 15.06.2022
895 Clouds 27 1017 81 10000 2.24 130 07:36 15.06.2022
896 Clouds 28 1018 79 10000 3.13 90 05:36 15.06.2022
897 Clear 29 1018 79 10000 0.45 0 02:54 15.06.2022
898 Clouds 30 1017 73 10000 4.63 120 01:36 15.06.2022
899 Clouds 31 1016 71 10000 6.26 120 00:36 15.06.2022
900 Clouds 31 1016 69 10000 4.63 130 23:38 14.06.2022
901 Clouds 32 1017 69 10000 5.36 120 22:47 14.06.2022
902 Clouds 32 1017 68 10000 6.71 130 21:43 14.06.2022
903 Clouds 32 1018 67 10000 6.71 130 21:20 14.06.2022
904 Clouds 32 1018 67 10000 6.26 110 20:40 14.06.2022
905 Clouds 32 1018 69 10000 1.79 90 19:58 14.06.2022
906 Clouds 32 1018 70 10000 5.36 120 18:40 14.06.2022
907 Clouds 31 1019 75 10000 2.68 100 17:20 14.06.2022
908 Clouds 30 1019 77 10000 1.34 111 16:42 14.06.2022
909 Clouds 30 1019 77 10000 1.34 111 16:42 14.06.2022
910 Clouds 29 1019 82 10000 2.24 40 15:43 14.06.2022
911 Clouds 29 1019 82 10000 0.89 87 14:56 14.06.2022
912 Clouds 28 1018 86 10000 0.45 94 14:18 14.06.2022
913 Clouds 27 1018 90 10000 1.54 30 13:24 14.06.2022
914 Clouds 27 1017 89 10000 1.54 30 12:19 14.06.2022
915 Clouds 26 1016 91 10000 1.55 101 10:55 14.06.2022
916 Clouds 27 1017 90 10000 2.06 30 10:29 14.06.2022
917 Clouds 27 1017 89 10000 1.54 40 09:26 14.06.2022
918 Clouds 27 1018 86 10000 1.54 120 08:40 14.06.2022
919 Clouds 28 1019 86 10000 0.89 155 06:53 14.06.2022
920 Clouds 28 1019 84 10000 3.09 130 04:23 14.06.2022
921 Clouds 30 1018 76 10000 5.66 130 01:38 14.06.2022
922 Clouds 31 1018 73 10000 5.14 120 00:24 14.06.2022
923 Clouds 32 1018 70 10000 1.79 103 22:58 13.06.2022
924 Thunderstorm 32 1018 66 10000 4.63 110 22:23 13.06.2022
925 Thunderstorm 32 1019 66 10000 3.13 350 21:41 13.06.2022
926 Clouds 32 1019 70 10000 5.66 100 19:59 13.06.2022
927 Thunderstorm 32 1019 70 10000 4.63 130 19:18 13.06.2022
928 Clouds 31 1019 73 10000 1.54 0 17:56 13.06.2022
929 Clouds 31 1019 72 10000 1.54 0 17:25 13.06.2022
930 Clouds 31 1019 74 10000 2.06 140 16:31 13.06.2022
931 Clouds 29 1019 82 10000 0.89 120 14:52 13.06.2022
932 Clouds 29 1019 83 10000 0 0 14:32 13.06.2022
933 Clouds 26 1019 91 10000 0 0 13:36 13.06.2022
934 Clouds 26 1018 91 10000 0 0 12:23 13.06.2022
935 Clouds 26 1019 89 10000 2.2 161 10:58 13.06.2022
936 Clouds 26 1018 87 10000 1.54 220 10:26 13.06.2022
937 Clouds 27 1018 88 10000 2.57 169 08:59 13.06.2022
938 Clouds 27 1019 86 10000 0.45 179 06:53 13.06.2022
939 Clouds 27 1018 81 10000 2.57 190 05:36 13.06.2022
940 Clouds 29 1017 77 10000 3.13 150 02:47 13.06.2022
941 Clouds 30 1017 74 10000 5.36 130 01:36 13.06.2022
942 Clouds 31 1016 70 10000 4.63 140 23:50 12.06.2022
943 Clouds 31 1016 72 10000 2.24 0 22:44 12.06.2022
944 Clouds 31 1017 73 10000 1.34 149 22:22 12.06.2022
945 Thunderstorm 32 1018 70 10000 4.63 80 20:58 12.06.2022
946 Clouds 32 1017 66 10000 3.13 0 20:19 12.06.2022
947 Clouds 32 1017 64 10000 4.63 190 19:30 12.06.2022
948 Clouds 32 1018 68 10000 4.12 200 17:47 12.06.2022
949 Clouds 30 1018 75 10000 0.89 96 15:58 12.06.2022
950 Clouds 29 1018 80 10000 1.34 124 14:57 12.06.2022
951 Clouds 27 1017 86 10000 1.54 0 14:21 12.06.2022
952 Clouds 26 1017 92 10000 0.89 127 13:51 12.06.2022
953 Clouds 25 1016 88 10000 1.54 130 12:37 12.06.2022
954 Clouds 25 1016 87 10000 1.54 190 11:37 12.06.2022
955 Clouds 25 1016 87 10000 2.06 180 10:22 12.06.2022
956 Clouds 25 1016 90 10000 2.32 187 08:55 12.06.2022
957 Clouds 25 1016 92 10000 0 0 08:36 12.06.2022
958 Clouds 26 1017 87 10000 0 0 07:32 12.06.2022
959 Clouds 26 1017 84 10000 0 0 04:45 12.06.2022
960 Clouds 27 1016 81 10000 4.95 198 02:53 12.06.2022
961 Clouds 28 1014 78 10000 1.54 280 01:39 12.06.2022
962 Clouds 28 1014 79 10000 5.81 181 00:58 12.06.2022
963 Clouds 28 1014 76 10000 1.54 0 00:20 12.06.2022
964 Clouds 28 1014 76 10000 1.54 0 00:20 12.06.2022
965 Clouds 29 1013 72 10000 0.45 279 23:40 11.06.2022
966 Clouds 28 1015 73 10000 3.6 270 22:38 11.06.2022
967 Thunderstorm 28 1015 74 10000 5.14 190 21:52 11.06.2022
968 Thunderstorm 29 1015 72 10000 4.12 170 20:36 11.06.2022
969 Clouds 31 1015 67 10000 5.66 190 19:46 11.06.2022
970 Clouds 30 1015 72 10000 6.17 130 19:25 11.06.2022
971 Clouds 30 1016 71 10000 2.57 220 18:33 11.06.2022
972 Clouds 30 1016 71 10000 3.6 220 17:51 11.06.2022
973 Clouds 30 1016 72 10000 3.6 220 17:26 11.06.2022
974 Clouds 30 1016 74 10000 2.24 165 16:55 11.06.2022
975 Clouds 29 1016 75 10000 3.13 170 16:27 11.06.2022
976 Clouds 28 1016 78 10000 2.24 160 15:31 11.06.2022
977 Clouds 24 1016 90 10000 2.41 216 13:53 11.06.2022
978 Clouds 23 1015 91 10000 1.54 110 12:51 11.06.2022
979 Clouds 23 1014 91 10000 2.06 230 10:48 11.06.2022
980 Clouds 24 1014 88 10000 1.54 180 09:51 11.06.2022
981 Clouds 24 1014 88 10000 1.54 180 09:18 11.06.2022
982 Clouds 23 1016 89 10000 2.68 220 07:41 11.06.2022
983 Clouds 24 1016 88 10000 3.09 250 06:30 11.06.2022
984 Clouds 24 1017 84 10000 4.12 310 04:30 11.06.2022
985 Clouds 25 1015 89 5584 6.75 20 01:53 11.06.2022
986 Clouds 25 1015 83 10000 4.12 240 01:32 11.06.2022
987 Clouds 27 1014 78 10000 5.14 190 23:49 10.06.2022
988 Rain 27 1015 77 10000 6.17 190 22:32 10.06.2022
989 Rain 27 1015 81 10000 5.14 200 21:52 10.06.2022
990 Thunderstorm 26 1015 78 10000 2.57 160 20:41 10.06.2022
991 Thunderstorm 26 1015 78 10000 2.57 160 20:22 10.06.2022
992 Thunderstorm 30 1015 61 10000 4.63 150 19:20 10.06.2022
993 Thunderstorm 30 1015 70 10000 3.13 210 18:56 10.06.2022
994 Clouds 31 1015 74 10000 2.24 128 17:59 10.06.2022
995 Clouds 30 1016 74 10000 3.6 250 17:35 10.06.2022
996 Clouds 29 1016 75 10000 3.09 270 16:50 10.06.2022
997 Clouds 28 1016 83 10000 4.12 260 15:44 10.06.2022
998 Clouds 26 1016 91 10000 0.89 260 14:57 10.06.2022
999 Clouds 24 1016 96 10000 0 0 13:36 10.06.2022
1000 Clouds 24 1015 94 10000 0 0 12:21 10.06.2022
1001 Clouds 23 1014 95 10000 2.06 200 11:30 10.06.2022
1002 Clouds 23 1014 94 10000 2.24 230 10:36 10.06.2022
1003 Clouds 24 1015 94 10000 2.24 200 09:26 10.06.2022
1004 Clouds 23 1014 99 10000 2.75 237 07:57 10.06.2022
1005 Clouds 24 1016 92 10000 0 0 06:49 10.06.2022
1006 Clouds 24 1016 92 10000 0 0 06:30 10.06.2022
1007 Clouds 24 1017 92 10000 0 0 05:34 10.06.2022
1008 Clouds 24 1015 91 10000 2.24 180 02:50 10.06.2022
1009 Clouds 23 1015 94 10000 2.68 220 01:37 10.06.2022
1010 Rain 23 1016 96 5107 0.89 309 23:58 09.06.2022
1011 Rain 23 1017 95 10000 3.6 280 22:43 09.06.2022
1012 Thunderstorm 24 1018 91 10000 2.57 330 21:44 09.06.2022
1013 Thunderstorm 24 1018 88 10000 2.57 330 21:25 09.06.2022
1014 Thunderstorm 24 1017 88 10000 3.6 130 20:40 09.06.2022
1015 Thunderstorm 30 1016 72 10000 8.75 120 19:51 09.06.2022
1016 Clouds 32 1017 66 10000 2.68 0 18:41 09.06.2022
1017 Clouds 32 1017 70 10000 0.45 134 17:55 09.06.2022
1018 Clouds 30 1017 77 10000 2.24 0 16:28 09.06.2022
1019 Clouds 29 1017 82 10000 2.24 230 15:40 09.06.2022
1020 Clouds 27 1017 92 10000 1.54 210 14:33 09.06.2022
1021 Clouds 25 1016 96 10000 1.54 220 13:44 09.06.2022
1022 Rain 24 1017 95 10000 1.54 220 13:20 09.06.2022
1023 Clouds 24 1016 90 10000 1.54 170 11:43 09.06.2022
1024 Clouds 24 1016 89 10000 1.54 250 10:34 09.06.2022
1025 Clouds 24 1016 90 10000 0 0 09:38 09.06.2022
1026 Clouds 24 1016 90 10000 0 0 09:20 09.06.2022
1027 Clouds 24 1017 87 10000 0 0 07:29 09.06.2022
1028 Thunderstorm 25 1017 83 10000 2.06 140 04:47 09.06.2022
1029 Thunderstorm 29 1015 75 10000 4.63 280 00:36 09.06.2022
1030 Thunderstorm 30 1015 74 10000 4.63 190 23:23 08.06.2022
1031 Clouds 31 1015 71 10000 5.14 180 22:44 08.06.2022
1032 Clouds 31 1015 68 10000 5.14 180 22:24 08.06.2022
1033 Clear 31 1015 69 10000 4.63 160 21:45 08.06.2022
1034 Clouds 30 1017 75 10000 5.81 140 20:33 08.06.2022
1035 Clouds 31 1017 73 10000 5.81 180 19:46 08.06.2022
1036 Clouds 31 1017 71 10000 4.63 140 18:49 08.06.2022
1037 Clouds 30 1017 71 10000 4.63 200 17:48 08.06.2022
1038 Clouds 29 1017 73 10000 4.12 180 16:18 08.06.2022
1039 Clouds 27 1016 83 10000 2.06 180 14:46 08.06.2022
1040 Clouds 22 1015 76 10000 2.13 237 12:55 08.06.2022
1041 Clouds 22 1015 76 10000 2.13 237 12:55 08.06.2022
1042 Clouds 23 1015 92 10000 0 0 11:44 08.06.2022
1043 Clouds 23 1015 92 10000 0 0 11:19 08.06.2022
1044 Clouds 23 1015 91 10000 1.54 320 09:45 08.06.2022
1045 Clouds 23 1015 92 10000 1.54 320 09:18 08.06.2022
1046 Clouds 24 1016 85 10000 2.06 210 07:30 08.06.2022
1047 Clouds 24 1017 88 10000 2.06 250 04:51 08.06.2022
1048 Clouds 25 1015 85 10000 3.6 240 02:19 08.06.2022
1049 Rain 26 1015 90 10000 4.12 250 23:41 07.06.2022
1050 Clouds 26 1015 90 10000 4.12 250 23:22 07.06.2022
1051 Rain 25 1014 91 10000 3.6 220 22:38 07.06.2022
1052 Rain 26 1016 86 10000 3.6 240 21:45 07.06.2022
1053 Rain 26 1016 86 10000 5.14 220 21:24 07.06.2022
1054 Thunderstorm 28 1015 81 10000 7.72 190 20:43 07.06.2022
1055 Thunderstorm 28 1015 81 10000 6.71 160 19:59 07.06.2022
1056 Clouds 30 1015 75 10000 4.63 180 18:42 07.06.2022
1057 Clouds 30 1015 77 10000 2.24 148 17:54 07.06.2022
1058 Clouds 29 1016 82 10000 5.14 150 16:54 07.06.2022
1059 Clouds 29 1016 79 10000 3.6 190 16:32 07.06.2022
1060 Clouds 28 1016 83 10000 3.13 170 15:40 07.06.2022
1061 Clouds 27 1015 84 10000 3.13 170 15:21 07.06.2022
1062 Clouds 26 1015 89 10000 4.12 190 14:45 07.06.2022
1063 Clouds 25 1014 91 10000 4.12 190 13:46 07.06.2022
1064 Clouds 24 1015 93 10000 4.12 190 13:26 07.06.2022
1065 Clouds 24 1014 95 10000 3.6 160 12:22 07.06.2022
1066 Clouds 24 1013 94 10000 2.68 170 10:57 07.06.2022
1067 Rain 24 1013 94 10000 4.63 170 09:46 07.06.2022
1068 Clouds 24 1013 94 10000 3.6 140 08:31 07.06.2022
1069 Clouds 24 1014 93 10000 2.57 170 07:19 07.06.2022
1070 Clouds 25 1014 86 10000 4.12 350 05:47 07.06.2022
1071 Clouds 28 1012 78 10000 5.66 210 01:44 07.06.2022
1072 Clouds 29 1012 77 10000 4.63 200 00:20 07.06.2022
1073 Clouds 30 1011 75 10000 5.81 160 23:25 06.06.2022
1074 Clouds 30 1012 73 10000 4.63 160 22:37 06.06.2022
1075 Thunderstorm 30 1012 76 10000 6.69 190 21:36 06.06.2022
1076 Clouds 30 1012 78 10000 5.66 130 19:53 06.06.2022
1077 Thunderstorm 29 1013 79 10000 5.66 160 19:19 06.06.2022
1078 Thunderstorm 30 1013 75 10000 2.68 160 18:34 06.06.2022
1079 Clouds 31 1013 73 10000 3.09 260 17:36 06.06.2022
1080 Clouds 30 1013 74 10000 3.09 200 16:33 06.06.2022
1081 Clouds 29 1013 78 10000 2.06 0 15:39 06.06.2022
1082 Clouds 27 1012 86 10000 1.54 170 14:39 06.06.2022
1083 Clouds 25 1011 94 10000 1.54 190 13:27 06.06.2022
1084 Clouds 25 1011 91 10000 1.54 220 12:37 06.06.2022
1085 Clear 24 1012 93 10000 1.16 210 11:58 06.06.2022
1086 Clouds 25 1011 92 10000 2.57 240 11:28 06.06.2022
1087 Clouds 25 1011 89 10000 2.06 250 09:41 06.06.2022
1088 Clouds 26 1011 87 10000 3.09 240 08:35 06.06.2022
1089 Clouds 26 1011 85 10000 3.6 190 07:37 06.06.2022
1090 Clouds 27 1011 84 10000 3.09 190 05:29 06.06.2022
1091 Clouds 27 1010 83 10000 4.63 130 03:47 06.06.2022
1092 Clouds 29 1009 79 10000 5.36 150 01:29 06.06.2022
1093 Clouds 29 1008 78 10000 5.36 120 00:43 06.06.2022
1094 Clouds 30 1008 76 10000 5.14 100 23:50 05.06.2022
1095 Clouds 30 1009 76 10000 2.68 122 22:53 05.06.2022
1096 Clouds 30 1009 72 10000 4.63 140 21:33 05.06.2022
1097 Clouds 31 1009 68 10000 3.6 300 20:23 05.06.2022
1098 Clear 31 1009 66 10000 2.57 330 18:42 05.06.2022
1099 Clear 31 1009 68 10000 1.34 0 17:57 05.06.2022
1100 Clouds 30 1009 69 10000 2.57 330 17:36 05.06.2022
1101 Clouds 29 1009 69 10000 2.57 330 17:18 05.06.2022
1102 Clouds 28 1009 73 10000 1.54 330 16:45 05.06.2022
1103 Clouds 25 1009 91 10000 2.24 270 14:46 05.06.2022
1104 Clouds 23 1008 96 10000 1.54 280 13:55 05.06.2022
1105 Clouds 23 1007 89 10000 2.57 300 11:56 05.06.2022
1106 Clouds 23 1006 90 10000 3.6 310 10:44 05.06.2022
1107 Clouds 23 1005 90 10000 3.6 310 10:23 05.06.2022
1108 Clouds 23 1005 88 10000 4.12 310 08:45 05.06.2022
1109 Clouds 23 1005 93 10000 4.12 310 08:21 05.06.2022
1110 Clouds 25 1005 92 10000 5.66 320 05:23 05.06.2022
1111 Clouds 25 1004 93 10000 4.12 300 04:33 05.06.2022
1112 Clouds 28 1003 80 10000 7.72 240 02:19 05.06.2022
1113 Clouds 29 1002 78 10000 7.72 220 01:23 05.06.2022
1114 Clouds 29 1002 79 10000 7.72 220 01:23 05.06.2022
1115 Rain 29 1002 79 10000 7.72 230 22:45 04.06.2022
1116 Clouds 29 1003 86 10000 7.2 220 21:24 04.06.2022
1117 Rain 25 1004 96 8047 6.69 200 18:58 04.06.2022
1118 Clouds 25 1004 96 10000 6.17 220 16:48 04.06.2022
1119 Clouds 25 1004 96 10000 6.17 220 16:48 04.06.2022
1120 Rain 25 1004 96 10000 6.17 220 16:20 04.06.2022
1121 Rain 25 1004 97 8047 6.17 200 15:35 04.06.2022
1122 Mist 24 1005 92 6437 9.26 160 13:57 04.06.2022
1123 Rain 23 1006 93 10000 6.17 160 11:28 04.06.2022
1124 Rain 23 1006 92 4828 4.47 153 10:52 04.06.2022
1125 Rain 23 1007 93 402 5.66 240 09:46 04.06.2022
1126 Mist 23 1007 92 4828 1.54 210 08:50 04.06.2022
1127 Rain 23 1007 92 3219 3.09 140 08:31 04.06.2022
1128 Rain 23 1010 97 8047 5.81 100 06:20 04.06.2022
1129 Rain 23 1010 90 10000 2.06 90 03:37 04.06.2022
1130 Rain 24 1010 95 10000 3.6 130 00:21 04.06.2022
1131 Mist 24 1010 95 8047 3.6 130 22:54 03.06.2022
1132 Rain 24 1011 95 9656 4.12 140 21:52 03.06.2022
1133 Rain 24 1011 96 4023 3.6 120 20:40 03.06.2022
1134 Rain 24 1011 95 10000 5.14 120 19:33 03.06.2022
1135 Rain 24 1012 94 10000 5.14 120 16:56 03.06.2022
1136 Rain 24 1012 94 10000 5.81 120 15:52 03.06.2022
1137 Clouds 23 1011 88 10000 3.09 120 13:58 03.06.2022
1138 Rain 23 1012 80 10000 3.09 80 11:54 03.06.2022
1139 Clouds 23 1011 59 10000 5.78 167 09:57 03.06.2022
1140 Mist 22 1012 95 8047 5.14 180 09:29 03.06.2022
1141 Clouds 24 1012 86 10000 5.14 160 07:45 03.06.2022
1142 Clouds 24 1013 91 10000 1.93 171 06:59 03.06.2022
1143 Clouds 24 1013 85 10000 3.6 120 06:28 03.06.2022
1144 Clouds 26 1012 76 10000 2.68 110 03:39 03.06.2022
1145 Clouds 23 1013 89 10000 6.17 200 23:52 02.06.2022
1146 Clouds 28 1013 72 4023 8.23 220 22:23 02.06.2022
1147 Clouds 30 1012 69 10000 2.24 140 20:56 02.06.2022
1148 Clouds 30 1012 69 10000 1.79 0 19:56 02.06.2022
1149 Clouds 30 1013 68 10000 5.81 120 19:38 02.06.2022
1150 Clouds 30 1013 69 10000 5.14 140 18:41 02.06.2022
1151 Clouds 29 1013 74 10000 1.79 0 16:30 02.06.2022
1152 Clouds 29 1013 76 10000 2.24 50 15:47 02.06.2022
1153 Clouds 24 1012 94 10000 1.54 20 13:31 02.06.2022
1154 Clouds 24 1011 94 10000 1.54 10 12:49 02.06.2022
1155 Clouds 24 1011 93 10000 2.06 30 10:45 02.06.2022
1156 Clouds 24 1011 93 10000 0 0 09:30 02.06.2022
1157 Clouds 24 1012 93 10000 0 0 08:45 02.06.2022
1158 Clouds 24 1012 92 10000 0 0 08:23 02.06.2022
1159 Clouds 24 1013 87 10000 1.54 350 06:21 02.06.2022
1160 Clouds 24 1013 87 10000 0 0 03:50 02.06.2022
1161 Rain 26 1012 84 10000 0.45 200 00:55 02.06.2022
1162 Clouds 30 1012 68 10000 6.17 110 22:58 01.06.2022
1163 Clouds 30 1012 67 10000 5.14 80 22:18 01.06.2022
1164 Clouds 31 1012 65 10000 3.6 70 21:24 01.06.2022
1165 Clouds 32 1012 61 10000 2.24 124 20:38 01.06.2022
1166 Clouds 31 1013 64 10000 4.12 360 19:52 01.06.2022
1167 Clouds 31 1013 64 10000 2.57 310 18:37 01.06.2022
1168 Clear 30 1014 68 10000 0.89 246 16:58 01.06.2022
1169 Clouds 28 1014 78 10000 2.68 0 15:43 01.06.2022
1170 Clouds 26 1014 88 10000 2.57 330 14:49 01.06.2022
1171 Clouds 23 1013 90 10000 2.57 290 13:23 01.06.2022
1172 Clouds 23 1013 86 10000 2.06 290 10:48 01.06.2022
1173 Clouds 24 1013 90 10000 2.24 270 09:29 01.06.2022
1174 Clouds 24 1014 89 10000 0 0 08:18 01.06.2022
1175 Clouds 24 1015 88 10000 1.54 290 07:20 01.06.2022
1176 Clouds 25 1015 83 10000 2.24 30 04:41 01.06.2022
1177 Clouds 27 1015 77 10000 3.6 130 23:50 31.05.2022
1178 Clouds 28 1015 75 10000 3.6 120 22:43 31.05.2022
1179 Clouds 28 1015 75 10000 3.6 120 22:24 31.05.2022
1180 Clouds 28 1015 75 10000 3.09 90 21:44 31.05.2022
1181 Clear 28 1016 77 10000 3.09 100 20:44 31.05.2022
1182 Clear 29 1016 76 10000 4.12 90 19:46 31.05.2022
1183 Clouds 29 1016 73 10000 2.68 60 18:32 31.05.2022
1184 Clouds 28 1016 77 10000 4.12 110 17:38 31.05.2022
1185 Clouds 28 1017 79 10000 0.89 68 15:55 31.05.2022
1186 Clouds 27 1017 80 10000 0.89 107 15:34 31.05.2022
1187 Clouds 25 1015 90 10000 2.24 20 13:22 31.05.2022
1188 Clouds 24 1015 90 10000 1.54 360 12:19 31.05.2022
1189 Clouds 24 1015 90 10000 1.54 360 10:34 31.05.2022
1190 Clouds 25 1016 88 10000 1.54 30 08:26 31.05.2022
1191 Clouds 25 1017 85 10000 2.06 90 06:21 31.05.2022
1192 Clouds 25 1017 84 10000 2.24 120 04:34 31.05.2022
1193 Rain 25 1016 83 10000 2.57 150 23:46 30.05.2022
1194 Rain 25 1017 83 10000 2.57 150 23:24 30.05.2022
1195 Rain 26 1016 77 10000 7.72 100 22:42 30.05.2022
1196 Rain 27 1016 78 10000 6.26 90 21:40 30.05.2022
1197 Clouds 29 1016 69 10000 6.26 110 20:52 30.05.2022
1198 Clouds 30 1017 68 10000 4.12 110 19:44 30.05.2022
1199 Clouds 29 1017 70 10000 3.6 110 18:21 30.05.2022
1200 Clouds 28 1017 78 10000 2.68 120 17:23 30.05.2022
1201 Clouds 26 1017 89 10000 2.68 120 16:30 30.05.2022
1202 Thunderstorm 24 1017 88 10000 5.14 170 13:38 30.05.2022
1203 Clouds 25 1015 88 10000 2.68 120 11:40 30.05.2022
1204 Clouds 25 1015 84 10000 1.34 102 09:58 30.05.2022
1205 Clouds 24 1016 88 10000 2.24 60 08:52 30.05.2022
1206 Clouds 23 1015 90 10000 3.6 180 06:26 30.05.2022
1207 Clouds 23 1015 82 10000 3.6 110 04:52 30.05.2022
1208 Rain 22 1018 92 9656 7.2 70 01:23 30.05.2022
1209 Thunderstorm 26 1015 82 10000 7.6 140 22:49 29.05.2022
1210 Thunderstorm 27 1014 80 10000 7.72 140 22:28 29.05.2022
1211 Clouds 30 1015 69 10000 5.36 140 20:29 29.05.2022
1212 Clouds 31 1015 66 10000 2.68 180 19:29 29.05.2022
1213 Clouds 31 1016 69 10000 3.6 170 18:34 29.05.2022
1214 Clouds 29 1016 74 10000 1.54 210 16:25 29.05.2022
1215 Clouds 28 1016 76 10000 2.24 40 15:46 29.05.2022
1216 Clear 27 1015 85 10000 0.45 359 14:55 29.05.2022
1217 Clouds 24 1014 94 10000 0 0 13:18 29.05.2022
1218 Clouds 23 1014 91 10000 0 0 11:20 29.05.2022
1219 Clouds 23 1014 92 10000 0 0 10:34 29.05.2022
1220 Clouds 24 1014 87 10000 0 0 08:31 29.05.2022
1221 Clouds 26 1014 78 10000 3.76 209 04:58 29.05.2022
1222 Clouds 24 1014 82 10000 2.06 170 04:39 29.05.2022
1223 Thunderstorm 28 1013 74 10000 5.81 140 01:52 29.05.2022
1224 Clouds 30 1012 69 10000 7.2 150 23:48 28.05.2022
1225 Clouds 31 1012 65 10000 6.26 140 23:20 28.05.2022
1226 Clouds 31 1013 63 10000 7.2 150 22:19 28.05.2022
1227 Clouds 32 1013 64 10000 6.71 110 21:19 28.05.2022
1228 Clouds 31 1014 65 10000 5.81 120 19:21 28.05.2022
1229 Clouds 32 1014 63 10000 2.68 144 18:40 28.05.2022
1230 Clouds 31 1015 62 10000 2.68 190 17:33 28.05.2022
1231 Clear 30 1015 70 10000 0.89 0 15:56 28.05.2022
1232 Clouds 29 1015 71 10000 2.57 230 15:38 28.05.2022
1233 Clouds 25 1014 87 10000 1.54 0 13:38 28.05.2022
1234 Clouds 24 1014 88 10000 1.54 230 12:43 28.05.2022
1235 Clouds 24 1013 89 10000 0.45 242 11:50 28.05.2022
1236 Clouds 25 1014 85 10000 1.54 190 10:41 28.05.2022
1237 Clear 25 1014 86 10000 0.45 230 09:55 28.05.2022
1238 Clouds 26 1014 82 9656 3.13 150 08:33 28.05.2022
1239 Clouds 26 1015 79 10000 3.6 170 06:50 28.05.2022
1240 Clouds 27 1016 79 10000 4.12 170 05:24 28.05.2022
1241 Clouds 28 1015 76 10000 4.63 170 02:27 28.05.2022
1242 Clear 30 1014 71 10000 2.24 153 23:59 27.05.2022
1243 Clouds 31 1015 68 10000 7.72 130 22:48 27.05.2022
1244 Clouds 32 1016 63 10000 5.66 130 21:29 27.05.2022
1245 Clouds 31 1016 63 10000 7.2 150 20:45 27.05.2022
1246 Clouds 31 1016 62 10000 7.2 150 20:21 27.05.2022
1247 Clouds 31 1017 66 10000 6.26 140 19:38 27.05.2022
1248 Clouds 31 1017 66 10000 6.26 140 19:20 27.05.2022
1249 Clouds 30 1017 69 10000 7.2 140 17:24 27.05.2022
1250 Clouds 29 1017 72 10000 2.68 148 15:57 27.05.2022
1251 Clouds 28 1017 75 10000 2.68 137 14:58 27.05.2022
1252 Clouds 27 1017 77 10000 4.12 130 13:41 27.05.2022
1253 Clouds 26 1017 80 10000 4.12 150 12:28 27.05.2022
1254 Clouds 26 1016 80 10000 6.17 150 11:31 27.05.2022
1255 Clouds 26 1016 80 10000 3.13 130 10:47 27.05.2022
1256 Clouds 26 1016 81 10000 1.79 108 09:59 27.05.2022
1257 Clouds 26 1016 80 10000 4.12 120 09:31 27.05.2022
1258 Clouds 26 1017 84 10000 4.47 100 07:40 27.05.2022
1259 Clouds 26 1018 80 10000 3.13 110 05:25 27.05.2022
1260 Clouds 28 1017 70 10000 6.26 120 01:44 27.05.2022
1261 Clouds 30 1017 65 10000 5.66 150 23:31 26.05.2022
1262 Clouds 30 1018 63 10000 5.81 110 22:28 26.05.2022
1263 Clouds 30 1018 64 10000 4.12 130 21:32 26.05.2022
1264 Clouds 30 1019 65 10000 7.2 140 19:49 26.05.2022
1265 Clouds 30 1019 66 10000 7.2 140 19:18 26.05.2022
1266 Clouds 30 1019 68 10000 7.2 110 17:36 26.05.2022
1267 Clouds 29 1020 69 10000 7.2 110 16:35 26.05.2022
1268 Clouds 28 1020 70 10000 5.81 110 15:34 26.05.2022
1269 Clouds 27 1020 74 10000 5.36 100 14:21 26.05.2022
1270 Clouds 26 1019 79 10000 4.12 110 12:20 26.05.2022
1271 Clouds 26 1018 78 10000 3.6 120 11:21 26.05.2022
1272 Clear 26 1018 78 10000 4.12 120 09:39 26.05.2022
1273 Clouds 27 1018 78 10000 6.26 100 08:51 26.05.2022
1274 Clouds 27 1019 77 10000 6.71 100 07:38 26.05.2022
1275 Clouds 27 1018 79 10000 1.79 87 02:59 26.05.2022
1276 Clouds 29 1016 71 10000 7.2 100 00:20 26.05.2022
1277 Clouds 30 1017 67 10000 8.23 130 23:19 25.05.2022
1278 Clouds 30 1018 64 10000 8.23 120 21:47 25.05.2022
1279 Clouds 30 1018 63 10000 8.23 120 21:28 25.05.2022
1280 Clouds 31 1019 64 10000 2.24 90 19:59 25.05.2022
1281 Clouds 31 1019 62 10000 8.23 120 19:19 25.05.2022
1282 Clouds 30 1019 66 10000 9.83 100 17:30 25.05.2022
1283 Clouds 29 1019 68 10000 6.71 120 16:36 25.05.2022
1284 Clouds 29 1019 70 10000 2.68 115 15:53 25.05.2022
1285 Clear 28 1018 73 10000 5.36 110 14:51 25.05.2022
1286 Clear 28 1018 74 10000 5.36 110 14:32 25.05.2022
1287 Clouds 27 1017 76 10000 5.14 120 13:28 25.05.2022
1288 Clouds 26 1017 77 10000 2.68 118 12:24 25.05.2022
1289 Clouds 26 1017 74 10000 5.81 110 10:42 25.05.2022
1290 Clouds 26 1017 76 10000 1.79 140 09:53 25.05.2022
1291 Clouds 27 1017 75 10000 1.79 141 08:22 25.05.2022
1292 Clouds 27 1018 76 10000 2.24 91 06:53 25.05.2022
1293 Clouds 27 1017 73 10000 5.66 120 03:20 25.05.2022
1294 Clouds 29 1016 69 10000 2.24 93 23:55 24.05.2022
1295 Clouds 30 1016 64 10000 5.36 130 23:23 24.05.2022
1296 Clouds 30 1016 63 10000 7.72 100 22:19 24.05.2022
1297 Clouds 31 1016 61 10000 7.72 110 21:39 24.05.2022
1298 Clouds 30 1017 62 10000 7.72 110 21:20 24.05.2022
1299 Clouds 30 1018 63 10000 7.72 150 19:45 24.05.2022
1300 Clouds 30 1018 66 10000 7.2 110 18:50 24.05.2022
1301 Clouds 29 1018 68 10000 7.72 120 16:41 24.05.2022
1302 Clouds 29 1018 69 10000 7.72 120 16:19 24.05.2022
1303 Clouds 28 1017 75 10000 7.2 100 14:50 24.05.2022
1304 Clouds 27 1017 78 10000 6.17 120 13:52 24.05.2022
1305 Clouds 26 1016 80 10000 5.66 110 12:49 24.05.2022
1306 Clouds 26 1016 81 10000 4.12 100 10:46 24.05.2022
1307 Clouds 26 1017 83 10000 4.63 100 09:43 24.05.2022
1308 Clouds 26 1017 84 10000 3.09 90 08:49 24.05.2022
1309 Clouds 26 1019 82 10000 0.45 103 06:56 24.05.2022
1310 Clouds 27 1018 79 10000 7.2 90 03:48 24.05.2022
1311 Clouds 28 1017 77 10000 6.17 90 01:53 24.05.2022
1312 Clouds 28 1017 75 10000 6.69 90 01:32 24.05.2022
1313 Clear 30 1017 69 10000 2.24 88 22:55 23.05.2022
1314 Clear 30 1018 68 10000 2.24 99 21:55 23.05.2022
1315 Clouds 31 1018 66 10000 8.23 110 21:29 23.05.2022
1316 Clouds 31 1019 68 10000 7.2 120 20:29 23.05.2022
1317 Clouds 31 1019 68 10000 7.72 110 19:32 23.05.2022
1318 Clouds 31 1019 69 10000 2.24 104 18:58 23.05.2022
1319 Clouds 31 1019 67 10000 8.23 130 18:30 23.05.2022
1320 Clouds 30 1020 69 10000 6.71 120 17:20 23.05.2022
1321 Clouds 29 1020 73 10000 7.72 110 15:23 23.05.2022
1322 Clouds 27 1019 81 10000 5.66 100 13:21 23.05.2022
1323 Clouds 26 1019 82 10000 6.26 100 11:31 23.05.2022
1324 Clouds 27 1019 81 10000 5.36 110 09:51 23.05.2022
1325 Clouds 27 1019 81 10000 5.36 110 09:30 23.05.2022
1326 Clouds 27 1020 81 10000 6.71 100 08:31 23.05.2022
1327 Clear 27 1021 81 10000 6.26 90 06:46 23.05.2022
1328 Clear 27 1021 81 10000 5.81 100 05:31 23.05.2022
1329 Clouds 28 1021 79 10000 7.2 110 02:34 23.05.2022
1330 Clouds 28 1020 77 10000 7.2 110 01:39 23.05.2022
1331 Clouds 29 1020 74 10000 7.72 120 00:23 23.05.2022
1332 Clouds 30 1021 70 10000 6.71 120 22:40 22.05.2022
1333 Clouds 31 1021 72 10000 2.24 91 21:55 22.05.2022
1334 Clouds 31 1022 69 10000 7.2 120 21:32 22.05.2022
1335 Clouds 31 1022 71 10000 6.71 110 20:32 22.05.2022
1336 Clouds 31 1023 74 10000 2.68 90 19:57 22.05.2022
1337 Clouds 31 1023 74 10000 2.68 94 18:56 22.05.2022
1338 Clouds 30 1023 73 10000 6.71 100 18:25 22.05.2022
1339 Clouds 30 1023 74 10000 7.2 120 17:37 22.05.2022
1340 Clouds 30 1023 76 10000 7.2 110 16:39 22.05.2022
1341 Clouds 28 1023 82 10000 1.79 98 14:53 22.05.2022
1342 Clouds 27 1022 83 10000 1.79 115 13:56 22.05.2022
1343 Clouds 27 1021 83 10000 4.63 110 12:52 22.05.2022
1344 Clouds 27 1020 83 10000 5.66 120 11:52 22.05.2022
1345 Clouds 27 1020 85 10000 5.81 120 10:24 22.05.2022
1346 Clouds 27 1021 84 10000 6.71 120 09:19 22.05.2022
1347 Clouds 28 1021 84 10000 7.2 110 07:22 22.05.2022
1348 Clouds 28 1022 84 10000 6.71 110 06:27 22.05.2022
1349 Clouds 28 1021 86 10000 6.69 120 02:50 22.05.2022
1350 Clouds 29 1020 80 10000 7.2 110 00:44 22.05.2022
1351 Clouds 30 1020 80 10000 1.79 87 23:56 21.05.2022
1352 Clouds 30 1020 77 10000 6.69 120 23:21 21.05.2022
1353 Clouds 31 1020 76 10000 1.79 96 21:55 21.05.2022
1354 Clouds 31 1021 74 10000 7.2 130 21:26 21.05.2022
1355 Clouds 31 1021 74 10000 7.2 120 20:27 21.05.2022
1356 Clouds 31 1022 74 10000 7.2 120 19:43 21.05.2022
1357 Clouds 30 1022 77 10000 6.26 130 18:21 21.05.2022
1358 Clouds 30 1021 80 10000 1.79 126 16:57 21.05.2022
1359 Clouds 28 1020 84 10000 7.2 130 14:38 21.05.2022
1360 Clouds 27 1020 87 10000 5.66 140 13:54 21.05.2022
1361 Clouds 27 1020 88 10000 5.81 130 13:18 21.05.2022
1362 Clouds 27 1020 88 10000 5.36 110 12:38 21.05.2022
1363 Clouds 27 1019 90 10000 2.24 103 10:53 21.05.2022
1364 Clouds 27 1019 89 10000 5.14 120 09:53 21.05.2022
1365 Clouds 27 1019 90 10000 7.2 130 08:58 21.05.2022
1366 Clouds 27 1019 89 10000 7.72 110 08:36 21.05.2022
1367 Clouds 27 1020 90 10000 2.24 60 05:52 21.05.2022
1368 Clouds 25 1018 88 10000 6.26 60 01:33 21.05.2022
1369 Thunderstorm 25 1017 86 10000 8.75 60 23:30 20.05.2022
1370 Thunderstorm 28 1017 79 10000 5.66 170 22:29 20.05.2022
1371 Thunderstorm 28 1017 82 10000 6.17 120 21:55 20.05.2022
1372 Thunderstorm 28 1017 82 10000 6.17 120 21:55 20.05.2022
1373 Clouds 31 1017 73 10000 8.75 150 21:18 20.05.2022
1374 Clouds 31 1017 71 10000 5.66 160 20:44 20.05.2022
1375 Thunderstorm 30 1017 79 10000 6.17 170 19:45 20.05.2022
1376 Clouds 30 1018 79 10000 5.14 200 18:48 20.05.2022
1377 Clouds 29 1018 83 10000 5.14 170 17:48 20.05.2022
1378 Clouds 29 1017 81 10000 3.6 190 16:22 20.05.2022
1379 Clouds 29 1017 81 10000 2.24 166 15:53 20.05.2022
1380 Clouds 27 1016 87 10000 4.12 220 14:32 20.05.2022
1381 Clouds 27 1016 89 10000 1.34 236 13:56 20.05.2022
1382 Clouds 25 1015 89 10000 5.14 210 11:51 20.05.2022
1383 Clouds 24 1015 88 10000 7.72 130 10:34 20.05.2022
1384 Thunderstorm 25 1015 92 3219 8.75 160 08:59 20.05.2022
1385 Clouds 27 1015 85 10000 2.68 150 07:42 20.05.2022
1386 Clouds 28 1015 84 10000 3.6 170 06:39 20.05.2022
1387 Clouds 28 1016 82 10000 3.09 160 05:39 20.05.2022
1388 Clouds 29 1014 78 10000 6.71 130 01:29 20.05.2022
1389 Clouds 29 1014 77 10000 5.14 150 23:31 19.05.2022
1390 Clouds 30 1014 74 10000 6.69 150 22:35 19.05.2022
1391 Clouds 30 1015 73 10000 6.71 140 21:49 19.05.2022
1392 Clouds 31 1015 72 10000 6.71 140 21:23 19.05.2022
1393 Clouds 31 1015 68 10000 5.36 140 20:43 19.05.2022
1394 Clouds 32 1015 67 10000 3.13 0 19:54 19.05.2022
1395 Clouds 32 1016 68 10000 2.24 145 18:59 19.05.2022
1396 Clouds 31 1017 68 10000 2.68 131 17:36 19.05.2022
1397 Clouds 29 1017 72 10000 1.54 0 15:43 19.05.2022
1398 Clouds 28 1016 81 10000 0.45 223 14:39 19.05.2022
1399 Clouds 27 1016 84 10000 0.45 296 14:19 19.05.2022
1400 Clouds 24 1015 91 10000 2.14 181 11:53 19.05.2022
1401 Clouds 25 1015 88 10000 0 0 10:30 19.05.2022
1402 Clouds 26 1016 84 10000 0 0 08:33 19.05.2022
1403 Clouds 26 1017 84 10000 1.34 141 06:57 19.05.2022
1404 Clouds 27 1016 80 10000 4.63 140 03:26 19.05.2022
1405 Clear 29 1015 75 10000 1.34 111 00:56 19.05.2022
1406 Clouds 31 1015 66 10000 5.66 120 23:21 18.05.2022
1407 Clouds 31 1015 65 10000 5.36 110 22:41 18.05.2022
1408 Clouds 31 1016 61 10000 5.81 120 21:33 18.05.2022
1409 Clear 32 1016 65 10000 2.24 89 20:55 18.05.2022
1410 Clouds 32 1017 62 10000 6.17 100 20:19 18.05.2022
1411 Clouds 32 1018 59 10000 3.6 110 18:47 18.05.2022
1412 Clouds 31 1018 60 10000 1.79 154 17:42 18.05.2022
1413 Clouds 31 1018 62 10000 1.79 0 17:23 18.05.2022
1414 Clouds 30 1018 64 10000 2.24 110 16:52 18.05.2022
1415 Clouds 29 1017 69 10000 2.24 120 15:43 18.05.2022
1416 Clouds 28 1017 71 10000 2.24 120 15:19 18.05.2022
1417 Clear 25 1017 84 10000 0.45 342 13:59 18.05.2022
1418 Clear 23 1017 89 10000 1.79 297 12:53 18.05.2022
1419 Clear 24 1016 86 10000 2.06 310 11:47 18.05.2022
1420 Clear 24 1016 86 10000 2.06 310 11:29 18.05.2022
1421 Clouds 24 1015 85 10000 2.06 290 10:36 18.05.2022
1422 Clouds 25 1016 88 10000 2.06 260 07:56 18.05.2022
1423 Clouds 25 1017 88 10000 0.89 148 06:54 18.05.2022
1424 Clouds 26 1016 81 10000 3.6 140 03:34 18.05.2022
1425 Clouds 29 1015 75 10000 5.36 130 00:42 18.05.2022
1426 Clouds 29 1015 72 10000 5.36 150 23:21 17.05.2022
1427 Clouds 30 1015 67 10000 5.36 120 21:21 17.05.2022
1428 Clouds 30 1015 65 10000 2.68 95 20:38 17.05.2022
1429 Clouds 30 1016 65 10000 2.24 131 19:30 17.05.2022
1430 Clouds 30 1016 64 10000 3.09 270 18:43 17.05.2022
1431 Clouds 30 1016 66 10000 1.54 0 17:34 17.05.2022
1432 Clear 29 1016 67 10000 0.89 235 16:55 17.05.2022
1433 Clear 27 1016 73 10000 2.68 10 15:49 17.05.2022
1434 Clear 25 1016 82 10000 1.54 0 14:52 17.05.2022
1435 Clear 24 1016 86 10000 1.79 310 14:28 17.05.2022
1436 Clouds 22 1015 89 10000 2.06 330 12:37 17.05.2022
1437 Clouds 23 1014 85 10000 1.54 290 10:23 17.05.2022
1438 Clear 23 1015 84 10000 2.06 220 08:51 17.05.2022
1439 Clouds 24 1015 84 10000 2.06 230 07:46 17.05.2022
1440 Clear 24 1015 83 10000 2.57 220 06:21 17.05.2022
1441 Clouds 25 1013 85 10000 3.6 170 00:47 17.05.2022
1442 Clouds 25 1013 90 10000 5.14 100 23:35 16.05.2022
1443 Clouds 24 1014 89 10000 1.54 70 22:33 16.05.2022
1444 Clouds 30 1013 68 10000 3.13 134 20:56 16.05.2022
1445 Clouds 30 1014 64 10000 5.14 180 20:33 16.05.2022
1446 Clouds 30 1015 62 10000 2.24 143 18:41 16.05.2022
1447 Clouds 27 1015 73 10000 2.06 290 16:42 16.05.2022
1448 Clear 24 1014 87 10000 0.45 307 14:58 16.05.2022
1449 Clouds 23 1014 89 10000 3.6 320 13:34 16.05.2022
1450 Clouds 22 1013 90 10000 2.57 300 12:34 16.05.2022
1451 Clouds 23 1013 91 10000 2.57 280 10:36 16.05.2022
1452 Clouds 25 1014 88 10000 2.57 250 07:48 16.05.2022
1453 Clouds 26 1014 83 10000 2.57 160 05:44 16.05.2022
1454 Clouds 27 1012 81 10000 6.17 140 00:44 16.05.2022
1455 Clouds 29 1012 73 10000 6.69 110 22:42 15.05.2022
1456 Clouds 30 1012 69 10000 2.68 0 21:57 15.05.2022
1457 Clouds 30 1012 66 10000 5.14 100 21:36 15.05.2022
1458 Clouds 31 1013 65 10000 5.14 80 20:38 15.05.2022
1459 Clouds 30 1014 66 10000 1.34 93 18:37 15.05.2022
1460 Clouds 29 1015 71 10000 1.79 118 16:52 15.05.2022
1461 Clouds 24 1015 88 10000 0 0 14:26 15.05.2022
1462 Clouds 24 1014 90 10000 1.54 80 13:45 15.05.2022
1463 Clear 24 1013 90 10000 2.49 231 11:55 15.05.2022
1464 Clouds 24 1013 88 10000 0 0 10:47 15.05.2022
1465 Clouds 25 1013 87 10000 0 0 09:46 15.05.2022
1466 Clouds 25 1014 86 10000 2.24 250 07:22 15.05.2022
1467 Clouds 25 1014 85 10000 1.34 0 06:42 15.05.2022
1468 Clouds 27 1014 76 10000 4.63 120 02:43 15.05.2022
1469 Clouds 29 1012 70 10000 5.66 140 00:24 15.05.2022
1470 Clouds 28 1012 71 10000 5.66 160 23:36 14.05.2022
1471 Clouds 30 1013 66 10000 5.81 130 21:50 14.05.2022
1472 Clouds 30 1013 65 10000 5.81 130 21:25 14.05.2022
1473 Clouds 31 1014 65 10000 4.63 140 20:26 14.05.2022
1474 Clear 30 1015 65 10000 4.63 110 19:20 14.05.2022
1475 Clear 31 1014 65 10000 2.24 130 18:57 14.05.2022
1476 Clouds 30 1015 67 10000 2.24 90 17:44 14.05.2022
1477 Clouds 30 1015 67 10000 2.24 90 17:44 14.05.2022
1478 Clear 28 1015 76 10000 1.34 100 15:58 14.05.2022
1479 Clouds 25 1014 86 10000 2.06 30 14:38 14.05.2022
1480 Clouds 25 1014 86 10000 2.06 30 14:38 14.05.2022
1481 Clouds 23 1014 93 10000 0 0 13:27 14.05.2022
1482 Clouds 22 1013 92 10000 3.13 110 11:45 14.05.2022
1483 Rain 23 1013 90 10000 0.89 168 10:43 14.05.2022
1484 Clouds 23 1014 90 10000 0.45 237 10:18 14.05.2022
1485 Clouds 24 1013 86 10000 0.45 84 09:23 14.05.2022
1486 Clouds 24 1015 87 10000 0 0 07:32 14.05.2022
1487 Clouds 25 1015 82 10000 2.06 150 04:35 14.05.2022
1488 Clouds 28 1013 71 10000 6.17 120 00:27 14.05.2022
1489 Clouds 27 1013 72 10000 6.17 130 23:25 13.05.2022
1490 Clouds 28 1013 69 10000 5.66 120 22:55 13.05.2022
1491 Clouds 28 1013 67 10000 5.66 120 22:21 13.05.2022
1492 Clouds 29 1014 63 10000 3.6 160 20:59 13.05.2022
1493 Clouds 29 1014 63 10000 5.66 130 20:37 13.05.2022
1494 Clouds 29 1014 63 10000 5.66 130 20:19 13.05.2022
1495 Clouds 29 1014 65 10000 2.24 114 18:56 13.05.2022
1496 Clouds 28 1015 63 10000 3.09 150 17:42 13.05.2022
1497 Clouds 28 1015 64 10000 3.09 150 17:22 13.05.2022
1498 Clouds 25 1015 78 10000 1.54 270 15:46 13.05.2022
1499 Clouds 23 1015 86 10000 0 0 14:38 13.05.2022
1500 Clouds 21 1013 92 10000 0 0 12:53 13.05.2022
1501 Clear 21 1013 92 10000 0.64 184 11:54 13.05.2022
1502 Clear 21 1013 92 10000 1.15 170 09:55 13.05.2022
1503 Clouds 21 1013 91 10000 0 0 09:29 13.05.2022
1504 Clouds 22 1013 92 10000 2.06 350 07:52 13.05.2022
1505 Clouds 22 1013 92 10000 2.06 350 07:18 13.05.2022
1506 Clouds 22 1014 91 10000 2.06 220 05:23 13.05.2022
1507 Thunderstorm 25 1012 71 10000 6.71 80 00:59 13.05.2022
1508 Clouds 25 1012 73 10000 5.66 100 22:59 12.05.2022
1509 Thunderstorm 26 1012 71 10000 5.14 100 22:34 12.05.2022
1510 Clouds 27 1013 64 10000 4.63 70 21:24 12.05.2022
1511 Clouds 27 1013 64 10000 4.63 80 19:49 12.05.2022
1512 Clouds 27 1014 63 10000 1.79 108 18:25 12.05.2022
1513 Clouds 26 1014 69 10000 3.6 340 16:44 12.05.2022
1514 Clear 23 1014 81 10000 0.89 316 14:57 12.05.2022
1515 Clouds 20 1013 88 10000 2.57 320 13:50 12.05.2022
1516 Clear 19 1012 89 10000 0.89 337 11:55 12.05.2022
1517 Clouds 20 1012 86 10000 2.57 340 10:32 12.05.2022
1518 Clear 21 1013 83 10000 0.45 0 08:53 12.05.2022
1519 Clouds 21 1013 81 10000 2.06 360 08:35 12.05.2022
1520 Clouds 21 1014 80 10000 3.6 360 07:25 12.05.2022
1521 Clear 23 1015 75 10000 3.6 20 04:32 12.05.2022
1522 Clouds 25 1013 62 10000 6.17 40 01:29 12.05.2022
1523 Clouds 26 1013 68 10000 7.2 50 23:18 11.05.2022
1524 Clouds 27 1013 64 10000 7.72 60 22:18 11.05.2022
1525 Clouds 28 1014 64 10000 6.69 50 21:25 11.05.2022
1526 Clouds 28 1014 61 10000 4.12 350 20:20 11.05.2022
1527 Clouds 28 1016 61 10000 6.17 350 17:37 11.05.2022
1528 Clouds 26 1016 69 10000 5.14 340 16:27 11.05.2022
1529 Clouds 22 1016 81 10000 4.12 350 14:48 11.05.2022
1530 Clouds 21 1016 83 10000 4.12 350 14:25 11.05.2022
1531 Clear 19 1016 86 10000 5.14 340 13:25 11.05.2022
1532 Clouds 19 1015 82 10000 5.14 340 11:48 11.05.2022
1533 Clear 19 1015 80 10000 4.63 330 09:30 11.05.2022
1534 Clear 21 1017 66 10000 3.09 350 06:36 11.05.2022
1535 Clear 24 1016 68 10000 5.66 40 02:27 11.05.2022
1536 Clear 28 1015 60 10000 2.68 53 22:58 10.05.2022
1537 Clear 28 1015 59 10000 3.58 38 22:58 10.05.2022
1538 Clouds 28 1015 55 10000 6.71 40 22:30 10.05.2022
1539 Clouds 28 1016 52 10000 4.63 20 21:40 10.05.2022
1540 Clouds 28 1017 51 10000 6.17 40 20:47 10.05.2022
1541 Clear 28 1018 56 10000 3.13 45 18:57 10.05.2022
1542 Clouds 28 1018 56 10000 4.63 60 17:38 10.05.2022
1543 Clouds 27 1018 59 10000 4.63 50 16:35 10.05.2022
1544 Clouds 23 1016 74 10000 2.57 350 13:31 10.05.2022
1545 Clouds 23 1015 75 10000 1.34 53 11:54 10.05.2022
1546 Clouds 23 1015 74 10000 3.6 40 11:32 10.05.2022
1547 Clear 23 1015 75 10000 1.34 35 10:56 10.05.2022
1548 Clouds 24 1015 73 10000 3.13 40 09:47 10.05.2022
1549 Clouds 24 1016 73 10000 3.09 40 08:18 10.05.2022
1550 Clouds 24 1016 73 10000 5.66 70 06:20 10.05.2022
1551 Clear 25 1015 75 10000 6.17 70 02:23 10.05.2022
1552 Clouds 27 1014 73 10000 3.13 39 23:53 09.05.2022
1553 Clouds 29 1014 68 10000 6.69 80 22:36 09.05.2022
1554 Clouds 29 1014 66 10000 8.23 70 21:39 09.05.2022
1555 Clouds 29 1015 65 10000 5.66 80 20:21 09.05.2022
1556 Clouds 29 1015 66 10000 6.17 90 18:26 09.05.2022
1557 Clouds 29 1015 67 10000 5.14 80 17:26 09.05.2022
1558 Clouds 28 1014 71 10000 6.17 60 16:19 09.05.2022
1559 Clouds 28 1014 75 10000 3.6 40 15:47 09.05.2022
1560 Clouds 25 1013 84 10000 1.54 330 14:37 09.05.2022
1561 Clear 24 1014 85 10000 0.45 336 13:59 09.05.2022
1562 Clouds 22 1012 86 10000 1.54 340 13:23 09.05.2022
1563 Clear 23 1011 82 10000 3.32 47 11:53 09.05.2022
1564 Clear 23 1012 84 10000 2.57 310 10:48 09.05.2022
1565 Clear 23 1012 84 10000 2.57 310 10:26 09.05.2022
1566 Clear 24 1012 86 10000 0.45 0 07:57 09.05.2022
1567 Clear 26 1012 87 10000 0.45 0 05:59 09.05.2022
1568 Clouds 29 1009 75 10000 0.45 28 01:59 09.05.2022
1569 Clouds 31 1009 64 10000 3.6 120 23:29 08.05.2022
1570 Clouds 33 1010 56 10000 5.66 260 22:32 08.05.2022
1571 Clouds 33 1010 57 10000 4.63 260 21:24 08.05.2022
1572 Clouds 33 1010 54 10000 6.17 300 20:25 08.05.2022
1573 Clouds 32 1011 56 10000 5.14 270 19:33 08.05.2022
1574 Clouds 32 1011 59 10000 6.69 260 18:40 08.05.2022
1575 Clouds 30 1012 65 10000 6.17 300 17:40 08.05.2022
1576 Clouds 29 1012 74 10000 5.66 290 16:22 08.05.2022
1577 Clear 27 1011 83 10000 5.14 260 15:22 08.05.2022
1578 Clouds 24 1011 89 10000 2.06 220 13:44 08.05.2022
1579 Clouds 23 1010 87 10000 2.57 250 11:50 08.05.2022
1580 Clouds 24 1010 84 10000 3.6 260 10:26 08.05.2022
1581 Clear 24 1010 82 10000 1.34 261 09:53 08.05.2022
1582 Clear 25 1010 77 10000 0.45 228 07:57 08.05.2022
1583 Clouds 24 1012 77 10000 3.09 270 06:18 08.05.2022
1584 Clouds 26 1011 72 10000 4.63 310 03:22 08.05.2022
1585 Clouds 30 1009 64 10000 6.69 280 01:19 08.05.2022
1586 Clouds 32 1009 57 10000 3.58 264 23:57 07.05.2022
1587 Clouds 32 1009 54 10000 8.75 260 23:32 07.05.2022
1588 Clouds 33 1009 53 10000 8.75 250 22:42 07.05.2022
1589 Clouds 33 1009 52 10000 3.58 261 21:56 07.05.2022
1590 Clouds 33 1010 52 10000 8.75 240 21:21 07.05.2022
1591 Clouds 33 1011 53 10000 8.23 270 20:25 07.05.2022
1592 Clouds 33 1012 54 10000 7.2 230 18:49 07.05.2022
1593 Clouds 30 1012 66 10000 4.63 250 16:34 07.05.2022
1594 Clouds 28 1013 79 10000 2.24 241 14:53 07.05.2022
1595 Clouds 25 1012 87 10000 4.12 200 11:23 07.05.2022
1596 Clouds 25 1012 88 10000 4.12 220 09:44 07.05.2022
1597 Clouds 25 1013 87 10000 3.09 220 08:30 07.05.2022
1598 Clear 26 1014 85 10000 3.09 230 07:20 07.05.2022
1599 Clear 26 1014 83 10000 3.6 210 06:42 07.05.2022
1600 Clear 27 1013 77 10000 1.34 206 03:57 07.05.2022
1601 Clouds 32 1012 61 10000 6.17 230 23:44 06.05.2022
1602 Clouds 32 1013 65 10000 5.66 240 22:40 06.05.2022
1603 Clouds 32 1013 64 10000 4.63 240 21:53 06.05.2022
1604 Clouds 33 1013 62 10000 4.63 240 21:29 06.05.2022
1605 Clouds 32 1015 60 10000 4.12 250 19:47 06.05.2022
1606 Clouds 32 1015 58 10000 4.12 250 19:24 06.05.2022
1607 Clouds 32 1016 61 10000 4.63 240 18:30 06.05.2022
1608 Clouds 31 1017 63 10000 2.06 230 17:34 06.05.2022
1609 Clouds 29 1016 72 10000 3.6 210 15:51 06.05.2022
1610 Clouds 28 1016 75 10000 3.6 210 15:18 06.05.2022
1611 Clouds 24 1016 91 10000 1.54 180 13:49 06.05.2022
1612 Clouds 24 1016 91 10000 1.54 230 12:50 06.05.2022
1613 Clear 24 1015 93 10000 1.29 240 11:58 06.05.2022
1614 Clouds 24 1015 89 10000 2.57 220 10:41 06.05.2022
1615 Clear 24 1015 88 10000 1.54 220 09:47 06.05.2022
1616 Clouds 25 1015 87 10000 2.06 230 09:18 06.05.2022
1617 Clouds 25 1016 84 10000 3.09 0 07:40 06.05.2022
1618 Clouds 26 1017 82 10000 2.06 140 06:26 06.05.2022
1619 Clouds 26 1015 81 10000 1.34 0 02:58 06.05.2022
1620 Clouds 27 1016 80 10000 0.89 125 01:58 06.05.2022
1621 Clouds 30 1015 69 10000 4.63 140 22:50 05.05.2022
1622 Clouds 30 1015 68 10000 5.14 120 21:49 05.05.2022
1623 Clouds 31 1016 65 10000 2.68 146 20:36 05.05.2022
1624 Clear 31 1017 64 10000 1.79 0 18:54 05.05.2022
1625 Clouds 29 1018 68 10000 3.6 240 16:40 05.05.2022
1626 Clear 26 1018 83 10000 0.89 298 14:59 05.05.2022
1627 Clear 22 1016 88 10000 0 0 13:29 05.05.2022
1628 Clear 22 1016 67 10000 1.34 283 12:56 05.05.2022
1629 Clear 22 1016 85 10000 0 0 11:22 05.05.2022
1630 Clouds 23 1017 85 10000 1.54 270 09:40 05.05.2022
1631 Clear 22 1017 85 10000 0 0 08:34 05.05.2022
1632 Clouds 23 1018 83 10000 2.06 180 06:24 05.05.2022
1633 Rain 26 1016 83 10000 3.09 160 02:23 05.05.2022
1634 Thunderstorm 26 1016 83 10000 2.57 340 01:37 05.05.2022
1635 Thunderstorm 27 1016 82 10000 3.6 130 00:43 05.05.2022
1636 Clouds 29 1015 74 10000 2.24 132 22:57 04.05.2022
1637 Clouds 30 1015 70 10000 2.68 140 21:59 04.05.2022
1638 Clouds 30 1016 67 10000 4.12 130 21:34 04.05.2022
1639 Clouds 30 1017 69 10000 5.14 120 20:52 04.05.2022
1640 Clouds 30 1017 69 10000 5.14 120 20:18 04.05.2022
1641 Clouds 30 1018 70 10000 5.14 130 19:35 04.05.2022
1642 Clouds 29 1018 70 10000 4.63 80 18:42 04.05.2022
1643 Clouds 29 1018 71 10000 5.66 120 18:18 04.05.2022
1644 Clouds 29 1018 71 10000 1.79 107 16:36 04.05.2022
1645 Clouds 28 1018 78 10000 2.06 40 15:32 04.05.2022
1646 Clouds 25 1017 87 10000 2.06 360 14:38 04.05.2022
1647 Clouds 25 1017 90 10000 2.06 360 14:19 04.05.2022
1648 Clear 23 1016 93 10000 0 0 12:39 04.05.2022
1649 Clouds 23 1016 91 10000 1.54 290 11:40 04.05.2022
1650 Clear 23 1015 90 10000 1.43 90 09:57 04.05.2022
1651 Clouds 23 1017 90 10000 0 0 09:21 04.05.2022
1652 Clouds 24 1017 88 10000 1.54 150 07:51 04.05.2022
1653 Clouds 25 1017 85 10000 3.09 110 04:45 04.05.2022
1654 Clouds 26 1017 81 10000 2.57 120 02:37 04.05.2022
1655 Clouds 27 1016 76 10000 4.63 110 23:20 03.05.2022
1656 Clouds 28 1016 74 10000 1.79 70 21:53 03.05.2022
1657 Clouds 28 1017 71 10000 5.14 80 21:31 03.05.2022
1658 Clouds 29 1018 70 10000 4.12 80 20:46 03.05.2022
1659 Clouds 29 1018 70 10000 5.14 100 19:33 03.05.2022
1660 Clouds 29 1018 73 10000 5.66 100 18:47 03.05.2022
1661 Clouds 28 1018 77 10000 6.17 120 17:22 03.05.2022
1662 Clouds 27 1018 82 10000 5.14 120 15:57 03.05.2022
1663 Clouds 25 1018 84 10000 6.17 100 14:24 03.05.2022
1664 Mist 24 1017 88 10000 4.63 90 12:42 03.05.2022
1665 Clouds 24 1017 86 10000 4.63 100 11:39 03.05.2022
1666 Clouds 25 1016 84 10000 3.09 110 10:44 03.05.2022
1667 Clouds 25 1018 81 10000 5.14 90 08:29 03.05.2022
1668 Clouds 25 1019 79 10000 6.69 100 06:45 03.05.2022
1669 Clear 25 1018 76 10000 5.14 90 02:48 03.05.2022
1670 Clouds 27 1017 69 10000 7.2 110 23:32 02.05.2022
1671 Clouds 28 1018 67 10000 8.23 120 22:29 02.05.2022
1672 Clouds 28 1018 68 10000 9.26 100 21:47 02.05.2022
1673 Clouds 28 1019 70 10000 6.69 130 19:30 02.05.2022
1674 Clouds 28 1020 72 10000 7.72 100 18:26 02.05.2022
1675 Clouds 28 1020 69 10000 5.66 110 17:41 02.05.2022
1676 Clouds 28 1020 69 10000 5.66 110 17:41 02.05.2022
1677 Clouds 28 1020 70 10000 5.66 90 16:43 02.05.2022
1678 Clouds 27 1019 72 10000 5.66 110 15:44 02.05.2022
1679 Clouds 26 1018 75 10000 3.6 100 14:51 02.05.2022
1680 Clouds 24 1018 82 10000 2.06 90 13:42 02.05.2022
1681 Clouds 23 1017 83 10000 1.54 110 11:41 02.05.2022
1682 Clear 24 1017 82 10000 1.34 112 09:59 02.05.2022
1683 Clouds 24 1018 81 10000 2.57 100 08:31 02.05.2022
1684 Clouds 25 1018 78 10000 0.89 95 06:56 02.05.2022
1685 Clear 26 1017 64 10000 6.17 100 00:48 02.05.2022
1686 Clear 27 1017 63 10000 6.17 100 00:22 02.05.2022
1687 Clouds 28 1017 60 10000 6.17 80 23:40 01.05.2022
1688 Clouds 28 1017 61 10000 6.17 100 21:45 01.05.2022
1689 Clouds 28 1018 62 10000 6.17 100 20:50 01.05.2022
1690 Clouds 28 1018 63 10000 5.14 100 19:27 01.05.2022
1691 Clouds 28 1018 66 10000 2.24 89 18:53 01.05.2022
1692 Clouds 27 1019 73 10000 6.17 90 17:51 01.05.2022
1693 Clouds 27 1019 73 10000 6.17 90 17:51 01.05.2022
1694 Thunderstorm 26 1019 74 10000 4.63 60 16:42 01.05.2022
1695 Thunderstorm 26 1018 73 10000 4.63 60 16:18 01.05.2022
1696 Clouds 25 1017 80 10000 0.89 98 14:54 01.05.2022
1697 Clouds 23 1016 84 10000 1.54 30 12:52 01.05.2022
1698 Clouds 22 1016 89 10000 2.06 10 10:36 01.05.2022
1699 Clouds 23 1016 88 10000 1.54 110 08:50 01.05.2022
1700 Clouds 23 1017 84 10000 3.6 120 06:51 01.05.2022
1701 Clouds 25 1016 77 10000 4.63 90 02:46 01.05.2022
1702 Clouds 28 1015 63 10000 4.63 100 22:51 30.04.2022
1703 Clouds 28 1015 63 10000 4.63 100 22:51 30.04.2022
1704 Clouds 28 1016 64 10000 5.14 130 21:33 30.04.2022
1705 Clouds 28 1016 64 10000 4.12 110 20:22 30.04.2022
1706 Clouds 27 1016 72 10000 3.09 110 19:31 30.04.2022
1707 Clouds 24 1017 88 10000 4.12 140 17:37 30.04.2022
1708 Clouds 23 1018 90 10000 4.12 100 16:28 30.04.2022
1709 Rain 23 1017 89 10000 2.06 20 15:19 30.04.2022
1710 Clouds 22 1017 94 10000 1.54 40 14:30 30.04.2022
1711 Thunderstorm 23 1015 86 10000 4.63 90 12:28 30.04.2022
1712 Clouds 23 1015 86 10000 1.54 140 11:32 30.04.2022
1713 Clouds 23 1015 86 10000 3.6 150 10:30 30.04.2022
1714 Clouds 24 1016 85 10000 4.63 80 08:26 30.04.2022
1715 Clouds 24 1017 84 10000 0.45 40 04:58 30.04.2022
1716 Clouds 26 1015 73 10000 4.63 120 00:35 30.04.2022
1717 Clouds 26 1015 72 10000 5.14 120 23:29 29.04.2022
1718 Thunderstorm 27 1015 69 10000 3.09 360 22:29 29.04.2022
1719 Clouds 28 1016 67 10000 2.68 0 21:26 29.04.2022
1720 Clouds 28 1016 66 10000 5.66 110 20:36 29.04.2022
1721 Clouds 29 1016 63 10000 5.66 130 19:36 29.04.2022
1722 Clouds 28 1017 67 10000 4.63 100 17:48 29.04.2022
1723 Clouds 27 1018 70 10000 4.63 110 16:43 29.04.2022
1724 Clouds 24 1017 85 10000 2.57 30 14:38 29.04.2022
1725 Clouds 23 1017 88 10000 2.57 30 14:19 29.04.2022
1726 Clouds 22 1016 87 10000 2.06 0 12:41 29.04.2022
1727 Clouds 22 1015 85 10000 0.45 38 10:57 29.04.2022
1728 Clouds 22 1016 83 10000 2.57 90 08:18 29.04.2022
1729 Clouds 22 1017 89 10000 1.54 130 07:27 29.04.2022
1730 Clouds 22 1017 87 10000 3.09 180 06:35 29.04.2022
1731 Rain 23 1016 87 10000 3.09 140 03:28 29.04.2022
1732 Clouds 25 1014 74 10000 3.6 140 00:18 29.04.2022
1733 Thunderstorm 26 1014 71 10000 6.69 140 23:26 28.04.2022
1734 Thunderstorm 27 1014 65 10000 7.2 120 22:40 28.04.2022
1735 Clouds 29 1015 58 10000 12.86 30 21:46 28.04.2022
1736 Clouds 30 1015 56 10000 4.12 100 20:51 28.04.2022
1737 Clear 30 1016 60 10000 2.24 128 19:59 28.04.2022
1738 Clear 30 1016 57 10000 2.68 137 19:40 28.04.2022
1739 Clear 30 1017 57 10000 2.24 0 19:20 28.04.2022
1740 Clear 30 1017 55 10000 2.57 320 18:23 28.04.2022
1741 Clear 29 1017 60 10000 1.79 107 16:59 28.04.2022
1742 Clouds 28 1017 63 10000 3.09 200 16:21 28.04.2022
1743 Clear 27 1018 67 10000 0.89 209 15:57 28.04.2022
1744 Clouds 26 1017 71 10000 3.6 180 15:27 28.04.2022
1745 Clouds 23 1016 84 10000 3.13 220 13:44 28.04.2022
1746 Clouds 22 1016 84 10000 1.54 210 12:38 28.04.2022
1747 Clouds 23 1016 84 10000 2.68 200 11:51 28.04.2022
1748 Clouds 23 1016 85 10000 1.54 220 10:37 28.04.2022
1749 Clouds 23 1016 83 10000 1.54 200 09:52 28.04.2022
1750 Clouds 23 1017 81 10000 1.54 240 08:20 28.04.2022
1751 Clouds 23 1018 85 10000 2.99 174 06:56 28.04.2022
1752 Clouds 23 1017 83 10000 3.52 173 05:54 28.04.2022
1753 Clouds 24 1017 77 10000 2.57 120 04:44 28.04.2022
1754 Clouds 25 1017 74 10000 2.57 170 03:40 28.04.2022
1755 Clouds 27 1016 66 10000 1.79 139 23:59 27.04.2022
1756 Clouds 28 1016 62 10000 6.26 120 22:34 27.04.2022
1757 Clouds 29 1016 60 10000 5.81 130 21:51 27.04.2022
1758 Clouds 29 1017 61 10000 2.68 133 20:56 27.04.2022
1759 Clouds 29 1017 59 10000 5.36 170 20:34 27.04.2022
1760 Clouds 29 1017 59 10000 5.36 170 20:34 27.04.2022
1761 Clouds 29 1018 60 10000 4.12 170 19:37 27.04.2022
1762 Clouds 29 1019 60 10000 4.12 130 18:52 27.04.2022
1763 Clouds 29 1019 60 10000 4.12 130 18:22 27.04.2022
1764 Clouds 27 1018 64 10000 3.6 130 16:27 27.04.2022
1765 Clouds 25 1018 76 10000 2.24 120 14:26 27.04.2022
1766 Clouds 23 1017 79 10000 0.45 143 11:45 27.04.2022
1767 Clouds 23 1018 81 10000 0.45 131 11:20 27.04.2022
1768 Clouds 23 1018 81 10000 0.45 139 08:58 27.04.2022
1769 Clouds 23 1019 79 10000 3.09 100 07:18 27.04.2022
1770 Clouds 24 1020 73 10000 4.63 100 04:21 27.04.2022
1771 Clear 25 1018 68 10000 5.81 90 01:31 27.04.2022
1772 Clouds 27 1018 64 10000 5.81 100 00:36 27.04.2022
1773 Clouds 28 1018 60 10000 4.63 60 23:25 26.04.2022
1774 Clear 28 1018 63 10000 2.24 108 22:57 26.04.2022
1775 Clouds 28 1018 60 10000 5.66 100 22:38 26.04.2022
1776 Clouds 29 1019 58 10000 4.63 110 21:26 26.04.2022
1777 Clouds 29 1019 58 10000 4.63 110 21:26 26.04.2022
1778 Clouds 28 1020 58 10000 4.12 110 20:41 26.04.2022
1779 Clouds 28 1020 59 10000 5.14 90 19:49 26.04.2022
1780 Clouds 28 1020 60 10000 5.14 90 19:30 26.04.2022
1781 Clouds 28 1020 61 10000 5.14 100 18:44 26.04.2022
1782 Clear 28 1020 63 10000 2.24 93 17:54 26.04.2022
1783 Clouds 27 1021 66 10000 4.63 90 16:28 26.04.2022
1784 Clouds 24 1020 77 10000 0.89 78 13:59 26.04.2022
1785 Clouds 23 1020 80 10000 3.13 90 13:32 26.04.2022
1786 Clouds 23 1019 78 10000 4.12 100 11:49 26.04.2022
1787 Clouds 24 1018 78 10000 6.26 100 10:34 26.04.2022
1788 Clouds 24 1018 82 10000 1.34 85 08:54 26.04.2022
1789 Clouds 24 1019 80 10000 5.81 100 07:22 26.04.2022
1790 Clouds 24 1020 78 10000 4.12 80 04:23 26.04.2022
1791 Clouds 26 1018 73 10000 7.15 100 01:25 26.04.2022
1792 Clouds 27 1018 69 10000 7.2 90 00:26 26.04.2022
1793 Clouds 28 1018 63 10000 6.69 100 22:33 25.04.2022
1794 Clouds 28 1019 62 10000 5.81 110 21:40 25.04.2022
1795 Clouds 28 1020 61 10000 5.81 100 20:39 25.04.2022
1796 Clear 28 1020 63 10000 2.24 0 18:55 25.04.2022
1797 Clouds 28 1020 63 10000 6.71 90 17:52 25.04.2022
1798 Clear 27 1020 67 10000 2.24 87 16:55 25.04.2022
1799 Clouds 26 1019 68 10000 6.71 110 15:29 25.04.2022
1800 Clouds 25 1019 73 10000 4.63 90 14:42 25.04.2022
1801 Clouds 24 1019 77 10000 4.12 100 13:33 25.04.2022
1802 Clouds 24 1017 78 10000 5.36 90 11:38 25.04.2022
1803 Clouds 24 1018 78 10000 6.26 100 10:26 25.04.2022
1804 Clouds 24 1018 77 10000 4.63 100 08:39 25.04.2022
1805 Clouds 24 1019 76 10000 6.26 100 06:39 25.04.2022
1806 Clear 25 1019 74 10000 6.26 70 03:47 25.04.2022
1807 Clouds 26 1018 74 10000 1.79 70 00:57 25.04.2022
1808 Clouds 27 1018 71 10000 8.94 80 23:51 24.04.2022
1809 Clouds 27 1018 71 10000 7.72 80 22:43 24.04.2022
1810 Clouds 27 1018 70 10000 7.72 80 22:20 24.04.2022
1811 Clouds 28 1019 67 10000 6.71 70 21:26 24.04.2022
1812 Clouds 28 1019 67 10000 2.68 93 20:54 24.04.2022
1813 Clouds 28 1019 63 10000 6.69 100 20:35 24.04.2022
1814 Clouds 28 1019 61 10000 5.81 70 19:46 24.04.2022
1815 Clouds 28 1020 62 10000 7.2 90 18:20 24.04.2022
1816 Clouds 28 1020 62 10000 8.23 80 17:28 24.04.2022
1817 Clouds 27 1020 64 10000 2.24 85 16:58 24.04.2022
1818 Clouds 27 1020 63 10000 8.94 100 16:32 24.04.2022
1819 Clouds 26 1020 66 10000 1.79 76 15:54 24.04.2022
1820 Clouds 26 1020 65 10000 7.72 110 15:29 24.04.2022
1821 Clear 24 1019 74 10000 2.24 0 13:56 24.04.2022
1822 Clouds 23 1019 75 10000 5.14 90 13:25 24.04.2022
1823 Clear 23 1018 73 10000 1.34 0 11:56 24.04.2022
1824 Clouds 23 1018 70 10000 3.6 80 11:27 24.04.2022
1825 Clouds 24 1018 70 10000 6.26 100 10:24 24.04.2022
1826 Clouds 24 1018 71 10000 6.71 90 09:19 24.04.2022
1827 Clouds 24 1020 73 10000 6.71 70 06:18 24.04.2022
1828 Clouds 24 1020 74 10000 7.2 80 03:37 24.04.2022
1829 Clear 25 1019 73 10000 1.79 66 01:37 24.04.2022
1830 Clouds 26 1019 67 10000 8.94 80 00:22 24.04.2022
1831 Clouds 26 1019 66 10000 8.23 90 23:26 23.04.2022
1832 Clouds 27 1019 64 10000 7.72 90 22:55 23.04.2022
1833 Clouds 27 1020 64 10000 8.23 90 21:51 23.04.2022
1834 Clouds 27 1020 64 10000 8.23 90 21:32 23.04.2022
1835 Clouds 28 1020 64 10000 8.23 100 20:33 23.04.2022
1836 Clouds 28 1021 64 10000 7.72 80 19:46 23.04.2022
1837 Clouds 27 1021 64 10000 7.72 80 19:19 23.04.2022
1838 Clouds 27 1021 64 10000 8.75 70 18:46 23.04.2022
1839 Clouds 27 1021 65 10000 7.72 70 17:48 23.04.2022
1840 Clouds 27 1021 64 10000 8.23 100 16:50 23.04.2022
1841 Clouds 26 1021 66 10000 8.23 100 16:21 23.04.2022
1842 Clouds 25 1020 73 10000 5.14 80 14:47 23.04.2022
1843 Clouds 23 1020 75 10000 5.81 50 12:22 23.04.2022
1844 Clouds 23 1020 73 10000 6.26 60 10:40 23.04.2022
1845 Clouds 23 1020 73 10000 6.26 60 10:40 23.04.2022
1846 Clouds 24 1021 77 10000 6.17 70 08:42 23.04.2022
1847 Clouds 23 1022 73 10000 5.66 50 05:47 23.04.2022
1848 Clouds 24 1022 75 10000 3.13 50 03:54 23.04.2022
1849 Clouds 25 1020 72 10000 9.26 70 00:46 23.04.2022
1850 Clouds 26 1021 70 10000 9.26 70 23:27 22.04.2022
1851 Clouds 27 1021 72 10000 3.58 47 21:59 22.04.2022
1852 Clouds 27 1021 67 10000 8.23 70 21:40 22.04.2022
1853 Clouds 27 1022 68 10000 9.26 80 20:44 22.04.2022
1854 Clouds 27 1022 68 10000 9.26 80 20:25 22.04.2022
1855 Clouds 27 1022 69 10000 9.26 60 19:18 22.04.2022
1856 Clouds 27 1023 69 10000 10.8 70 18:34 22.04.2022
1857 Clouds 27 1023 69 10000 11.32 70 17:37 22.04.2022
1858 Clouds 26 1023 72 10000 10.8 70 16:30 22.04.2022
1859 Clouds 25 1022 75 10000 9.77 70 15:32 22.04.2022
1860 Clouds 24 1022 79 10000 8.75 60 14:41 22.04.2022
1861 Clouds 24 1021 81 10000 7.72 60 13:42 22.04.2022
1862 Clouds 23 1021 84 10000 2.68 44 12:55 22.04.2022
1863 Clouds 23 1020 85 10000 8.23 60 11:41 22.04.2022
1864 Clouds 23 1020 85 10000 8.23 60 11:18 22.04.2022
1865 Rain 23 1021 85 10000 8.23 80 10:47 22.04.2022
1866 Rain 23 1021 84 10000 8.23 80 10:25 22.04.2022
1867 Clouds 23 1021 82 4828 8.75 80 09:42 22.04.2022
1868 Clouds 24 1022 76 10000 7.72 70 08:49 22.04.2022
1869 Clouds 24 1022 74 10000 2.24 52 06:56 22.04.2022
1870 Clouds 24 1022 73 10000 7.6 70 01:49 22.04.2022
1871 Clouds 25 1022 67 10000 8.23 60 23:49 21.04.2022
1872 Clouds 26 1022 64 10000 7.72 60 22:52 21.04.2022
1873 Clouds 27 1022 63 10000 2.68 41 21:56 21.04.2022
1874 Clouds 27 1023 58 10000 8.94 80 20:34 21.04.2022
1875 Clouds 27 1023 58 10000 9.26 90 19:51 21.04.2022
1876 Clouds 26 1023 60 10000 9.39 70 18:34 21.04.2022
1877 Clouds 26 1023 62 10000 8.75 70 17:47 21.04.2022
1878 Clouds 26 1024 66 10000 8.23 60 16:24 21.04.2022
1879 Clouds 25 1023 70 10000 9.26 60 15:19 21.04.2022
1880 Clouds 24 1022 73 10000 7.2 60 14:31 21.04.2022
1881 Clouds 23 1022 75 10000 6.69 70 13:23 21.04.2022
1882 Clouds 23 1021 74 10000 4.63 60 12:29 21.04.2022
1883 Clouds 23 1021 73 10000 7.2 70 10:20 21.04.2022
1884 Clouds 23 1022 75 10000 2.24 59 08:53 21.04.2022
1885 Clouds 23 1023 79 10000 2.68 61 06:55 21.04.2022
1886 Clouds 24 1022 75 10000 6.69 60 04:36 21.04.2022
1887 Clouds 24 1021 73 10000 7.2 70 03:24 21.04.2022
1888 Clouds 24 1021 73 10000 6.69 70 02:46 21.04.2022
1889 Clouds 25 1021 66 10000 6.71 90 00:43 21.04.2022
1890 Clouds 26 1021 62 10000 6.26 40 23:49 20.04.2022
1891 Clouds 26 1021 60 10000 6.26 40 23:21 20.04.2022
1892 Clouds 26 1020 61 10000 6.71 50 22:45 20.04.2022
1893 Clouds 26 1021 62 10000 6.71 50 22:26 20.04.2022
1894 Clouds 27 1021 61 10000 9.77 60 21:24 20.04.2022
1895 Clouds 27 1022 60 10000 11.32 70 20:23 20.04.2022
1896 Clouds 27 1022 60 10000 11.32 70 20:23 20.04.2022
1897 Clouds 27 1021 60 10000 8.23 80 19:51 20.04.2022
1898 Clouds 27 1021 61 10000 3.58 64 18:55 20.04.2022
1899 Clouds 27 1022 62 10000 3.13 63 17:53 20.04.2022
1900 Clouds 27 1021 60 10000 7.72 70 16:40 20.04.2022
1901 Clouds 26 1021 64 10000 6.69 70 15:50 20.04.2022
1902 Clouds 24 1020 73 10000 5.66 60 13:41 20.04.2022
1903 Clouds 24 1019 73 10000 4.63 50 11:44 20.04.2022
1904 Clouds 24 1019 75 10000 2.24 49 10:56 20.04.2022
1905 Clouds 24 1018 76 10000 5.14 60 09:46 20.04.2022
1906 Clouds 24 1018 77 10000 1.79 46 08:59 20.04.2022
1907 Clouds 24 1018 75 10000 5.14 60 08:20 20.04.2022
1908 Clouds 25 1019 76 10000 1.79 48 06:56 20.04.2022
1909 Clouds 24 1018 83 10000 6.69 30 03:34 20.04.2022
1910 Clouds 27 1016 74 10000 7.2 40 00:22 20.04.2022
1911 Clouds 28 1016 69 10000 7.72 70 23:37 19.04.2022
1912 Clouds 29 1016 64 10000 7.2 50 22:25 19.04.2022
1913 Clear 29 1016 66 10000 3.58 36 21:55 19.04.2022
1914 Clouds 30 1016 63 10000 7.2 70 21:22 19.04.2022
1915 Clouds 30 1016 61 10000 6.26 40 20:41 19.04.2022
1916 Clouds 30 1016 57 10000 4.63 70 19:52 19.04.2022
1917 Clouds 30 1017 57 10000 3.6 30 18:47 19.04.2022
1918 Clear 29 1017 61 10000 4.63 350 17:32 19.04.2022
1919 Clear 28 1017 66 10000 5.14 10 16:43 19.04.2022
1920 Clear 27 1017 67 10000 5.14 10 16:22 19.04.2022
1921 Clouds 24 1016 82 10000 5.14 340 14:48 19.04.2022
1922 Clouds 22 1015 86 10000 4.12 340 13:49 19.04.2022
1923 Clear 22 1014 87 10000 5.14 340 12:50 19.04.2022
1924 Clear 22 1014 89 10000 0.89 327 11:55 19.04.2022
1925 Clouds 22 1014 89 10000 3.09 340 10:25 19.04.2022
1926 Clear 23 1014 91 10000 3.09 300 09:19 19.04.2022
1927 Clouds 25 1014 83 10000 0 0 04:56 19.04.2022
1928 Clouds 25 1013 81 10000 3.6 120 03:26 19.04.2022
1929 Clouds 26 1012 77 10000 4.63 120 00:55 19.04.2022
1930 Clouds 28 1011 71 10000 5.81 100 23:30 18.04.2022
1931 Clouds 30 1012 62 10000 4.12 120 21:30 18.04.2022
1932 Clear 30 1013 63 10000 2.57 100 20:55 18.04.2022
1933 Clouds 30 1013 62 10000 3.13 110 20:32 18.04.2022
1934 Clouds 30 1013 62 10000 3.13 100 19:49 18.04.2022
1935 Clouds 30 1014 65 10000 2.24 134 18:57 18.04.2022
1936 Clouds 29 1014 65 10000 1.79 131 17:57 18.04.2022
1937 Clouds 29 1015 65 10000 2.24 120 17:34 18.04.2022
1938 Clouds 29 1015 67 10000 1.34 157 16:55 18.04.2022
1939 Clouds 28 1015 67 10000 3.6 110 16:31 18.04.2022
1940 Clouds 26 1014 77 10000 2.57 120 14:51 18.04.2022
1941 Clouds 24 1013 83 10000 3.09 130 13:36 18.04.2022
1942 Clouds 24 1013 85 10000 2.57 90 12:30 18.04.2022
1943 Clouds 24 1013 86 10000 4.12 90 11:35 18.04.2022
1944 Clouds 24 1013 85 10000 4.12 90 10:32 18.04.2022
1945 Clouds 25 1013 84 10000 3.09 100 09:31 18.04.2022
1946 Clouds 25 1014 83 10000 0.89 96 07:54 18.04.2022
1947 Clouds 25 1015 82 10000 6.17 80 05:41 18.04.2022
1948 Clouds 27 1013 73 10000 4.12 100 00:47 18.04.2022
1949 Clouds 29 1013 67 10000 5.66 120 22:41 17.04.2022
1950 Clouds 29 1014 67 10000 6.69 100 21:49 17.04.2022
1951 Clouds 29 1014 67 10000 6.69 100 21:26 17.04.2022
1952 Clouds 29 1014 67 10000 6.71 120 20:41 17.04.2022
1953 Clouds 29 1015 67 10000 7.2 110 19:38 17.04.2022
1954 Clouds 29 1015 70 10000 7.72 110 18:21 17.04.2022
1955 Clouds 27 1016 72 10000 6.69 100 16:27 17.04.2022
1956 Clouds 27 1016 74 10000 6.17 120 15:26 17.04.2022
1957 Clouds 25 1015 80 10000 2.24 100 14:25 17.04.2022
1958 Clouds 23 1015 84 10000 1.54 90 13:18 17.04.2022
1959 Clouds 23 1014 83 10000 3.6 100 12:27 17.04.2022
1960 Clouds 24 1014 80 10000 4.63 100 10:46 17.04.2022
1961 Clouds 24 1014 81 10000 4.63 100 10:28 17.04.2022
1962 Clouds 24 1015 82 10000 4.12 100 09:37 17.04.2022
1963 Clear 24 1015 84 10000 4.02 100 08:53 17.04.2022
1964 Clouds 25 1016 83 10000 6.71 100 07:37 17.04.2022
1965 Clear 24 1016 86 10000 3.13 110 04:51 17.04.2022
1966 Clouds 26 1015 77 10000 5.81 100 01:38 17.04.2022
1967 Clouds 28 1015 73 10000 1.79 0 23:54 16.04.2022
1968 Clouds 28 1015 69 10000 6.69 100 22:41 16.04.2022
1969 Clouds 28 1015 69 10000 4.63 140 21:41 16.04.2022
1970 Clouds 28 1016 68 10000 4.63 130 20:35 16.04.2022
1971 Clouds 29 1016 67 10000 7.2 150 19:18 16.04.2022
1972 Clouds 28 1017 67 10000 6.17 120 18:28 16.04.2022
1973 Clouds 27 1017 74 10000 6.17 120 16:41 16.04.2022
1974 Clouds 27 1017 76 10000 5.36 90 15:46 16.04.2022
1975 Clouds 26 1016 81 10000 2.24 82 14:57 16.04.2022
1976 Clear 24 1016 85 10000 1.34 79 13:58 16.04.2022
1977 Clouds 24 1016 85 10000 3.6 100 13:37 16.04.2022
1978 Clouds 24 1016 85 10000 3.6 100 13:37 16.04.2022
1979 Clouds 23 1016 85 10000 2.68 90 12:27 16.04.2022
1980 Clouds 24 1015 84 10000 3.6 90 11:19 16.04.2022
1981 Clear 24 1016 84 10000 1.34 99 09:57 16.04.2022
1982 Clear 23 1017 84 10000 1.34 90 08:59 16.04.2022
1983 Clouds 23 1016 84 10000 4.12 100 08:18 16.04.2022
1984 Clouds 24 1017 83 10000 1.34 86 06:59 16.04.2022
1985 Clouds 24 1017 85 10000 6.71 100 03:48 16.04.2022
1986 Mist 24 1016 88 4828 7.72 60 00:35 16.04.2022
1987 Clouds 26 1015 78 10000 6.17 60 23:27 15.04.2022
1988 Clouds 26 1015 79 10000 3.09 30 22:37 15.04.2022
1989 Clouds 26 1015 83 10000 1.34 0 21:58 15.04.2022
1990 Clouds 26 1015 82 10000 5.36 80 21:18 15.04.2022
1991 Clouds 26 1015 82 10000 5.36 80 21:18 15.04.2022
1992 Clouds 26 1015 82 10000 5.36 80 21:18 15.04.2022
1993 Clouds 26 1016 84 10000 5.66 70 20:27 15.04.2022
1994 Rain 27 1017 80 10000 3.6 120 19:40 15.04.2022
1995 Mist 27 1017 84 4828 4.63 110 18:54 15.04.2022
1996 Thunderstorm 28 1017 80 10000 3.13 152 18:25 15.04.2022
1997 Clouds 27 1017 80 10000 5.81 150 17:48 15.04.2022
1998 Rain 27 1017 79 9656 5.81 150 17:21 15.04.2022
1999 Clouds 27 1018 81 10000 3.6 160 16:23 15.04.2022
2000 Clouds 26 1017 84 10000 3.6 140 15:24 15.04.2022
2001 Clouds 24 1016 92 10000 1.69 106 13:55 15.04.2022
2002 Clouds 24 1016 91 10000 0.89 101 12:46 15.04.2022
2003 Clouds 24 1016 92 10000 0.45 135 11:59 15.04.2022
2004 Clouds 24 1015 91 10000 2.24 140 11:40 15.04.2022
2005 Clouds 24 1016 90 10000 0.45 72 10:45 15.04.2022
2006 Clouds 24 1016 89 10000 2.06 160 09:50 15.04.2022
2007 Clouds 24 1016 89 10000 2.06 160 09:21 15.04.2022
2008 Clouds 24 1017 89 10000 1.54 130 07:53 15.04.2022
2009 Clouds 25 1017 88 10000 3.6 140 06:46 15.04.2022
2010 Clouds 26 1016 85 10000 5.14 110 03:47 15.04.2022
2011 Clouds 28 1015 74 10000 5.66 160 23:42 14.04.2022
2012 Clouds 28 1015 72 10000 5.66 160 23:19 14.04.2022
2013 Clouds 28 1015 73 10000 8.23 150 22:42 14.04.2022
2014 Clouds 28 1015 73 10000 8.23 150 22:24 14.04.2022
2015 Clouds 29 1016 71 10000 7.72 130 21:32 14.04.2022
2016 Clouds 29 1017 71 10000 7.2 100 19:24 14.04.2022
2017 Clouds 29 1018 71 10000 6.26 150 18:31 14.04.2022
2018 Clouds 28 1018 72 10000 6.71 120 17:44 14.04.2022
2019 Clouds 28 1018 73 10000 6.69 120 16:49 14.04.2022
2020 Clouds 27 1018 76 10000 7.2 120 15:48 14.04.2022
2021 Clouds 24 1017 85 10000 3.13 120 13:49 14.04.2022
2022 Clouds 24 1017 86 10000 3.09 120 13:18 14.04.2022
2023 Clouds 24 1016 85 10000 3.6 130 12:32 14.04.2022
2024 Clouds 24 1016 84 10000 3.6 130 11:36 14.04.2022
2025 Clear 24 1016 85 10000 0.89 130 10:57 14.04.2022
2026 Clouds 24 1016 83 10000 5.36 130 10:29 14.04.2022
2027 Clouds 24 1016 83 10000 4.12 140 09:26 14.04.2022
2028 Clouds 24 1016 82 10000 5.81 100 07:52 14.04.2022
2029 Clear 25 1017 79 10000 6.71 100 05:23 14.04.2022
2030 Clouds 27 1017 69 10000 6.71 130 23:50 13.04.2022
2031 Clouds 27 1017 66 10000 7.2 130 22:37 13.04.2022
2032 Clouds 28 1018 66 10000 6.26 110 21:42 13.04.2022
2033 Clouds 27 1019 65 10000 6.17 120 20:35 13.04.2022
2034 Clouds 27 1019 65 10000 6.71 110 19:46 13.04.2022
2035 Clouds 27 1020 63 10000 7.72 120 18:36 13.04.2022
2036 Clouds 27 1020 65 10000 7.2 120 17:25 13.04.2022
2037 Clouds 27 1019 67 10000 8.23 100 16:49 13.04.2022
2038 Clouds 26 1019 68 10000 6.69 120 15:44 13.04.2022
2039 Clouds 26 1019 69 10000 6.69 120 15:23 13.04.2022
2040 Clouds 25 1019 71 10000 5.36 100 14:34 13.04.2022
2041 Clouds 23 1018 74 10000 4.63 100 13:37 13.04.2022
2042 Clouds 23 1018 74 10000 4.63 110 12:45 13.04.2022
2043 Clouds 23 1018 74 10000 5.81 110 11:32 13.04.2022
2044 Clouds 23 1018 74 10000 5.81 100 10:27 13.04.2022
2045 Clouds 23 1019 72 10000 6.26 100 08:45 13.04.2022
2046 Clouds 24 1020 71 10000 5.66 110 07:44 13.04.2022
2047 Clouds 24 1020 69 10000 7.2 100 06:47 13.04.2022
2048 Clouds 24 1020 68 10000 7.2 100 06:23 13.04.2022
2049 Clouds 25 1020 61 10000 7.2 80 00:52 13.04.2022
2050 Clouds 26 1020 59 10000 7.2 80 00:19 13.04.2022
2051 Clouds 27 1020 58 10000 7.72 110 22:33 12.04.2022
2052 Clouds 27 1020 57 10000 6.71 130 21:51 12.04.2022
2053 Clouds 27 1021 56 10000 8.23 100 20:48 12.04.2022
2054 Clouds 27 1021 55 10000 8.23 100 20:19 12.04.2022
2055 Clouds 27 1022 57 10000 7.2 100 19:40 12.04.2022
2056 Clear 27 1022 60 10000 2.24 81 18:56 12.04.2022
2057 Clouds 26 1022 57 10000 6.71 80 17:38 12.04.2022
2058 Clouds 26 1022 59 10000 8.23 80 16:38 12.04.2022
2059 Clouds 24 1021 63 10000 7.72 120 15:34 12.04.2022
2060 Clouds 24 1021 62 10000 6.71 100 14:48 12.04.2022
2061 Clouds 23 1021 64 10000 4.63 100 13:45 12.04.2022
2062 Clouds 22 1020 66 10000 4.63 100 13:24 12.04.2022
2063 Clear 22 1020 68 10000 1.79 79 11:57 12.04.2022
2064 Clouds 22 1019 66 10000 5.81 80 11:32 12.04.2022
2065 Clouds 23 1020 66 10000 5.81 100 09:47 12.04.2022
2066 Clouds 23 1020 66 10000 6.26 90 08:38 12.04.2022
2067 Clouds 23 1022 65 10000 5.81 100 06:46 12.04.2022
2068 Clouds 23 1022 65 10000 5.81 100 05:38 12.04.2022
2069 Clear 23 1020 65 10000 1.79 47 01:48 12.04.2022
2070 Clouds 25 1021 58 10000 7.2 110 23:20 11.04.2022
2071 Clear 26 1021 58 10000 2.68 87 21:59 11.04.2022
2072 Clouds 26 1021 54 10000 7.2 130 21:18 11.04.2022
2073 Clouds 26 1022 54 10000 8.23 100 20:34 11.04.2022
2074 Clear 26 1022 58 10000 2.68 94 19:58 11.04.2022
2075 Clouds 26 1022 55 10000 7.72 80 19:26 11.04.2022
2076 Clear 25 1023 57 10000 2.24 92 18:53 11.04.2022
2077 Clear 25 1023 60 10000 1.79 83 17:58 11.04.2022
2078 Clouds 25 1023 58 10000 8.75 100 17:33 11.04.2022
2079 Clouds 24 1022 60 10000 6.71 70 16:26 11.04.2022
2080 Clouds 22 1021 67 10000 3.6 80 14:42 11.04.2022
2081 Clouds 20 1020 70 10000 4.12 100 13:34 11.04.2022
2082 Clouds 20 1019 70 10000 3.13 90 12:38 11.04.2022
2083 Clear 20 1019 72 10000 1.34 0 11:54 11.04.2022
2084 Clouds 20 1019 70 10000 2.68 90 10:35 11.04.2022
2085 Clouds 20 1019 68 10000 3.13 110 09:34 11.04.2022
2086 Clear 21 1020 68 10000 1.79 92 07:53 11.04.2022
2087 Clouds 21 1021 62 10000 3.6 60 03:19 11.04.2022
2088 Clouds 24 1019 53 10000 6.17 50 23:22 10.04.2022
2089 Clouds 25 1019 51 10000 7.2 60 22:26 10.04.2022
2090 Clouds 25 1020 50 10000 5.14 80 21:35 10.04.2022
2091 Clouds 25 1020 50 10000 5.14 70 20:50 10.04.2022
2092 Clear 25 1020 51 10000 2.68 9 19:53 10.04.2022
2093 Clouds 24 1021 50 10000 4.63 60 19:30 10.04.2022
2094 Clouds 24 1022 51 10000 6.17 70 18:46 10.04.2022
2095 Clear 23 1022 55 10000 2.24 34 17:58 10.04.2022
2096 Clear 23 1022 55 10000 2.24 34 17:58 10.04.2022
2097 Clouds 23 1021 54 10000 4.12 10 17:39 10.04.2022
2098 Clouds 21 1021 54 10000 4.12 350 16:44 10.04.2022
2099 Clouds 18 1021 55 10000 4.12 360 15:37 10.04.2022
2100 Clouds 15 1021 56 10000 3.6 350 14:34 10.04.2022
2101 Clear 13 1020 55 10000 3.6 350 12:40 10.04.2022
2102 Clear 13 1020 58 10000 3.6 350 12:21 10.04.2022
2103 Clear 13 1020 61 10000 3.6 360 11:29 10.04.2022
2104 Clear 14 1020 62 10000 0.89 350 10:56 10.04.2022
2105 Clear 14 1020 65 10000 1.34 338 10:00 10.04.2022
2106 Clear 15 1020 64 10000 5.14 350 09:38 10.04.2022
2107 Clear 15 1020 60 10000 5.36 330 08:23 10.04.2022
2108 Clear 16 1020 59 10000 5.36 330 07:42 10.04.2022
2109 Clouds 18 1019 59 10000 1.34 296 05:57 10.04.2022
2110 Clouds 22 1017 43 10000 7.2 310 02:34 10.04.2022
2111 Clouds 26 1016 36 10000 7.72 290 00:29 10.04.2022
2112 Clouds 26 1016 35 10000 10.8 280 23:49 09.04.2022
2113 Clouds 27 1016 37 10000 9.26 280 22:48 09.04.2022
2114 Clouds 27 1017 38 10000 9.26 280 21:46 09.04.2022
2115 Clouds 27 1017 40 10000 8.75 290 20:50 09.04.2022
2116 Clouds 26 1017 41 10000 8.75 290 20:26 09.04.2022
2117 Clouds 26 1018 43 10000 8.23 300 19:42 09.04.2022
2118 Clouds 26 1018 45 10000 8.23 300 19:18 09.04.2022
2119 Clouds 25 1019 46 10000 7.2 310 18:21 09.04.2022
2120 Clouds 24 1020 50 10000 6.17 310 17:39 09.04.2022
2121 Clouds 23 1019 53 10000 4.12 300 16:52 09.04.2022
2122 Clear 22 1019 57 10000 1.79 212 15:57 09.04.2022
2123 Clouds 21 1019 59 10000 2.57 260 15:39 09.04.2022
2124 Clouds 19 1018 69 10000 1.54 250 14:44 09.04.2022
2125 Clouds 18 1019 73 10000 1.54 250 14:23 09.04.2022
2126 Clouds 17 1018 68 10000 2.57 300 13:18 09.04.2022
2127 Clouds 17 1018 69 10000 3.09 330 12:41 09.04.2022
2128 Clouds 18 1017 71 10000 4.12 320 11:38 09.04.2022
2129 Clouds 18 1017 65 10000 3.6 300 10:21 09.04.2022
2130 Clouds 18 1017 66 10000 2.57 280 09:42 09.04.2022
2131 Clouds 18 1017 67 10000 0.89 0 08:54 09.04.2022
2132 Clouds 19 1018 62 10000 3.6 290 07:22 09.04.2022
2133 Clouds 24 1015 53 10000 5.66 290 02:20 09.04.2022
2134 Clouds 27 1014 51 10000 1.34 0 23:53 08.04.2022
2135 Clouds 27 1014 50 10000 1.34 327 22:55 08.04.2022
2136 Clouds 27 1014 46 10000 3.13 290 21:29 08.04.2022
2137 Clouds 27 1015 44 10000 6.17 300 20:39 08.04.2022
2138 Clouds 27 1015 47 10000 6.17 310 19:20 08.04.2022
2139 Clouds 26 1016 50 10000 8.23 310 18:31 08.04.2022
2140 Clouds 25 1016 53 10000 8.23 320 17:52 08.04.2022
2141 Clouds 25 1016 55 10000 8.23 320 17:26 08.04.2022
2142 Clouds 24 1016 58 10000 7.72 320 16:49 08.04.2022
2143 Clouds 23 1016 62 10000 3.13 0 15:57 08.04.2022
2144 Clouds 22 1015 65 10000 7.72 330 15:26 08.04.2022
2145 Clouds 22 1015 66 10000 7.2 320 14:39 08.04.2022
2146 Clouds 22 1014 64 10000 7.72 330 13:48 08.04.2022
2147 Clouds 22 1014 62 10000 7.72 330 13:29 08.04.2022
2148 Clouds 23 1014 78 10000 6.17 320 12:18 08.04.2022
2149 Clouds 24 1013 85 10000 4.12 290 10:38 08.04.2022
2150 Clouds 24 1012 88 10000 4.12 280 09:39 08.04.2022
2151 Clouds 24 1012 90 10000 0.45 309 08:58 08.04.2022
2152 Clouds 25 1012 87 10000 4.12 250 07:31 08.04.2022
2153 Clouds 25 1012 86 10000 2.68 210 06:38 08.04.2022
2154 Clouds 28 1012 72 10000 7.72 270 01:45 08.04.2022
2155 Clouds 30 1011 69 10000 5.36 250 00:26 08.04.2022
2156 Clouds 31 1010 67 10000 2.68 224 23:00 07.04.2022
2157 Clouds 32 1011 62 10000 6.26 240 22:40 07.04.2022
2158 Clouds 32 1011 59 10000 6.26 240 22:22 07.04.2022
2159 Clouds 32 1011 62 10000 2.68 209 21:56 07.04.2022
2160 Clouds 32 1011 64 10000 7.2 240 21:19 07.04.2022
2161 Clouds 32 1011 66 10000 8.23 210 20:41 07.04.2022
2162 Clouds 31 1012 76 10000 5.14 160 18:54 07.04.2022
2163 Clouds 30 1013 76 10000 7.72 170 17:27 07.04.2022
2164 Clouds 29 1013 77 10000 8.23 170 16:45 07.04.2022
2165 Clouds 29 1013 77 10000 8.23 170 16:23 07.04.2022
2166 Clouds 28 1013 80 10000 6.69 180 15:19 07.04.2022
2167 Clouds 26 1012 86 10000 6.17 180 13:45 07.04.2022
2168 Clouds 26 1012 86 10000 6.17 180 13:22 07.04.2022
2169 Clouds 26 1012 87 10000 5.14 170 11:40 07.04.2022
2170 Clouds 26 1012 89 10000 4.12 170 10:27 07.04.2022
2171 Clouds 26 1013 90 10000 3.13 150 08:39 07.04.2022
2172 Clear 26 1014 90 10000 1.34 0 06:58 07.04.2022
2173 Clear 27 1013 88 10000 1.79 142 03:59 07.04.2022
2174 Clear 27 1013 84 10000 5.14 160 02:28 07.04.2022
2175 Clouds 30 1012 77 10000 6.69 170 00:42 07.04.2022
2176 Clouds 31 1012 74 10000 2.68 148 22:58 06.04.2022
2177 Clouds 31 1012 72 10000 6.69 170 22:39 06.04.2022
2178 Clouds 31 1013 71 10000 5.66 170 21:47 06.04.2022
2179 Clouds 32 1013 70 10000 7.72 180 20:41 06.04.2022
2180 Clouds 31 1013 73 10000 3.58 161 19:59 06.04.2022
2181 Clouds 31 1014 74 10000 4.92 201 18:53 06.04.2022
2182 Clouds 31 1013 72 10000 5.81 170 18:34 06.04.2022
2183 Clouds 30 1014 74 10000 7.72 180 17:35 06.04.2022
2184 Clouds 29 1014 78 10000 7.2 170 16:39 06.04.2022
2185 Clouds 28 1014 82 10000 6.69 170 15:49 06.04.2022
2186 Clouds 28 1014 82 10000 6.69 170 15:30 06.04.2022
2187 Clouds 26 1013 87 10000 5.14 160 13:30 06.04.2022
2188 Clouds 26 1012 87 10000 4.12 160 12:28 06.04.2022
2189 Clouds 26 1012 87 10000 2.24 142 10:57 06.04.2022
2190 Clouds 26 1012 86 10000 5.14 170 10:32 06.04.2022
2191 Clouds 26 1012 86 10000 4.63 150 09:43 06.04.2022
2192 Clear 26 1013 86 10000 4.12 160 08:39 06.04.2022
2193 Clouds 26 1013 87 10000 2.24 136 07:56 06.04.2022
2194 Clear 26 1014 86 10000 3.6 130 05:23 06.04.2022
2195 Clouds 29 1012 76 10000 2.24 139 23:58 05.04.2022
2196 Clouds 29 1012 74 10000 8.23 160 23:33 05.04.2022
2197 Clouds 30 1013 73 10000 6.69 160 21:48 05.04.2022
2198 Clouds 30 1013 73 10000 6.69 160 21:48 05.04.2022
2199 Clouds 30 1013 73 10000 1.79 184 20:54 05.04.2022
2200 Clouds 29 1013 73 10000 7.2 140 20:23 05.04.2022
2201 Clouds 29 1015 72 10000 7.72 180 18:28 05.04.2022
2202 Clouds 29 1016 74 10000 7.72 130 17:20 05.04.2022
2203 Clouds 28 1015 78 10000 7.2 160 16:42 05.04.2022
2204 Clouds 28 1015 80 10000 6.69 140 15:50 05.04.2022
2205 Clouds 27 1015 81 10000 6.69 140 15:30 05.04.2022
2206 Clouds 25 1014 88 10000 4.12 110 13:45 05.04.2022
2207 Clouds 25 1014 90 10000 2.57 160 11:55 05.04.2022
2208 Clouds 25 1013 90 10000 2.68 110 11:33 05.04.2022
2209 Clear 25 1014 90 10000 1.79 129 10:58 05.04.2022
2210 Clouds 25 1014 89 10000 3.6 150 09:31 05.04.2022
2211 Clouds 25 1014 88 10000 4.12 130 08:27 05.04.2022
2212 Clouds 25 1014 88 10000 3.09 130 03:38 05.04.2022
2213 Rain 26 1013 83 10000 5.81 90 23:38 04.04.2022
2214 Clouds 27 1014 78 10000 5.81 130 22:37 04.04.2022
2215 Clouds 27 1014 74 10000 6.69 110 21:48 04.04.2022
2216 Clouds 27 1014 73 10000 6.69 110 21:19 04.04.2022
2217 Clouds 27 1015 78 10000 5.14 110 20:47 04.04.2022
2218 Thunderstorm 26 1015 83 10000 4.63 110 19:28 04.04.2022
2219 Thunderstorm 26 1015 84 10000 4.63 100 18:43 04.04.2022
2220 Rain 27 1015 79 10000 6.17 100 17:20 04.04.2022
2221 Clouds 27 1015 79 10000 5.36 80 16:31 04.04.2022
2222 Clouds 26 1015 79 10000 5.81 90 15:33 04.04.2022
2223 Clouds 26 1014 84 10000 3.13 100 14:46 04.04.2022
2224 Clouds 25 1014 86 10000 3.13 100 14:27 04.04.2022
2225 Clouds 24 1013 90 10000 0.89 72 12:58 04.04.2022
2226 Clouds 24 1012 88 10000 2.68 100 11:29 04.04.2022
2227 Clouds 24 1012 89 10000 2.57 80 10:29 04.04.2022
2228 Clouds 24 1013 89 10000 0.45 58 06:58 04.04.2022
2229 Clouds 24 1013 87 10000 3.6 110 03:18 04.04.2022
2230 Clouds 27 1012 73 10000 2.57 10 23:42 03.04.2022
2231 Clouds 28 1012 67 10000 5.14 280 22:18 03.04.2022
2232 Clouds 29 1012 66 10000 4.12 330 21:32 03.04.2022
2233 Clouds 29 1013 68 10000 3.6 320 20:35 03.04.2022
2234 Clouds 29 1014 67 10000 2.68 330 18:51 03.04.2022
2235 Clouds 27 1014 74 8932 0.45 13 17:57 03.04.2022
2236 Clouds 26 1014 75 10000 4.12 330 17:37 03.04.2022
2237 Clouds 25 1014 80 10000 4.12 340 16:50 03.04.2022
2238 Clouds 24 1014 85 10000 3.6 340 15:57 03.04.2022
2239 Clouds 22 1014 91 10000 2.24 320 14:27 03.04.2022
2240 Clouds 22 1013 91 10000 2.06 340 13:34 03.04.2022
2241 Clouds 22 1012 91 10000 4.12 180 11:51 03.04.2022
2242 Clouds 22 1012 92 10000 6.17 160 10:22 03.04.2022
2243 Rain 21 1014 91 10000 2.57 140 09:19 03.04.2022
2244 Clouds 23 1017 86 10000 5.66 360 06:41 03.04.2022
2245 Clouds 27 1015 75 10000 1.34 227 02:56 03.04.2022
2246 Clouds 29 1013 69 10000 7.2 170 23:50 02.04.2022
2247 Clouds 30 1013 69 10000 6.69 160 22:52 02.04.2022
2248 Clouds 30 1014 69 10000 3.58 154 21:56 02.04.2022
2249 Clouds 30 1014 67 10000 6.69 160 21:26 02.04.2022
2250 Clouds 31 1015 66 10000 6.26 160 20:39 02.04.2022
2251 Clouds 30 1016 69 10000 6.17 160 18:51 02.04.2022
2252 Clouds 30 1017 70 10000 6.17 160 18:20 02.04.2022
2253 Clouds 29 1017 71 10000 5.36 150 17:43 02.04.2022
2254 Clear 28 1017 78 10000 1.79 169 15:59 02.04.2022
2255 Smoke 27 1017 84 10000 2.68 170 15:20 02.04.2022
2256 Smoke 25 1017 91 10000 1.54 180 14:32 02.04.2022
2257 Smoke 25 1017 93 10000 1.54 230 13:34 02.04.2022
2258 Clouds 25 1016 93 10000 1.54 200 12:32 02.04.2022
2259 Clouds 25 1016 94 10000 2.57 200 10:50 02.04.2022
2260 Clouds 25 1017 92 10000 2.24 160 08:44 02.04.2022
2261 Clouds 25 1017 90 10000 2.24 180 06:43 02.04.2022
2262 Clouds 26 1017 85 10000 2.68 200 03:31 02.04.2022
2263 Clouds 29 1015 77 10000 3.58 0 23:55 01.04.2022
2264 Clouds 30 1014 75 10000 3.13 168 22:55 01.04.2022
2265 Clouds 30 1015 70 10000 6.26 160 21:31 01.04.2022
2266 Clouds 30 1016 71 10000 7.2 170 20:50 01.04.2022
2267 Clouds 30 1016 71 10000 5.81 160 19:51 01.04.2022
2268 Clouds 30 1017 70 10000 5.81 160 19:30 01.04.2022
2269 Clouds 30 1017 73 10000 3.6 170 18:44 01.04.2022
2270 Clouds 30 1017 73 10000 6.69 190 17:46 01.04.2022
2271 Clouds 28 1017 77 10000 5.14 180 16:42 01.04.2022
2272 Clouds 27 1016 84 10000 5.66 190 15:23 01.04.2022
2273 Clear 25 1016 91 10000 4.12 190 14:19 01.04.2022
2274 Clouds 25 1016 91 10000 4.63 180 13:33 01.04.2022
2275 Clouds 25 1015 91 10000 4.12 180 12:32 01.04.2022
2276 Clouds 25 1015 89 10000 4.12 180 11:33 01.04.2022
2277 Clear 25 1014 89 10000 3.13 160 10:18 01.04.2022
2278 Clouds 25 1015 88 10000 2.24 149 07:59 01.04.2022
2279 Clouds 25 1015 86 10000 7.2 160 06:31 01.04.2022
2280 Clouds 25 1015 85 10000 5.66 140 04:47 01.04.2022
2281 Clouds 25 1015 84 10000 5.66 140 04:28 01.04.2022
2282 Clouds 26 1014 80 10000 6.71 140 01:54 01.04.2022
2283 Clouds 28 1013 73 10000 3.13 149 22:58 31.03.2022
2284 Clouds 28 1014 69 10000 8.75 160 21:50 31.03.2022
2285 Clouds 28 1014 68 10000 8.75 160 21:31 31.03.2022
2286 Clouds 29 1015 66 10000 8.23 170 20:29 31.03.2022
2287 Clouds 28 1016 66 10000 9.26 160 19:48 31.03.2022
2288 Clouds 28 1017 68 10000 10.29 160 18:43 31.03.2022
2289 Clouds 28 1016 69 10000 9.83 150 17:41 31.03.2022
2290 Clouds 28 1016 72 10000 9.77 170 16:34 31.03.2022
2291 Clouds 26 1015 75 10000 8.75 160 15:37 31.03.2022
2292 Clouds 26 1015 76 10000 8.75 160 15:19 31.03.2022
2293 Clouds 25 1015 79 10000 7.2 150 14:34 31.03.2022
2294 Clouds 25 1013 76 10000 8.23 150 11:43 31.03.2022
2295 Clouds 25 1014 77 10000 4.47 140 10:55 31.03.2022
2296 Clouds 25 1014 75 10000 8.23 130 09:44 31.03.2022
2297 Clouds 24 1015 74 10000 9.26 140 07:55 31.03.2022
2298 Clouds 25 1016 75 10000 7.2 130 04:46 31.03.2022
2299 Smoke 27 1017 64 10000 8.75 120 23:37 30.03.2022
2300 Clouds 27 1018 65 10000 9.83 110 22:27 30.03.2022
2301 Clouds 27 1018 65 10000 10.29 130 21:38 30.03.2022
2302 Clouds 27 1019 63 10000 9.39 110 20:44 30.03.2022
2303 Clear 28 1019 64 10000 2.24 100 19:59 30.03.2022
2304 Clear 28 1020 63 10000 2.24 103 18:59 30.03.2022
2305 Clear 27 1020 66 10000 3.13 120 17:53 30.03.2022
2306 Clouds 27 1020 64 10000 9.39 110 17:34 30.03.2022
2307 Clouds 26 1020 64 10000 9.39 110 16:54 30.03.2022
2308 Clouds 26 1020 64 10000 9.39 110 16:31 30.03.2022
2309 Clear 25 1019 69 10000 2.24 134 14:56 30.03.2022
2310 Clear 23 1019 72 10000 4.63 120 13:34 30.03.2022
2311 Clear 23 1018 72 10000 4.63 130 12:41 30.03.2022
2312 Clear 23 1018 71 10000 1.34 118 10:55 30.03.2022
2313 Clouds 23 1018 68 10000 4.12 110 09:58 30.03.2022
2314 Clear 23 1019 71 10000 1.79 113 08:57 30.03.2022
2315 Clear 23 1020 70 10000 3.13 110 07:31 30.03.2022
2316 Clear 23 1021 70 10000 4.12 100 05:40 30.03.2022
2317 Clear 24 1020 71 10000 4.63 110 03:31 30.03.2022
2318 Clear 27 1020 58 10000 4.63 80 23:42 29.03.2022
2319 Clear 28 1020 54 10000 5.14 70 22:19 29.03.2022
2320 Clear 28 1020 53 10000 6.26 110 21:41 29.03.2022
2321 Clear 28 1021 51 10000 4.63 100 20:49 29.03.2022
2322 Clear 28 1022 48 10000 4.12 80 19:47 29.03.2022
2323 Clear 28 1022 49 10000 2.24 95 18:54 29.03.2022
2324 Clear 28 1023 44 10000 3.13 0 18:18 29.03.2022
2325 Clear 27 1023 45 10000 4.12 40 17:21 29.03.2022
2326 Clear 26 1023 49 10000 0.89 98 16:56 29.03.2022
2327 Clear 23 1023 64 10000 2.57 360 15:57 29.03.2022
2328 Clear 20 1022 83 10000 3.09 350 14:48 29.03.2022
2329 Clear 18 1021 80 10000 2.06 350 13:52 29.03.2022
2330 Clear 18 1021 80 10000 1.54 290 12:47 29.03.2022
2331 Clear 19 1020 79 10000 1.54 280 11:31 29.03.2022
2332 Clear 19 1020 79 10000 1.54 300 10:27 29.03.2022
2333 Clear 20 1021 77 10000 2.24 280 09:23 29.03.2022
2334 Clouds 20 1020 74 10000 3.57 230 06:55 29.03.2022
2335 Clear 22 1021 66 10000 2.57 160 03:47 29.03.2022
2336 Clouds 26 1020 50 10000 2.68 148 23:54 28.03.2022
2337 Clouds 27 1020 48 10000 2.24 144 22:59 28.03.2022
2338 Clouds 27 1020 44 10000 4.12 140 22:39 28.03.2022
2339 Clouds 27 1020 43 10000 4.12 140 22:19 28.03.2022
2340 Clouds 27 1021 42 10000 2.24 82 20:53 28.03.2022
2341 Clouds 27 1021 40 10000 1.79 97 19:59 28.03.2022
2342 Clouds 27 1022 39 10000 1.79 102 19:40 28.03.2022
2343 Clouds 27 1022 40 10000 2.06 330 18:52 28.03.2022
2344 Clouds 26 1022 40 10000 2.06 330 18:19 28.03.2022
2345 Clouds 25 1022 42 10000 3.13 340 17:30 28.03.2022
2346 Clouds 22 1022 55 10000 3.09 350 15:48 28.03.2022
2347 Clouds 18 1021 70 10000 2.06 340 14:24 28.03.2022
2348 Clouds 16 1020 73 10000 2.06 330 13:33 28.03.2022
2349 Clouds 18 1019 73 10000 1.83 282 11:57 28.03.2022
2350 Clear 18 1019 74 10000 2.06 290 10:49 28.03.2022
2351 Clear 18 1020 72 10000 2.57 260 09:38 28.03.2022
2352 Clear 19 1020 69 10000 2.57 260 08:46 28.03.2022
2353 Clear 19 1020 68 10000 2.57 260 08:21 28.03.2022
2354 Clear 20 1020 65 10000 2.06 240 07:26 28.03.2022
2355 Clear 22 1019 55 10000 3.13 150 02:48 28.03.2022
2356 Clear 27 1017 36 10000 0.89 90 22:59 27.03.2022
2357 Clear 27 1018 31 10000 6.69 350 22:22 27.03.2022
2358 Clear 27 1018 28 10000 5.36 320 21:40 27.03.2022
2359 Clear 27 1018 29 10000 6.17 350 20:42 27.03.2022
2360 Clear 26 1019 30 10000 6.26 350 19:44 27.03.2022
2361 Clear 25 1019 34 10000 7.2 10 18:47 27.03.2022
2362 Clear 25 1019 34 10000 7.2 10 18:47 27.03.2022
2363 Clear 25 1019 35 10000 7.2 10 18:25 27.03.2022
2364 Clear 23 1020 39 10000 6.17 340 17:37 27.03.2022
2365 Clear 21 1020 61 10000 2.68 3 15:57 27.03.2022
2366 Clear 17 1019 77 10000 4.12 330 14:22 27.03.2022
2367 Clear 16 1018 76 10000 4.63 330 13:33 27.03.2022
2368 Clear 16 1017 73 10000 4.63 320 11:46 27.03.2022
2369 Clear 16 1017 69 10000 4.63 310 10:23 27.03.2022
2370 Clear 17 1017 71 10000 6.56 329 07:55 27.03.2022
2371 Clear 20 1018 66 10000 5.14 300 05:18 27.03.2022
2372 Clouds 24 1015 51 10000 2.57 300 00:30 27.03.2022
2373 Clear 26 1014 42 10000 1.34 324 22:58 26.03.2022
2374 Clear 26 1014 36 10000 4.12 290 22:27 26.03.2022
2375 Clear 26 1014 38 10000 3.6 310 21:31 26.03.2022
2376 Clear 25 1015 42 10000 5.36 320 19:45 26.03.2022
2377 Clear 25 1016 42 10000 5.14 310 18:44 26.03.2022
2378 Clear 24 1017 42 10000 5.66 330 17:44 26.03.2022
2379 Clear 24 1017 42 10000 5.66 330 17:44 26.03.2022
2380 Clear 23 1017 54 10000 5.66 320 16:47 26.03.2022
2381 Clear 21 1017 64 10000 6.17 340 15:43 26.03.2022
2382 Clear 19 1017 75 10000 5.66 330 14:18 26.03.2022
2383 Clear 18 1017 77 10000 4.63 330 13:47 26.03.2022
2384 Clear 17 1016 73 10000 1.54 330 12:36 26.03.2022
2385 Clear 17 1016 73 10000 0.45 316 10:56 26.03.2022
2386 Clear 17 1015 70 10000 2.24 0 09:21 26.03.2022
2387 Clear 18 1016 70 10000 4.63 330 07:36 26.03.2022
2388 Clear 19 1016 68 10000 5.14 320 05:52 26.03.2022
2389 Clouds 21 1016 55 10000 0 0 03:22 26.03.2022
2390 Clouds 25 1014 37 10000 5.14 310 22:50 25.03.2022
2391 Clouds 25 1015 46 10000 1.34 352 20:58 25.03.2022
2392 Clouds 25 1015 45 10000 4.63 350 20:37 25.03.2022
2393 Clouds 24 1015 48 10000 6.17 330 19:21 25.03.2022
2394 Clouds 24 1016 57 10000 5.14 350 18:37 25.03.2022
2395 Clouds 22 1017 60 10000 4.12 360 17:34 25.03.2022
2396 Clouds 22 1017 62 10000 3.13 350 16:38 25.03.2022
2397 Clouds 21 1017 70 10000 5.14 340 15:46 25.03.2022
2398 Clouds 19 1016 87 10000 6.69 340 13:32 25.03.2022
2399 Clouds 20 1014 93 10000 6.17 330 11:38 25.03.2022
2400 Thunderstorm 22 1013 92 8047 5.14 320 09:46 25.03.2022
2401 Clouds 25 1012 88 10000 5.66 320 08:59 25.03.2022
2402 Clouds 25 1013 85 10000 3.6 190 07:47 25.03.2022
2403 Clouds 26 1014 85 10000 3.6 190 07:20 25.03.2022
2404 Clouds 26 1015 84 10000 0.89 196 03:58 25.03.2022
2405 Clouds 28 1013 74 10000 3.13 166 23:54 24.03.2022
2406 Clouds 30 1013 68 10000 5.81 190 22:24 24.03.2022
2407 Clouds 30 1013 69 10000 6.69 180 21:24 24.03.2022
2408 Clouds 30 1014 69 10000 8.23 170 19:50 24.03.2022
2409 Clouds 30 1015 70 10000 7.72 170 18:45 24.03.2022
2410 Clouds 29 1016 72 10000 8.23 180 17:38 24.03.2022
2411 Clouds 29 1016 74 10000 10.29 160 16:39 24.03.2022
2412 Clouds 27 1016 80 10000 7.2 150 14:53 24.03.2022
2413 Clouds 27 1016 80 10000 6.17 160 14:32 24.03.2022
2414 Clouds 26 1016 85 10000 5.14 170 13:36 24.03.2022
2415 Clouds 25 1015 86 10000 5.36 150 12:29 24.03.2022
2416 Clouds 25 1015 87 10000 5.14 160 11:27 24.03.2022
2417 Clouds 25 1015 86 10000 7.2 160 09:34 24.03.2022
2418 Clouds 25 1015 86 10000 6.17 160 08:38 24.03.2022
2419 Clouds 25 1016 86 10000 5.14 160 05:36 24.03.2022
2420 Clouds 26 1015 80 10000 6.69 170 00:47 24.03.2022
2421 Clouds 29 1015 72 10000 7.72 160 22:23 23.03.2022
2422 Clouds 29 1015 70 10000 7.72 160 21:24 23.03.2022
2423 Clouds 29 1015 69 10000 6.69 160 20:45 23.03.2022
2424 Clouds 29 1015 70 10000 7.2 150 19:33 23.03.2022
2425 Clouds 29 1017 71 10000 7.72 140 18:18 23.03.2022
2426 Clouds 28 1017 72 10000 8.23 140 17:26 23.03.2022
2427 Clouds 27 1018 77 10000 1.79 112 15:56 23.03.2022
2428 Clouds 26 1017 80 10000 8.75 140 14:48 23.03.2022
2429 Clouds 25 1016 82 10000 5.36 120 13:34 23.03.2022
2430 Clouds 24 1015 83 10000 5.14 150 11:38 23.03.2022
2431 Clouds 25 1015 82 10000 5.81 120 08:49 23.03.2022
2432 Clouds 25 1017 83 10000 7.72 110 06:25 23.03.2022
2433 Clouds 24 1017 82 10000 6.71 100 03:44 23.03.2022
2434 Clouds 25 1017 75 10000 6.17 110 00:28 23.03.2022
2435 Clouds 26 1017 70 10000 1.79 92 21:53 22.03.2022
2436 Clouds 26 1017 68 10000 6.69 100 21:23 22.03.2022
2437 Clouds 27 1018 66 10000 6.71 110 20:29 22.03.2022
2438 Clouds 27 1019 65 10000 8.23 110 19:27 22.03.2022
2439 Clouds 27 1019 64 10000 7.72 140 18:50 22.03.2022
2440 Clouds 27 1020 64 10000 8.75 100 17:44 22.03.2022
2441 Clouds 27 1020 66 10000 2.24 95 16:58 22.03.2022
2442 Clouds 26 1019 66 10000 8.75 130 15:48 22.03.2022
2443 Clouds 25 1020 67 10000 8.75 130 15:21 22.03.2022
2444 Clouds 25 1019 69 10000 5.66 110 14:45 22.03.2022
2445 Clouds 24 1019 71 10000 6.71 90 13:52 22.03.2022
2446 Clouds 22 1019 73 10000 4.12 90 12:40 22.03.2022
2447 Clouds 22 1018 72 10000 5.36 100 11:26 22.03.2022
2448 Clouds 23 1018 71 10000 6.26 90 09:52 22.03.2022
2449 Clouds 23 1019 70 10000 6.71 110 07:44 22.03.2022
2450 Clouds 23 1021 68 10000 5.81 80 04:29 22.03.2022
2451 Clouds 23 1020 68 10000 7.2 80 02:52 22.03.2022
2452 Clouds 24 1020 66 10000 6.26 70 23:19 21.03.2022
2453 Clouds 26 1020 62 10000 6.26 70 21:39 21.03.2022
2454 Clouds 26 1020 63 10000 6.26 70 20:45 21.03.2022
2455 Clouds 26 1021 63 10000 6.26 70 20:24 21.03.2022
2456 Clouds 26 1021 62 10000 6.26 70 19:48 21.03.2022
2457 Clouds 26 1021 63 10000 6.26 70 19:22 21.03.2022
2458 Clouds 26 1022 63 10000 6.71 60 17:36 21.03.2022
2459 Clouds 26 1022 65 10000 2.24 61 16:59 21.03.2022
2460 Clouds 25 1022 64 10000 8.23 70 16:35 21.03.2022
2461 Clouds 25 1022 65 10000 5.36 50 15:44 21.03.2022
2462 Clouds 24 1022 67 10000 6.71 60 14:47 21.03.2022
2463 Clouds 23 1021 71 10000 5.14 60 13:27 21.03.2022
2464 Clouds 22 1020 73 10000 3.09 50 12:22 21.03.2022
2465 Clouds 22 1020 76 10000 4.12 50 11:34 21.03.2022
2466 Clouds 23 1019 80 10000 1.79 31 09:53 21.03.2022
2467 Clouds 24 1020 84 10000 3.6 30 07:54 21.03.2022
2468 Clouds 24 1020 83 10000 3.09 50 06:31 21.03.2022
2469 Clouds 25 1020 81 10000 6.17 40 02:24 21.03.2022
2470 Clouds 27 1019 77 10000 6.17 80 23:26 20.03.2022
2471 Clouds 27 1019 76 10000 6.71 80 22:36 20.03.2022
2472 Clouds 27 1018 77 10000 4.12 50 21:44 20.03.2022
2473 Clouds 28 1019 75 10000 3.09 80 20:58 20.03.2022
2474 Clouds 28 1019 74 10000 6.26 100 20:36 20.03.2022
2475 Clouds 28 1019 74 10000 3.6 70 19:55 20.03.2022
2476 Clouds 28 1019 73 10000 3.09 100 19:25 20.03.2022
2477 Clouds 29 1020 70 10000 2.68 350 17:50 20.03.2022
2478 Clouds 29 1020 70 10000 2.68 350 17:28 20.03.2022
2479 Clouds 28 1020 72 10000 3.09 270 16:40 20.03.2022
2480 Clear 26 1021 85 10000 0.89 0 14:53 20.03.2022
2481 Clouds 23 1019 96 10000 0.45 328 13:39 20.03.2022
2482 Clouds 22 1019 96 10000 2.06 120 12:21 20.03.2022
2483 Clouds 23 1019 94 10000 2.24 320 10:38 20.03.2022
2484 Clouds 23 1018 92 10000 2.57 300 08:35 20.03.2022
2485 Clouds 24 1019 89 10000 0.45 138 06:40 20.03.2022
2486 Clear 25 1019 87 10000 4.12 140 03:27 20.03.2022
2487 Clouds 26 1018 84 10000 0.89 0 00:54 20.03.2022
2488 Clouds 26 1018 81 10000 4.63 130 00:35 20.03.2022
2489 Clouds 28 1017 74 10000 4.63 140 22:42 19.03.2022
2490 Clouds 29 1018 72 10000 6.17 120 21:27 19.03.2022
2491 Clouds 29 1019 71 10000 5.66 150 19:42 19.03.2022
2492 Clouds 29 1020 72 10000 6.26 120 18:44 19.03.2022
2493 Clouds 29 1020 73 10000 2.68 0 17:57 19.03.2022
2494 Clouds 29 1020 72 10000 6.26 120 17:33 19.03.2022
2495 Clouds 28 1020 76 10000 5.36 140 15:41 19.03.2022
2496 Clouds 26 1020 81 10000 4.12 130 14:21 19.03.2022
2497 Clouds 24 1019 90 10000 2.68 130 12:56 19.03.2022
2498 Clouds 24 1019 91 10000 2.68 130 12:37 19.03.2022
2499 Clouds 24 1018 91 10000 2.68 140 11:47 19.03.2022
2500 Clouds 23 1018 92 10000 2.24 130 10:41 19.03.2022
2501 Clear 25 1019 90 10000 1.34 96 05:59 19.03.2022
2502 Clouds 25 1019 85 10000 4.12 110 02:48 19.03.2022
2503 Clouds 25 1018 83 10000 3.6 110 01:32 19.03.2022
2504 Clouds 27 1017 75 10000 6.26 120 23:22 18.03.2022
2505 Clouds 28 1017 71 10000 5.81 120 22:25 18.03.2022
2506 Clear 29 1017 72 10000 2.68 142 20:56 18.03.2022
2507 Clouds 29 1018 68 10000 5.81 120 19:49 18.03.2022
2508 Clouds 29 1018 67 10000 5.81 120 19:19 18.03.2022
2509 Clouds 29 1019 71 10000 5.81 120 17:39 18.03.2022
2510 Clouds 28 1019 75 10000 6.26 130 16:46 18.03.2022
2511 Clouds 26 1018 88 10000 3.13 110 14:45 18.03.2022
2512 Clouds 25 1018 90 10000 3.13 110 14:20 18.03.2022
2513 Clouds 22 1017 95 10000 2.06 90 12:23 18.03.2022
2514 Mist 21 1017 96 9656 0 0 10:39 18.03.2022
2515 Clouds 22 1017 96 10000 0 0 09:23 18.03.2022
2516 Clear 22 1018 95 10000 3.43 140 07:59 18.03.2022
2517 Clear 23 1018 93 10000 0 0 06:34 18.03.2022
2518 Clouds 24 1017 88 10000 2.68 150 02:51 18.03.2022
2519 Clouds 26 1016 80 10000 4.63 170 00:22 18.03.2022
2520 Clouds 26 1016 80 10000 5.14 160 23:20 17.03.2022
2521 Thunderstorm 27 1016 78 10000 4.63 170 22:23 17.03.2022
2522 Clouds 27 1016 76 10000 4.63 180 21:48 17.03.2022
2523 Clouds 28 1016 74 10000 4.63 180 21:20 17.03.2022
2524 Clouds 27 1016 77 10000 6.17 150 20:41 17.03.2022
2525 Clouds 27 1016 77 10000 5.14 160 19:45 17.03.2022
2526 Clouds 27 1017 76 10000 5.36 140 18:57 17.03.2022
2527 Clouds 28 1017 75 10000 5.36 140 18:37 17.03.2022
2528 Clouds 28 1018 76 10000 3.6 140 16:48 17.03.2022
2529 Clouds 27 1018 81 10000 3.6 230 15:44 17.03.2022
2530 Clouds 27 1018 82 10000 3.6 230 15:23 17.03.2022
2531 Clouds 25 1017 92 10000 2.06 210 14:28 17.03.2022
2532 Clouds 22 1016 96 10000 1.54 200 12:51 17.03.2022
2533 Clouds 22 1016 96 10000 1.54 200 12:22 17.03.2022
2534 Mist 22 1016 96 9656 2.06 190 11:27 17.03.2022
2535 Clouds 22 1015 96 10000 2.66 213 09:57 17.03.2022
2536 Clouds 22 1015 95 10000 2.06 210 08:34 17.03.2022
2537 Clouds 23 1016 94 10000 2.57 190 07:33 17.03.2022
2538 Clear 23 1017 92 10000 2.06 190 05:47 17.03.2022
2539 Clouds 25 1015 81 10000 6.17 170 01:23 17.03.2022
2540 Clouds 27 1015 76 10000 5.36 160 23:50 16.03.2022
2541 Clouds 28 1015 74 10000 6.71 160 22:48 16.03.2022
2542 Clouds 28 1015 73 10000 6.71 160 22:30 16.03.2022
2543 Clouds 28 1015 71 10000 8.23 170 21:39 16.03.2022
2544 Clouds 29 1017 71 10000 8.75 160 19:41 16.03.2022
2545 Clouds 29 1017 70 10000 8.75 160 19:20 16.03.2022
2546 Clouds 29 1017 70 10000 7.2 160 18:37 16.03.2022
2547 Clouds 29 1018 72 10000 8.23 160 17:43 16.03.2022
2548 Clouds 28 1018 74 10000 8.23 160 17:19 16.03.2022
2549 Clouds 27 1018 79 10000 7.2 170 15:55 16.03.2022
2550 Clouds 25 1018 91 10000 2.68 130 14:25 16.03.2022
2551 Clouds 23 1017 94 10000 3.13 130 13:27 16.03.2022
2552 Clouds 22 1016 95 10000 1.34 147 11:56 16.03.2022
2553 Clouds 22 1016 95 10000 2.57 150 11:21 16.03.2022
2554 Clouds 22 1016 96 10000 2.57 120 10:23 16.03.2022
2555 Clouds 22 1017 96 10000 0 0 08:52 16.03.2022
2556 Mist 22 1019 94 10000 0 0 05:58 16.03.2022
2557 Clouds 24 1019 91 10000 3.6 130 01:45 16.03.2022
2558 Clouds 25 1017 92 10000 3.6 90 22:38 15.03.2022
2559 Clouds 24 1018 92 10000 1.79 90 21:55 15.03.2022
2560 Clouds 26 1018 84 10000 6.71 100 20:28 15.03.2022
2561 Clouds 25 1020 87 10000 1.79 72 18:57 15.03.2022
2562 Clouds 24 1021 92 10000 5.66 90 16:59 15.03.2022
2563 Mist 24 1022 93 6437 4.63 50 16:32 15.03.2022
2564 Rain 23 1022 92 10000 5.81 70 15:21 15.03.2022
2565 Rain 23 1021 92 10000 6.69 70 14:40 15.03.2022
2566 Clouds 22 1021 94 10000 4.63 60 13:38 15.03.2022
2567 Clouds 22 1021 93 10000 4.63 70 12:24 15.03.2022
2568 Clouds 22 1021 91 10000 5.14 70 11:31 15.03.2022
2569 Rain 22 1021 92 10000 5.14 60 09:45 15.03.2022
2570 Rain 22 1021 92 10000 7.2 70 08:42 15.03.2022
2571 Mist 22 1022 93 8047 6.17 70 07:51 15.03.2022
2572 Clouds 22 1022 93 10000 6.17 70 07:28 15.03.2022
2573 Clouds 21 1024 88 10000 5.66 70 03:41 15.03.2022
2574 Mist 22 1023 85 8047 6.69 50 23:44 14.03.2022
2575 Mist 22 1023 85 8047 6.17 80 23:23 14.03.2022
2576 Mist 22 1023 84 8047 6.17 80 22:26 14.03.2022
2577 Mist 22 1023 80 6437 6.17 60 21:30 14.03.2022
2578 Clouds 23 1023 76 10000 7.72 80 20:48 14.03.2022
2579 Clouds 23 1023 74 10000 8.23 70 20:20 14.03.2022
2580 Clouds 24 1024 70 10000 2.24 76 18:55 14.03.2022
2581 Clouds 24 1025 67 10000 2.68 54 17:54 14.03.2022
2582 Clouds 23 1026 69 10000 2.24 45 16:58 14.03.2022
2583 Clouds 22 1025 68 10000 7.2 70 15:43 14.03.2022
2584 Clouds 22 1025 69 10000 7.2 70 14:40 14.03.2022
2585 Clouds 20 1024 70 10000 4.63 50 12:29 14.03.2022
2586 Clouds 20 1023 71 10000 2.24 53 10:54 14.03.2022
2587 Clouds 20 1023 70 10000 2.24 40 09:44 14.03.2022
2588 Clouds 20 1023 69 10000 2.24 40 09:22 14.03.2022
2589 Clouds 20 1023 69 10000 1.79 0 08:55 14.03.2022
2590 Clouds 20 1024 66 10000 2.68 50 07:32 14.03.2022
2591 Clouds 20 1025 63 10000 5.66 80 05:45 14.03.2022
2592 Clouds 21 1024 65 10000 1.79 57 01:55 14.03.2022
2593 Clouds 21 1024 64 10000 6.26 50 01:28 14.03.2022
2594 Clouds 22 1023 59 10000 7.2 60 22:44 13.03.2022
2595 Clouds 23 1023 55 10000 9.26 60 21:31 13.03.2022
2596 Clear 23 1023 56 10000 3.13 25 20:56 13.03.2022
2597 Clouds 23 1023 53 10000 8.23 80 20:31 13.03.2022
2598 Clouds 23 1024 55 10000 7.72 60 19:49 13.03.2022
2599 Clouds 23 1024 55 10000 7.72 60 19:28 13.03.2022
2600 Clear 23 1024 57 10000 2.68 48 18:59 13.03.2022
2601 Clouds 23 1024 56 10000 8.23 60 18:35 13.03.2022
2602 Clear 22 1025 60 10000 5.66 20 17:41 13.03.2022
2603 Clouds 21 1025 62 10000 5.66 20 17:19 13.03.2022
2604 Clouds 19 1025 62 10000 6.17 340 16:30 13.03.2022
2605 Clouds 16 1025 62 10000 4.63 350 15:47 13.03.2022
2606 Clouds 13 1025 54 10000 9.06 43 14:56 13.03.2022
2607 Clouds 10 1024 66 10000 4.63 350 13:43 13.03.2022
2608 Clouds 10 1023 69 10000 5.66 350 12:38 13.03.2022
2609 Clouds 12 1022 66 10000 5.14 340 11:52 13.03.2022
2610 Clouds 12 1022 66 10000 5.14 340 11:31 13.03.2022
2611 Clouds 13 1021 62 10000 5.14 340 10:47 13.03.2022
2612 Clouds 14 1021 62 10000 9.23 14 09:59 13.03.2022
2613 Clear 14 1020 56 10000 6.69 350 09:40 13.03.2022
2614 Clear 14 1020 57 10000 6.17 350 08:45 13.03.2022
2615 Clear 15 1020 62 10000 5.14 350 07:41 13.03.2022
2616 Clouds 16 1020 59 10000 7.2 340 05:40 13.03.2022
2617 Clouds 19 1018 66 10000 6.17 310 02:39 13.03.2022
2618 Clouds 21 1015 68 10000 8.75 320 23:33 12.03.2022
2619 Clouds 22 1015 78 10000 11.83 320 22:27 12.03.2022
2620 Clouds 31 1012 58 10000 11.83 230 20:34 12.03.2022
2621 Clouds 31 1013 57 10000 10.29 220 19:47 12.03.2022
2622 Clouds 31 1013 60 10000 4.02 236 18:58 12.03.2022
2623 Clouds 31 1013 61 10000 11.32 240 18:22 12.03.2022
2624 Clouds 31 1014 61 10000 7.72 190 17:31 12.03.2022
2625 Clouds 29 1015 69 10000 8.75 210 16:23 12.03.2022
2626 Clouds 28 1015 77 10000 6.17 220 15:22 12.03.2022
2627 Clouds 26 1014 85 10000 5.66 210 14:28 12.03.2022
2628 Clear 25 1013 89 10000 2.68 176 12:56 12.03.2022
2629 Clear 25 1012 88 10000 2.24 182 11:56 12.03.2022
2630 Clouds 25 1012 87 10000 5.14 190 11:35 12.03.2022
2631 Clouds 25 1012 87 10000 5.14 190 10:52 12.03.2022
2632 Clouds 25 1013 86 10000 5.14 180 09:45 12.03.2022
2633 Clear 25 1012 85 10000 3.13 172 08:55 12.03.2022
2634 Clouds 25 1013 86 10000 6.17 170 07:20 12.03.2022
2635 Rain 25 1014 83 10000 5.14 170 02:36 12.03.2022
2636 Clear 27 1014 78 10000 2.68 161 23:56 11.03.2022
2637 Clear 27 1014 78 10000 2.68 161 23:56 11.03.2022
2638 Clear 29 1014 73 10000 3.58 168 22:56 11.03.2022
2639 Clouds 29 1015 67 10000 7.2 160 21:35 11.03.2022
2640 Clear 29 1015 69 10000 4.02 171 20:55 11.03.2022
2641 Clouds 29 1015 68 10000 8.23 170 20:29 11.03.2022
2642 Clouds 29 1016 69 10000 7.2 170 19:49 11.03.2022
2643 Clouds 30 1016 69 10000 7.2 170 19:22 11.03.2022
2644 Clouds 29 1018 71 10000 6.71 160 17:30 11.03.2022
2645 Clouds 28 1017 74 10000 6.17 170 16:27 11.03.2022
2646 Clouds 28 1017 77 10000 5.14 180 15:53 11.03.2022
2647 Clouds 26 1017 87 10000 3.6 150 14:19 11.03.2022
2648 Mist 23 1016 94 10000 1.34 140 12:44 11.03.2022
2649 Mist 23 1016 94 10000 1.54 140 12:21 11.03.2022
2650 Clouds 23 1016 95 10000 2.06 120 11:51 11.03.2022
2651 Clouds 23 1016 96 10000 3.6 200 09:50 11.03.2022
2652 Clear 23 1016 96 10000 2.36 171 08:56 11.03.2022
2653 Clouds 23 1017 94 10000 3.09 180 08:21 11.03.2022
2654 Clouds 23 1017 94 10000 0.45 265 07:40 11.03.2022
2655 Clouds 24 1018 91 10000 0 0 05:44 11.03.2022
2656 Rain 24 1017 91 10000 2.24 170 03:41 11.03.2022
2657 Clouds 27 1015 81 10000 6.17 120 23:31 10.03.2022
2658 Clouds 28 1015 80 10000 6.26 120 22:29 10.03.2022
2659 Clouds 29 1015 78 10000 4.63 160 21:27 10.03.2022
2660 Clouds 28 1015 83 10000 6.26 140 20:49 10.03.2022
2661 Clouds 28 1016 79 10000 4.63 170 19:23 10.03.2022
2662 Clouds 28 1017 84 10000 5.36 150 18:40 10.03.2022
2663 Clouds 27 1018 83 10000 6.17 150 16:54 10.03.2022
2664 Clouds 27 1017 84 10000 6.26 150 15:49 10.03.2022
2665 Clouds 26 1017 84 10000 5.66 160 14:24 10.03.2022
2666 Clouds 24 1016 88 10000 4.12 160 12:53 10.03.2022
2667 Clouds 24 1015 88 10000 3.13 140 11:42 10.03.2022
2668 Clouds 24 1015 88 10000 2.57 170 10:24 10.03.2022
2669 Clouds 24 1015 88 10000 3.13 140 08:49 10.03.2022
2670 Clear 24 1016 87 10000 1.79 145 06:58 10.03.2022
2671 Clouds 25 1016 85 10000 3.6 170 03:52 10.03.2022
2672 Clouds 26 1015 80 10000 6.17 170 00:51 10.03.2022
2673 Clouds 28 1014 73 10000 7.2 160 22:46 09.03.2022
2674 Clouds 29 1015 70 10000 8.75 160 21:49 09.03.2022
2675 Clouds 29 1015 71 10000 8.75 160 21:24 09.03.2022
2676 Clouds 29 1016 69 10000 6.69 150 19:42 09.03.2022
2677 Clouds 29 1017 68 10000 7.2 180 18:25 09.03.2022
2678 Clouds 29 1018 68 10000 7.2 170 17:26 09.03.2022
2679 Clouds 28 1018 71 10000 7.2 170 16:24 09.03.2022
2680 Clear 27 1018 78 10000 2.68 154 14:56 09.03.2022
2681 Clouds 25 1017 84 10000 4.12 140 13:52 09.03.2022
2682 Clouds 24 1016 87 10000 4.12 150 12:39 09.03.2022
2683 Clouds 24 1016 86 10000 3.6 160 11:52 09.03.2022
2684 Clouds 24 1016 86 10000 3.6 160 11:32 09.03.2022
2685 Clouds 24 1016 86 10000 4.12 150 09:50 09.03.2022
2686 Clouds 24 1016 86 10000 3.09 140 08:49 09.03.2022
2687 Clouds 24 1016 85 10000 3.6 160 07:27 09.03.2022
2688 Clear 25 1016 84 10000 2.68 134 01:54 09.03.2022
2689 Clouds 26 1016 79 10000 6.26 140 00:27 09.03.2022
2690 Clouds 27 1016 72 10000 7.2 160 22:47 08.03.2022
2691 Clear 28 1016 73 10000 2.68 125 21:55 08.03.2022
2692 Clouds 28 1016 71 10000 7.72 140 21:22 08.03.2022
2693 Clouds 28 1017 71 10000 7.72 150 20:24 08.03.2022
2694 Clouds 29 1017 70 10000 6.26 150 19:30 08.03.2022
2695 Clouds 28 1018 70 10000 7.2 140 18:41 08.03.2022
2696 Clouds 28 1019 74 10000 5.36 130 16:59 08.03.2022
2697 Clouds 26 1019 80 10000 2.68 131 14:58 08.03.2022
2698 Clouds 25 1019 84 10000 2.24 129 13:54 08.03.2022
2699 Clouds 24 1018 86 10000 3.6 130 12:41 08.03.2022
2700 Clouds 24 1017 87 10000 3.13 130 11:44 08.03.2022
2701 Clouds 24 1017 87 10000 3.6 120 10:37 08.03.2022
2702 Clouds 24 1018 88 10000 3.6 140 08:58 08.03.2022
2703 Clouds 24 1018 90 10000 5.36 110 06:34 08.03.2022
2704 Clouds 24 1019 92 10000 4.12 110 04:25 08.03.2022
2705 Clouds 26 1018 79 10000 1.34 93 22:57 07.03.2022
2706 Clouds 27 1019 74 10000 7.72 150 21:46 07.03.2022
2707 Clouds 27 1019 75 10000 7.72 150 21:27 07.03.2022
2708 Clouds 27 1019 74 10000 7.2 140 20:39 07.03.2022
2709 Clouds 28 1020 71 10000 9.83 120 19:55 07.03.2022
2710 Clouds 28 1020 73 10000 9.77 120 19:29 07.03.2022
2711 Clouds 27 1021 74 10000 8.05 110 18:38 07.03.2022
2712 Clouds 27 1021 74 10000 10.29 120 17:33 07.03.2022
2713 Clouds 27 1021 75 10000 9.39 110 16:55 07.03.2022
2714 Clouds 26 1021 79 10000 7.72 110 14:57 07.03.2022
2715 Clouds 24 1020 83 10000 7.72 110 12:48 07.03.2022
2716 Clouds 24 1020 83 10000 7.72 110 12:20 07.03.2022
2717 Clouds 24 1020 82 10000 6.69 110 10:35 07.03.2022
2718 Clouds 24 1020 81 10000 8.94 100 08:35 07.03.2022
2719 Clear 24 1023 80 10000 2.24 81 02:56 07.03.2022
2720 Clouds 25 1022 77 10000 7.72 100 00:21 07.03.2022
2721 Clouds 26 1022 73 10000 8.23 100 23:28 06.03.2022
2722 Clouds 26 1022 72 10000 7.72 90 22:30 06.03.2022
2723 Clouds 26 1022 73 10000 7.72 90 21:45 06.03.2022
2724 Clouds 26 1023 70 10000 9.39 80 20:29 06.03.2022
2725 Clouds 26 1024 69 10000 9.26 80 19:48 06.03.2022
2726 Clouds 27 1025 69 10000 7.72 90 18:51 06.03.2022
2727 Clouds 27 1025 64 10000 8.23 120 17:49 06.03.2022
2728 Clouds 27 1025 63 10000 8.23 120 17:20 06.03.2022
2729 Clouds 27 1026 62 10000 8.94 100 16:40 06.03.2022
2730 Clouds 26 1025 63 10000 7.72 90 15:37 06.03.2022
2731 Clouds 25 1025 68 10000 5.81 90 14:48 06.03.2022
2732 Clouds 25 1025 69 10000 5.81 90 14:26 06.03.2022
2733 Clouds 23 1023 70 10000 6.71 110 12:43 06.03.2022
2734 Clear 24 1023 71 10000 2.24 103 11:56 06.03.2022
2735 Clouds 24 1023 70 10000 6.69 110 10:43 06.03.2022
2736 Clouds 24 1023 71 10000 7.72 90 09:34 06.03.2022
2737 Clouds 24 1023 70 10000 7.2 100 08:28 06.03.2022
2738 Clouds 24 1024 70 10000 8.94 100 07:33 06.03.2022
2739 Clear 24 1025 73 10000 2.24 76 03:58 06.03.2022
2740 Clouds 25 1023 73 10000 9.83 90 00:42 06.03.2022
2741 Clouds 25 1023 73 10000 9.83 90 00:23 06.03.2022
2742 Clouds 26 1023 70 10000 10.29 80 23:19 05.03.2022
2743 Clouds 26 1023 67 10000 9.77 80 22:42 05.03.2022
2744 Clouds 27 1023 67 10000 8.75 90 21:36 05.03.2022
2745 Clear 27 1023 68 10000 3.13 69 20:57 05.03.2022
2746 Clouds 27 1024 64 10000 10.73 90 19:23 05.03.2022
2747 Clouds 27 1024 65 10000 9.77 100 18:50 05.03.2022
2748 Clouds 27 1025 66 10000 9.39 90 17:41 05.03.2022
2749 Clouds 26 1024 67 10000 12.52 80 16:20 05.03.2022
2750 Clouds 26 1024 70 10000 8.94 80 15:30 05.03.2022
2751 Rain 24 1024 76 10000 9.26 100 14:42 05.03.2022
2752 Clouds 24 1023 78 10000 9.26 100 14:24 05.03.2022
2753 Clear 23 1023 80 10000 1.79 69 12:55 05.03.2022
2754 Clouds 23 1022 78 10000 5.81 80 11:39 05.03.2022
2755 Clouds 23 1022 77 10000 5.81 80 11:18 05.03.2022
2756 Clear 23 1022 79 10000 2.24 61 09:58 05.03.2022
2757 Clouds 23 1022 75 10000 4.63 80 08:49 05.03.2022
2758 Clouds 23 1023 72 10000 5.36 80 07:23 05.03.2022
2759 Clouds 23 1023 71 10000 5.66 90 05:41 05.03.2022
2760 Clouds 24 1022 69 10000 5.81 50 01:25 05.03.2022
2761 Clouds 25 1022 65 10000 7.2 70 23:35 04.03.2022
2762 Clouds 26 1022 63 10000 8.75 60 22:41 04.03.2022
2763 Clouds 26 1021 59 10000 8.75 60 21:47 04.03.2022
2764 Clouds 27 1022 53 10000 8.75 70 20:49 04.03.2022
2765 Clouds 27 1022 55 10000 8.75 70 20:18 04.03.2022
2766 Clouds 27 1023 56 10000 7.72 70 19:35 04.03.2022
2767 Clouds 27 1024 57 10000 7.72 50 18:36 04.03.2022
2768 Clouds 26 1024 58 10000 7.2 70 17:30 04.03.2022
2769 Clouds 26 1024 58 10000 5.66 60 16:43 04.03.2022
2770 Clouds 25 1024 59 10000 5.14 60 15:28 04.03.2022
2771 Clouds 22 1023 69 10000 0.45 26 13:53 04.03.2022
2772 Clear 21 1022 72 10000 4.78 60 12:54 04.03.2022
2773 Clouds 21 1021 75 10000 0.45 30 11:38 04.03.2022
2774 Clouds 22 1020 75 10000 1.54 30 10:42 04.03.2022
2775 Clouds 22 1020 73 10000 2.06 70 09:28 04.03.2022
2776 Clouds 22 1021 72 10000 2.68 90 08:31 04.03.2022
2777 Clear 22 1021 72 10000 0.89 54 06:59 04.03.2022
2778 Clouds 23 1021 69 10000 3.6 50 03:43 04.03.2022
2779 Clear 24 1020 66 10000 5.81 80 00:22 04.03.2022
2780 Clouds 26 1019 62 10000 5.81 80 22:21 03.03.2022
2781 Clouds 26 1019 63 10000 6.17 100 21:39 03.03.2022
2782 Clouds 26 1019 64 10000 2.24 99 20:59 03.03.2022
2783 Clouds 27 1020 62 10000 7.2 80 19:48 03.03.2022
2784 Clouds 27 1021 63 10000 5.36 100 18:51 03.03.2022
2785 Clouds 26 1021 63 10000 6.17 80 18:22 03.03.2022
2786 Clouds 26 1022 61 10000 5.81 100 17:27 03.03.2022
2787 Clouds 25 1022 65 10000 2.57 20 15:48 03.03.2022
2788 Clear 24 1022 70 10000 0.45 19 14:59 03.03.2022
2789 Clouds 23 1021 77 10000 2.57 360 14:33 03.03.2022
2790 Clouds 20 1020 84 10000 0 0 13:18 03.03.2022
2791 Clouds 20 1020 84 10000 0 0 13:18 03.03.2022
2792 Clouds 20 1019 86 10000 1.54 350 11:45 03.03.2022
2793 Clouds 21 1019 86 10000 2.24 350 10:40 03.03.2022
2794 Clouds 21 1019 88 6437 2.24 0 08:45 03.03.2022
2795 Clouds 21 1019 89 10000 2.57 40 07:25 03.03.2022
2796 Clouds 21 1020 86 10000 2.06 60 06:34 03.03.2022
2797 Clouds 23 1019 75 10000 3.09 50 01:45 03.03.2022
2798 Clouds 24 1018 72 10000 2.68 70 23:29 02.03.2022
2799 Clouds 24 1018 70 10000 2.24 0 22:50 02.03.2022
2800 Clouds 24 1018 69 10000 2.24 0 22:50 02.03.2022
2801 Clouds 25 1018 69 10000 2.68 40 21:30 02.03.2022
2802 Clouds 25 1018 70 10000 2.57 30 20:45 02.03.2022
2803 Clouds 25 1019 70 10000 2.57 30 20:22 02.03.2022
2804 Clouds 24 1019 71 10000 2.57 340 19:35 02.03.2022
2805 Clouds 25 1019 72 10000 2.68 310 18:44 02.03.2022
2806 Clouds 24 1020 79 10000 1.34 3 17:59 02.03.2022
2807 Clouds 22 1020 83 10000 2.57 10 17:28 02.03.2022
2808 Clouds 22 1020 79 10000 2.57 30 16:45 02.03.2022
2809 Clouds 20 1019 84 10000 2.24 340 14:45 02.03.2022
2810 Clouds 19 1018 86 10000 3.6 360 13:24 02.03.2022
2811 Clouds 20 1018 79 10000 3.13 360 12:43 02.03.2022
2812 Clouds 20 1017 81 10000 3.58 340 11:51 02.03.2022
2813 Clouds 20 1017 81 10000 3.6 340 11:24 02.03.2022
2814 Clear 20 1016 86 10000 3.09 360 09:46 02.03.2022
2815 Clouds 20 1016 87 10000 0.89 2 08:59 02.03.2022
2816 Clouds 20 1017 86 10000 4.12 10 07:51 02.03.2022
2817 Clouds 20 1017 87 10000 0.89 4 06:54 02.03.2022
2818 Clouds 22 1017 82 10000 0.45 31 02:54 02.03.2022
2819 Clouds 23 1016 77 10000 5.14 60 00:29 02.03.2022
2820 Clouds 25 1015 66 10000 3.13 330 22:50 01.03.2022
2821 Clouds 26 1015 65 10000 3.13 330 22:31 01.03.2022
2822 Clouds 27 1015 59 10000 3.6 320 21:25 01.03.2022
2823 Clouds 26 1015 59 10000 3.6 280 20:32 01.03.2022
2824 Clouds 26 1016 62 10000 3.09 330 19:45 01.03.2022
2825 Clouds 25 1016 67 10000 2.68 0 18:51 01.03.2022
2826 Clouds 24 1017 69 10000 4.12 330 18:21 01.03.2022
2827 Clouds 24 1017 72 10000 4.12 300 17:37 01.03.2022
2828 Clouds 22 1018 78 10000 3.6 300 16:35 01.03.2022
2829 Mist 21 1017 84 9656 3.6 270 15:45 01.03.2022
2830 Mist 20 1017 88 8047 4.12 280 14:41 01.03.2022
2831 Mist 19 1017 89 8047 4.12 280 14:23 01.03.2022
2832 Mist 19 1017 90 8047 3.13 280 13:26 01.03.2022
2833 Mist 19 1017 90 8047 4.12 290 12:35 01.03.2022
2834 Mist 19 1017 90 8047 4.12 290 12:35 01.03.2022
2835 Mist 19 1016 88 9656 6.17 300 10:38 01.03.2022
2836 Clouds 19 1015 88 10000 5.66 310 09:25 01.03.2022
2837 Clear 20 1015 87 10000 1.34 294 07:55 01.03.2022
2838 Clouds 21 1015 84 10000 4.63 300 06:28 01.03.2022
2839 Clouds 23 1015 73 10000 5.14 260 02:48 01.03.2022
2840 Clouds 26 1014 67 10000 4.12 250 00:40 01.03.2022
2841 Clouds 27 1014 69 10000 3.6 250 23:35 28.02.2022
2842 Clouds 28 1014 65 10000 3.13 230 22:28 28.02.2022
2843 Clouds 28 1014 62 10000 3.6 220 21:43 28.02.2022
2844 Clouds 28 1015 63 10000 4.12 260 20:33 28.02.2022
2845 Clouds 28 1016 62 10000 3.6 320 19:42 28.02.2022
2846 Clouds 28 1017 60 10000 2.68 127 18:49 28.02.2022
2847 Clouds 26 1018 64 10000 2.24 230 17:33 28.02.2022
2848 Clouds 26 1018 69 10000 1.34 292 16:54 28.02.2022
2849 Clouds 24 1018 78 10000 2.68 315 15:58 28.02.2022
2850 Clouds 22 1018 84 10000 4.63 290 14:32 28.02.2022
2851 Clouds 21 1018 87 10000 2.06 260 13:52 28.02.2022
2852 Clouds 21 1018 87 10000 2.06 260 13:52 28.02.2022
2853 Clouds 21 1017 87 10000 2.06 260 13:18 28.02.2022
2854 Clouds 21 1017 91 10000 2.57 310 11:59 28.02.2022
2855 Clouds 22 1016 94 10000 4.63 310 11:19 28.02.2022
2856 Clouds 22 1016 94 10000 2.06 290 10:22 28.02.2022
2857 Clouds 22 1016 94 10000 2.06 250 09:44 28.02.2022
2858 Clouds 22 1016 94 10000 0 0 08:52 28.02.2022
2859 Clouds 21 1017 94 10000 2.68 275 07:58 28.02.2022
2860 Mist 22 1018 89 10000 3.09 360 05:54 28.02.2022
2861 Mist 23 1019 89 10000 3.09 280 04:30 28.02.2022
2862 Clouds 25 1017 80 10000 5.14 170 00:52 28.02.2022
2863 Clouds 27 1017 71 10000 4.12 130 22:45 27.02.2022
2864 Clouds 27 1017 71 10000 4.12 130 22:26 27.02.2022
2865 Clouds 28 1018 70 10000 5.66 140 21:37 27.02.2022
2866 Clouds 28 1018 69 10000 5.36 130 20:44 27.02.2022
2867 Clouds 28 1018 70 10000 5.36 130 20:18 27.02.2022
2868 Clouds 28 1019 69 10000 5.36 140 19:48 27.02.2022
2869 Clouds 28 1019 68 10000 5.36 140 19:21 27.02.2022
2870 Clouds 28 1020 69 10000 5.81 100 18:33 27.02.2022
2871 Clouds 27 1021 71 10000 5.14 120 17:49 27.02.2022
2872 Clouds 27 1021 73 10000 5.81 120 16:25 27.02.2022
2873 Clouds 26 1021 76 10000 5.36 100 15:21 27.02.2022
2874 Clouds 22 1021 90 10000 1.54 30 12:37 27.02.2022
2875 Clouds 22 1020 91 10000 2.68 90 11:51 27.02.2022
2876 Clouds 22 1020 89 10000 2.68 80 10:37 27.02.2022
2877 Clouds 22 1020 89 10000 0.45 78 09:58 27.02.2022
2878 Clouds 23 1020 88 10000 3.13 120 09:24 27.02.2022
2879 Clouds 23 1020 88 10000 1.54 330 08:48 27.02.2022
2880 Clouds 23 1022 83 10000 1.54 90 06:30 27.02.2022
2881 Clouds 23 1023 79 10000 3.13 100 04:19 27.02.2022
2882 Clouds 24 1022 72 10000 5.14 50 00:31 27.02.2022
2883 Clouds 26 1022 64 10000 4.12 100 22:48 26.02.2022
2884 Clouds 27 1022 60 10000 4.63 90 21:34 26.02.2022
2885 Clouds 27 1022 60 10000 4.63 90 20:43 26.02.2022
2886 Clear 27 1023 61 10000 2.24 85 19:58 26.02.2022
2887 Clouds 27 1023 60 10000 6.26 100 19:34 26.02.2022
2888 Clouds 27 1024 61 10000 5.66 120 18:40 26.02.2022
2889 Clouds 27 1024 61 10000 6.17 110 17:38 26.02.2022
2890 Clouds 26 1025 63 10000 5.36 100 16:48 26.02.2022
2891 Clouds 26 1024 67 10000 6.17 90 15:45 26.02.2022
2892 Clouds 25 1024 68 10000 6.17 90 15:20 26.02.2022
2893 Clouds 24 1024 71 10000 4.12 80 14:51 26.02.2022
2894 Clouds 24 1024 73 10000 4.12 80 14:25 26.02.2022
2895 Clouds 22 1023 78 10000 3.6 80 13:18 26.02.2022
2896 Clouds 23 1022 79 10000 1.79 67 11:54 26.02.2022
2897 Clouds 23 1022 78 10000 6.71 100 11:28 26.02.2022
2898 Clouds 23 1022 81 10000 4.12 70 10:31 26.02.2022
2899 Clouds 23 1022 79 10000 5.14 70 08:48 26.02.2022
2900 Clouds 23 1023 78 10000 2.68 60 06:46 26.02.2022
2901 Clear 24 1023 74 10000 0.89 37 00:50 26.02.2022
2902 Clouds 26 1022 64 10000 6.69 90 22:47 25.02.2022
2903 Clouds 26 1022 68 10000 5.36 70 21:40 25.02.2022
2904 Clouds 26 1022 69 10000 5.36 70 21:21 25.02.2022
2905 Clouds 27 1023 68 10000 4.63 90 20:32 25.02.2022
2906 Clouds 27 1024 59 10000 5.36 100 18:41 25.02.2022
2907 Clouds 27 1025 63 10000 6.69 120 17:27 25.02.2022
2908 Clouds 26 1025 64 10000 6.26 100 16:24 25.02.2022
2909 Clouds 26 1025 66 10000 6.26 100 15:43 25.02.2022
2910 Clouds 25 1025 67 10000 6.26 100 15:20 25.02.2022
2911 Clouds 24 1024 71 10000 3.13 90 14:42 25.02.2022
2912 Clouds 22 1023 78 10000 4.12 80 13:36 25.02.2022
2913 Clouds 22 1023 78 10000 3.13 90 12:56 25.02.2022
2914 Clouds 22 1022 77 10000 2.68 100 11:28 25.02.2022
2915 Clouds 22 1022 78 10000 3.6 80 10:40 25.02.2022
2916 Clouds 22 1022 77 10000 3.6 80 10:22 25.02.2022
2917 Clouds 23 1022 76 10000 3.6 90 09:18 25.02.2022
2918 Clouds 23 1023 78 10000 3.6 90 07:41 25.02.2022
2919 Clouds 23 1023 79 10000 4.63 90 05:49 25.02.2022
2920 Clouds 23 1023 80 10000 4.63 90 04:32 25.02.2022
2921 Clouds 24 1022 77 10000 6.26 110 00:21 25.02.2022
2922 Clouds 27 1021 73 10000 2.24 99 21:58 24.02.2022
2923 Clouds 27 1021 73 10000 2.24 99 21:58 24.02.2022
2924 Clouds 27 1021 71 10000 5.81 100 21:39 24.02.2022
2925 Clouds 27 1021 71 10000 5.81 100 21:19 24.02.2022
2926 Clouds 27 1022 70 10000 6.26 100 19:42 24.02.2022
2927 Clouds 27 1023 68 10000 6.71 110 18:44 24.02.2022
2928 Clouds 27 1023 68 10000 6.71 110 18:19 24.02.2022
2929 Clouds 27 1023 68 10000 6.71 120 17:40 24.02.2022
2930 Clouds 27 1023 70 10000 6.26 110 16:50 24.02.2022
2931 Clouds 26 1024 71 10000 6.17 110 16:24 24.02.2022
2932 Clear 25 1023 78 10000 2.24 85 14:56 24.02.2022
2933 Clouds 24 1023 79 10000 3.6 100 14:36 24.02.2022
2934 Clear 23 1022 85 10000 3.13 90 13:41 24.02.2022
2935 Clear 22 1022 84 10000 3.13 90 13:21 24.02.2022
2936 Clouds 22 1021 86 10000 0.45 94 10:41 24.02.2022
2937 Clouds 22 1021 84 10000 1.54 360 09:40 24.02.2022
2938 Clouds 22 1021 83 10000 0.45 70 08:42 24.02.2022
2939 Clear 22 1022 82 10000 0.89 74 05:59 24.02.2022
2940 Clear 23 1023 82 10000 0.89 65 02:59 24.02.2022
2941 Clouds 25 1022 71 10000 5.66 80 23:45 23.02.2022
2942 Clear 26 1022 69 10000 1.79 79 21:53 23.02.2022
2943 Clouds 27 1022 65 10000 6.26 80 20:32 23.02.2022
2944 Clouds 27 1023 65 10000 6.71 80 19:49 23.02.2022
2945 Clouds 27 1023 67 10000 2.24 67 18:57 23.02.2022
2946 Clouds 27 1025 67 10000 6.17 90 17:46 23.02.2022
2947 Clouds 25 1024 74 10000 6.71 120 15:28 23.02.2022
2948 Clouds 23 1023 83 10000 3.6 100 13:34 23.02.2022
2949 Clouds 22 1023 83 10000 3.6 100 12:26 23.02.2022
2950 Clouds 23 1022 83 10000 4.63 100 10:45 23.02.2022
2951 Clouds 23 1022 83 10000 5.36 100 09:24 23.02.2022
2952 Clouds 23 1023 83 10000 6.26 100 08:27 23.02.2022
2953 Clouds 23 1023 83 10000 6.26 100 07:19 23.02.2022
2954 Clouds 24 1023 83 10000 4.63 90 01:22 23.02.2022
2955 Clouds 25 1022 77 10000 5.81 100 23:40 22.02.2022
2956 Clouds 26 1022 77 10000 5.66 100 22:59 22.02.2022
2957 Clear 26 1022 74 10000 1.79 82 21:58 22.02.2022
2958 Clouds 26 1022 71 10000 6.71 110 21:40 22.02.2022
2959 Clouds 27 1022 70 10000 6.71 110 21:19 22.02.2022
2960 Clouds 27 1022 68 10000 6.26 100 20:31 22.02.2022
2961 Clouds 27 1022 70 10000 6.26 100 19:53 22.02.2022
2962 Clouds 27 1022 70 10000 7.2 120 19:33 22.02.2022
2963 Clouds 26 1023 73 10000 7.72 80 18:27 22.02.2022
2964 Rain 26 1024 74 10000 7.2 80 17:26 22.02.2022
2965 Clouds 26 1024 74 10000 9.39 80 16:55 22.02.2022
2966 Clouds 26 1024 74 10000 8.23 90 16:19 22.02.2022
2967 Clouds 25 1024 76 10000 7.2 110 15:18 22.02.2022
2968 Clouds 23 1023 83 10000 5.14 90 13:37 22.02.2022
2969 Clouds 22 1022 83 10000 4.63 90 11:18 22.02.2022
2970 Clouds 23 1022 82 10000 6.26 90 09:22 22.02.2022
2971 Clouds 22 1023 84 10000 4.63 80 07:29 22.02.2022
2972 Clouds 22 1023 84 10000 1.34 82 06:54 22.02.2022
2973 Clouds 22 1023 76 10000 2.24 40 02:49 22.02.2022
2974 Clouds 24 1022 67 10000 6.26 80 23:18 21.02.2022
2975 Clouds 25 1022 68 10000 1.79 0 21:56 21.02.2022
2976 Clouds 25 1023 65 10000 5.14 90 20:38 21.02.2022
2977 Clouds 26 1024 66 10000 5.66 90 18:47 21.02.2022
2978 Clouds 26 1024 66 10000 5.66 90 18:19 21.02.2022
2979 Rain 24 1025 73 10000 5.36 70 15:49 21.02.2022
2980 Clouds 23 1024 82 10000 4.12 80 14:23 21.02.2022
2981 Clouds 21 1023 83 10000 2.24 30 13:31 21.02.2022
2982 Clouds 21 1023 84 10000 1.54 0 12:46 21.02.2022
2983 Clouds 21 1022 85 10000 1.54 0 12:21 21.02.2022
2984 Clouds 21 1022 85 10000 2.68 40 10:27 21.02.2022
2985 Clouds 22 1023 84 10000 3.13 80 06:25 21.02.2022
2986 Clouds 23 1023 77 10000 6.17 50 00:35 21.02.2022
2987 Clouds 24 1023 76 10000 5.66 70 22:32 20.02.2022
2988 Clouds 24 1023 75 10000 7.2 70 21:43 20.02.2022
2989 Clouds 24 1023 75 10000 7.2 70 21:24 20.02.2022
2990 Clouds 24 1023 73 10000 6.17 80 20:43 20.02.2022
2991 Clouds 25 1023 72 10000 7.2 70 19:49 20.02.2022
2992 Clouds 25 1024 68 10000 7.72 70 18:55 20.02.2022
2993 Clouds 25 1024 68 10000 7.72 70 18:34 20.02.2022
2994 Clouds 25 1024 70 10000 2.68 58 17:55 20.02.2022
2995 Clouds 24 1024 70 10000 3.13 48 16:59 20.02.2022
2996 Clouds 22 1023 74 10000 3.13 43 14:55 20.02.2022
2997 Clouds 22 1023 76 10000 2.24 43 13:58 20.02.2022
2998 Clouds 22 1022 76 10000 4.63 30 12:45 20.02.2022
2999 Clouds 21 1022 78 10000 3.6 30 11:30 20.02.2022
3000 Clouds 21 1021 80 10000 3.09 20 10:21 20.02.2022
3001 Clouds 21 1021 81 10000 3.13 0 09:24 20.02.2022
3002 Clouds 21 1022 91 10000 3.09 350 06:28 20.02.2022
3003 Clouds 23 1020 93 10000 3.6 80 00:32 20.02.2022
3004 Clouds 25 1019 85 10000 5.81 130 23:32 19.02.2022
3005 Clouds 27 1019 73 10000 3.6 310 22:24 19.02.2022
3006 Clouds 28 1019 73 10000 1.79 135 21:45 19.02.2022
3007 Clouds 29 1020 66 10000 4.12 320 20:26 19.02.2022
3008 Clouds 29 1020 66 10000 4.12 320 20:25 19.02.2022
3009 Clouds 28 1020 68 10000 3.6 320 19:34 19.02.2022
3010 Clouds 27 1021 73 10000 2.57 300 18:39 19.02.2022
3011 Clouds 26 1022 76 10000 3.6 290 17:54 19.02.2022
3012 Clouds 25 1022 81 10000 2.68 310 16:47 19.02.2022
3013 Clouds 23 1021 86 10000 4.12 280 15:20 19.02.2022
3014 Clouds 23 1021 90 10000 2.57 310 14:53 19.02.2022
3015 Clouds 22 1021 94 10000 2.06 300 13:50 19.02.2022
3016 Clouds 22 1019 94 10000 3.09 300 11:42 19.02.2022
3017 Clouds 22 1019 95 10000 4.12 280 10:45 19.02.2022
3018 Clouds 23 1019 95 10000 2.24 290 08:54 19.02.2022
3019 Clouds 23 1020 92 10000 2.24 260 06:45 19.02.2022
3020 Clouds 25 1018 85 10000 5.36 160 00:23 19.02.2022
3021 Clouds 28 1017 77 10000 5.36 150 22:24 18.02.2022
3022 Clouds 28 1018 76 10000 6.26 130 21:18 18.02.2022
3023 Clouds 28 1019 78 10000 2.24 137 19:56 18.02.2022
3024 Clouds 28 1020 74 10000 4.02 150 18:51 18.02.2022
3025 Clouds 28 1021 74 10000 5.14 200 18:25 18.02.2022
3026 Clouds 28 1021 75 10000 4.12 130 17:56 18.02.2022
3027 Clouds 27 1021 78 10000 4.12 150 15:57 18.02.2022
3028 Clear 22 1020 95 10000 1.62 191 13:56 18.02.2022
3029 Clouds 21 1020 94 10000 0 0 13:28 18.02.2022
3030 Clouds 21 1019 93 10000 0.45 112 12:42 18.02.2022
3031 Clear 22 1019 92 10000 0.45 179 11:56 18.02.2022
3032 Clouds 23 1018 91 10000 3.09 160 10:42 18.02.2022
3033 Clear 24 1019 91 10000 1.34 127 06:58 18.02.2022
3034 Clouds 24 1020 90 10000 4.63 130 05:42 18.02.2022
3035 Clouds 24 1020 91 10000 5.81 110 03:47 18.02.2022
3036 Clouds 26 1020 80 10000 7.2 120 21:56 17.02.2022
3037 Clouds 26 1021 78 10000 8.23 110 21:27 17.02.2022
3038 Clouds 27 1021 77 10000 8.94 100 20:40 17.02.2022
3039 Clouds 27 1022 77 10000 7.72 110 19:54 17.02.2022
3040 Clouds 27 1023 77 10000 9.26 130 18:57 17.02.2022
3041 Clouds 27 1024 77 10000 9.26 130 18:18 17.02.2022
3042 Clouds 26 1024 79 10000 7.2 100 16:43 17.02.2022
3043 Clouds 25 1024 81 10000 7.72 120 15:44 17.02.2022
3044 Clouds 24 1024 85 10000 5.81 100 14:29 17.02.2022
3045 Clouds 23 1023 87 10000 5.36 110 12:51 17.02.2022
3046 Clouds 23 1022 87 10000 5.81 100 11:36 17.02.2022
3047 Clouds 23 1022 88 10000 6.26 100 09:38 17.02.2022
3048 Clouds 22 1024 89 10000 5.81 100 06:37 17.02.2022
3049 Clouds 23 1024 84 10000 7.72 110 23:21 16.02.2022
3050 Haze 23 1024 83 10000 7.2 70 22:20 16.02.2022
3051 Clouds 24 1025 76 10000 8.75 80 20:21 16.02.2022
3052 Clouds 25 1026 73 10000 10.73 80 18:50 16.02.2022
3053 Clouds 25 1027 73 10000 2.68 67 17:54 16.02.2022
3054 Clouds 24 1027 72 10000 2.68 67 15:58 16.02.2022
3055 Clouds 23 1027 73 10000 8.23 80 15:20 16.02.2022
3056 Clouds 22 1026 74 10000 7.72 90 13:31 16.02.2022
3057 Clouds 22 1025 74 10000 6.26 80 12:21 16.02.2022
3058 Clouds 22 1026 74 10000 5.14 90 11:35 16.02.2022
3059 Clouds 22 1025 73 10000 5.66 80 10:34 16.02.2022
3060 Clouds 21 1025 74 10000 2.24 69 08:58 16.02.2022
3061 Clouds 21 1027 63 10000 6.69 100 06:43 16.02.2022
3062 Clouds 22 1026 65 10000 8.23 70 00:37 16.02.2022
3063 Clouds 22 1025 61 10000 9.26 80 22:34 15.02.2022
3064 Clouds 23 1025 61 10000 7.2 80 21:50 15.02.2022
3065 Clouds 23 1025 62 10000 7.2 80 21:29 15.02.2022
3066 Clouds 23 1026 63 10000 3.13 65 20:57 15.02.2022
3067 Clouds 23 1026 59 10000 9.77 70 20:19 15.02.2022
3068 Clouds 23 1026 60 10000 10.8 70 19:33 15.02.2022
3069 Clouds 22 1027 65 10000 7.72 70 18:24 15.02.2022
3070 Rain 22 1028 66 10000 8.23 70 17:52 15.02.2022
3071 Clouds 22 1028 66 10000 8.23 70 17:28 15.02.2022
3072 Clear 22 1027 61 10000 8.23 80 15:36 15.02.2022
3073 Clouds 20 1026 68 10000 2.06 340 13:49 15.02.2022
3074 Clouds 20 1026 68 10000 2.24 49 13:25 15.02.2022
3075 Clouds 18 1025 72 10000 3.6 340 11:41 15.02.2022
3076 Clouds 17 1025 74 10000 3.09 350 10:19 15.02.2022
3077 Clear 15 1026 76 10000 3.09 340 07:41 15.02.2022
3078 Clouds 14 1026 77 10000 3.6 350 06:36 15.02.2022
3079 Clouds 20 1023 65 10000 6.69 10 23:35 14.02.2022
3080 Clear 21 1023 63 10000 2.68 31 21:56 14.02.2022
3081 Clouds 21 1023 58 10000 7.2 360 20:52 14.02.2022
3082 Clear 21 1024 56 10000 7.2 360 19:46 14.02.2022
3083 Clear 20 1024 56 10000 7.2 360 19:28 14.02.2022
3084 Clear 19 1024 56 10000 6.17 20 18:23 14.02.2022
3085 Clear 18 1025 57 10000 7.2 340 17:28 14.02.2022
3086 Clear 16 1025 59 10000 4.63 350 16:33 14.02.2022
3087 Clear 13 1024 69 10000 7.2 340 14:43 14.02.2022
3088 Clear 12 1023 80 10000 5.14 350 13:34 14.02.2022
3089 Clear 12 1022 84 10000 1.79 37 12:58 14.02.2022
3090 Clear 13 1021 84 10000 1.79 328 11:57 14.02.2022
3091 Clear 13 1021 83 10000 4.63 320 11:38 14.02.2022
3092 Clear 14 1020 80 10000 6.17 320 09:37 14.02.2022
3093 Clear 16 1020 77 10000 6.69 330 07:37 14.02.2022
3094 Clear 16 1021 77 10000 6.69 330 07:19 14.02.2022
3095 Clouds 23 1016 78 10000 4.12 290 22:48 13.02.2022
3096 Clouds 23 1016 79 10000 4.12 290 22:29 13.02.2022
3097 Clouds 23 1015 81 10000 2.57 280 21:57 13.02.2022
3098 Clouds 23 1016 82 10000 4.12 320 21:20 13.02.2022
3099 Clouds 22 1015 86 10000 2.24 0 20:27 13.02.2022
3100 Clouds 20 1017 93 10000 1.34 303 18:58 13.02.2022
3101 Clouds 19 1018 88 10000 2.57 360 18:40 13.02.2022
3102 Rain 17 1019 94 3219 4.12 350 16:53 13.02.2022
3103 Rain 17 1019 97 4828 6.69 320 15:51 13.02.2022
3104 Thunderstorm 19 1017 93 2414 8.23 320 14:50 13.02.2022
3105 Clouds 22 1016 96 10000 0.89 201 13:27 13.02.2022
3106 Clouds 22 1015 94 10000 0 0 12:42 13.02.2022
3107 Clouds 22 1015 94 10000 1.34 350 10:43 13.02.2022
3108 Clouds 22 1015 93 10000 1.54 350 10:23 13.02.2022
3109 Clouds 22 1015 93 10000 2.24 280 08:55 13.02.2022
3110 Clouds 23 1017 86 10000 3.6 90 02:49 13.02.2022
3111 Clouds 25 1017 81 10000 4.63 90 00:32 13.02.2022
3112 Clouds 26 1017 77 10000 1.79 98 22:55 12.02.2022
3113 Clouds 27 1016 74 10000 4.63 90 22:30 12.02.2022
3114 Clear 27 1017 72 10000 1.34 81 20:55 12.02.2022
3115 Clouds 27 1017 72 10000 4.12 70 20:23 12.02.2022
3116 Clear 28 1018 73 10000 0.89 133 18:54 12.02.2022
3117 Clouds 27 1018 70 10000 2.68 100 18:36 12.02.2022
3118 Clouds 27 1019 74 10000 3.6 110 17:40 12.02.2022
3119 Clouds 26 1019 78 10000 2.06 20 16:46 12.02.2022
3120 Clear 25 1019 84 10000 0.89 39 15:59 12.02.2022
3121 Clouds 23 1019 87 10000 0.45 287 15:21 12.02.2022
3122 Clouds 20 1019 94 10000 1.54 350 14:29 12.02.2022
3123 Clouds 20 1018 94 10000 2.24 340 11:34 12.02.2022
3124 Clouds 20 1017 96 10000 2.57 320 10:33 12.02.2022
3125 Clouds 20 1017 93 10000 2.06 100 09:38 12.02.2022
3126 Clouds 20 1017 95 10000 2.24 300 08:47 12.02.2022
3127 Clouds 21 1018 92 10000 2.68 290 07:47 12.02.2022
3128 Clouds 21 1018 90 10000 2.24 120 05:31 12.02.2022
3129 Clouds 22 1017 91 10000 2.57 90 02:19 12.02.2022
3130 Rain 24 1017 80 10000 0.89 78 23:56 11.02.2022
3131 Clouds 25 1016 74 10000 4.63 70 22:24 11.02.2022
3132 Clouds 25 1016 72 10000 4.63 70 21:43 11.02.2022
3133 Clouds 26 1016 68 10000 4.63 60 20:37 11.02.2022
3134 Clouds 26 1017 67 10000 6.17 90 19:31 11.02.2022
3135 Clouds 26 1017 67 10000 4.12 90 18:47 11.02.2022
3136 Clouds 26 1018 69 10000 4.12 90 17:27 11.02.2022
3137 Clouds 26 1018 71 10000 1.34 99 16:56 11.02.2022
3138 Clouds 24 1018 77 10000 1.79 93 15:33 11.02.2022
3139 Clouds 21 1018 87 10000 0.45 342 14:38 11.02.2022
3140 Clouds 20 1017 87 10000 0 0 14:20 11.02.2022
3141 Clouds 20 1017 84 10000 0 0 13:47 11.02.2022
3142 Clouds 19 1017 84 10000 0 0 13:28 11.02.2022
3143 Clouds 19 1016 85 10000 0 0 11:26 11.02.2022
3144 Clouds 19 1017 84 10000 0 0 09:39 11.02.2022
3145 Clouds 19 1017 82 10000 1.54 340 08:39 11.02.2022
3146 Clouds 19 1017 82 10000 1.54 340 08:21 11.02.2022
3147 Clouds 20 1017 79 10000 0 0 06:31 11.02.2022
3148 Clouds 21 1017 71 10000 2.06 40 02:25 11.02.2022
3149 Clouds 22 1016 72 10000 4.63 60 00:46 11.02.2022
3150 Clouds 24 1016 63 10000 4.12 60 22:45 10.02.2022
3151 Clouds 25 1016 60 10000 5.14 80 21:44 10.02.2022
3152 Clouds 25 1016 59 10000 4.12 30 20:52 10.02.2022
3153 Clouds 25 1016 59 10000 4.12 30 20:24 10.02.2022
3154 Clouds 25 1017 60 10000 3.58 50 19:24 10.02.2022
3155 Clouds 24 1018 63 10000 3.13 30 18:43 10.02.2022
3156 Clouds 23 1018 66 10000 4.12 350 17:26 10.02.2022
3157 Clouds 21 1018 69 10000 4.63 360 16:47 10.02.2022
3158 Clouds 19 1019 74 10000 5.66 360 15:45 10.02.2022
3159 Clouds 18 1018 75 10000 5.66 360 15:25 10.02.2022
3160 Clear 16 1018 77 10000 4.63 360 14:46 10.02.2022
3161 Clear 15 1018 79 10000 4.63 360 14:23 10.02.2022
3162 Clear 14 1018 82 10000 4.12 340 13:21 10.02.2022
3163 Clear 14 1017 81 10000 4.12 340 12:23 10.02.2022
3164 Clear 14 1017 82 10000 4.12 350 11:33 10.02.2022
3165 Clear 14 1017 80 10000 4.12 350 10:35 10.02.2022
3166 Rain 15 1017 82 10000 3.6 340 09:49 10.02.2022
3167 Rain 15 1016 90 10000 0.89 0 08:53 10.02.2022
3168 Rain 16 1017 88 10000 4.12 340 06:42 10.02.2022
3169 Rain 17 1017 89 10000 1.54 340 03:39 10.02.2022
3170 Rain 17 1016 90 10000 2.57 10 01:43 10.02.2022
3171 Rain 18 1016 89 10000 2.57 360 00:42 10.02.2022
3172 Clouds 18 1016 90 10000 2.57 360 00:24 10.02.2022
3173 Clouds 18 1015 92 10000 4.12 340 22:58 09.02.2022
3174 Clouds 18 1015 91 10000 4.12 340 22:33 09.02.2022
3175 Mist 17 1015 92 10000 6.17 350 21:49 09.02.2022
3176 Mist 17 1015 91 10000 6.17 350 21:28 09.02.2022
3177 Mist 17 1016 96 10000 5.66 340 20:45 09.02.2022
3178 Mist 17 1016 97 10000 5.66 340 20:23 09.02.2022
3179 Clouds 17 1016 91 10000 5.14 340 19:43 09.02.2022
3180 Clouds 17 1017 92 10000 4.12 350 18:58 09.02.2022
3181 Clouds 17 1017 93 10000 5.66 340 17:32 09.02.2022
3182 Clouds 17 1018 95 10000 6.69 320 16:26 09.02.2022
3183 Rain 17 1017 92 3219 4.63 330 15:32 09.02.2022
3184 Clouds 18 1016 91 10000 3.6 340 13:57 09.02.2022
3185 Clouds 18 1015 92 10000 4.63 340 12:25 09.02.2022
3186 Clouds 18 1015 88 10000 3.09 330 10:37 09.02.2022
3187 Clouds 18 1014 88 10000 2.99 24 09:57 09.02.2022
3188 Clouds 18 1015 85 10000 2.06 330 09:23 09.02.2022
3189 Clouds 18 1015 88 10000 3.6 350 08:51 09.02.2022
3190 Clouds 19 1015 89 10000 4.02 360 07:28 09.02.2022
3191 Clouds 19 1016 89 10000 3.6 350 05:30 09.02.2022
3192 Clouds 19 1017 87 10000 3.13 340 03:50 09.02.2022
3193 Clouds 22 1016 84 10000 6.17 350 00:21 09.02.2022
3194 Clouds 24 1015 74 10000 5.66 340 23:29 08.02.2022
3195 Clouds 25 1015 69 10000 3.6 120 22:43 08.02.2022
3196 Clouds 25 1015 68 10000 3.6 120 22:20 08.02.2022
3197 Clouds 26 1015 67 10000 4.63 130 21:38 08.02.2022
3198 Rain 26 1015 66 10000 4.63 130 21:19 08.02.2022
3199 Clouds 26 1015 66 10000 4.63 110 20:41 08.02.2022
3200 Clouds 27 1015 66 10000 5.36 120 19:41 08.02.2022
3201 Clouds 26 1017 68 10000 2.24 0 18:25 08.02.2022
3202 Clouds 26 1017 70 10000 2.68 0 17:36 08.02.2022
3203 Clouds 23 1018 86 10000 0.89 30 15:55 08.02.2022
3204 Clouds 21 1018 88 10000 3.13 330 15:28 08.02.2022
3205 Mist 20 1017 97 8047 2.57 330 13:59 08.02.2022
3206 Mist 19 1017 95 1609 3.09 320 12:40 08.02.2022
3207 Mist 20 1016 95 3219 2.24 340 11:20 08.02.2022
3208 Clouds 19 1017 90 10000 0 0 09:51 08.02.2022
3209 Clear 20 1018 91 10000 1.02 187 08:54 08.02.2022
3210 Clouds 21 1018 86 10000 0 0 07:27 08.02.2022
3211 Clouds 22 1019 83 10000 2.68 140 04:40 08.02.2022
3212 Clouds 22 1018 84 10000 2.68 140 04:22 08.02.2022
3213 Clouds 22 1018 85 10000 2.24 150 03:36 08.02.2022
3214 Clouds 22 1018 83 10000 2.24 150 03:18 08.02.2022
3215 Clear 22 1020 84 10000 0.45 134 02:59 08.02.2022
3216 Clouds 22 1018 81 10000 3.13 150 02:37 08.02.2022
3217 Clouds 23 1018 81 10000 3.13 150 02:18 08.02.2022
3218 Clear 22 1018 83 10000 3.56 165 01:55 08.02.2022
3219 Clouds 23 1017 81 10000 2.68 140 01:37 08.02.2022
3220 Clouds 23 1017 80 10000 2.68 140 01:19 08.02.2022
3221 Clouds 24 1017 78 10000 3.6 120 00:44 08.02.2022
3222 Clouds 25 1016 74 10000 4.63 120 23:45 07.02.2022
3223 Clouds 25 1017 71 10000 4.63 120 23:18 07.02.2022
3224 Clouds 26 1016 72 10000 1.79 134 22:59 07.02.2022
3225 Clouds 26 1017 68 10000 5.14 170 22:19 07.02.2022
3226 Clouds 27 1017 68 10000 6.17 170 21:51 07.02.2022
3227 Clouds 27 1017 68 10000 6.17 170 21:28 07.02.2022
3228 Clouds 27 1018 67 10000 5.66 210 20:52 07.02.2022
3229 Clouds 27 1018 66 10000 5.66 210 20:34 07.02.2022
3230 Clouds 27 1018 67 10000 4.63 140 19:47 07.02.2022
3231 Clouds 27 1018 67 10000 4.63 140 19:47 07.02.2022
3232 Clouds 27 1019 67 10000 4.47 140 19:20 07.02.2022
3233 Clouds 26 1020 72 10000 2.68 0 17:39 07.02.2022
3234 Clouds 25 1020 78 10000 2.06 300 16:52 07.02.2022
3235 Mist 22 1021 90 8047 2.06 290 15:49 07.02.2022
3236 Mist 19 1021 98 2414 2.06 340 14:41 07.02.2022
3237 Fog 18 1020 97 805 2.57 340 13:27 07.02.2022
3238 Fog 19 1019 96 402 0 0 12:37 07.02.2022
3239 Fog 18 1019 96 10000 1.54 290 11:55 07.02.2022
3240 Clear 19 1018 93 10000 0 0 11:26 07.02.2022
3241 Clear 19 1018 92 10000 0 0 10:45 07.02.2022
3242 Clear 19 1018 92 10000 0 0 10:26 07.02.2022
3243 Clear 19 1019 92 10000 0 0 09:52 07.02.2022
3244 Clear 19 1019 92 10000 0 0 09:18 07.02.2022
3245 Clear 19 1019 93 10000 1.78 219 07:59 07.02.2022
3246 Clouds 20 1019 88 10000 1.34 270 06:35 07.02.2022
3247 Clouds 21 1020 88 10000 1.34 280 05:26 07.02.2022
3248 Clouds 22 1019 88 10000 2.97 208 02:56 07.02.2022
3249 Clouds 24 1018 77 10000 4.02 150 00:33 07.02.2022
3250 Clouds 25 1018 71 10000 4.47 130 23:40 06.02.2022
3251 Clouds 26 1018 65 10000 2.24 0 22:46 06.02.2022
3252 Clouds 26 1018 62 10000 3.58 130 21:51 06.02.2022
3253 Clouds 26 1018 61 10000 3.58 130 21:21 06.02.2022
3254 Clouds 27 1019 61 10000 3.58 130 20:52 06.02.2022
3255 Clouds 27 1019 61 10000 3.58 130 20:24 06.02.2022
3256 Clouds 27 1019 63 10000 3.58 170 19:30 06.02.2022
3257 Clouds 26 1019 64 10000 4.02 120 18:35 06.02.2022
3258 Clouds 27 1020 65 10000 1.34 147 17:54 06.02.2022
3259 Clouds 25 1020 73 10000 1.34 138 16:52 06.02.2022
3260 Clouds 25 1021 75 10000 0.89 129 16:30 06.02.2022
3261 Haze 22 1021 85 10000 1.34 340 15:47 06.02.2022
3262 Haze 21 1021 90 10000 1.34 340 15:25 06.02.2022
3263 Clouds 20 1020 94 10000 0.89 311 14:25 06.02.2022
3264 Clouds 19 1020 96 10000 0 0 13:24 06.02.2022
3265 Clouds 19 1019 96 10000 0 0 12:34 06.02.2022
3266 Clouds 20 1019 93 10000 2.24 310 10:43 06.02.2022
3267 Clouds 20 1019 93 10000 1.34 0 09:48 06.02.2022
3268 Clouds 20 1019 92 10000 2.68 280 08:46 06.02.2022
3269 Rain 21 1019 91 10000 2.24 300 07:36 06.02.2022
3270 Clouds 21 1020 88 10000 2.24 20 05:29 06.02.2022
3271 Clouds 22 1020 86 10000 0.45 360 02:26 06.02.2022
3272 Clouds 23 1019 80 10000 3.6 120 00:51 06.02.2022
3273 Clouds 24 1019 78 10000 3.58 120 00:24 06.02.2022
3274 Clouds 26 1019 70 10000 4.02 140 22:18 05.02.2022
3275 Clouds 26 1019 67 10000 3.13 110 20:48 05.02.2022
3276 Clouds 27 1019 68 10000 3.13 110 20:23 05.02.2022
3277 Clouds 27 1020 68 10000 3.13 140 19:44 05.02.2022
3278 Clouds 27 1020 68 10000 2.68 140 18:48 05.02.2022
3279 Clouds 27 1021 69 10000 2.24 130 17:37 05.02.2022
3280 Clouds 26 1022 74 10000 2.24 120 16:36 05.02.2022
3281 Clouds 23 1022 85 10000 0.45 141 15:33 05.02.2022
3282 Clouds 21 1021 95 10000 0 0 14:40 05.02.2022
3283 Clouds 19 1020 94 10000 0 0 12:46 05.02.2022
3284 Clear 19 1020 93 10000 0 0 11:47 05.02.2022
3285 Clear 19 1020 91 10000 0 0 10:46 05.02.2022
3286 Clear 20 1020 88 10000 0 0 09:51 05.02.2022
3287 Clear 20 1020 87 10000 0 0 09:23 05.02.2022
3288 Clear 21 1021 88 10000 2.68 120 07:36 05.02.2022
3289 Clear 21 1021 88 10000 0.45 110 06:56 05.02.2022
3290 Clear 22 1021 85 10000 2.24 140 03:22 05.02.2022
3291 Clouds 23 1021 82 10000 3.58 140 01:19 05.02.2022
3292 Clouds 23 1021 82 10000 3.58 140 01:18 05.02.2022
3293 Clouds 23 1020 79 10000 4.47 150 00:39 05.02.2022
3294 Clouds 25 1020 74 10000 4.02 160 23:33 04.02.2022
3295 Clouds 25 1020 74 10000 1.34 137 22:55 04.02.2022
3296 Clouds 26 1021 70 10000 4.02 140 21:36 04.02.2022
3297 Clouds 26 1020 69 10000 4.02 140 21:18 04.02.2022
3298 Clouds 27 1020 69 10000 5.36 140 20:40 04.02.2022
3299 Clouds 27 1021 69 10000 6.26 130 19:30 04.02.2022
3300 Clouds 26 1023 72 10000 1.34 139 16:56 04.02.2022
3301 Clear 25 1023 75 10000 6.26 120 15:34 04.02.2022
3302 Clouds 24 1022 80 10000 3.58 110 14:51 04.02.2022
3303 Clouds 22 1021 86 10000 3.58 110 12:43 04.02.2022
3304 Clouds 22 1021 85 10000 4.47 120 11:46 04.02.2022
3305 Clouds 22 1021 84 10000 4.47 120 11:18 04.02.2022
3306 Clouds 22 1020 84 10000 4.02 120 10:22 04.02.2022
3307 Clouds 23 1021 84 10000 4.47 120 08:31 04.02.2022
3308 Clouds 23 1021 83 10000 5.36 110 04:52 04.02.2022
3309 Clouds 23 1021 84 10000 1.34 107 02:38 04.02.2022
3310 Clouds 23 1020 80 10000 7.15 110 00:18 04.02.2022
3311 Clouds 25 1020 74 10000 7.15 110 22:52 03.02.2022
3312 Clear 25 1020 75 10000 1.79 104 21:59 03.02.2022
3313 Clouds 26 1020 72 10000 5.81 140 21:37 03.02.2022
3314 Clouds 26 1020 70 10000 7.15 100 20:22 03.02.2022
3315 Clouds 26 1020 69 10000 7.15 110 19:49 03.02.2022
3316 Clouds 26 1021 70 10000 7.15 110 19:20 03.02.2022
3317 Clouds 26 1022 69 10000 2.24 105 17:59 03.02.2022
3318 Clouds 26 1022 67 10000 6.71 130 17:26 03.02.2022
3319 Clouds 24 1022 68 10000 5.81 110 15:38 03.02.2022
3320 Clouds 22 1021 73 10000 5.36 110 14:18 03.02.2022
3321 Clear 21 1020 76 10000 5.36 110 12:32 03.02.2022
3322 Clouds 22 1019 78 10000 1.79 0 08:56 03.02.2022
3323 Clouds 22 1019 77 10000 5.81 110 08:18 03.02.2022
3324 Clouds 22 1019 74 10000 1.79 84 00:59 03.02.2022
3325 Clouds 23 1019 70 10000 6.71 100 00:22 03.02.2022
3326 Clouds 24 1019 64 10000 7.6 120 22:39 02.02.2022
3327 Clouds 25 1019 63 10000 6.71 120 21:51 02.02.2022
3328 Clouds 25 1019 62 10000 6.71 120 21:29 02.02.2022
3329 Clouds 25 1020 61 10000 7.6 90 20:27 02.02.2022
3330 Clouds 25 1020 61 10000 8.94 120 19:46 02.02.2022
3331 Clouds 25 1020 63 10000 2.24 87 18:56 02.02.2022
3332 Clouds 25 1021 63 10000 9.39 100 18:25 02.02.2022
3333 Clouds 25 1021 63 10000 8.94 100 17:21 02.02.2022
3334 Clouds 24 1021 65 10000 2.68 85 16:58 02.02.2022
3335 Clouds 23 1021 65 10000 6.71 100 15:29 02.02.2022
3336 Clouds 20 1019 71 10000 5.81 100 12:31 02.02.2022
3337 Clouds 20 1019 72 10000 7.15 100 11:49 02.02.2022
3338 Clouds 20 1019 72 10000 7.15 100 11:30 02.02.2022
3339 Clouds 20 1019 68 10000 5.81 90 08:48 02.02.2022
3340 Clear 20 1021 62 10000 5.81 90 02:44 02.02.2022
3341 Clouds 22 1020 56 10000 6.26 80 22:33 01.02.2022
3342 Clouds 23 1020 54 10000 7.6 70 20:51 01.02.2022
3343 Clouds 23 1021 53 10000 5.81 70 19:29 01.02.2022
3344 Clouds 22 1022 53 10000 8.94 100 17:34 01.02.2022
3345 Clouds 21 1022 54 10000 6.26 100 16:21 01.02.2022
3346 Clouds 18 1021 63 10000 1.34 77 12:57 01.02.2022
3347 Clouds 17 1021 64 10000 3.58 100 12:21 01.02.2022
3348 Clouds 18 1020 63 10000 1.34 68 08:52 01.02.2022
3349 Clouds 17 1022 58 10000 2.24 30 02:20 01.02.2022
3350 Clouds 19 1021 55 10000 4.47 90 23:37 31.01.2022
3351 Clouds 20 1021 53 10000 4.47 60 22:42 31.01.2022
3352 Clouds 21 1020 53 10000 6.26 70 21:35 31.01.2022
3353 Clouds 21 1021 54 10000 4.47 50 20:35 31.01.2022
3354 Clear 20 1021 57 10000 2.24 43 19:58 31.01.2022
3355 Clouds 20 1023 49 10000 2.68 40 18:32 31.01.2022
3356 Clouds 20 1023 49 10000 2.68 40 18:32 31.01.2022
3357 Clear 20 1023 49 10000 1.79 22 17:57 31.01.2022
3358 Clear 19 1023 44 10000 3.13 0 17:24 31.01.2022
3359 Clear 16 1024 45 10000 3.13 330 16:23 31.01.2022
3360 Clear 13 1023 51 10000 1.34 332 14:53 31.01.2022
3361 Clear 9 1024 54 10000 1.34 340 13:31 31.01.2022
3362 Clear 9 1023 55 10000 1.34 340 12:37 31.01.2022
3363 Clear 9 1023 55 10000 2.24 0 11:26 31.01.2022
3364 Clear 9 1023 55 10000 1.34 350 10:48 31.01.2022
3365 Clear 9 1023 53 10000 0 0 09:37 31.01.2022
3366 Clear 8 1023 56 10000 4.39 350 08:56 31.01.2022
3367 Clear 9 1023 50 10000 1.34 360 08:20 31.01.2022
3368 Clear 9 1024 48 10000 2.24 350 07:40 31.01.2022
3369 Clear 9 1024 43 10000 2.24 0 05:25 31.01.2022
3370 Clouds 14 1023 35 10000 2.68 300 00:24 31.01.2022
3371 Clouds 16 1022 29 10000 3.13 0 22:33 30.01.2022
3372 Clouds 17 1022 30 10000 3.58 360 21:46 30.01.2022
3373 Clouds 17 1022 30 10000 3.58 360 21:24 30.01.2022
3374 Clouds 16 1022 30 10000 2.68 0 20:53 30.01.2022
3375 Clouds 16 1023 29 10000 2.68 0 20:31 30.01.2022
3376 Clear 16 1023 30 10000 1.34 340 19:56 30.01.2022
3377 Clouds 15 1024 31 10000 3.58 310 18:51 30.01.2022
3378 Clouds 15 1024 33 10000 1.79 0 18:22 30.01.2022
3379 Clouds 13 1026 40 10000 4.02 340 17:31 30.01.2022
3380 Clouds 12 1026 44 10000 4.02 340 16:43 30.01.2022
3381 Clouds 11 1026 45 10000 4.02 340 16:23 30.01.2022
3382 Clouds 11 1026 45 10000 4.02 340 16:23 30.01.2022
3383 Clear 10 1026 48 10000 1.79 0 15:55 30.01.2022
3384 Clouds 9 1026 44 10000 5.36 340 15:33 30.01.2022
3385 Clear 7 1025 46 10000 3.58 340 14:48 30.01.2022
3386 Clear 5 1024 50 10000 2.24 0 13:49 30.01.2022
3387 Clear 5 1024 53 10000 5.36 330 12:46 30.01.2022
3388 Clear 5 1023 52 10000 3.58 330 11:23 30.01.2022
3389 Clear 6 1023 49 10000 4.02 340 10:26 30.01.2022
3390 Clear 6 1022 47 10000 4.02 340 09:23 30.01.2022
3391 Clear 6 1022 54 10000 2.24 324 07:59 30.01.2022
3392 Clear 11 1021 47 10000 4.47 330 02:44 30.01.2022
3393 Clear 11 1020 48 10000 1.79 309 01:54 30.01.2022
3394 Clouds 14 1019 41 10000 4.02 300 23:49 29.01.2022
3395 Clouds 15 1018 42 10000 1.79 314 22:57 29.01.2022
3396 Clouds 15 1018 42 10000 4.47 300 21:35 29.01.2022
3397 Clouds 15 1018 43 10000 3.58 316 20:57 29.01.2022
3398 Clouds 14 1019 44 10000 5.81 300 19:52 29.01.2022
3399 Clouds 14 1019 44 10000 5.81 300 19:31 29.01.2022
3400 Clouds 14 1020 44 10000 5.36 310 18:44 29.01.2022
3401 Clouds 13 1020 45 10000 3.58 317 17:54 29.01.2022
3402 Clouds 12 1021 49 10000 6.71 320 16:44 29.01.2022
3403 Clouds 10 1020 56 10000 8.94 310 15:27 29.01.2022
3404 Clouds 11 1019 60 10000 6.71 320 13:48 29.01.2022
3405 Clouds 11 1019 62 10000 6.71 320 13:27 29.01.2022
3406 Clouds 11 1019 65 10000 4.02 313 12:58 29.01.2022
3407 Clouds 13 1016 64 10000 8.05 310 11:39 29.01.2022
3408 Clouds 16 1015 70 10000 7.15 310 10:32 29.01.2022
3409 Clouds 18 1015 78 10000 5.36 290 07:57 29.01.2022
3410 Clouds 20 1015 79 10000 3.13 250 02:26 29.01.2022
3411 Clear 21 1014 72 10000 2.68 0 00:31 29.01.2022
3412 Clouds 23 1013 63 10000 1.34 0 23:29 28.01.2022
3413 Clouds 23 1013 64 10000 3.13 270 22:46 28.01.2022
3414 Clouds 23 1013 65 10000 3.13 270 22:19 28.01.2022
3415 Clouds 23 1014 74 10000 1.34 294 20:41 28.01.2022
3416 Clouds 22 1014 79 10000 1.79 291 19:56 28.01.2022
3417 Clouds 21 1015 81 10000 3.6 270 18:52 28.01.2022
3418 Fog 21 1016 84 10000 1.79 299 17:52 28.01.2022
3419 Mist 18 1017 94 4828 2.24 270 15:52 28.01.2022
3420 Mist 17 1016 96 1609 3.13 270 14:50 28.01.2022
3421 Mist 17 1016 96 1207 1.34 311 12:42 28.01.2022
3422 Fog 17 1016 96 402 0.89 294 11:49 28.01.2022
3423 Mist 18 1015 94 10000 2.24 330 10:26 28.01.2022
3424 Clouds 18 1015 94 10000 2.24 310 09:46 28.01.2022
3425 Clouds 20 1016 89 10000 1.34 0 07:41 28.01.2022
3426 Clear 20 1017 90 10000 2.06 360 05:31 28.01.2022
3427 Clouds 21 1017 90 10000 2.24 0 03:50 28.01.2022
3428 Clouds 22 1017 90 10000 2.68 40 02:25 28.01.2022
3429 Clouds 22 1017 89 10000 0.45 33 01:36 28.01.2022
3430 Clouds 23 1016 87 10000 4.02 100 00:39 28.01.2022
3431 Clouds 25 1016 80 10000 4.47 90 22:18 27.01.2022
3432 Clouds 25 1016 78 10000 2.68 300 21:34 27.01.2022
3433 Clouds 26 1016 80 10000 1.34 134 20:58 27.01.2022
3434 Clouds 26 1017 74 10000 2.24 290 19:36 27.01.2022
3435 Clouds 25 1018 79 10000 2.57 0 18:18 27.01.2022
3436 Clouds 22 1019 89 10000 2.24 0 16:45 27.01.2022
3437 Mist 19 1018 97 9656 2.24 0 13:48 27.01.2022
3438 Mist 19 1017 96 9656 2.68 330 12:48 27.01.2022
3439 Mist 20 1016 96 9656 0.45 329 11:24 27.01.2022
3440 Mist 20 1016 97 6437 1.34 320 09:28 27.01.2022
3441 Mist 20 1016 96 9656 0 0 08:39 27.01.2022
3442 Clouds 21 1016 96 10000 1.34 0 07:23 27.01.2022
3443 Rain 22 1018 92 10000 0.45 2 02:59 27.01.2022
3444 Clouds 25 1015 82 4828 3.13 240 23:52 26.01.2022
3445 Clouds 26 1014 73 10000 4.02 260 22:27 26.01.2022
3446 Clouds 27 1014 72 10000 4.02 270 21:41 26.01.2022
3447 Clouds 27 1014 72 10000 6.26 260 20:42 26.01.2022
3448 Clouds 27 1015 72 10000 6.26 260 20:23 26.01.2022
3449 Clouds 27 1015 73 10000 5.81 250 19:28 26.01.2022
3450 Clouds 27 1016 74 10000 4.47 230 18:46 26.01.2022
3451 Rain 26 1016 79 10000 4.47 220 17:52 26.01.2022
3452 Clouds 26 1017 78 10000 4.47 220 17:24 26.01.2022
3453 Clouds 25 1017 80 10000 1.79 153 16:40 26.01.2022
3454 Clouds 24 1017 82 10000 3.58 190 15:50 26.01.2022
3455 Clouds 22 1016 89 10000 2.24 0 14:23 26.01.2022
3456 Clouds 21 1015 89 10000 0.45 178 11:59 26.01.2022
3457 Clouds 21 1014 83 10000 4.47 150 10:45 26.01.2022
3458 Clouds 21 1015 82 10000 2.68 140 09:49 26.01.2022
3459 Clouds 21 1015 79 10000 2.68 150 08:32 26.01.2022
3460 Clouds 21 1016 78 10000 5.36 120 06:20 26.01.2022
3461 Clouds 21 1016 78 10000 5.36 120 06:20 26.01.2022
3462 Clouds 21 1016 68 10000 3.58 90 00:18 26.01.2022
3463 Clouds 22 1016 66 10000 4.02 100 23:34 25.01.2022
3464 Clouds 22 1016 65 10000 4.47 100 22:48 25.01.2022
3465 Clouds 22 1016 65 10000 4.47 100 22:18 25.01.2022
3466 Clouds 23 1015 65 10000 4.47 110 21:22 25.01.2022
3467 Clouds 22 1015 65 10000 5.36 100 20:44 25.01.2022
3468 Clouds 23 1015 64 10000 3.58 110 19:53 25.01.2022
3469 Clouds 22 1016 61 10000 3.13 30 18:46 25.01.2022
3470 Clouds 21 1017 57 10000 1.34 50 17:45 25.01.2022
3471 Clouds 19 1017 51 10000 1.34 0 16:58 25.01.2022
3472 Clouds 18 1018 50 10000 1.34 0 16:34 25.01.2022
3473 Clouds 16 1018 52 10000 2.24 10 15:39 25.01.2022
3474 Clouds 15 1018 57 10000 0.45 354 14:58 25.01.2022
3475 Clouds 11 1016 71 10000 0 0 13:47 25.01.2022
3476 Clouds 11 1015 74 10000 0 0 11:30 25.01.2022
3477 Clouds 11 1015 74 10000 0 0 09:21 25.01.2022
3478 Clouds 11 1016 64 10000 0 0 07:31 25.01.2022
3479 Clouds 10 1016 35 10000 0.79 298 06:53 25.01.2022
3480 Clouds 12 1017 56 10000 0 0 05:23 25.01.2022
3481 Clouds 16 1016 43 10000 0 0 00:20 25.01.2022
3482 Clouds 17 1015 42 10000 1.34 20 23:36 24.01.2022
3483 Clouds 17 1015 39 10000 1.34 20 23:18 24.01.2022
3484 Clouds 18 1015 40 10000 2.24 0 22:42 24.01.2022
3485 Clear 18 1014 40 10000 0.89 20 21:57 24.01.2022
3486 Clear 18 1014 40 10000 0.89 20 21:57 24.01.2022
3487 Clouds 18 1015 40 10000 2.68 330 21:32 24.01.2022
3488 Clouds 17 1015 43 10000 4.02 330 20:34 24.01.2022
3489 Clear 16 1015 45 10000 1.79 339 19:58 24.01.2022
3490 Clear 16 1016 48 10000 4.02 290 19:37 24.01.2022
3491 Clouds 15 1017 52 10000 3.58 320 18:37 24.01.2022
3492 Clouds 13 1018 59 10000 4.47 290 17:24 24.01.2022
3493 Clear 12 1018 62 10000 2.68 313 16:55 24.01.2022
3494 Clouds 11 1018 66 10000 2.24 0 16:29 24.01.2022
3495 Clouds 8 1017 83 10000 2.24 330 14:49 24.01.2022
3496 Clouds 7 1017 86 10000 3.58 320 13:38 24.01.2022
3497 Clear 8 1016 83 10000 4.02 320 12:32 24.01.2022
3498 Clear 8 1015 82 10000 2.68 320 11:21 24.01.2022
3499 Clouds 8 1016 84 10000 2.68 300 09:49 24.01.2022
3500 Clouds 8 1015 84 10000 2.68 300 09:20 24.01.2022
3501 Clouds 9 1016 80 10000 3.58 310 07:20 24.01.2022
3502 Clouds 9 1016 80 10000 3.58 310 07:20 24.01.2022
3503 Clouds 13 1016 87 10000 3.6 310 01:32 24.01.2022
3504 Clouds 14 1017 85 10000 4.12 300 00:46 24.01.2022
3505 Clouds 14 1016 85 10000 3.09 290 00:27 24.01.2022
3506 Clouds 16 1016 77 10000 4.63 310 22:46 23.01.2022
3507 Clouds 16 1016 80 10000 5.14 280 21:50 23.01.2022
3508 Clouds 16 1016 80 10000 5.14 280 21:27 23.01.2022
3509 Clouds 18 1015 58 10000 4.46 306 20:54 23.01.2022
3510 Clouds 18 1016 80 10000 4.81 312 19:55 23.01.2022
3511 Clouds 17 1017 81 10000 4.12 290 18:52 23.01.2022
3512 Clouds 17 1019 84 10000 4.63 320 17:54 23.01.2022
3513 Clouds 15 1019 89 10000 3.13 0 16:52 23.01.2022
3514 Clouds 15 1018 91 10000 3.13 300 15:18 23.01.2022
3515 Clouds 15 1018 93 10000 4.02 350 14:33 23.01.2022
3516 Mist 15 1018 93 9656 3.13 310 13:27 23.01.2022
3517 Clouds 15 1018 95 10000 4.02 320 12:40 23.01.2022
3518 Clouds 15 1017 95 10000 4.02 320 12:18 23.01.2022
3519 Clouds 16 1017 95 10000 3.58 340 11:25 23.01.2022
3520 Clouds 16 1017 95 10000 0.89 329 10:57 23.01.2022
3521 Clouds 16 1017 95 10000 3.58 320 10:23 23.01.2022
3522 Clouds 17 1017 94 10000 4.02 310 09:25 23.01.2022
3523 Rain 18 1019 94 10000 0.45 360 05:59 23.01.2022
3524 Clouds 19 1019 90 10000 3.13 330 03:20 23.01.2022
3525 Clouds 19 1018 90 10000 3.13 330 01:36 23.01.2022
3526 Clouds 20 1018 88 10000 3.13 0 00:42 23.01.2022
3527 Clouds 21 1018 88 10000 1.79 322 23:57 22.01.2022
3528 Clouds 22 1017 85 10000 3.58 320 22:48 22.01.2022
3529 Clouds 23 1017 83 10000 1.79 316 21:58 22.01.2022
3530 Clouds 25 1018 79 10000 1.34 0 20:29 22.01.2022
3531 Clouds 25 1018 79 10000 1.34 0 19:37 22.01.2022
3532 Clouds 25 1018 78 10000 0.45 311 18:37 22.01.2022
3533 Clouds 25 1019 79 10000 3.58 330 17:42 22.01.2022
3534 Clouds 24 1019 81 10000 3.58 330 17:18 22.01.2022
3535 Clouds 23 1020 86 10000 1.34 340 16:22 22.01.2022
3536 Clouds 22 1020 91 10000 2.24 320 15:44 22.01.2022
3537 Mist 21 1019 96 9656 1.34 0 14:42 22.01.2022
3538 Mist 20 1018 97 6437 0.45 4 13:28 22.01.2022
3539 Fog 20 1018 97 805 2.24 0 12:37 22.01.2022
3540 Fog 20 1018 97 402 2.68 340 12:18 22.01.2022
3541 Mist 21 1017 96 10000 2.24 300 10:39 22.01.2022
3542 Mist 21 1017 96 10000 0 0 10:20 22.01.2022
3543 Mist 21 1017 96 9656 2.57 220 08:55 22.01.2022
3544 Clouds 21 1017 95 10000 2.24 170 08:31 22.01.2022
3545 Clouds 21 1018 94 10000 1.54 250 05:20 22.01.2022
3546 Clouds 23 1018 90 10000 1.34 150 02:39 22.01.2022
3547 Clouds 25 1016 82 10000 4.02 130 23:50 21.01.2022
3548 Clouds 26 1016 82 10000 1.34 150 22:59 21.01.2022
3549 Clouds 27 1016 75 10000 3.13 140 21:18 21.01.2022
3550 Clouds 27 1017 76 10000 4.02 100 19:30 21.01.2022
3551 Clouds 26 1019 79 10000 1.34 119 17:51 21.01.2022
3552 Clouds 24 1019 94 10000 1.34 116 15:56 21.01.2022
3553 Clouds 22 1019 98 10000 0.6 134 14:58 21.01.2022
3554 Clouds 21 1017 97 10000 2.24 170 12:43 21.01.2022
3555 Rain 20 1017 97 10000 0.45 225 11:29 21.01.2022
3556 Rain 20 1017 97 6437 0 0 10:47 21.01.2022
3557 Mist 21 1017 96 3219 3.6 240 08:59 21.01.2022
3558 Clouds 21 1017 96 10000 0 0 07:58 21.01.2022
3559 Mist 22 1018 93 4828 1.34 150 01:55 21.01.2022
3560 Mist 24 1017 87 4828 2.24 148 22:51 20.01.2022
3561 Clouds 25 1017 80 10000 1.34 136 21:49 20.01.2022
3562 Clouds 25 1017 76 10000 1.34 131 21:25 20.01.2022
3563 Clouds 26 1018 73 10000 1.34 144 19:54 20.01.2022
3564 Clouds 26 1019 69 10000 0.89 127 19:18 20.01.2022
3565 Clouds 26 1019 69 10000 0.89 127 19:18 20.01.2022
3566 Clouds 26 1021 71 10000 0.89 153 17:37 20.01.2022
3567 Clouds 25 1021 79 10000 0.89 110 16:24 20.01.2022
3568 Clouds 22 1021 86 10000 0.89 144 15:31 20.01.2022
3569 Clouds 21 1020 91 10000 0.45 127 14:20 20.01.2022
3570 Clouds 20 1020 95 10000 3.61 118 12:53 20.01.2022
3571 Clouds 19 1019 92 10000 0 0 12:29 20.01.2022
3572 Clouds 19 1019 92 10000 0 0 11:19 20.01.2022
3573 Clouds 20 1019 87 10000 0 0 10:18 20.01.2022
3574 Clouds 20 1020 81 10000 0.45 103 08:51 20.01.2022
3575 Clouds 20 1020 79 10000 0 0 07:23 20.01.2022
3576 Clouds 21 1021 71 10000 3.6 120 00:40 20.01.2022
3577 Clouds 23 1021 64 10000 0.89 79 22:39 19.01.2022
3578 Clouds 23 1021 62 10000 0.89 83 21:36 19.01.2022
3579 Clear 23 1021 63 10000 1.34 81 20:59 19.01.2022
3580 Clouds 23 1021 60 10000 1.34 0 20:40 19.01.2022
3581 Clear 24 1022 59 10000 1.34 108 18:59 19.01.2022
3582 Clouds 23 1023 58 10000 0.89 90 17:51 19.01.2022
3583 Clouds 23 1023 57 10000 1.34 80 17:18 19.01.2022
3584 Clouds 19 1023 71 10000 0 0 15:35 19.01.2022
3585 Clouds 13 1022 88 10000 0 0 13:26 19.01.2022
3586 Clouds 13 1022 82 10000 0 0 12:20 19.01.2022
3587 Clouds 13 1022 79 10000 2.06 320 11:38 19.01.2022
3588 Clouds 13 1022 72 10000 2.06 340 09:49 19.01.2022
3589 Clouds 13 1022 72 10000 2.06 340 09:22 19.01.2022
3590 Clouds 13 1023 67 10000 1.54 340 05:29 19.01.2022
3591 Clouds 17 1022 57 10000 0.45 57 00:22 19.01.2022
3592 Clouds 19 1021 46 10000 4.02 90 23:18 18.01.2022
3593 Clouds 20 1020 43 10000 1.34 58 21:50 18.01.2022
3594 Clouds 20 1021 45 10000 1.34 86 20:38 18.01.2022
3595 Clouds 20 1021 43 10000 0.45 318 19:51 18.01.2022
3596 Clouds 20 1021 43 10000 0.45 61 19:33 18.01.2022
3597 Clouds 19 1022 47 10000 1.34 335 18:25 18.01.2022
3598 Clear 18 1023 53 10000 1.34 39 17:33 18.01.2022
3599 Clouds 16 1023 62 10000 3.6 30 16:22 18.01.2022
3600 Clouds 15 1023 70 10000 2.57 30 15:25 18.01.2022
3601 Clouds 13 1022 80 10000 0.45 37 14:34 18.01.2022
3602 Clear 12 1020 83 10000 0 0 11:52 18.01.2022
3603 Clear 12 1019 78 10000 0 0 10:30 18.01.2022
3604 Clear 13 1019 75 10000 1.54 320 08:49 18.01.2022
3605 Clear 13 1019 76 10000 3.09 310 07:45 18.01.2022
3606 Clear 13 1019 76 10000 3.09 310 07:45 18.01.2022
3607 Clouds 18 1017 65 10000 2.24 312 01:34 18.01.2022
3608 Clouds 21 1015 55 10000 2.68 298 23:22 17.01.2022
3609 Clouds 23 1015 54 10000 3.13 309 21:58 17.01.2022
3610 Clouds 23 1014 52 10000 2.68 287 21:31 17.01.2022
3611 Clouds 22 1015 54 10000 3.13 291 19:42 17.01.2022
3612 Clouds 22 1016 59 10000 3.13 300 18:27 17.01.2022
3613 Clouds 21 1016 62 10000 3.13 333 17:22 17.01.2022
3614 Clouds 20 1017 68 10000 2.68 302 16:24 17.01.2022
3615 Clouds 17 1017 85 10000 0.89 290 14:58 17.01.2022
3616 Clouds 16 1016 81 10000 0.45 0 14:33 17.01.2022
3617 Clouds 15 1015 85 10000 1.54 260 13:19 17.01.2022
3618 Clear 15 1014 82 10000 1.34 300 12:52 17.01.2022
3619 Clouds 16 1013 82 10000 2.24 260 11:47 17.01.2022
3620 Clear 16 1013 84 10000 1.34 270 10:21 17.01.2022
3621 Clear 16 1013 85 10000 2.68 270 08:44 17.01.2022
3622 Clouds 17 1013 83 10000 2.68 260 07:22 17.01.2022
3623 Clouds 18 1013 82 10000 0.89 279 02:20 17.01.2022
3624 Clouds 19 1012 88 10000 3.13 260 00:43 17.01.2022
3625 Rain 19 1010 95 10000 5.81 230 21:22 16.01.2022
3626 Rain 19 1010 93 10000 5.36 220 20:30 16.01.2022
3627 Clouds 24 1010 76 10000 7.6 180 18:48 16.01.2022
3628 Clouds 25 1011 75 10000 6.71 170 17:51 16.01.2022
3629 Clear 25 1012 76 10000 3.13 162 16:55 16.01.2022
3630 Clouds 23 1013 76 10000 5.81 180 15:43 16.01.2022
3631 Clouds 23 1012 78 10000 5.81 170 14:29 16.01.2022
3632 Clouds 22 1012 80 10000 4.47 160 13:33 16.01.2022
3633 Clouds 22 1012 79 10000 4.47 160 12:22 16.01.2022
3634 Clouds 22 1013 79 10000 2.24 195 11:29 16.01.2022
3635 Clear 21 1013 79 10000 1.79 209 10:28 16.01.2022
3636 Clear 21 1013 79 10000 3.13 141 09:58 16.01.2022
3637 Clear 21 1014 78 10000 2.68 210 09:37 16.01.2022
3638 Clear 21 1014 79 10000 2.68 112 09:19 16.01.2022
3639 Clouds 21 1014 80 10000 1.34 114 07:19 16.01.2022
3640 Clouds 20 1016 65 10000 0.89 129 00:35 16.01.2022
3641 Clear 23 1016 53 10000 1.34 0 22:53 15.01.2022
3642 Smoke 24 1016 45 10000 1.79 149 21:22 15.01.2022
3643 Smoke 24 1016 45 10000 1.34 165 20:45 15.01.2022
3644 Smoke 24 1016 45 10000 0.89 122 20:22 15.01.2022
3645 Smoke 24 1018 42 10000 1.34 191 19:27 15.01.2022
3646 Smoke 23 1019 41 10000 1.34 179 18:18 15.01.2022
3647 Clouds 22 1020 48 10000 0.89 91 16:49 15.01.2022
3648 Clouds 15 1019 77 10000 0 0 14:38 15.01.2022
3649 Clear 12 1017 86 10000 0 0 12:40 15.01.2022
3650 Clear 12 1017 79 10000 0 0 11:26 15.01.2022
3651 Clear 13 1016 74 10000 0 0 09:46 15.01.2022
3652 Clear 18 1017 58 10000 3.62 350 01:58 15.01.2022
3653 Clouds 21 1015 47 10000 0.89 301 23:20 14.01.2022
3654 Clouds 22 1014 43 10000 2.24 316 21:18 14.01.2022
3655 Clouds 22 1015 43 10000 1.79 316 20:25 14.01.2022
3656 Clouds 22 1015 42 10000 4.47 330 19:50 14.01.2022
3657 Clouds 21 1015 47 10000 1.34 320 18:38 14.01.2022
3658 Clouds 20 1016 52 10000 2.24 324 17:21 14.01.2022
3659 Clouds 19 1017 57 10000 1.79 345 16:40 14.01.2022
3660 Clear 17 1016 73 10000 1.34 347 15:30 14.01.2022
3661 Clear 15 1015 84 10000 1.79 318 14:25 14.01.2022
3662 Clear 14 1015 88 10000 1.34 280 12:47 14.01.2022
3663 Clear 14 1014 88 10000 2.24 280 11:51 14.01.2022
3664 Clear 14 1014 87 10000 0.89 267 10:30 14.01.2022
3665 Clear 15 1013 86 10000 1.34 295 08:52 14.01.2022
3666 Clear 16 1013 84 10000 2.68 300 07:30 14.01.2022
3667 Clouds 20 1013 70 10000 4.02 270 02:20 14.01.2022
3668 Clouds 23 1012 60 10000 3.13 290 23:40 13.01.2022
3669 Clouds 25 1012 53 10000 4.02 300 21:46 13.01.2022
3670 Clouds 25 1012 54 10000 4.02 300 21:27 13.01.2022
3671 Clouds 25 1013 60 10000 2.68 290 19:45 13.01.2022
3672 Clouds 25 1013 60 10000 2.68 290 19:23 13.01.2022
3673 Clouds 24 1014 62 10000 1.79 295 18:36 13.01.2022
3674 Clouds 22 1016 77 10000 1.34 0 16:52 13.01.2022
3675 Rain 20 1016 88 10000 0.45 0 15:38 13.01.2022
3676 Rain 19 1016 88 10000 0 0 15:18 13.01.2022
3677 Clouds 18 1016 90 10000 2.24 330 13:28 13.01.2022
3678 Clouds 19 1016 90 10000 1.34 20 10:39 13.01.2022
3679 Clouds 19 1016 89 10000 1.34 30 09:23 13.01.2022
3680 Clouds 19 1017 90 10000 1.34 40 08:29 13.01.2022
3681 Clouds 19 1017 91 10000 3.72 66 07:58 13.01.2022
3682 Clouds 19 1017 89 10000 2.68 50 07:18 13.01.2022
3683 Clouds 20 1018 87 10000 2.68 70 05:20 13.01.2022
3684 Clouds 21 1018 83 10000 2.68 30 03:34 13.01.2022
3685 Clouds 21 1018 79 10000 3.13 50 01:38 13.01.2022
3686 Clouds 22 1018 73 10000 0.45 0 23:53 12.01.2022
3687 Clouds 23 1018 68 10000 3.58 50 23:34 12.01.2022
3688 Clouds 23 1018 63 10000 5.81 70 22:22 12.01.2022
3689 Clouds 24 1018 62 10000 5.36 60 21:43 12.01.2022
3690 Clouds 24 1018 62 10000 5.36 60 21:18 12.01.2022
3691 Clouds 24 1018 62 10000 5.81 50 20:44 12.01.2022
3692 Clouds 24 1020 62 10000 2.68 44 18:48 12.01.2022
3693 Clouds 24 1020 63 10000 2.24 13 18:18 12.01.2022
3694 Clouds 23 1022 69 10000 2.24 358 16:52 12.01.2022
3695 Clouds 21 1022 76 10000 1.79 86 14:50 12.01.2022
3696 Clouds 21 1022 77 10000 1.34 25 14:19 12.01.2022
3697 Clouds 21 1021 78 10000 2.24 45 12:57 12.01.2022
3698 Clouds 21 1020 83 10000 1.34 103 09:48 12.01.2022
3699 Rain 20 1021 87 10000 1.79 51 07:57 12.01.2022
3700 Rain 20 1022 89 10000 1.79 49 07:33 12.01.2022
3701 Rain 20 1022 89 10000 1.79 49 07:33 12.01.2022
3702 Rain 20 1023 93 10000 0.89 356 02:38 12.01.2022
3703 Rain 21 1022 87 10000 0.89 352 23:27 11.01.2022
3704 Clouds 22 1021 82 10000 1.79 13 22:39 11.01.2022
3705 Clouds 23 1021 78 10000 0.89 25 22:18 11.01.2022
3706 Clouds 24 1021 74 10000 2.24 44 20:40 11.01.2022
3707 Clouds 24 1021 74 10000 2.24 44 20:40 11.01.2022
3708 Clouds 24 1022 78 10000 2.24 40 19:40 11.01.2022
3709 Clouds 23 1024 83 10000 2.24 19 17:55 11.01.2022
3710 Clouds 22 1024 81 10000 1.79 31 16:47 11.01.2022
3711 Clouds 21 1024 83 10000 1.34 12 16:28 11.01.2022
3712 Clouds 20 1023 87 10000 1.79 332 14:57 11.01.2022
3713 Clouds 19 1023 89 10000 1.79 328 14:38 11.01.2022
3714 Clouds 18 1023 91 10000 1.79 327 13:52 11.01.2022
3715 Clouds 18 1022 92 10000 1.34 331 13:28 11.01.2022
3716 Clouds 19 1022 91 10000 1.79 326 12:36 11.01.2022
3717 Clear 19 1021 91 10000 1.34 323 10:45 11.01.2022
3718 Clouds 20 1021 91 10000 0.45 356 08:27 11.01.2022
3719 Clouds 22 1022 84 10000 1.34 70 04:30 11.01.2022
3720 Clouds 22 1022 84 10000 1.79 0 04:30 11.01.2022
3721 Clouds 24 1020 81 10000 2.24 80 00:28 11.01.2022
3722 Clouds 25 1020 78 10000 1.34 60 23:40 10.01.2022
3723 Clouds 26 1019 75 10000 2.24 120 22:43 10.01.2022
3724 Clouds 26 1020 75 10000 2.24 120 22:18 10.01.2022
3725 Clouds 26 1020 74 10000 2.24 0 21:42 10.01.2022
3726 Clouds 26 1020 73 10000 1.34 106 21:18 10.01.2022
3727 Clouds 26 1020 75 10000 1.34 94 20:55 10.01.2022
3728 Clouds 26 1020 74 10000 1.34 121 20:23 10.01.2022
3729 Clouds 27 1020 72 10000 0.45 18 19:39 10.01.2022
3730 Clouds 27 1020 71 10000 1.34 129 19:19 10.01.2022
3731 Clouds 27 1021 72 10000 1.34 37 18:47 10.01.2022
3732 Clouds 25 1023 80 10000 1.34 32 16:59 10.01.2022
3733 Clouds 25 1023 82 10000 1.34 40 16:41 10.01.2022
3734 Clouds 22 1023 95 10000 0.89 360 14:58 10.01.2022
3735 Clouds 21 1022 95 10000 2.06 360 13:35 10.01.2022
3736 Clouds 22 1021 94 10000 2.06 320 11:57 10.01.2022
3737 Clouds 22 1021 94 10000 1.54 320 11:24 10.01.2022
3738 Clouds 23 1021 90 10000 0 0 09:41 10.01.2022
3739 Clouds 24 1023 85 10000 4.02 110 05:52 10.01.2022
3740 Clouds 24 1023 85 10000 4.02 110 05:23 10.01.2022
3741 Clouds 23 1024 84 10000 7.6 100 01:24 10.01.2022
3742 Clouds 24 1024 82 10000 4.47 90 00:23 10.01.2022
3743 Clouds 24 1024 79 10000 6.26 100 23:28 09.01.2022
3744 Clouds 25 1023 79 10000 7.6 100 22:21 09.01.2022
3745 Clouds 25 1024 78 10000 6.26 100 21:42 09.01.2022
3746 Clouds 25 1024 78 10000 6.26 100 21:42 09.01.2022
3747 Clouds 25 1024 79 10000 1.34 84 21:23 09.01.2022
3748 Clouds 25 1024 79 10000 1.34 84 21:23 09.01.2022
3749 Clouds 25 1024 79 10000 9.39 90 20:49 09.01.2022
3750 Clouds 25 1024 77 10000 9.39 90 20:29 09.01.2022
3751 Clouds 25 1024 78 10000 2.24 76 19:44 09.01.2022
3752 Clouds 25 1024 78 10000 1.79 83 19:22 09.01.2022
3753 Clouds 25 1025 79 10000 6.26 70 18:49 09.01.2022
3754 Clouds 25 1025 78 10000 8.94 90 18:30 09.01.2022
3755 Clouds 26 1026 75 10000 8.94 90 17:30 09.01.2022
3756 Clouds 25 1026 78 10000 8.05 90 16:51 09.01.2022
3757 Clouds 24 1027 80 10000 2.24 79 15:56 09.01.2022
3758 Clouds 24 1027 80 10000 9.39 90 15:34 09.01.2022
3759 Clouds 24 1026 81 10000 6.71 90 14:40 09.01.2022
3760 Clouds 23 1026 82 10000 5.36 80 13:50 09.01.2022
3761 Clouds 23 1025 85 10000 2.24 73 12:44 09.01.2022
3762 Clouds 22 1025 88 10000 5.81 80 11:48 09.01.2022
3763 Clouds 22 1025 90 10000 1.79 0 10:49 09.01.2022
3764 Mist 22 1025 90 8047 1.79 0 09:42 09.01.2022
3765 Rain 22 1026 92 10000 0.89 74 08:31 09.01.2022
3766 Clouds 24 1027 83 10000 1.34 54 02:48 09.01.2022
3767 Clouds 24 1026 83 10000 1.79 63 01:21 09.01.2022
3768 Clouds 24 1025 84 10000 1.79 51 23:38 08.01.2022
3769 Clouds 24 1024 85 10000 1.79 57 22:59 08.01.2022
3770 Clouds 25 1024 79 10000 2.68 92 21:33 08.01.2022
3771 Clouds 26 1024 79 10000 2.68 48 20:58 08.01.2022
3772 Clouds 26 1024 78 10000 2.68 66 20:39 08.01.2022
3773 Clouds 26 1024 79 10000 2.68 61 20:19 08.01.2022
3774 Clouds 25 1025 79 10000 1.79 57 18:21 08.01.2022
3775 Clouds 26 1026 78 10000 1.79 48 17:22 08.01.2022
3776 Clear 24 1025 81 10000 1.34 63 15:51 08.01.2022
3777 Clouds 24 1025 83 10000 1.79 50 14:43 08.01.2022
3778 Clouds 23 1024 83 10000 1.79 58 13:25 08.01.2022
3779 Clouds 22 1023 84 10000 1.34 57 11:24 08.01.2022
3780 Clouds 23 1022 82 10000 1.79 46 10:25 08.01.2022
3781 Clouds 23 1022 81 10000 1.34 56 09:47 08.01.2022
3782 Clouds 23 1022 83 10000 1.34 58 07:21 08.01.2022
3783 Clouds 23 1021 87 10000 0.89 31 02:45 08.01.2022
3784 Clouds 24 1020 84 10000 0.45 70 00:41 08.01.2022
3785 Clouds 26 1019 77 10000 0.89 146 22:47 07.01.2022
3786 Clouds 27 1018 73 10000 1.34 141 20:56 07.01.2022
3787 Clouds 28 1018 67 10000 1.79 323 20:19 07.01.2022
3788 Clouds 28 1019 69 10000 0.45 0 19:18 07.01.2022
3789 Clouds 27 1019 71 10000 0.89 269 18:44 07.01.2022
3790 Clouds 27 1020 77 10000 0.89 294 17:26 07.01.2022
3791 Clouds 25 1021 83 10000 0.89 261 16:30 07.01.2022
3792 Clouds 22 1019 95 10000 0.45 311 13:54 07.01.2022
3793 Clouds 22 1018 95 10000 1.34 155 13:22 07.01.2022
3794 Clouds 21 1017 95 10000 2.24 170 12:49 07.01.2022
3795 Clouds 21 1017 91 10000 0 0 09:37 07.01.2022
3796 Clouds 22 1018 78 10000 2.85 172 02:56 07.01.2022
3797 Clouds 21 1017 79 10000 2.65 167 01:54 07.01.2022
3798 Clouds 22 1016 77 10000 2.57 130 01:28 07.01.2022
3799 Clouds 22 1016 79 10000 2.72 157 00:58 07.01.2022
3800 Clouds 22 1016 79 10000 2.59 163 00:58 07.01.2022
3801 Clouds 24 1016 69 10000 0.89 96 22:54 06.01.2022
3802 Clouds 26 1016 61 10000 1.79 103 21:28 06.01.2022
3803 Clouds 26 1016 56 10000 0.45 294 20:22 06.01.2022
3804 Clouds 26 1016 58 10000 0.45 219 19:45 06.01.2022
3805 Clouds 25 1018 61 10000 0.89 286 18:29 06.01.2022
3806 Clouds 24 1018 62 10000 1.34 323 17:40 06.01.2022
3807 Clouds 22 1018 66 10000 0.89 334 16:44 06.01.2022
3808 Clouds 20 1018 73 10000 0 0 15:47 06.01.2022
3809 Clouds 19 1018 76 10000 0.89 26 15:26 06.01.2022
3810 Clear 18 1018 83 10000 0.89 333 14:45 06.01.2022
3811 Clear 17 1018 85 10000 0.45 40 14:18 06.01.2022
3812 Clear 17 1017 89 10000 0.45 7 12:50 06.01.2022
3813 Clear 17 1016 89 10000 0.45 313 11:43 06.01.2022
3814 Clear 17 1016 88 10000 0 0 11:22 06.01.2022
3815 Clouds 19 1015 91 10000 0.45 320 08:51 06.01.2022
3816 Clouds 23 1015 79 10000 3.09 240 01:24 06.01.2022
3817 Clouds 25 1014 80 10000 1.79 260 23:38 05.01.2022
3818 Clouds 25 1014 79 10000 1.79 268 22:57 05.01.2022
3819 Clouds 26 1014 79 10000 0.45 161 22:32 05.01.2022
3820 Clouds 26 1013 80 10000 1.34 137 21:49 05.01.2022
3821 Clouds 26 1014 80 10000 0.45 243 21:20 05.01.2022
3822 Clouds 26 1014 82 10000 1.34 184 20:18 05.01.2022
3823 Clouds 25 1015 86 10000 1.34 157 18:44 05.01.2022
3824 Clouds 24 1017 86 10000 0.45 127 17:26 05.01.2022
3825 Clouds 24 1017 89 10000 3.09 0 16:50 05.01.2022
3826 Mist 23 1017 93 10000 0.45 85 15:26 05.01.2022
3827 Clouds 21 1017 90 10000 0.45 0 13:52 05.01.2022
3828 Clouds 21 1017 90 10000 0.45 50 13:22 05.01.2022
3829 Clouds 21 1017 86 10000 1.34 360 10:34 05.01.2022
3830 Clouds 22 1017 81 10000 3.58 110 07:47 05.01.2022
3831 Clouds 22 1017 81 10000 3.58 110 07:47 05.01.2022
3832 Clouds 22 1018 78 10000 3.58 110 06:25 05.01.2022
3833 Clouds 22 1020 72 10000 0.45 33 00:59 05.01.2022
3834 Clouds 23 1019 65 10000 4.02 50 23:28 04.01.2022
3835 Clouds 24 1019 66 10000 0.45 67 22:55 04.01.2022
3836 Clouds 25 1018 62 10000 4.47 80 21:31 04.01.2022
3837 Clouds 25 1018 62 10000 4.47 80 21:31 04.01.2022
3838 Clouds 25 1019 61 10000 1.34 66 19:20 04.01.2022
3839 Clouds 25 1021 62 10000 3.58 50 17:52 04.01.2022
3840 Clouds 23 1021 67 10000 2.68 20 16:44 04.01.2022
3841 Clouds 23 1021 69 10000 0.89 34 16:24 04.01.2022
3842 Clouds 20 1021 76 10000 0.89 358 14:54 04.01.2022
3843 Clouds 19 1021 77 10000 0.89 316 14:34 04.01.2022
3844 Clouds 17 1021 78 10000 2.24 330 13:29 04.01.2022
3845 Clouds 17 1019 72 10000 3.09 0 10:41 04.01.2022
3846 Clouds 17 1020 70 10000 2.06 320 09:47 04.01.2022
3847 Clouds 17 1020 69 10000 2.57 340 08:32 04.01.2022
3848 Clouds 20 1020 63 10000 3.13 360 02:32 04.01.2022
3849 Clouds 22 1019 70 10000 2.68 330 00:41 04.01.2022
3850 Clouds 23 1018 73 10000 2.68 330 23:26 03.01.2022
3851 Clouds 23 1018 75 10000 1.79 304 21:52 03.01.2022
3852 Clouds 23 1018 75 10000 1.79 318 21:33 03.01.2022
3853 Clouds 23 1018 75 10000 3.13 313 20:26 03.01.2022
3854 Clouds 23 1018 79 10000 1.79 308 18:54 03.01.2022
3855 Clouds 23 1019 82 10000 3.13 317 18:28 03.01.2022
3856 Clear 27 1019 75 10000 2.24 0 16:59 03.01.2022
3857 Clouds 26 1019 82 10000 2.24 237 15:40 03.01.2022
3858 Clouds 23 1018 92 10000 0.89 241 14:31 03.01.2022
3859 Clouds 23 1018 92 10000 0.89 241 14:31 03.01.2022
3860 Clear 21 1017 94 10000 0.89 181 12:48 03.01.2022
3861 Clear 21 1018 93 10000 0.89 204 11:39 03.01.2022
3862 Clouds 21 1018 91 10000 2.06 170 10:37 03.01.2022
3863 Clear 21 1019 87 10000 0.45 221 08:48 03.01.2022
3864 Clear 22 1019 85 10000 1.54 210 07:36 03.01.2022
3865 Clouds 25 1018 82 10000 0.89 193 00:29 03.01.2022
3866 Clouds 26 1017 81 10000 1.79 136 23:22 02.01.2022
3867 Clouds 26 1017 80 10000 2.24 131 22:55 02.01.2022
3868 Clouds 27 1017 76 10000 2.68 143 21:46 02.01.2022
3869 Clouds 28 1017 74 10000 2.24 125 20:41 02.01.2022
3870 Clouds 28 1017 73 10000 2.24 141 20:22 02.01.2022
3871 Clouds 28 1018 73 10000 2.24 162 19:31 02.01.2022
3872 Clouds 28 1018 70 10000 4.47 150 18:47 02.01.2022
3873 Clear 28 1019 73 10000 2.68 147 17:56 02.01.2022
3874 Clouds 28 1019 71 10000 6.71 170 17:37 02.01.2022
3875 Clouds 28 1019 72 10000 6.71 170 17:18 02.01.2022
3876 Clouds 27 1019 73 10000 5.36 170 16:26 02.01.2022
3877 Clouds 24 1018 82 10000 1.34 160 14:34 02.01.2022
3878 Clear 23 1017 85 10000 1.79 139 12:54 02.01.2022
3879 Clouds 23 1017 84 10000 2.68 150 12:25 02.01.2022
3880 Clouds 23 1017 84 10000 1.34 160 11:33 02.01.2022
3881 Clouds 23 1017 84 10000 2.24 160 10:49 02.01.2022
3882 Clouds 23 1017 84 10000 2.68 150 09:45 02.01.2022
3883 Clouds 23 1018 87 10000 2.24 160 07:26 02.01.2022
3884 Clouds 24 1019 84 10000 3.13 0 02:19 02.01.2022
3885 Clouds 25 1018 79 10000 5.36 150 23:40 01.01.2022
3886 Clouds 26 1017 78 10000 1.79 143 22:58 01.01.2022
3887 Clouds 27 1017 74 10000 5.81 140 22:23 01.01.2022
3888 Clouds 27 1017 72 10000 5.81 150 21:44 01.01.2022
3889 Clouds 27 1017 73 10000 1.79 0 20:55 01.01.2022
3890 Clouds 28 1018 74 10000 2.24 144 19:58 01.01.2022
3891 Clouds 27 1018 73 10000 5.81 120 19:26 01.01.2022
3892 Clouds 28 1019 72 10000 6.26 140 18:20 01.01.2022
3893 Clouds 27 1020 73 10000 4.47 140 16:43 01.01.2022
3894 Clouds 27 1020 75 10000 4.47 140 16:20 01.01.2022
3895 Clouds 25 1020 78 10000 4.02 120 15:27 01.01.2022
3896 Clear 23 1020 83 10000 1.79 134 13:59 01.01.2022
3897 Clouds 23 1019 84 10000 2.68 130 12:50 01.01.2022
3898 Clouds 23 1019 81 10000 2.24 134 11:58 01.01.2022
3899 Mist 23 1018 85 10000 2.24 110 11:23 01.01.2022
3900 Mist 22 1018 88 10000 2.68 130 10:40 01.01.2022
3901 Mist 22 1018 87 10000 1.34 100 09:46 01.01.2022
3902 Mist 22 1019 86 10000 1.34 110 08:26 01.01.2022
3903 Mist 23 1019 83 4023 0 0 07:55 01.01.2022
3904 Haze 23 1019 85 9656 1.34 110 07:34 01.01.2022
3905 Clouds 23 1019 86 10000 2.68 110 06:41 01.01.2022
3906 Clouds 23 1020 86 10000 2.68 110 04:38 01.01.2022
3907 Clear 23 1020 84 10000 0.45 97 02:54 01.01.2022
3908 Clouds 25 1018 77 10000 4.02 140 23:44 31.12.2021
3909 Clear 27 1018 72 10000 1.79 132 21:54 31.12.2021
3910 Clouds 28 1018 68 10000 4.47 120 20:41 31.12.2021
3911 Clouds 28 1018 68 10000 4.47 110 19:31 31.12.2021
3912 Clouds 28 1018 68 10000 4.47 110 19:31 31.12.2021
3913 Clouds 27 1020 65 10000 3.6 160 18:44 31.12.2021
3914 Clouds 27 1021 75 10000 2.68 120 17:45 31.12.2021
3915 Clouds 27 1021 75 10000 2.68 120 17:19 31.12.2021
3916 Clear 27 1021 78 10000 1.34 83 16:44 31.12.2021
3917 Clear 25 1021 87 10000 0.45 115 15:58 31.12.2021
3918 Clouds 24 1020 93 10000 1.34 50 15:31 31.12.2021
3919 Clear 23 1020 97 10000 1.84 164 14:57 31.12.2021
3920 Clear 23 1020 97 10000 1.84 164 14:57 31.12.2021
3921 Clouds 22 1020 98 10000 0 0 14:31 31.12.2021
3922 Clouds 20 1019 98 10000 0 0 13:42 31.12.2021
3923 Fog 20 1018 98 10000 0 0 12:49 31.12.2021
3924 Mist 20 1018 98 10000 0 0 11:52 31.12.2021
3925 Mist 20 1018 98 10000 0 0 11:33 31.12.2021
3926 Clouds 21 1018 95 10000 0 0 10:41 31.12.2021
3927 Clouds 21 1018 95 10000 0 0 10:23 31.12.2021
3928 Clouds 21 1018 95 10000 0 0 09:33 31.12.2021
3929 Clouds 22 1019 96 10000 0 0 08:49 31.12.2021
3930 Clouds 22 1019 95 10000 0 0 07:49 31.12.2021
3931 Clouds 25 1018 85 10000 3.58 130 00:47 31.12.2021
3932 Clouds 27 1018 79 10000 1.34 107 22:54 30.12.2021
3933 Clouds 27 1017 76 10000 5.36 130 22:27 30.12.2021
3934 Clouds 28 1018 73 10000 5.36 130 21:37 30.12.2021
3935 Clouds 28 1018 72 10000 4.02 120 20:49 30.12.2021
3936 Clouds 28 1018 71 10000 4.02 120 20:28 30.12.2021
3937 Clouds 28 1018 73 10000 4.02 120 19:50 30.12.2021
3938 Clouds 28 1019 73 10000 4.02 120 19:24 30.12.2021
3939 Clouds 28 1019 74 10000 4.02 140 18:21 30.12.2021
3940 Clouds 27 1020 78 10000 4.47 140 16:39 30.12.2021
3941 Clear 26 1021 84 10000 0.89 212 15:53 30.12.2021
3942 Mist 23 1020 95 10000 2.68 160 14:51 30.12.2021
3943 Mist 23 1020 95 10000 2.68 160 14:31 30.12.2021
3944 Clouds 22 1019 94 10000 2.24 0 13:24 30.12.2021
3945 Fog 21 1018 95 10000 0 0 11:45 30.12.2021
3946 Clouds 21 1018 93 10000 1.34 0 10:27 30.12.2021
3947 Clouds 22 1018 93 10000 0.45 130 09:27 30.12.2021
3948 Clear 23 1018 90 10000 0.45 138 06:56 30.12.2021
3949 Clear 23 1019 89 10000 3.26 153 04:56 30.12.2021
3950 Clear 23 1019 88 10000 2.24 140 03:40 30.12.2021
3951 Clear 23 1019 87 10000 1.34 140 02:19 30.12.2021
3952 Clouds 25 1018 77 10000 4.02 150 23:37 29.12.2021
3953 Clouds 26 1017 74 10000 5.36 120 22:33 29.12.2021
3954 Clouds 27 1017 70 10000 4.02 120 21:55 29.12.2021
3955 Clouds 28 1017 70 10000 2.24 139 20:56 29.12.2021
3956 Clouds 28 1017 68 10000 3.58 130 20:26 29.12.2021
3957 Clouds 28 1018 67 10000 5.36 120 19:31 29.12.2021
3958 Clouds 28 1019 67 10000 5.36 130 18:36 29.12.2021
3959 Clouds 27 1019 67 10000 5.81 130 17:42 29.12.2021
3960 Clouds 27 1020 68 10000 5.81 130 17:23 29.12.2021
3961 Clouds 27 1020 71 10000 5.36 130 16:21 29.12.2021
3962 Clouds 25 1019 79 10000 2.68 150 15:21 29.12.2021
3963 Clouds 22 1019 85 10000 4.22 164 12:57 29.12.2021
3964 Clouds 21 1018 87 10000 2.68 130 12:33 29.12.2021
3965 Clouds 22 1018 86 10000 2.24 130 11:23 29.12.2021
3966 Clouds 22 1017 85 10000 2.24 148 09:30 29.12.2021
3967 Clouds 22 1018 84 10000 1.34 0 07:45 29.12.2021
3968 Clouds 22 1018 84 10000 2.68 120 06:33 29.12.2021
3969 Clear 22 1018 84 10000 1.79 130 05:56 29.12.2021
3970 Clouds 22 1019 83 10000 1.34 134 04:58 29.12.2021
3971 Clouds 23 1018 77 10000 3.13 120 00:45 29.12.2021
3972 Clear 23 1017 76 10000 0.89 140 23:58 28.12.2021
3973 Clear 25 1017 70 10000 1.79 139 22:57 28.12.2021
3974 Clouds 25 1017 66 10000 3.58 140 22:25 28.12.2021
3975 Clear 26 1017 68 10000 1.79 140 21:54 28.12.2021
3976 Clouds 26 1017 67 10000 4.02 130 21:35 28.12.2021
3977 Clouds 26 1017 65 10000 5.36 120 20:32 28.12.2021
3978 Clouds 26 1017 67 10000 2.68 146 18:54 28.12.2021
3979 Clouds 26 1018 65 10000 6.26 140 18:28 28.12.2021
3980 Clouds 26 1019 66 10000 5.36 110 17:39 28.12.2021
3981 Clouds 25 1019 69 10000 6.26 120 16:21 28.12.2021
3982 Clouds 25 1019 73 10000 3.13 130 15:41 28.12.2021
3983 Clouds 23 1018 84 10000 3.64 127 14:57 28.12.2021
3984 Clouds 22 1018 83 10000 0 0 14:38 28.12.2021
3985 Clouds 22 1018 84 10000 0 0 14:20 28.12.2021
3986 Clouds 21 1018 82 10000 0 0 13:38 28.12.2021
3987 Clouds 21 1018 78 10000 2.97 142 12:56 28.12.2021
3988 Clouds 20 1018 88 10000 0 0 12:29 28.12.2021
3989 Clouds 20 1017 91 10000 0 0 10:51 28.12.2021
3990 Clouds 21 1018 89 10000 0 0 07:39 28.12.2021
3991 Clouds 22 1018 84 10000 2.68 130 03:37 28.12.2021
3992 Clouds 24 1017 71 10000 4.02 120 23:41 27.12.2021
3993 Clouds 26 1017 64 10000 3.58 110 22:31 27.12.2021
3994 Clouds 27 1017 61 10000 3.13 140 21:32 27.12.2021
3995 Clouds 27 1017 59 10000 1.79 106 20:40 27.12.2021
3996 Clear 27 1017 65 10000 1.34 147 19:56 27.12.2021
3997 Clouds 27 1018 60 10000 1.34 0 19:38 27.12.2021
3998 Clear 27 1019 59 10000 0.45 337 17:55 27.12.2021
3999 Clouds 26 1020 63 10000 2.68 290 17:29 27.12.2021
4000 Clear 25 1020 71 10000 1.34 310 16:32 27.12.2021
4001 Clouds 23 1020 80 10000 0.45 324 15:50 27.12.2021
4002 Clouds 19 1020 92 10000 0.45 315 14:29 27.12.2021
4003 Clear 19 1020 88 10000 0 0 13:32 27.12.2021
4004 Clear 19 1019 88 10000 2.24 340 11:34 27.12.2021
4005 Clear 20 1019 93 10000 0 0 10:27 27.12.2021
4006 Clear 19 1019 95 10000 2.24 300 09:38 27.12.2021
4007 Clouds 20 1019 88 10000 1.54 220 07:35 27.12.2021
4008 Clear 20 1020 86 10000 0 0 06:30 27.12.2021
4009 Clear 20 1020 86 10000 0 0 06:30 27.12.2021
4010 Clouds 22 1021 86 10000 3.02 66 01:59 27.12.2021
4011 Clouds 24 1018 77 10000 3.13 140 23:52 26.12.2021
4012 Clouds 24 1018 75 10000 3.13 140 23:34 26.12.2021
4013 Clouds 26 1018 68 10000 2.68 290 21:48 26.12.2021
4014 Clouds 27 1018 66 10000 2.68 0 20:31 26.12.2021
4015 Clouds 27 1018 65 10000 1.34 120 19:31 26.12.2021
4016 Clouds 27 1019 66 10000 1.79 129 18:23 26.12.2021
4017 Clear 24 1021 78 10000 0.89 324 15:56 26.12.2021
4018 Clouds 18 1020 94 10000 0 0 13:52 26.12.2021
4019 Clouds 18 1020 94 10000 0 0 13:32 26.12.2021
4020 Clear 18 1020 93 10000 1.34 350 12:39 26.12.2021
4021 Clear 18 1019 77 10000 1.28 166 11:58 26.12.2021
4022 Clear 19 1019 91 10000 0 0 10:22 26.12.2021
4023 Clear 18 1019 91 10000 0 0 09:18 26.12.2021
4024 Clear 18 1019 91 10000 0 0 08:40 26.12.2021
4025 Clear 20 1020 88 10000 0 0 07:25 26.12.2021
4026 Clear 22 1019 82 10000 3.66 126 00:59 26.12.2021
4027 Clear 23 1018 77 10000 3.02 116 23:53 25.12.2021
4028 Clouds 24 1018 72 10000 4.02 120 23:27 25.12.2021
4029 Clouds 25 1018 68 10000 4.02 150 22:23 25.12.2021
4030 Clouds 26 1018 67 10000 4.47 120 20:48 25.12.2021
4031 Clouds 26 1019 67 10000 4.47 140 19:23 25.12.2021
4032 Clear 26 1019 68 10000 1.79 90 18:55 25.12.2021
4033 Clouds 26 1020 67 10000 5.36 100 17:32 25.12.2021
4034 Clouds 25 1021 69 10000 4.02 100 16:36 25.12.2021
4035 Rain 21 1020 81 10000 0 0 14:46 25.12.2021
4036 Clouds 18 1020 81 10000 2.68 360 13:30 25.12.2021
4037 Clouds 18 1020 81 10000 2.68 360 13:30 25.12.2021
4038 Clouds 18 1020 84 10000 0 0 11:46 25.12.2021
4039 Clear 21 1019 72 10000 3.16 103 09:54 25.12.2021
4040 Clouds 19 1019 77 10000 0 0 09:34 25.12.2021
4041 Clouds 20 1021 70 10000 0 0 04:34 25.12.2021
4042 Clouds 21 1021 65 10000 2.24 50 01:23 25.12.2021
4043 Clouds 23 1020 64 10000 0.45 62 23:40 24.12.2021
4044 Clouds 26 1020 49 10000 4.47 30 19:46 24.12.2021
4045 Clouds 26 1020 47 10000 4.47 30 19:23 24.12.2021
4046 Clear 24 1022 67 10000 1.34 26 16:57 24.12.2021
4047 Clouds 22 1023 72 10000 2.24 310 16:22 24.12.2021
4048 Clouds 20 1022 79 10000 0.45 332 15:48 24.12.2021
4049 Clouds 19 1022 84 10000 0.45 309 15:18 24.12.2021
4050 Clouds 16 1021 90 10000 0 0 14:31 24.12.2021
4051 Clouds 15 1021 90 10000 0 0 13:42 24.12.2021
4052 Clouds 15 1021 88 10000 2.24 330 12:49 24.12.2021
4053 Clouds 15 1021 88 10000 2.24 330 12:21 24.12.2021
4054 Clouds 15 1020 88 10000 0 0 11:30 24.12.2021
4055 Clear 15 1020 60 10000 2.6 358 10:59 24.12.2021
4056 Clouds 15 1020 85 10000 2.06 340 10:31 24.12.2021
4057 Clouds 16 1020 81 10000 1.34 350 08:28 24.12.2021
4058 Clear 16 1020 87 10000 2.74 14 07:57 24.12.2021
4059 Clear 17 1020 74 10000 0 0 06:18 24.12.2021
4060 Clouds 20 1020 54 10000 2.24 340 00:20 24.12.2021
4061 Clouds 21 1019 52 10000 2.24 320 23:33 23.12.2021
4062 Clouds 23 1019 45 10000 3.13 340 22:44 23.12.2021
4063 Clouds 23 1019 44 10000 3.13 340 22:22 23.12.2021
4064 Clouds 23 1018 38 10000 0.89 70 21:39 23.12.2021
4065 Clouds 23 1019 38 10000 3.13 290 20:22 23.12.2021
4066 Clouds 23 1019 43 10000 2.24 0 19:27 23.12.2021
4067 Clear 22 1021 62 10000 0.89 358 17:58 23.12.2021
4068 Clear 21 1020 65 10000 3.13 340 17:18 23.12.2021
4069 Clear 19 1021 71 10000 3.13 310 16:26 23.12.2021
4070 Clear 17 1021 74 10000 3.13 340 15:32 23.12.2021
4071 Clear 15 1021 79 10000 0.89 323 14:58 23.12.2021
4072 Clear 14 1020 76 10000 1.34 340 14:38 23.12.2021
4073 Clear 12 1019 77 10000 2.24 340 13:25 23.12.2021
4074 Clear 13 1019 84 10000 2.24 340 11:27 23.12.2021
4075 Clear 14 1019 88 10000 0.89 331 09:53 23.12.2021
4076 Clear 14 1018 87 10000 2.24 340 09:33 23.12.2021
4077 Clear 15 1018 85 10000 1.34 0 08:28 23.12.2021
4078 Clear 16 1017 77 10000 0 0 05:30 23.12.2021
4079 Clouds 18 1015 69 10000 3.13 330 00:40 23.12.2021
4080 Rain 20 1014 65 10000 4.02 300 22:51 22.12.2021
4081 Clouds 21 1014 66 10000 1.34 308 21:59 22.12.2021
4082 Clouds 22 1013 62 10000 3.58 310 21:30 22.12.2021
4083 Clouds 22 1013 65 10000 1.79 307 20:59 22.12.2021
4084 Clouds 22 1013 63 10000 4.02 290 20:40 22.12.2021
4085 Clouds 21 1013 65 10000 4.02 290 19:50 22.12.2021
4086 Clouds 21 1014 66 10000 3.58 330 18:55 22.12.2021
4087 Clouds 20 1014 70 10000 3.58 350 17:38 22.12.2021
4088 Clouds 18 1015 77 10000 2.68 320 15:56 22.12.2021
4089 Clouds 17 1014 86 10000 4.02 330 14:23 22.12.2021
4090 Clouds 16 1012 91 10000 0.89 310 12:53 22.12.2021
4091 Clouds 17 1012 89 10000 3.58 310 11:42 22.12.2021
4092 Clouds 18 1011 90 10000 4.02 300 09:52 22.12.2021
4093 Clouds 20 1010 89 10000 5.36 310 07:57 22.12.2021
4094 Clouds 21 1010 94 10000 1.34 0 05:54 22.12.2021
4095 Clouds 21 1010 94 10000 3.58 230 05:34 22.12.2021
4096 Clouds 21 1010 94 10000 0.89 251 04:57 22.12.2021
4097 Clouds 21 1010 93 10000 3.13 250 04:37 22.12.2021
4098 Clouds 22 1010 91 10000 4.02 240 03:49 22.12.2021
4099 Clouds 22 1009 91 10000 4.02 240 03:31 22.12.2021
4100 Clouds 23 1008 88 10000 5.36 220 23:48 21.12.2021
4101 Clouds 23 1008 87 10000 5.81 230 22:41 21.12.2021
4102 Clouds 23 1008 87 10000 2.68 245 21:56 21.12.2021
4103 Clouds 23 1008 87 10000 6.71 210 21:32 21.12.2021
4104 Clouds 23 1008 88 10000 6.71 220 20:24 21.12.2021
4105 Clouds 23 1008 89 10000 1.34 234 19:55 21.12.2021
4106 Clouds 23 1008 88 10000 6.26 220 19:33 21.12.2021
4107 Clouds 23 1010 91 10000 4.02 210 18:23 21.12.2021
4108 Rain 23 1011 92 8047 5.14 200 17:53 21.12.2021
4109 Clouds 24 1011 86 8047 8.05 240 17:29 21.12.2021
4110 Clouds 26 1011 86 10000 5.36 200 15:34 21.12.2021
4111 Clouds 24 1011 88 10000 1.79 202 14:20 21.12.2021
4112 Clouds 24 1011 91 10000 2.24 183 13:41 21.12.2021
4113 Clouds 23 1011 93 10000 1.34 225 12:26 21.12.2021
4114 Clouds 22 1010 95 10000 2.57 160 10:38 21.12.2021
4115 Clouds 22 1011 95 10000 0.89 199 09:50 21.12.2021
4116 Clouds 22 1011 95 10000 0.45 228 08:55 21.12.2021
4117 Clouds 22 1012 94 10000 1.34 0 07:43 21.12.2021
4118 Clouds 22 1012 94 10000 1.34 0 07:20 21.12.2021
4119 Clouds 24 1014 89 10000 2.24 140 03:24 21.12.2021
4120 Clouds 24 1014 88 10000 3.13 120 01:20 21.12.2021
4121 Clouds 25 1014 86 10000 0.89 60 23:54 20.12.2021
4122 Clouds 26 1013 78 10000 3.58 90 22:35 20.12.2021
4123 Clouds 27 1013 74 10000 3.58 90 21:52 20.12.2021
4124 Clouds 27 1013 75 10000 3.58 90 21:24 20.12.2021
4125 Clouds 27 1014 76 10000 1.34 53 20:54 20.12.2021
4126 Clouds 27 1014 74 10000 3.13 0 20:19 20.12.2021
4127 Clouds 28 1014 73 10000 2.24 50 19:36 20.12.2021
4128 Clouds 27 1014 73 10000 2.24 50 19:18 20.12.2021
4129 Clouds 27 1015 74 10000 2.24 0 18:30 20.12.2021
4130 Clouds 26 1016 78 10000 3.13 40 17:49 20.12.2021
4131 Clouds 26 1016 78 10000 3.13 40 17:49 20.12.2021
4132 Clouds 25 1017 81 10000 1.34 0 16:46 20.12.2021
4133 Clouds 24 1017 87 10000 2.24 0 15:57 20.12.2021
4134 Clouds 24 1017 89 10000 2.24 0 15:31 20.12.2021
4135 Clouds 22 1016 96 10000 0 0 13:32 20.12.2021
4136 Clouds 22 1016 97 10000 2.24 340 12:30 20.12.2021
4137 Clouds 22 1015 96 10000 2.24 300 10:36 20.12.2021
4138 Mist 22 1015 97 9656 2.24 290 09:39 20.12.2021
4139 Mist 22 1015 97 8047 1.34 260 08:49 20.12.2021
4140 Mist 22 1015 97 8047 1.34 260 08:31 20.12.2021
4141 Clouds 22 1015 97 10000 0 0 07:32 20.12.2021
4142 Clouds 22 1016 96 10000 1.54 280 06:32 20.12.2021
4143 Clouds 25 1015 87 10000 2.68 170 00:20 20.12.2021
4144 Clouds 26 1015 86 10000 1.79 0 22:56 19.12.2021
4145 Clouds 27 1015 82 10000 3.58 100 22:24 19.12.2021
4146 Clouds 28 1015 78 10000 4.47 210 21:32 19.12.2021
4147 Clouds 28 1015 76 10000 3.13 200 20:36 19.12.2021
4148 Clouds 28 1015 79 10000 1.79 157 19:53 19.12.2021
4149 Clouds 28 1016 77 10000 4.02 210 19:34 19.12.2021
4150 Clouds 28 1016 74 10000 4.47 210 18:35 19.12.2021
4151 Clouds 28 1017 77 10000 2.24 139 17:53 19.12.2021
4152 Clouds 28 1018 79 10000 3.58 180 17:28 19.12.2021
4153 Clouds 26 1018 83 10000 2.68 190 16:27 19.12.2021
4154 Clouds 25 1018 87 10000 3.13 0 15:51 19.12.2021
4155 Clouds 24 1018 91 10000 3.13 0 15:23 19.12.2021
4156 Clouds 25 1018 88 10000 7.15 200 14:45 19.12.2021
4157 Clouds 24 1017 89 10000 3.13 150 13:26 19.12.2021
4158 Clouds 24 1017 89 10000 3.13 150 12:52 19.12.2021
4159 Clouds 24 1017 89 10000 3.13 150 12:28 19.12.2021
4160 Clouds 24 1016 91 10000 3.13 150 11:33 19.12.2021
4161 Clouds 24 1016 92 10000 3.58 150 10:47 19.12.2021
4162 Clouds 24 1016 92 10000 3.58 150 10:21 19.12.2021
4163 Clouds 24 1016 92 10000 2.68 130 08:46 19.12.2021
4164 Clouds 24 1018 91 10000 3.58 110 05:37 19.12.2021
4165 Clouds 25 1018 88 10000 3.58 120 01:39 19.12.2021
4166 Clouds 25 1017 89 10000 0.89 0 00:53 19.12.2021
4167 Clouds 26 1017 84 10000 5.36 120 22:51 18.12.2021
4168 Clouds 26 1017 85 10000 5.36 120 22:24 18.12.2021
4169 Thunderstorm 26 1018 86 10000 5.36 130 21:41 18.12.2021
4170 Thunderstorm 26 1017 86 10000 5.36 130 21:22 18.12.2021
4171 Rain 27 1018 78 10000 5.81 110 20:25 18.12.2021
4172 Clouds 28 1018 78 10000 6.26 120 19:27 18.12.2021
4173 Clouds 28 1019 76 10000 7.6 110 18:23 18.12.2021
4174 Clouds 28 1020 78 10000 8.94 100 17:49 18.12.2021
4175 Rain 27 1021 81 10000 6.71 90 16:27 18.12.2021
4176 Clouds 27 1021 83 10000 5.36 110 15:48 18.12.2021
4177 Clouds 25 1021 86 10000 1.34 78 14:53 18.12.2021
4178 Clouds 24 1020 88 10000 3.58 100 13:42 18.12.2021
4179 Clouds 24 1020 87 10000 2.24 100 11:48 18.12.2021
4180 Clouds 24 1020 84 10000 0.89 132 09:53 18.12.2021
4181 Clouds 24 1020 83 10000 3.58 100 09:30 18.12.2021
4182 Clouds 24 1020 83 10000 5.36 110 08:35 18.12.2021
4183 Clouds 25 1021 86 10000 4.02 100 06:27 18.12.2021
4184 Clear 25 1020 82 10000 4.47 100 00:42 18.12.2021
4185 Clouds 25 1020 79 10000 5.36 100 23:46 17.12.2021
4186 Clouds 26 1020 76 10000 6.71 80 22:18 17.12.2021
4187 Clouds 27 1020 74 10000 6.26 80 21:23 17.12.2021
4188 Clouds 27 1020 74 10000 6.71 80 20:42 17.12.2021
4189 Clouds 27 1020 74 10000 6.71 100 19:50 17.12.2021
4190 Clouds 27 1022 74 10000 6.71 110 18:39 17.12.2021
4191 Clouds 27 1022 74 10000 7.6 110 17:46 17.12.2021
4192 Clouds 27 1023 75 10000 7.6 90 16:50 17.12.2021
4193 Clouds 27 1023 75 10000 7.6 90 16:26 17.12.2021
4194 Clouds 26 1023 78 10000 6.71 100 15:25 17.12.2021
4195 Clouds 25 1022 83 10000 3.58 90 14:41 17.12.2021
4196 Clouds 23 1021 85 10000 3.13 90 13:30 17.12.2021
4197 Clouds 23 1021 83 10000 3.13 80 12:21 17.12.2021
4198 Clouds 23 1020 81 10000 3.58 90 10:39 17.12.2021
4199 Clouds 23 1020 82 10000 4.02 100 09:44 17.12.2021
4200 Clouds 23 1020 83 10000 3.13 90 08:31 17.12.2021
4201 Clouds 23 1021 81 10000 1.34 70 07:20 17.12.2021
4202 Clouds 24 1022 79 10000 4.02 80 04:40 17.12.2021
4203 Clouds 25 1021 76 10000 0.89 79 23:58 16.12.2021
4204 Clouds 26 1020 72 10000 6.26 110 22:24 16.12.2021
4205 Clouds 26 1020 72 10000 6.26 110 22:24 16.12.2021
4206 Clouds 26 1020 72 10000 6.26 110 22:23 16.12.2021
4207 Clouds 26 1020 72 10000 6.26 110 22:23 16.12.2021
4208 Clouds 27 1020 70 10000 8.05 90 21:45 16.12.2021
4209 Clouds 27 1020 72 10000 1.79 0 20:57 16.12.2021
4210 Clouds 27 1020 69 10000 6.71 110 20:27 16.12.2021
4211 Clouds 28 1021 69 10000 7.15 90 19:35 16.12.2021
4212 Clouds 28 1021 70 10000 6.71 110 18:37 16.12.2021
4213 Clouds 27 1022 71 10000 3.13 91 17:49 16.12.2021
4214 Clouds 27 1022 72 10000 1.79 51 17:19 16.12.2021
4215 Clouds 27 1022 74 10000 2.24 77 16:20 16.12.2021
4216 Clouds 25 1022 78 10000 7.6 90 14:50 16.12.2021
4217 Clouds 24 1021 82 10000 4.47 90 12:48 16.12.2021
4218 Clouds 24 1020 84 10000 3.13 80 11:19 16.12.2021
4219 Clouds 24 1020 84 10000 4.47 100 10:48 16.12.2021
4220 Clear 24 1020 84 10000 1.79 87 09:59 16.12.2021
4221 Clouds 24 1021 83 10000 4.47 90 07:21 16.12.2021
4222 Clouds 24 1021 83 10000 4.47 90 06:19 16.12.2021
4223 Clouds 24 1021 84 10000 2.24 0 00:53 16.12.2021
4224 Clouds 25 1020 82 10000 5.81 110 23:22 15.12.2021
4225 Clouds 25 1020 80 10000 7.6 80 22:29 15.12.2021
4226 Rain 26 1020 76 10000 6.26 90 21:52 15.12.2021
4227 Clouds 26 1020 76 10000 5.81 70 21:26 15.12.2021
4228 Clouds 27 1021 75 10000 2.24 101 19:55 15.12.2021
4229 Clouds 27 1021 73 10000 5.36 70 19:36 15.12.2021
4230 Clouds 27 1022 72 10000 7.15 90 18:36 15.12.2021
4231 Clear 27 1023 73 10000 2.24 70 17:49 15.12.2021
4232 Clear 27 1023 73 10000 2.24 93 17:28 15.12.2021
4233 Clouds 27 1023 77 10000 2.24 76 16:27 15.12.2021
4234 Clear 26 1023 80 10000 1.79 58 15:46 15.12.2021
4235 Clouds 25 1023 82 10000 1.79 76 15:27 15.12.2021
4236 Mist 23 1023 88 8047 3.58 80 14:18 15.12.2021
4237 Mist 22 1022 88 10000 0 0 12:32 15.12.2021
4238 Clouds 22 1022 87 10000 1.34 63 10:25 15.12.2021
4239 Clouds 23 1022 85 10000 0.89 42 08:54 15.12.2021
4240 Clouds 24 1023 83 10000 0.45 83 06:45 15.12.2021
4241 Clouds 25 1023 78 10000 3.58 50 01:20 15.12.2021
4242 Clouds 25 1022 75 10000 1.34 60 23:42 14.12.2021
4243 Clouds 26 1022 74 10000 1.34 57 22:48 14.12.2021
4244 Clouds 26 1022 73 10000 1.79 52 22:18 14.12.2021
4245 Clouds 27 1023 73 10000 1.34 101 20:27 14.12.2021
4246 Clouds 27 1023 69 10000 1.79 0 19:40 14.12.2021
4247 Clouds 28 1024 69 10000 2.68 57 18:44 14.12.2021
4248 Clear 27 1024 72 10000 2.24 63 17:58 14.12.2021
4249 Clouds 27 1025 70 10000 1.79 42 17:28 14.12.2021
4250 Clouds 27 1025 70 10000 1.79 60 16:38 14.12.2021
4251 Clouds 26 1025 75 10000 1.34 47 15:26 14.12.2021
4252 Clouds 22 1024 82 10000 2.24 360 13:31 14.12.2021
4253 Clouds 22 1024 82 10000 2.24 360 13:31 14.12.2021
4254 Clear 24 1023 79 10000 5.23 64 11:58 14.12.2021
4255 Clouds 23 1023 83 10000 2.24 10 11:23 14.12.2021
4256 Clear 23 1023 81 10000 0.45 72 09:57 14.12.2021
4257 Clouds 23 1023 82 10000 1.34 360 09:35 14.12.2021
4258 Clouds 23 1023 82 10000 0.89 50 08:25 14.12.2021
4259 Clouds 24 1023 81 10000 0.45 81 07:43 14.12.2021
4260 Clouds 24 1024 81 10000 0.89 67 02:27 14.12.2021
4261 Clear 26 1023 74 10000 1.79 0 22:55 13.12.2021
4262 Clouds 27 1023 70 10000 1.79 0 21:52 13.12.2021
4263 Clouds 27 1023 69 10000 2.24 20 21:18 13.12.2021
4264 Clouds 28 1023 69 10000 1.79 61 20:38 13.12.2021
4265 Clouds 28 1023 68 10000 2.24 10 19:52 13.12.2021
4266 Clear 28 1024 69 10000 1.79 62 17:56 13.12.2021
4267 Clouds 28 1024 68 10000 1.79 78 17:26 13.12.2021
4268 Clouds 27 1025 72 10000 5.81 70 15:51 13.12.2021
4269 Clouds 26 1024 74 10000 5.81 70 15:20 13.12.2021
4270 Clouds 23 1024 83 10000 2.24 40 13:39 13.12.2021
4271 Clouds 23 1023 83 10000 2.68 60 12:46 13.12.2021
4272 Clouds 23 1023 83 10000 2.68 60 12:46 13.12.2021
4273 Clouds 23 1024 83 10000 0.45 0 11:56 13.12.2021
4274 Clouds 23 1022 83 10000 2.24 50 11:35 13.12.2021
4275 Clouds 23 1022 81 10000 2.24 40 10:44 13.12.2021
4276 Clouds 24 1022 81 10000 2.68 50 09:29 13.12.2021
4277 Clouds 24 1022 81 10000 2.24 50 07:48 13.12.2021
4278 Clouds 24 1022 81 10000 1.34 40 05:35 13.12.2021
4279 Clouds 24 1022 79 10000 3.58 60 03:26 13.12.2021
4280 Clouds 27 1020 71 10000 3.58 60 22:23 12.12.2021
4281 Clouds 28 1020 70 10000 5.81 90 21:38 12.12.2021
4282 Clear 28 1020 70 10000 1.79 99 19:57 12.12.2021
4283 Clouds 28 1021 70 10000 1.79 73 18:36 12.12.2021
4284 Clouds 28 1021 70 10000 1.79 73 18:36 12.12.2021
4285 Clouds 28 1022 72 10000 1.79 83 17:31 12.12.2021
4286 Clouds 27 1022 76 10000 3.13 110 16:27 12.12.2021
4287 Clouds 26 1022 82 10000 0.45 0 15:45 12.12.2021
4288 Clouds 25 1022 87 10000 0.45 36 15:25 12.12.2021
4289 Clouds 23 1022 95 10000 0 0 14:34 12.12.2021
4290 Clear 22 1021 93 10000 0 0 13:26 12.12.2021
4291 Clouds 22 1020 93 10000 0 0 12:30 12.12.2021
4292 Rain 22 1020 90 10000 0 0 11:44 12.12.2021
4293 Clouds 22 1020 90 10000 0 0 11:20 12.12.2021
4294 Clouds 23 1019 89 10000 0 0 10:22 12.12.2021
4295 Clouds 23 1019 90 10000 2.68 110 09:38 12.12.2021
4296 Clouds 24 1019 89 10000 0.45 71 07:57 12.12.2021
4297 Clear 24 1020 88 10000 3.47 106 05:57 12.12.2021
4298 Clouds 24 1020 86 10000 0.45 68 04:56 12.12.2021
4299 Clouds 24 1020 85 10000 4.02 90 03:31 12.12.2021
4300 Clouds 25 1018 80 10000 3.13 130 23:44 11.12.2021
4301 Clouds 27 1018 75 10000 3.58 140 22:22 11.12.2021
4302 Clouds 28 1018 73 10000 4.02 130 21:51 11.12.2021
4303 Clouds 28 1018 72 10000 4.47 110 20:51 11.12.2021
4304 Clouds 28 1018 72 10000 5.36 140 19:27 11.12.2021
4305 Clouds 28 1018 73 10000 6.71 120 18:52 11.12.2021
4306 Clouds 28 1018 72 10000 6.71 120 18:21 11.12.2021
4307 Clouds 28 1020 72 10000 4.47 120 17:21 11.12.2021
4308 Clear 27 1020 77 10000 0.89 113 15:53 11.12.2021
4309 Clouds 26 1020 77 10000 3.58 100 15:28 11.12.2021
4310 Clear 23 1020 83 10000 4.23 103 12:57 11.12.2021
4311 Clouds 23 1019 86 10000 0 0 11:25 11.12.2021
4312 Clouds 24 1018 84 10000 0.45 0 09:46 11.12.2021
4313 Clouds 23 1019 87 10000 0.45 99 08:23 11.12.2021
4314 Clouds 24 1020 83 10000 0.45 82 02:29 11.12.2021
4315 Clouds 25 1019 82 10000 0.45 53 00:36 11.12.2021
4316 Clouds 26 1019 78 10000 0.89 75 23:21 10.12.2021
4317 Clear 27 1019 75 10000 1.34 91 21:57 10.12.2021
4318 Clouds 28 1019 72 10000 1.34 94 21:31 10.12.2021
4319 Clouds 28 1019 71 10000 5.81 110 19:22 10.12.2021
4320 Clouds 28 1020 72 10000 4.02 110 18:21 10.12.2021
4321 Clouds 28 1021 74 10000 1.34 104 16:56 10.12.2021
4322 Clouds 27 1021 75 10000 4.47 100 16:29 10.12.2021
4323 Clouds 26 1021 81 10000 1.34 50 15:41 10.12.2021
4324 Clouds 26 1021 85 10000 1.34 50 15:21 10.12.2021
4325 Clouds 22 1021 93 10000 1.34 360 13:52 10.12.2021
4326 Clouds 22 1020 93 10000 1.34 360 13:26 10.12.2021
4327 Clouds 21 1020 97 10000 0 0 12:45 10.12.2021
4328 Clouds 22 1019 98 10000 0 0 11:29 10.12.2021
4329 Clouds 22 1019 95 10000 0 0 10:38 10.12.2021
4330 Clear 22 1019 95 10000 1.29 78 08:58 10.12.2021
4331 Clouds 22 1020 92 10000 1.48 125 06:56 10.12.2021
4332 Clouds 24 1020 85 10000 2.24 110 02:48 10.12.2021
4333 Clouds 25 1020 87 10000 2.92 131 00:55 10.12.2021
4334 Clouds 26 1019 76 10000 2.68 130 23:23 09.12.2021
4335 Clouds 27 1019 72 10000 3.58 150 22:28 09.12.2021
4336 Clouds 27 1019 74 10000 0.89 101 21:59 09.12.2021
4337 Clouds 28 1018 69 10000 3.58 120 21:19 09.12.2021
4338 Clouds 28 1019 69 10000 2.24 120 20:28 09.12.2021
4339 Clouds 28 1019 69 10000 3.13 130 19:22 09.12.2021
4340 Clouds 28 1019 68 10000 2.24 0 18:49 09.12.2021
4341 Clear 28 1020 71 10000 1.34 0 17:57 09.12.2021
4342 Clouds 28 1020 71 10000 1.34 180 17:27 09.12.2021
4343 Rain 28 1020 75 10000 0.89 120 16:56 09.12.2021
4344 Clear 26 1020 82 10000 0.89 299 15:59 09.12.2021
4345 Mist 23 1020 97 8047 0.45 284 14:51 09.12.2021
4346 Mist 21 1019 99 9656 0 0 13:39 09.12.2021
4347 Mist 21 1018 98 10000 0 0 12:47 09.12.2021
4348 Mist 21 1018 95 10000 0 0 11:25 09.12.2021
4349 Clear 21 1018 95 10000 0 0 09:45 09.12.2021
4350 Clear 22 1019 91 10000 0 0 06:51 09.12.2021
4351 Clear 23 1018 87 10000 3.13 250 03:46 09.12.2021
4352 Clouds 26 1016 81 10000 3.13 0 23:50 08.12.2021
4353 Rain 26 1016 80 10000 3.13 0 23:31 08.12.2021
4354 Clear 27 1016 78 10000 0.89 187 22:53 08.12.2021
4355 Clouds 28 1016 72 10000 4.47 140 21:49 08.12.2021
4356 Clouds 28 1016 71 10000 4.47 140 21:30 08.12.2021
4357 Clouds 28 1017 69 10000 3.13 140 20:19 08.12.2021
4358 Clouds 28 1017 68 10000 1.34 0 19:39 08.12.2021
4359 Clouds 28 1018 70 10000 1.34 0 18:54 08.12.2021
4360 Clouds 28 1018 69 10000 3.13 0 18:21 08.12.2021
4361 Clouds 27 1019 72 10000 2.68 140 16:44 08.12.2021
4362 Clouds 26 1019 75 10000 0.89 130 15:40 08.12.2021
4363 Clouds 24 1019 82 10000 0.45 122 15:21 08.12.2021
4364 Clear 19 1018 88 10000 0 0 13:21 08.12.2021
4365 Clear 20 1017 85 10000 0 0 10:42 08.12.2021
4366 Clear 20 1018 88 10000 0 0 09:32 08.12.2021
4367 Clear 21 1018 88 10000 1.34 350 07:37 08.12.2021
4368 Clouds 22 1019 81 10000 2.65 71 04:58 08.12.2021
4369 Clouds 24 1018 78 10000 3.13 60 00:21 08.12.2021
4370 Clouds 26 1018 70 10000 0.45 78 22:48 07.12.2021
4371 Clouds 28 1017 65 10000 1.34 91 21:24 07.12.2021
4372 Clouds 28 1018 63 10000 2.68 10 20:25 07.12.2021
4373 Clouds 28 1019 64 10000 1.34 108 18:57 07.12.2021
4374 Clouds 28 1019 61 10000 1.34 101 18:19 07.12.2021
4375 Clouds 27 1019 65 10000 1.34 0 17:20 07.12.2021
4376 Clouds 25 1020 70 10000 2.68 70 16:37 07.12.2021
4377 Clouds 24 1020 77 10000 0.45 62 15:37 07.12.2021
4378 Clouds 22 1019 84 10000 0 0 14:37 07.12.2021
4379 Clouds 19 1019 89 10000 2.68 0 13:29 07.12.2021
4380 Clear 20 1018 88 10000 1.34 350 12:21 07.12.2021
4381 Clear 20 1018 95 10000 1.34 320 10:45 07.12.2021
4382 Clouds 21 1018 97 10000 0 0 09:19 07.12.2021
4383 Fog 22 1019 97 10000 1.34 260 06:40 07.12.2021
4384 Mist 22 1019 97 10000 0 0 05:47 07.12.2021
4385 Clouds 23 1018 95 10000 2.24 150 01:43 07.12.2021
4386 Rain 25 1017 87 10000 2.24 40 23:21 06.12.2021
4387 Clouds 26 1017 87 10000 1.34 0 22:40 06.12.2021
4388 Clouds 26 1017 88 10000 0.45 96 21:59 06.12.2021
4389 Clouds 25 1017 89 10000 1.34 280 21:21 06.12.2021
4390 Clouds 25 1017 93 10000 3.58 250 20:32 06.12.2021
4391 Clouds 27 1018 87 10000 3.58 140 19:24 06.12.2021
4392 Clouds 27 1018 84 10000 5.81 140 18:31 06.12.2021
4393 Clouds 27 1019 85 10000 0.89 205 17:53 06.12.2021
4394 Clouds 27 1020 84 10000 5.36 140 17:30 06.12.2021
4395 Clouds 25 1021 93 10000 0.45 185 15:51 06.12.2021
4396 Clouds 24 1020 97 10000 2.24 330 14:35 06.12.2021
4397 Clouds 23 1019 96 10000 1.34 350 12:40 06.12.2021
4398 Clear 22 1019 97 10000 0.45 75 11:55 06.12.2021
4399 Mist 22 1019 94 8047 2.68 100 09:44 06.12.2021
4400 Clouds 23 1019 90 10000 1.34 360 07:18 06.12.2021
4401 Clouds 24 1019 85 10000 4.47 110 00:38 06.12.2021
4402 Clouds 26 1018 74 10000 4.02 130 22:20 05.12.2021
4403 Clouds 27 1018 70 10000 3.58 120 21:25 05.12.2021
4404 Clouds 28 1019 67 10000 3.58 120 20:20 05.12.2021
4405 Clouds 28 1019 70 10000 1.34 109 19:58 05.12.2021
4406 Clouds 28 1019 69 10000 4.02 110 19:23 05.12.2021
4407 Clouds 27 1019 70 10000 4.02 130 18:26 05.12.2021
4408 Clouds 27 1020 71 10000 2.24 80 17:49 05.12.2021
4409 Clouds 27 1020 72 10000 2.24 80 17:18 05.12.2021
4410 Clouds 26 1021 75 10000 1.34 20 16:28 05.12.2021
4411 Clouds 26 1021 78 10000 0.45 122 15:59 05.12.2021
4412 Clouds 23 1020 85 10000 2.24 340 14:48 05.12.2021
4413 Clouds 22 1020 85 10000 2.24 340 14:29 05.12.2021
4414 Clouds 21 1020 88 10000 0 0 13:32 05.12.2021
4415 Clouds 21 1019 87 10000 0 0 12:42 05.12.2021
4416 Clouds 21 1019 87 10000 0 0 12:23 05.12.2021
4417 Clouds 21 1019 84 10000 0 0 11:41 05.12.2021
4418 Clouds 21 1018 84 10000 0 0 10:21 05.12.2021
4419 Clouds 21 1019 81 10000 0 0 09:26 05.12.2021
4420 Clouds 23 1020 71 10000 4.75 107 04:57 05.12.2021
4421 Clouds 22 1020 63 10000 3.13 90 01:23 05.12.2021
4422 Clouds 25 1019 61 10000 4.02 90 22:42 04.12.2021
4423 Clouds 25 1019 61 10000 3.58 130 21:37 04.12.2021
4424 Clouds 26 1019 61 10000 4.02 120 20:46 04.12.2021
4425 Clouds 25 1020 63 10000 3.13 130 19:43 04.12.2021
4426 Clouds 25 1020 64 10000 3.13 130 19:23 04.12.2021
4427 Clouds 25 1021 64 10000 4.47 110 17:52 04.12.2021
4428 Clouds 25 1021 65 10000 4.47 110 17:22 04.12.2021
4429 Clouds 24 1021 67 10000 3.58 120 16:46 04.12.2021
4430 Clouds 24 1021 67 10000 3.58 120 16:27 04.12.2021
4431 Clear 17 1019 66 10000 2.36 75 12:57 04.12.2021
4432 Clouds 17 1019 88 10000 0 0 11:40 04.12.2021
4433 Clear 17 1018 64 10000 2.15 100 10:59 04.12.2021
4434 Clouds 18 1019 83 10000 0 0 09:44 04.12.2021
4435 Clouds 19 1019 81 10000 0 0 08:35 04.12.2021
4436 Clouds 21 1020 71 10000 0 0 04:43 04.12.2021
4437 Clouds 22 1020 66 10000 4.47 110 03:36 04.12.2021
4438 Clouds 23 1019 68 10000 3.58 60 23:47 03.12.2021
4439 Clouds 24 1019 63 10000 0.89 53 22:53 03.12.2021
4440 Clouds 25 1018 61 10000 0.89 51 21:58 03.12.2021
4441 Clouds 25 1018 59 10000 4.47 70 21:24 03.12.2021
4442 Clouds 26 1018 59 10000 3.13 0 20:42 03.12.2021
4443 Clouds 26 1018 56 10000 4.02 80 19:28 03.12.2021
4444 Clouds 26 1019 52 10000 3.58 30 18:24 03.12.2021
4445 Clouds 25 1020 45 10000 2.68 350 17:31 03.12.2021
4446 Clear 17 1019 71 10000 0 0 13:40 03.12.2021
4447 Clouds 17 1019 75 10000 0 0 12:49 03.12.2021
4448 Clear 17 1019 74 10000 0 0 11:23 03.12.2021
4449 Clear 18 1019 82 10000 1.34 320 09:25 03.12.2021
4450 Clear 18 1019 82 10000 0 0 08:20 03.12.2021
4451 Clear 19 1019 82 10000 1.34 360 07:23 03.12.2021
4452 Clouds 22 1020 70 10000 3.13 350 01:43 03.12.2021
4453 Clouds 22 1019 69 10000 2.06 340 00:34 03.12.2021
4454 Clear 23 1019 66 10000 0.45 329 23:40 02.12.2021
4455 Clouds 26 1018 56 10000 4.47 340 21:42 02.12.2021
4456 Clouds 26 1018 54 10000 2.24 0 20:49 02.12.2021
4457 Clouds 26 1018 55 10000 2.24 0 20:29 02.12.2021
4458 Clouds 26 1019 54 10000 4.02 330 19:24 02.12.2021
4459 Clouds 26 1021 59 10000 3.13 0 17:36 02.12.2021
4460 Clouds 23 1021 74 10000 2.24 320 15:42 02.12.2021
4461 Clear 20 1021 87 10000 0.45 322 14:57 02.12.2021
4462 Clear 18 1020 65 10000 2.44 319 13:54 02.12.2021
4463 Clear 17 1020 88 10000 0 0 12:52 02.12.2021
4464 Clear 17 1020 66 10000 2.3 334 11:55 02.12.2021
4465 Clouds 17 1019 88 10000 0 0 09:29 02.12.2021
4466 Clouds 18 1020 79 10000 1.34 290 08:35 02.12.2021
4467 Clouds 21 1021 75 10000 0 0 03:39 02.12.2021
4468 Clouds 22 1020 72 10000 3.13 130 00:51 02.12.2021
4469 Clouds 25 1020 60 10000 2.24 80 22:51 01.12.2021
4470 Clouds 25 1020 58 10000 2.24 80 22:23 01.12.2021
4471 Clouds 26 1020 53 10000 4.47 100 20:36 01.12.2021
4472 Clouds 26 1020 53 10000 4.47 100 20:36 01.12.2021
4473 Clouds 26 1020 53 10000 3.13 0 19:53 01.12.2021
4474 Clouds 26 1021 54 10000 3.13 0 19:25 01.12.2021
4475 Clouds 26 1022 56 10000 3.58 100 17:45 01.12.2021
4476 Clouds 26 1022 56 10000 3.58 100 17:45 01.12.2021
4477 Clouds 25 1023 58 10000 4.02 90 16:40 01.12.2021
4478 Clouds 22 1023 72 10000 0 0 14:50 01.12.2021
4479 Clouds 19 1022 75 10000 0 0 13:44 01.12.2021
4480 Clouds 19 1021 75 10000 0 0 12:30 01.12.2021
4481 Clouds 19 1020 76 10000 0 0 10:42 01.12.2021
4482 Clear 22 1020 67 10000 3.51 81 08:58 01.12.2021
4483 Clouds 19 1020 75 10000 0 0 08:26 01.12.2021
4484 Clouds 20 1020 75 10000 0 0 07:33 01.12.2021
4485 Clouds 20 1021 75 10000 2.24 360 05:51 01.12.2021
4486 Clouds 21 1021 70 10000 1.34 10 03:41 01.12.2021
4487 Clouds 21 1020 71 10000 0.45 34 00:52 01.12.2021
4488 Clear 22 1020 71 10000 0.45 64 23:53 30.11.2021
4489 Clouds 23 1019 63 10000 4.02 90 22:49 30.11.2021
4490 Clouds 25 1019 59 10000 2.68 100 21:30 30.11.2021
4491 Clouds 25 1019 58 10000 3.58 110 20:43 30.11.2021
4492 Clouds 25 1019 58 10000 1.34 50 19:53 30.11.2021
4493 Clouds 25 1019 58 10000 1.34 50 19:30 30.11.2021
4494 Clouds 25 1020 58 10000 2.68 330 18:35 30.11.2021
4495 Rain 23 1021 60 10000 3.13 360 16:49 30.11.2021
4496 Clouds 20 1021 67 10000 2.68 360 15:18 30.11.2021
4497 Clear 17 1020 79 10000 0.45 315 14:20 30.11.2021
4498 Clear 15 1020 82 10000 0 0 13:25 30.11.2021
4499 Clear 15 1019 82 10000 1.34 350 12:45 30.11.2021
4500 Clear 15 1018 82 10000 0 0 11:49 30.11.2021
4501 Clear 15 1018 82 10000 0 0 11:19 30.11.2021
4502 Clear 16 1018 80 10000 1.34 300 10:32 30.11.2021
4503 Clear 15 1018 75 10000 0 0 08:52 30.11.2021
4504 Clear 15 1018 75 10000 0 0 08:22 30.11.2021
4505 Clear 16 1019 73 10000 0 0 07:47 30.11.2021
4506 Clouds 18 1018 61 10000 2.24 340 02:41 30.11.2021
4507 Clear 19 1018 56 10000 2.24 340 01:41 30.11.2021
4508 Clear 20 1017 53 10000 1.34 320 00:20 30.11.2021
4509 Clear 21 1016 55 10000 3.13 310 23:24 29.11.2021
4510 Clear 22 1016 55 10000 0.89 340 22:55 29.11.2021
4511 Clouds 22 1016 52 10000 3.13 310 22:33 29.11.2021
4512 Clear 23 1016 48 10000 3.58 280 21:29 29.11.2021
4513 Clear 23 1016 49 10000 0.89 329 20:59 29.11.2021
4514 Clouds 23 1016 47 10000 4.47 320 20:32 29.11.2021
4515 Clear 23 1016 48 10000 1.79 327 19:55 29.11.2021
4516 Clouds 23 1016 47 10000 4.02 330 19:35 29.11.2021
4517 Clouds 22 1017 47 10000 4.02 320 18:51 29.11.2021
4518 Clouds 22 1017 33 10000 3.69 358 17:49 29.11.2021
4519 Clouds 21 1018 34 10000 4.32 5 17:18 29.11.2021
4520 Clouds 20 1018 37 10000 4.15 12 16:29 29.11.2021
4521 Clouds 20 1018 37 10000 4.15 12 15:50 29.11.2021
4522 Clouds 18 1018 47 10000 4.24 22 14:43 29.11.2021
4523 Clouds 19 1018 38 10000 6.37 6 13:33 29.11.2021
4524 Clouds 20 1017 45 10000 6.02 342 12:28 29.11.2021
4525 Rain 20 1017 45 10000 6.02 342 11:36 29.11.2021
4526 Rain 20 1016 49 10000 5.32 343 10:41 29.11.2021
4527 Clouds 18 1016 66 10000 2.06 320 09:25 29.11.2021
4528 Clouds 18 1016 55 10000 0 0 06:20 29.11.2021
4529 Clear 21 1016 56 10000 0 0 01:43 29.11.2021
4530 Clouds 22 1016 53 10000 0 0 00:40 29.11.2021
4531 Rain 23 1015 57 10000 1.54 0 23:44 28.11.2021
4532 Rain 25 1015 54 10000 2.06 180 22:49 28.11.2021
4533 Clouds 25 1015 56 10000 2.06 0 21:47 28.11.2021
4534 Clouds 25 1015 56 10000 2.06 0 21:20 28.11.2021
4535 Clouds 25 1015 55 10000 2.57 0 20:23 28.11.2021
4536 Clouds 24 1017 57 10000 2.57 230 18:46 28.11.2021
4537 Clouds 24 1017 57 10000 2.57 230 18:27 28.11.2021
4538 Clouds 23 1018 53 10000 0.67 97 17:54 28.11.2021
4539 Clouds 23 1018 60 10000 0 0 17:31 28.11.2021
4540 Clouds 22 1019 60 10000 2.57 360 16:29 28.11.2021
4541 Clouds 22 1019 62 10000 2.03 347 15:58 28.11.2021
4542 Clouds 19 1019 61 10000 2.57 330 15:24 28.11.2021
4543 Clouds 17 1018 74 10000 1.54 360 14:44 28.11.2021
4544 Clouds 13 1018 69 10000 2.63 340 12:58 28.11.2021
4545 Clouds 16 1017 85 10000 1.54 340 12:37 28.11.2021
4546 Clouds 14 1016 64 10000 2.22 353 10:54 28.11.2021
4547 Clear 16 1017 79 10000 0 0 10:20 28.11.2021
4548 Clouds 16 1017 77 10000 1.54 340 09:37 28.11.2021
4549 Clear 17 1018 74 10000 0 0 06:30 28.11.2021
4550 Clear 23 1016 56 10000 3.18 61 23:56 27.11.2021
4551 Clouds 24 1017 57 10000 2.06 0 20:51 27.11.2021
4552 Clouds 24 1018 59 10000 3.6 300 19:18 27.11.2021
4553 Clouds 24 1018 59 10000 3.6 300 19:18 27.11.2021
4554 Clouds 26 1019 63 10000 2.89 1 16:56 27.11.2021
4555 Clouds 22 1019 67 10000 3.37 356 15:56 27.11.2021
4556 Clouds 17 1018 85 10000 2.06 360 13:47 27.11.2021
4557 Clouds 17 1018 73 10000 4.33 340 12:55 27.11.2021
4558 Clear 18 1017 77 10000 1.54 340 10:48 27.11.2021
4559 Clouds 18 1016 64 10000 3.73 333 09:53 27.11.2021
4560 Clear 18 1017 77 10000 2.57 340 08:43 27.11.2021
4561 Clear 20 1017 75 10000 2.06 290 05:18 27.11.2021
4562 Clouds 24 1016 52 10000 2.35 347 01:57 27.11.2021
4563 Clouds 25 1015 50 10000 2.06 0 23:36 26.11.2021
4564 Clouds 26 1015 46 10000 3.09 290 22:25 26.11.2021
4565 Clouds 26 1015 46 10000 3.6 280 21:37 26.11.2021
4566 Clouds 26 1014 45 10000 2.24 337 20:59 26.11.2021
4567 Clouds 26 1016 47 10000 4.12 310 20:19 26.11.2021
4568 Clouds 26 1017 46 10000 3.6 330 19:47 26.11.2021
4569 Clear 26 1017 46 10000 3.09 0 18:39 26.11.2021
4570 Clouds 25 1019 54 10000 4.12 320 17:23 26.11.2021
4571 Clear 16 1019 51 10000 2.77 325 15:59 26.11.2021
4572 Clouds 18 1018 94 10000 1.54 320 13:36 26.11.2021
4573 Clouds 19 1018 86 10000 2.24 320 12:51 26.11.2021
4574 Clouds 19 1017 82 10000 0 0 10:39 26.11.2021
4575 Clouds 21 1017 77 10000 2.48 75 08:59 26.11.2021
4576 Clouds 19 1018 80 10000 1.54 330 08:39 26.11.2021
4577 Clouds 19 1018 82 10000 1.54 330 08:19 26.11.2021
4578 Clouds 20 1019 77 10000 0 0 06:28 26.11.2021
4579 Clouds 21 1019 72 10000 0 0 04:52 26.11.2021
4580 Clouds 22 1020 68 10000 0 0 03:28 26.11.2021
4581 Clouds 23 1019 62 10000 3.13 40 23:28 25.11.2021
4582 Clouds 24 1019 60 10000 4.02 70 21:51 25.11.2021
4583 Clouds 24 1019 62 10000 3.13 60 20:41 25.11.2021
4584 Clouds 25 1020 63 10000 5.36 100 18:50 25.11.2021
4585 Clouds 24 1021 66 10000 5.78 75 18:00 25.11.2021
4586 Clouds 24 1021 65 10000 4.63 110 17:26 25.11.2021
4587 Clouds 24 1022 65 10000 5.36 70 16:41 25.11.2021
4588 Clouds 24 1022 68 10000 2.24 90 15:58 25.11.2021
4589 Clouds 21 1022 73 10000 2.24 330 14:21 25.11.2021
4590 Clouds 21 1021 72 10000 2.68 350 12:48 25.11.2021
4591 Clouds 22 1021 70 10000 1.79 53 11:55 25.11.2021
4592 Clouds 20 1021 69 10000 0.89 50 10:31 25.11.2021
4593 Clouds 21 1022 69 10000 0.89 55 06:36 25.11.2021
4594 Clouds 22 1023 68 10000 1.34 54 02:54 25.11.2021
4595 Clouds 22 1022 64 10000 1.79 37 23:39 24.11.2021
4596 Clouds 22 1021 63 10000 2.24 44 22:29 24.11.2021
4597 Clouds 22 1021 62 10000 0.89 15 21:48 24.11.2021
4598 Clouds 22 1021 61 10000 1.34 85 21:19 24.11.2021
4599 Clouds 23 1021 59 10000 5.81 60 20:26 24.11.2021
4600 Clouds 23 1021 56 10000 6.26 50 19:20 24.11.2021
4601 Clouds 24 1022 57 10000 6.71 50 18:18 24.11.2021
4602 Clouds 23 1023 60 10000 3.58 20 16:20 24.11.2021
4603 Clouds 20 1022 70 10000 7.8 45 14:57 24.11.2021
4604 Clouds 18 1022 74 10000 3.09 340 14:21 24.11.2021
4605 Clouds 14 1021 85 10000 2.57 330 12:51 24.11.2021
4606 Clouds 14 1020 82 10000 2.06 320 11:24 24.11.2021
4607 Clouds 14 1020 77 10000 2.57 330 10:52 24.11.2021
4608 Clouds 14 1020 77 10000 2.57 330 10:52 24.11.2021
4609 Clouds 14 1020 77 10000 2.57 330 10:34 24.11.2021
4610 Clouds 14 1020 77 10000 3.09 340 09:29 24.11.2021
4611 Clouds 15 1020 78 10000 3.13 340 07:39 24.11.2021
4612 Clear 15 1020 70 10000 5.14 340 05:23 24.11.2021
4613 Clear 17 1019 70 10000 5.36 340 02:44 24.11.2021
4614 Clouds 20 1017 57 10000 3.58 360 23:33 23.11.2021
4615 Clouds 21 1016 42 10000 4.47 360 22:38 23.11.2021
4616 Clouds 22 1016 35 10000 3.58 30 21:45 23.11.2021
4617 Clear 22 1015 40 10000 5.36 350 20:22 23.11.2021
4618 Clear 21 1016 43 10000 7.15 350 19:33 23.11.2021
4619 Clear 21 1016 48 10000 6.26 340 18:34 23.11.2021
4620 Clouds 20 1017 57 10000 6.26 330 17:31 23.11.2021
4621 Clouds 20 1017 62 10000 5.81 320 16:35 23.11.2021
4622 Clouds 19 1017 72 10000 5.81 350 15:27 23.11.2021
4623 Clear 18 1016 76 10000 5.81 330 14:45 23.11.2021
4624 Clear 17 1015 84 10000 4.47 340 13:20 23.11.2021
4625 Clear 18 1014 87 10000 4.47 330 10:28 23.11.2021
4626 Clear 19 1013 85 10000 5.36 320 09:47 23.11.2021
4627 Clear 19 1013 83 10000 1.79 322 07:58 23.11.2021
4628 Clear 20 1013 86 10000 1.34 322 04:53 23.11.2021
4629 Clouds 21 1013 84 10000 2.68 320 03:32 23.11.2021
4630 Clouds 23 1012 83 10000 6.26 330 23:41 22.11.2021
4631 Clouds 24 1012 83 10000 6.26 330 23:19 22.11.2021
4632 Clouds 26 1011 77 10000 5.81 320 22:30 22.11.2021
4633 Clouds 28 1011 69 10000 1.34 0 21:45 22.11.2021
4634 Clouds 28 1011 69 10000 1.34 0 21:19 22.11.2021
4635 Clouds 28 1011 71 10000 3.13 280 20:27 22.11.2021
4636 Clouds 29 1012 73 10000 1.34 273 19:20 22.11.2021
4637 Clouds 28 1013 75 10000 2.24 270 18:41 22.11.2021
4638 Clouds 27 1013 81 10000 2.24 313 17:48 22.11.2021
4639 Mist 25 1014 89 9656 2.24 300 16:41 22.11.2021
4640 Mist 23 1015 97 6437 2.68 300 15:29 22.11.2021
4641 Fog 22 1013 97 805 2.68 290 12:51 22.11.2021
4642 Mist 22 1013 96 2816 2.57 340 11:34 22.11.2021
4643 Clear 22 1013 96 10000 0 0 10:22 22.11.2021
4644 Clouds 22 1014 95 10000 0 0 08:43 22.11.2021
4645 Clouds 22 1014 95 10000 0 0 08:23 22.11.2021
4646 Clouds 25 1015 88 10000 4.02 90 01:36 22.11.2021
4647 Clouds 26 1015 83 10000 0.89 79 23:20 21.11.2021
4648 Clouds 27 1015 80 10000 6.71 90 22:42 21.11.2021
4649 Clouds 28 1015 79 10000 1.79 93 20:55 21.11.2021
4650 Clouds 27 1015 77 10000 6.71 90 20:34 21.11.2021
4651 Clouds 28 1016 77 10000 1.79 124 18:55 21.11.2021
4652 Clouds 28 1017 77 10000 2.24 89 17:56 21.11.2021
4653 Clouds 28 1018 78 10000 6.71 80 17:35 21.11.2021
4654 Clouds 26 1018 86 10000 1.34 74 14:50 21.11.2021
4655 Clouds 25 1018 88 10000 1.34 56 14:31 21.11.2021
4656 Clouds 23 1017 94 10000 0.89 76 12:59 21.11.2021
4657 Mist 23 1017 95 8047 3.13 50 12:25 21.11.2021
4658 Mist 23 1016 94 4828 4.02 70 11:37 21.11.2021
4659 Rain 23 1016 95 10000 2.24 40 10:19 21.11.2021
4660 Mist 23 1017 95 6437 1.34 30 09:45 21.11.2021
4661 Clouds 23 1017 95 10000 0.89 94 08:32 21.11.2021
4662 Mist 23 1017 96 10000 2.24 10 07:52 21.11.2021
4663 Clouds 23 1018 96 10000 4.02 60 06:28 21.11.2021
4664 Rain 23 1018 94 8047 1.34 70 05:41 21.11.2021
4665 Mist 24 1018 92 6437 5.81 60 03:22 21.11.2021
4666 Clouds 24 1018 93 10000 1.79 71 02:55 21.11.2021
4667 Clouds 24 1017 91 10000 3.58 50 01:28 21.11.2021
4668 Clouds 24 1017 87 10000 6.26 50 00:43 21.11.2021
4669 Clouds 25 1016 86 10000 5.36 40 22:35 20.11.2021
4670 Clouds 25 1016 83 10000 6.26 40 21:32 20.11.2021
4671 Clouds 26 1017 82 10000 3.13 43 19:58 20.11.2021
4672 Clouds 26 1018 82 10000 5.36 50 18:45 20.11.2021
4673 Clouds 26 1018 84 10000 5.36 50 18:23 20.11.2021
4674 Clouds 25 1019 85 10000 1.34 44 17:22 20.11.2021
4675 Clouds 25 1019 87 10000 1.79 46 14:57 20.11.2021
4676 Clouds 24 1018 87 10000 4.02 50 14:39 20.11.2021
4677 Clouds 24 1018 88 10000 4.02 50 14:20 20.11.2021
4678 Clouds 24 1017 85 10000 2.24 0 11:56 20.11.2021
4679 Clouds 24 1016 84 8585 2.24 42 09:58 20.11.2021
4680 Clouds 24 1017 83 10000 4.02 50 08:43 20.11.2021
4681 Clouds 23 1017 85 10000 4.47 50 06:50 20.11.2021
4682 Clouds 23 1018 90 10000 4.47 50 05:18 20.11.2021
4683 Clouds 23 1018 90 10000 4.47 50 04:49 20.11.2021
4684 Mist 22 1018 94 6437 0.89 16 00:43 20.11.2021
4685 Rain 22 1018 94 6437 0.45 6 00:18 20.11.2021
4686 Rain 23 1017 94 10000 1.79 19 22:54 19.11.2021
4687 Mist 23 1017 95 6437 1.79 26 21:36 19.11.2021
4688 Rain 23 1017 94 4828 3.6 20 20:48 19.11.2021
4689 Rain 23 1017 94 4828 3.6 20 20:29 19.11.2021
4690 Rain 23 1017 94 4828 4.63 360 19:47 19.11.2021
4691 Mist 26 1017 82 10000 1.34 50 18:49 19.11.2021
4692 Clouds 27 1017 80 10000 1.34 50 18:18 19.11.2021
4693 Clouds 27 1018 81 10000 2.68 50 16:47 19.11.2021
4694 Clouds 26 1019 91 10000 1.34 0 15:31 19.11.2021
4695 Mist 23 1017 96 9656 2.68 30 12:43 19.11.2021
4696 Clouds 24 1017 94 10000 3.58 50 10:26 19.11.2021
4697 Clouds 23 1017 94 10000 2.68 60 08:39 19.11.2021
4698 Clouds 23 1017 93 10000 3.13 50 07:26 19.11.2021
4699 Clouds 24 1019 95 10000 4.02 50 04:24 19.11.2021
4700 Clouds 22 1018 96 10000 1.34 0 01:24 19.11.2021
4701 Thunderstorm 23 1018 93 8047 1.79 36 23:44 18.11.2021
4702 Mist 25 1018 91 6437 0.89 322 21:41 18.11.2021
4703 Rain 26 1018 86 10000 3.58 30 20:47 18.11.2021
4704 Rain 26 1018 85 10000 3.58 30 20:29 18.11.2021
4705 Clouds 26 1019 83 10000 4.02 70 19:43 18.11.2021
4706 Clouds 26 1020 83 10000 3.58 70 18:40 18.11.2021
4707 Clouds 26 1020 82 10000 1.34 62 17:58 18.11.2021
4708 Clouds 26 1021 80 10000 5.81 80 17:36 18.11.2021
4709 Clouds 27 1021 78 10000 4.47 70 16:43 18.11.2021
4710 Clouds 26 1021 79 10000 4.47 80 15:25 18.11.2021
4711 Clouds 25 1020 80 10000 5.81 80 13:25 18.11.2021
4712 Clouds 25 1020 81 10000 5.36 90 12:33 18.11.2021
4713 Clouds 25 1019 81 10000 5.81 90 11:41 18.11.2021
4714 Clouds 25 1019 81 10000 5.81 90 11:23 18.11.2021
4715 Rain 25 1019 80 10000 5.81 90 09:33 18.11.2021
4716 Clouds 25 1020 82 10000 6.26 90 07:34 18.11.2021
4717 Clouds 25 1021 79 10000 5.81 90 05:47 18.11.2021
4718 Clouds 26 1022 78 10000 6.26 80 04:31 18.11.2021
4719 Clouds 25 1021 77 10000 5.81 90 01:22 18.11.2021
4720 Clouds 26 1020 76 10000 7.15 70 22:48 17.11.2021
4721 Clouds 26 1020 76 10000 7.15 70 22:20 17.11.2021
4722 Clouds 26 1020 74 10000 7.15 90 21:37 17.11.2021
4723 Clouds 26 1020 73 10000 7.6 80 20:50 17.11.2021
4724 Clouds 27 1022 71 10000 2.24 77 17:53 17.11.2021
4725 Clouds 27 1022 68 10000 8.05 80 17:25 17.11.2021
4726 Clouds 25 1022 72 10000 4.47 80 14:47 17.11.2021
4727 Clouds 24 1021 73 10000 4.02 80 12:40 17.11.2021
4728 Clouds 24 1020 73 10000 5.81 90 11:44 17.11.2021
4729 Clouds 24 1020 74 10000 4.02 80 10:28 17.11.2021
4730 Clouds 23 1020 74 10000 4.47 90 09:24 17.11.2021
4731 Clouds 24 1020 72 10000 5.81 80 07:43 17.11.2021
4732 Clouds 24 1021 73 10000 3.58 60 03:50 17.11.2021
4733 Clouds 24 1021 73 10000 3.58 60 03:50 17.11.2021
4734 Clouds 23 1021 71 10000 4.02 50 01:21 17.11.2021
4735 Clouds 24 1020 69 10000 4.47 70 23:18 16.11.2021
4736 Clouds 25 1020 66 10000 2.24 354 21:23 16.11.2021
4737 Clouds 26 1020 65 10000 2.68 52 20:18 16.11.2021
4738 Clouds 26 1021 67 10000 2.68 58 18:53 16.11.2021
4739 Clear 26 1021 66 10000 2.24 31 18:34 16.11.2021
4740 Clouds 25 1022 67 10000 2.24 50 17:40 16.11.2021
4741 Clouds 25 1022 67 10000 7.15 70 16:39 16.11.2021
4742 Rain 24 1022 70 10000 1.79 49 15:53 16.11.2021
4743 Rain 24 1022 71 10000 3.13 0 15:27 16.11.2021
4744 Clouds 20 1020 83 10000 1.54 360 11:50 16.11.2021
4745 Clouds 20 1020 80 10000 1.54 350 09:49 16.11.2021
4746 Clouds 20 1021 79 10000 0 0 08:46 16.11.2021
4747 Clouds 20 1021 81 10000 2.06 340 07:34 16.11.2021
4748 Clouds 21 1021 77 10000 2.68 10 02:47 16.11.2021
4749 Clouds 24 1020 71 10000 0.89 48 23:23 15.11.2021
4750 Rain 24 1020 68 10000 5.36 40 22:38 15.11.2021
4751 Clouds 25 1019 67 10000 1.34 34 21:54 15.11.2021
4752 Clouds 25 1019 64 10000 4.02 50 21:29 15.11.2021
4753 Clouds 25 1020 64 10000 2.24 22 19:58 15.11.2021
4754 Clouds 24 1020 61 10000 5.36 30 18:48 15.11.2021
4755 Clouds 22 1021 64 10000 1.34 360 16:55 15.11.2021
4756 Clouds 19 1022 68 10000 2.68 350 15:42 15.11.2021
4757 Clouds 18 1021 69 10000 2.68 350 15:24 15.11.2021
4758 Clouds 15 1020 72 10000 2.06 340 13:32 15.11.2021
4759 Clouds 15 1019 54 10000 5.72 354 11:54 15.11.2021
4760 Clouds 17 1019 81 10000 3.13 340 09:29 15.11.2021
4761 Clouds 18 1019 81 10000 1.34 319 07:57 15.11.2021
4762 Clouds 19 1019 77 10000 1.34 0 05:24 15.11.2021
4763 Clouds 22 1018 65 10000 0.45 16 00:18 15.11.2021
4764 Clouds 23 1016 63 10000 3.13 0 22:38 14.11.2021
4765 Clouds 25 1016 60 10000 1.34 300 20:32 14.11.2021
4766 Clouds 25 1016 58 10000 2.24 350 19:18 14.11.2021
4767 Clouds 26 1017 57 10000 1.79 299 18:54 14.11.2021
4768 Clouds 25 1017 57 10000 4.02 310 18:36 14.11.2021
4769 Clouds 25 1017 57 10000 4.02 310 18:18 14.11.2021
4770 Clouds 25 1018 58 10000 1.34 328 17:57 14.11.2021
4771 Clouds 25 1018 57 10000 1.34 0 17:39 14.11.2021
4772 Clouds 25 1018 57 10000 1.34 0 17:21 14.11.2021
4773 Clouds 24 1018 59 10000 2.68 350 16:49 14.11.2021
4774 Clouds 23 1018 60 10000 2.68 350 16:21 14.11.2021
4775 Clouds 22 1019 63 10000 3.13 310 15:51 14.11.2021
4776 Clouds 21 1019 64 10000 3.13 310 15:19 14.11.2021
4777 Clouds 20 1018 70 10000 4.02 330 14:33 14.11.2021
4778 Clouds 20 1018 77 10000 1.34 329 13:59 14.11.2021
4779 Clouds 19 1018 79 10000 3.13 350 13:40 14.11.2021
4780 Clouds 19 1017 83 10000 2.24 0 12:45 14.11.2021
4781 Clouds 19 1017 85 10000 2.24 0 12:20 14.11.2021
4782 Clouds 20 1016 89 10000 2.24 350 10:52 14.11.2021
4783 Clouds 20 1016 91 10000 2.24 350 10:27 14.11.2021
4784 Clouds 21 1016 89 10000 1.79 325 08:58 14.11.2021
4785 Clouds 21 1016 89 10000 2.24 310 08:23 14.11.2021
4786 Clouds 25 1016 79 10000 3.13 270 02:20 14.11.2021
4787 Clouds 29 1014 63 10000 3.13 0 22:28 13.11.2021
4788 Clouds 29 1014 63 10000 3.13 0 22:28 13.11.2021
4789 Clouds 30 1014 63 10000 0.89 158 21:58 13.11.2021
4790 Clouds 29 1014 62 10000 3.13 260 21:27 13.11.2021
4791 Clouds 29 1014 65 10000 3.58 280 20:24 13.11.2021
4792 Clouds 29 1015 66 10000 1.34 131 18:53 13.11.2021
4793 Clouds 29 1016 65 10000 3.13 310 18:26 13.11.2021
4794 Clouds 28 1017 68 10000 2.68 0 17:23 13.11.2021
4795 Mist 25 1018 90 10000 1.34 290 15:42 13.11.2021
4796 Mist 23 1017 96 8047 0.45 307 14:39 13.11.2021
4797 Mist 22 1016 98 8047 0 0 13:46 13.11.2021
4798 Mist 22 1016 98 9656 1.34 280 12:40 13.11.2021
4799 Clouds 21 1015 97 10000 0 0 11:45 13.11.2021
4800 Mist 22 1015 96 10000 0 0 10:48 13.11.2021
4801 Mist 22 1015 95 10000 0 0 10:29 13.11.2021
4802 Clouds 22 1015 95 10000 2.24 280 09:42 13.11.2021
4803 Clouds 22 1015 95 10000 2.24 280 09:42 13.11.2021
4804 Clouds 22 1016 94 10000 2.24 280 09:18 13.11.2021
4805 Clouds 22 1015 95 10000 0 0 08:40 13.11.2021
4806 Clouds 23 1016 94 10000 0 0 07:25 13.11.2021
4807 Clouds 24 1017 88 10000 2.24 30 04:36 13.11.2021
4808 Clouds 24 1017 85 10000 2.24 20 02:27 13.11.2021
4809 Clear 26 1016 83 10000 1.34 300 23:27 12.11.2021
4810 Clouds 27 1016 80 10000 1.34 300 21:51 12.11.2021
4811 Clouds 27 1016 78 10000 0.45 0 20:20 12.11.2021
4812 Clouds 27 1017 78 10000 2.24 160 19:31 12.11.2021
4813 Clouds 27 1017 82 10000 0.89 133 18:53 12.11.2021
4814 Clouds 26 1018 86 10000 2.68 130 17:34 12.11.2021
4815 Clouds 25 1019 95 10000 0 0 15:51 12.11.2021
4816 Clouds 24 1018 95 10000 1.34 150 13:25 12.11.2021
4817 Clouds 24 1017 94 10000 1.34 160 11:21 12.11.2021
4818 Rain 24 1017 93 10000 1.34 210 09:45 12.11.2021
4819 Clouds 25 1017 92 10000 2.24 160 08:44 12.11.2021
4820 Clouds 25 1017 90 10000 0.89 106 05:54 12.11.2021
4821 Rain 25 1017 85 10000 4.02 130 23:43 11.11.2021
4822 Rain 25 1017 85 10000 4.02 130 23:43 11.11.2021
4823 Rain 25 1017 85 10000 4.02 130 23:43 11.11.2021
4824 Clouds 26 1017 84 10000 4.47 120 22:46 11.11.2021
4825 Clouds 27 1016 80 10000 6.71 120 21:29 11.11.2021
4826 Clouds 27 1016 78 10000 7.15 110 20:48 11.11.2021
4827 Clouds 28 1017 74 10000 6.26 100 19:30 11.11.2021
4828 Clouds 28 1018 74 10000 5.81 120 18:25 11.11.2021
4829 Clouds 28 1018 75 10000 6.71 100 17:37 11.11.2021
4830 Clouds 27 1019 79 10000 5.81 110 15:20 11.11.2021
4831 Clouds 26 1019 81 10000 4.02 110 14:36 11.11.2021
4832 Clouds 25 1019 83 10000 4.02 110 14:18 11.11.2021
4833 Clouds 24 1018 86 10000 3.58 100 13:34 11.11.2021
4834 Clouds 24 1017 87 10000 0.89 79 11:57 11.11.2021
4835 Clouds 24 1017 84 10000 3.58 110 09:54 11.11.2021
4836 Clouds 24 1017 83 10000 3.58 100 08:21 11.11.2021
4837 Clouds 24 1017 84 10000 4.02 100 06:44 11.11.2021
4838 Clouds 24 1018 80 10000 5.81 80 00:37 11.11.2021
4839 Clouds 25 1017 75 10000 5.81 70 22:38 10.11.2021
4840 Clouds 26 1017 73 10000 6.26 90 21:46 10.11.2021
4841 Clouds 26 1018 70 10000 4.47 80 20:53 10.11.2021
4842 Clouds 28 1018 64 10000 3.13 60 19:50 10.11.2021
4843 Clouds 28 1018 63 10000 3.13 60 19:32 10.11.2021
4844 Clear 27 1020 59 10000 1.34 160 16:50 10.11.2021
4845 Clouds 26 1020 65 10000 1.34 320 15:46 10.11.2021
4846 Clouds 23 1019 81 10000 0.45 0 14:23 10.11.2021
4847 Clouds 20 1019 85 10000 0 0 13:31 10.11.2021
4848 Clouds 19 1019 88 10000 0 0 11:40 10.11.2021
4849 Clouds 21 1019 74 10000 0 0 09:18 10.11.2021
4850 Clouds 22 1019 71 10000 0 0 08:40 10.11.2021
4851 Clouds 23 1019 74 10000 1.34 350 06:44 10.11.2021
4852 Clouds 23 1019 73 10000 0.45 89 05:57 10.11.2021
4853 Clouds 23 1019 67 10000 1.34 20 01:44 10.11.2021
4854 Clouds 26 1019 58 10000 1.79 42 21:59 09.11.2021
4855 Clouds 26 1019 55 10000 2.68 40 20:39 09.11.2021
4856 Clouds 26 1020 54 10000 1.79 35 19:28 09.11.2021
4857 Clouds 26 1020 58 10000 1.79 52 18:48 09.11.2021
4858 Clouds 23 1022 72 10000 0.45 318 16:40 09.11.2021
4859 Clouds 20 1022 79 10000 1.54 0 15:20 09.11.2021
4860 Clouds 17 1021 89 10000 1.54 290 13:31 09.11.2021
4861 Clouds 17 1020 88 10000 0 0 12:28 09.11.2021
4862 Clear 16 1019 61 10000 4.14 9 10:55 09.11.2021
4863 Clouds 17 1020 82 10000 2.57 330 09:44 09.11.2021
4864 Clear 17 1019 89 10000 4.46 2 08:54 09.11.2021
4865 Clouds 17 1020 83 10000 2.57 330 07:28 09.11.2021
4866 Clear 20 1020 67 10000 2.24 0 02:35 09.11.2021
4867 Clouds 21 1020 64 10000 4.02 340 01:51 09.11.2021
4868 Clouds 22 1019 63 10000 3.58 330 00:30 09.11.2021
4869 Clouds 22 1019 63 10000 3.58 330 00:30 09.11.2021
4870 Clouds 22 1019 63 10000 3.58 330 00:30 09.11.2021
4871 Clouds 22 1019 63 10000 3.58 330 00:30 09.11.2021
4872 Clouds 23 1019 58 10000 2.68 300 23:30 08.11.2021
4873 Clouds 24 1019 56 10000 1.34 357 22:37 08.11.2021
4874 Clouds 25 1018 54 10000 4.02 360 21:31 08.11.2021
4875 Clouds 25 1018 56 10000 5.36 310 20:33 08.11.2021
4876 Clouds 25 1019 57 10000 4.02 310 19:20 08.11.2021
4877 Clouds 24 1020 60 10000 1.79 331 17:41 08.11.2021
4878 Clouds 21 1020 71 10000 2.24 319 15:49 08.11.2021
4879 Clear 20 1019 75 10000 2.24 318 14:56 08.11.2021
4880 Clouds 18 1019 78 10000 2.24 317 14:24 08.11.2021
4881 Clear 17 1019 83 10000 1.79 319 12:59 08.11.2021
4882 Clear 17 1018 84 10000 1.34 326 11:54 08.11.2021
4883 Clouds 17 1018 83 10000 2.24 338 10:49 08.11.2021
4884 Clouds 17 1018 84 10000 1.34 323 08:57 08.11.2021
4885 Clouds 17 1018 87 10000 0.45 331 08:18 08.11.2021
4886 Clear 17 1018 88 10000 0.89 338 06:56 08.11.2021
4887 Clouds 19 1017 79 10000 0.89 338 03:35 08.11.2021
4888 Clear 20 1016 72 10000 2.24 340 01:24 08.11.2021
4889 Clear 23 1015 65 10000 1.79 311 22:58 07.11.2021
4890 Clouds 24 1014 62 10000 4.47 310 21:25 07.11.2021
4891 Clear 24 1015 63 10000 5.81 300 20:25 07.11.2021
4892 Clear 23 1016 65 10000 3.13 0 18:35 07.11.2021
4893 Clear 22 1016 66 10000 5.36 300 17:42 07.11.2021
4894 Clear 20 1017 67 10000 4.02 280 16:22 07.11.2021
4895 Clear 18 1017 71 10000 4.02 290 15:25 07.11.2021
4896 Clouds 16 1017 78 10000 4.02 310 14:27 07.11.2021
4897 Clouds 14 1016 88 10000 3.13 300 12:50 07.11.2021
4898 Clear 15 1015 88 10000 2.24 290 11:41 07.11.2021
4899 Clouds 16 1015 84 10000 4.47 300 08:59 07.11.2021
4900 Clear 19 1015 81 10000 0.89 296 02:58 07.11.2021
4901 Clear 20 1015 78 10000 3.13 300 02:22 07.11.2021
4902 Clear 22 1013 71 10000 1.79 306 22:56 06.11.2021
4903 Clear 23 1012 69 10000 2.24 303 21:58 06.11.2021
4904 Clouds 24 1012 65 10000 5.81 300 21:22 06.11.2021
4905 Clouds 24 1012 66 10000 6.71 310 20:29 06.11.2021
4906 Clouds 22 1013 77 10000 5.81 300 17:32 06.11.2021
4907 Clouds 20 1014 86 10000 3.58 310 16:32 06.11.2021
4908 Clouds 23 1011 96 10000 4.02 240 13:41 06.11.2021
4909 Clouds 23 1010 96 10000 1.34 246 12:58 06.11.2021
4910 Clouds 23 1009 97 10000 2.24 170 11:24 06.11.2021
4911 Clouds 23 1010 97 10000 2.68 180 08:49 06.11.2021
4912 Clouds 23 1011 96 10000 2.68 150 04:50 06.11.2021
4913 Clouds 23 1011 95 10000 4.02 120 00:43 06.11.2021
4914 Clouds 23 1011 95 10000 3.13 110 23:31 05.11.2021
4915 Clouds 23 1011 96 10000 3.13 50 22:33 05.11.2021
4916 Clouds 23 1011 96 10000 3.13 50 22:33 05.11.2021
4917 Mist 23 1012 98 2414 2.68 20 20:41 05.11.2021
4918 Rain 23 1012 97 6437 2.68 20 20:18 05.11.2021
4919 Rain 23 1013 97 10000 0.45 141 18:56 05.11.2021
4920 Clouds 23 1013 97 10000 2.68 50 18:37 05.11.2021
4921 Clouds 23 1014 97 10000 2.68 10 16:49 05.11.2021
4922 Clouds 23 1014 96 10000 2.24 10 14:33 05.11.2021
4923 Thunderstorm 23 1012 96 10000 1.34 50 12:27 05.11.2021
4924 Thunderstorm 24 1012 88 4023 5.36 110 09:51 05.11.2021
4925 Rain 25 1013 81 10000 1.34 106 08:38 05.11.2021
4926 Clouds 25 1014 80 10000 2.68 120 06:40 05.11.2021
4927 Clouds 25 1015 82 10000 4.47 80 03:38 05.11.2021
4928 Clouds 25 1014 81 10000 3.58 100 02:21 05.11.2021
4929 Clouds 25 1014 80 10000 4.02 120 00:30 05.11.2021
4930 Clouds 27 1015 76 10000 4.47 120 22:37 04.11.2021
4931 Clouds 27 1014 76 10000 4.47 120 22:18 04.11.2021
4932 Clouds 27 1014 77 10000 4.47 120 21:28 04.11.2021
4933 Clouds 27 1014 75 10000 4.47 110 20:29 04.11.2021
4934 Clouds 27 1015 75 10000 3.13 130 19:49 04.11.2021
4935 Clouds 28 1015 74 10000 3.13 130 19:28 04.11.2021
4936 Clouds 27 1016 74 10000 3.58 130 18:30 04.11.2021
4937 Clouds 28 1017 73 10000 3.58 90 17:27 04.11.2021
4938 Clouds 28 1017 75 10000 1.34 149 16:23 04.11.2021
4939 Clouds 25 1017 83 10000 1.34 80 14:19 04.11.2021
4940 Clouds 23 1015 82 10000 0 0 10:52 04.11.2021
4941 Clouds 24 1016 75 10000 2.68 100 08:48 04.11.2021
4942 Clouds 25 1016 74 10000 2.68 100 08:26 04.11.2021
4943 Clouds 25 1016 77 10000 2.68 90 07:33 04.11.2021
4944 Clouds 26 1016 69 10000 4.47 80 23:23 03.11.2021
4945 Clouds 26 1016 68 10000 3.13 80 22:29 03.11.2021
4946 Clouds 27 1016 68 10000 4.47 90 21:45 03.11.2021
4947 Clouds 27 1016 68 10000 3.58 70 20:45 03.11.2021
4948 Clouds 27 1016 69 10000 3.58 70 20:26 03.11.2021
4949 Clouds 27 1016 69 10000 4.47 70 19:38 03.11.2021
4950 Clouds 28 1017 67 10000 6.71 90 18:33 03.11.2021
4951 Clouds 28 1018 68 10000 1.79 73 17:56 03.11.2021
4952 Clouds 28 1018 67 10000 4.47 60 16:49 03.11.2021
4953 Clouds 27 1018 70 10000 3.13 40 15:51 03.11.2021
4954 Clouds 27 1018 71 10000 3.13 40 15:30 03.11.2021
4955 Clouds 24 1018 80 10000 2.24 20 13:43 03.11.2021
4956 Clouds 23 1017 76 10000 0 0 11:38 03.11.2021
4957 Clouds 23 1017 78 10000 0 0 10:51 03.11.2021
4958 Clouds 24 1017 76 10000 0 0 09:48 03.11.2021
4959 Clouds 24 1017 74 10000 0 0 09:27 03.11.2021
4960 Clouds 24 1017 76 10000 0.45 57 08:20 03.11.2021
4961 Clouds 24 1018 76 10000 0.45 39 07:38 03.11.2021
4962 Clouds 24 1019 78 10000 1.34 300 04:23 03.11.2021
4963 Clouds 24 1018 78 10000 1.34 310 01:32 03.11.2021
4964 Clouds 25 1017 79 10000 2.06 200 23:30 02.11.2021
4965 Clouds 25 1017 82 10000 2.57 190 22:20 02.11.2021
4966 Rain 25 1018 83 9656 4.12 180 20:45 02.11.2021
4967 Rain 25 1018 83 9656 4.12 180 20:23 02.11.2021
4968 Rain 25 1018 83 10000 2.06 40 19:40 02.11.2021
4969 Rain 24 1019 88 10000 3.13 40 18:36 02.11.2021
4970 Rain 24 1019 88 10000 4.63 30 17:56 02.11.2021
4971 Rain 24 1019 88 10000 4.47 20 17:31 02.11.2021
4972 Clouds 23 1020 89 10000 4.47 30 16:26 02.11.2021
4973 Clouds 23 1020 91 10000 1.34 314 14:57 02.11.2021
4974 Clouds 22 1019 94 10000 1.34 360 13:32 02.11.2021
4975 Clouds 22 1019 93 10000 2.57 20 12:59 02.11.2021
4976 Clouds 22 1018 93 10000 1.34 280 12:20 02.11.2021
4977 Clouds 22 1018 93 10000 2.24 280 11:27 02.11.2021
4978 Clouds 22 1017 92 10000 2.24 290 10:45 02.11.2021
4979 Clouds 22 1017 90 10000 2.24 290 10:22 02.11.2021
4980 Clouds 23 1017 85 10000 2.68 290 08:25 02.11.2021
4981 Clouds 23 1017 83 10000 1.34 230 06:32 02.11.2021
4982 Clouds 24 1019 76 10000 0 0 03:30 02.11.2021
4983 Clouds 24 1018 80 10000 3.73 30 00:55 02.11.2021
4984 Clouds 27 1017 67 10000 2.68 350 22:25 01.11.2021
4985 Clouds 27 1018 67 10000 2.24 0 20:47 01.11.2021
4986 Clouds 27 1018 66 10000 2.24 0 20:27 01.11.2021
4987 Clouds 27 1018 64 10000 4.02 330 19:43 01.11.2021
4988 Clouds 27 1019 65 10000 4.02 310 18:54 01.11.2021
4989 Clouds 26 1019 68 10000 1.79 337 17:56 01.11.2021
4990 Clouds 25 1020 68 10000 4.02 350 17:18 01.11.2021
4991 Clouds 24 1020 70 10000 4.02 320 16:33 01.11.2021
4992 Clouds 23 1020 74 10000 3.58 310 15:40 01.11.2021
4993 Clouds 23 1020 74 10000 3.58 310 15:19 01.11.2021
4994 Clouds 22 1020 77 10000 3.58 320 14:39 01.11.2021
4995 Clouds 21 1019 79 10000 3.58 320 14:19 01.11.2021
4996 Clouds 21 1019 79 10000 3.58 320 14:19 01.11.2021
4997 Clouds 21 1019 79 10000 3.58 320 14:19 01.11.2021
4998 Clouds 20 1018 79 10000 3.58 330 12:50 01.11.2021
4999 Clouds 20 1018 78 10000 4.63 340 11:39 01.11.2021
5000 Clouds 21 1017 69 10000 3.13 330 10:21 01.11.2021
5001 Clouds 22 1016 80 10000 3.13 330 08:23 01.11.2021
5002 Clouds 23 1016 81 10000 2.68 350 07:47 01.11.2021
5003 Clouds 24 1016 77 10000 1.84 70 03:55 01.11.2021
5004 Clouds 25 1016 75 10000 3.09 90 03:33 01.11.2021
5005 Clouds 26 1014 64 10000 1.34 290 23:52 31.10.2021
5006 Clouds 28 1013 56 10000 1.34 296 20:58 31.10.2021
5007 Clouds 28 1013 56 10000 1.79 285 19:54 31.10.2021
5008 Clouds 28 1014 55 10000 4.02 260 18:43 31.10.2021
5009 Clouds 28 1014 57 10000 4.02 260 18:21 31.10.2021
5010 Clear 27 1015 60 10000 3.13 280 16:41 31.10.2021
5011 Clouds 25 1015 72 10000 0.45 241 14:53 31.10.2021
5012 Clouds 20 1014 60 10000 3.21 292 12:56 31.10.2021
5013 Clouds 20 1012 88 10000 0 0 11:44 31.10.2021
5014 Clouds 20 1012 86 10000 0 0 10:48 31.10.2021
5015 Clouds 20 1012 85 10000 0 0 09:26 31.10.2021
5016 Clouds 21 1012 77 10000 0 0 08:45 31.10.2021
5017 Clouds 23 1012 71 10000 2.24 250 02:52 31.10.2021
5018 Clouds 26 1009 62 10000 4.02 290 00:36 31.10.2021
5019 Clouds 27 1008 58 10000 6.71 250 22:27 30.10.2021
5020 Clouds 28 1008 60 10000 4.47 270 21:29 30.10.2021
5021 Clouds 27 1008 63 10000 5.81 240 19:49 30.10.2021
5022 Clouds 26 1010 70 10000 5.81 300 17:49 30.10.2021
5023 Clouds 25 1009 79 10000 2.24 210 15:42 30.10.2021
5024 Clouds 23 1008 86 10000 0.89 238 13:59 30.10.2021
5025 Clouds 23 1008 83 10000 2.68 250 13:38 30.10.2021
5026 Clouds 23 1007 80 10000 2.68 250 13:20 30.10.2021
5027 Clear 23 1007 80 10000 2.57 200 11:49 30.10.2021
5028 Clouds 24 1006 80 10000 9.03 248 10:57 30.10.2021
5029 Clouds 24 1006 82 10000 6.79 238 08:59 30.10.2021
5030 Clouds 24 1007 85 10000 6.32 245 07:57 30.10.2021
5031 Clouds 24 1009 85 10000 3.13 250 05:47 30.10.2021
5032 Clear 25 1009 78 10000 0.89 222 02:59 30.10.2021
5033 Clouds 28 1007 63 10000 6.71 260 23:21 29.10.2021
5034 Clouds 29 1007 59 10000 8.05 230 22:35 29.10.2021
5035 Clouds 29 1007 63 10000 6.26 270 21:18 29.10.2021
5036 Clouds 29 1008 63 10000 4.47 260 20:32 29.10.2021
5037 Clouds 29 1009 64 10000 6.71 240 19:30 29.10.2021
5038 Clouds 29 1009 65 10000 3.13 320 17:48 29.10.2021
5039 Clouds 25 1009 90 10000 3.13 250 15:50 29.10.2021
5040 Clouds 24 1008 96 10000 1.34 203 13:19 29.10.2021
5041 Rain 24 1008 95 10000 1.79 291 10:49 29.10.2021
5042 Clouds 24 1008 95 10000 2.24 217 10:30 29.10.2021
5043 Clouds 27 1009 87 10000 0.45 192 02:46 29.10.2021
5044 Clouds 28 1009 82 10000 1.34 217 00:32 29.10.2021
5045 Thunderstorm 30 1009 73 10000 8.05 190 22:32 28.10.2021
5046 Clouds 31 1009 69 10000 7.15 220 21:20 28.10.2021
5047 Clouds 32 1009 66 10000 7.15 200 20:19 28.10.2021
5048 Clouds 31 1011 70 10000 5.81 220 18:47 28.10.2021
5049 Clouds 31 1012 73 10000 2.68 201 17:42 28.10.2021
5050 Clouds 29 1012 81 10000 1.79 162 16:39 28.10.2021
5051 Clouds 26 1011 96 10000 0.89 170 14:43 28.10.2021
5052 Clouds 24 1011 95 10000 0 0 13:33 28.10.2021
5053 Clouds 24 1011 95 10000 0 0 12:50 28.10.2021
5054 Clouds 24 1011 94 10000 2.06 140 11:50 28.10.2021
5055 Clouds 24 1011 95 10000 0 0 10:38 28.10.2021
5056 Clouds 24 1011 95 10000 0 0 09:37 28.10.2021
5057 Clouds 24 1011 94 10000 0 0 08:36 28.10.2021
5058 Clear 24 1011 92 10000 0 0 07:41 28.10.2021
5059 Clouds 27 1012 81 10000 0.89 251 03:51 28.10.2021
5060 Clouds 31 1010 65 10000 1.79 0 22:57 27.10.2021
5061 Clouds 32 1010 62 10000 5.81 240 22:26 27.10.2021
5062 Clouds 31 1010 63 10000 4.47 260 21:32 27.10.2021
5063 Clouds 31 1010 64 10000 4.02 260 20:46 27.10.2021
5064 Clouds 31 1011 67 10000 5.36 260 19:48 27.10.2021
5065 Clouds 30 1012 68 10000 2.68 0 18:56 27.10.2021
5066 Clouds 30 1012 69 10000 2.68 0 18:36 27.10.2021
5067 Clouds 27 1013 79 10000 1.34 320 16:25 27.10.2021
5068 Clouds 26 1013 84 10000 2.24 300 15:28 27.10.2021
5069 Clouds 24 1012 92 10000 3.58 340 14:28 27.10.2021
5070 Clouds 23 1011 95 10000 1.34 280 11:18 27.10.2021
5071 Clouds 23 1011 95 10000 4.19 306 10:56 27.10.2021
5072 Clear 24 1011 93 10000 2.24 280 09:28 27.10.2021
5073 Clouds 25 1011 91 10000 3.13 270 07:47 27.10.2021
5074 Clouds 25 1012 88 10000 3.58 270 06:34 27.10.2021
5075 Clouds 29 1011 74 10000 5.36 250 01:26 27.10.2021
5076 Clouds 29 1010 73 10000 1.79 249 00:55 27.10.2021
5077 Clouds 31 1010 71 10000 2.68 253 23:56 26.10.2021
5078 Clouds 32 1010 68 10000 3.58 270 22:50 26.10.2021
5079 Clouds 32 1010 68 10000 3.58 270 22:27 26.10.2021
5080 Clouds 32 1010 68 10000 4.02 270 21:51 26.10.2021
5081 Clouds 31 1012 71 10000 1.79 271 19:59 26.10.2021
5082 Clouds 31 1013 73 10000 1.34 302 19:22 26.10.2021
5083 Clouds 31 1013 72 10000 3.13 290 18:25 26.10.2021
5084 Clouds 28 1014 89 10000 0.89 310 15:53 26.10.2021
5085 Clouds 25 1014 96 10000 2.24 250 14:18 26.10.2021
5086 Clear 25 1013 94 10000 2.68 250 11:23 26.10.2021
5087 Clouds 26 1013 91 10000 3.58 250 09:27 26.10.2021
5088 Clear 26 1014 91 10000 1.34 270 07:23 26.10.2021
5089 Clouds 29 1012 77 10000 5.36 250 00:30 26.10.2021
5090 Clouds 29 1012 76 10000 6.26 240 23:48 25.10.2021
5091 Clouds 30 1012 73 10000 5.36 250 22:35 25.10.2021
5092 Clouds 30 1013 72 10000 4.02 240 21:47 25.10.2021
5093 Clouds 30 1013 74 10000 5.36 220 20:48 25.10.2021
5094 Clouds 30 1014 80 10000 1.34 187 19:44 25.10.2021
5095 Clouds 29 1015 83 10000 1.79 179 19:23 25.10.2021
5096 Clouds 29 1016 86 10000 2.24 153 18:42 25.10.2021
5097 Clouds 28 1016 89 10000 3.58 160 17:42 25.10.2021
5098 Mist 26 1016 95 10000 2.68 200 15:24 25.10.2021
5099 Clouds 26 1015 93 10000 1.34 210 12:39 25.10.2021
5100 Clouds 26 1015 94 10000 1.34 160 11:25 25.10.2021
5101 Clouds 26 1015 93 10000 0.45 234 09:22 25.10.2021
5102 Clouds 26 1016 92 10000 2.24 160 07:26 25.10.2021
5103 Clouds 26 1016 92 10000 2.24 160 07:26 25.10.2021
5104 Clouds 27 1017 90 10000 1.34 150 05:24 25.10.2021
5105 Clouds 27 1017 90 10000 1.34 150 05:24 25.10.2021
5106 Clouds 28 1015 82 10000 2.68 150 00:52 25.10.2021
5107 Clouds 28 1015 82 10000 2.68 150 00:34 25.10.2021
5108 Clouds 28 1015 82 10000 2.68 150 00:34 25.10.2021
5109 Clouds 29 1014 80 10000 3.13 140 23:44 24.10.2021
5110 Clouds 29 1014 77 10000 2.68 160 22:39 24.10.2021
5111 Clouds 30 1014 76 10000 2.68 160 22:20 24.10.2021
5112 Clouds 30 1015 76 10000 3.13 130 21:33 24.10.2021
5113 Clouds 30 1015 76 10000 4.47 120 20:42 24.10.2021
5114 Clouds 30 1016 76 10000 4.02 130 19:49 24.10.2021
5115 Clouds 30 1016 77 10000 4.02 110 18:30 24.10.2021
5116 Clouds 29 1016 80 10000 3.13 80 17:46 24.10.2021
5117 Clouds 27 1016 91 10000 0.45 0 15:57 24.10.2021
5118 Clear 26 1016 93 10000 0 0 15:19 24.10.2021
5119 Clouds 25 1015 93 10000 0 0 13:23 24.10.2021
5120 Clouds 24 1015 93 10000 0 0 12:26 24.10.2021
5121 Clouds 25 1014 93 10000 0 0 11:36 24.10.2021
5122 Clouds 25 1014 91 10000 0 0 10:38 24.10.2021
5123 Clouds 25 1014 91 10000 0 0 10:38 24.10.2021
5124 Clouds 26 1014 88 10000 1.34 20 08:39 24.10.2021
5125 Clear 27 1014 82 10000 0.45 48 01:53 24.10.2021
5126 Clouds 28 1013 77 10000 5.36 60 23:51 23.10.2021
5127 Clouds 28 1013 76 10000 4.02 60 22:40 23.10.2021
5128 Clouds 30 1014 73 10000 4.02 60 20:43 23.10.2021
5129 Clouds 30 1015 73 10000 2.68 0 19:26 23.10.2021
5130 Clouds 29 1015 77 10000 2.24 360 18:41 23.10.2021
5131 Clouds 28 1015 80 10000 2.24 20 17:44 23.10.2021
5132 Clouds 28 1016 85 10000 2.68 20 16:45 23.10.2021
5133 Clouds 24 1014 97 10000 1.34 340 14:45 23.10.2021
5134 Clouds 24 1014 97 10000 0 0 13:18 23.10.2021
5135 Clouds 24 1015 97 10000 3.6 40 00:36 23.10.2021
5136 Thunderstorm 25 1014 89 10000 1.34 60 23:28 22.10.2021
5137 Thunderstorm 26 1015 89 10000 0 0 20:56 22.10.2021
5138 Mist 26 1016 90 10000 2.68 160 19:24 22.10.2021
5139 Clouds 26 1017 90 10000 2.24 0 18:20 22.10.2021
5140 Thunderstorm 26 1017 92 10000 4.47 110 16:18 22.10.2021
5141 Clouds 25 1016 92 10000 2.24 360 14:31 22.10.2021
5142 Clouds 25 1015 90 10000 1.34 80 12:41 22.10.2021
5143 Clouds 25 1015 90 10000 1.34 80 12:41 22.10.2021
5144 Clouds 26 1015 90 10000 0.45 95 10:52 22.10.2021
5145 Clouds 25 1016 90 10000 0.45 82 09:57 22.10.2021
5146 Clouds 25 1016 90 10000 0.45 82 09:57 22.10.2021
5147 Clouds 25 1016 89 10000 2.68 80 09:32 22.10.2021
5148 Clouds 25 1016 89 10000 2.68 80 09:32 22.10.2021
5149 Clouds 26 1017 88 10000 2.24 50 07:29 22.10.2021
5150 Clouds 26 1018 85 10000 1.34 30 06:19 22.10.2021
5151 Clouds 28 1018 71 10000 1.34 61 00:37 22.10.2021
5152 Clouds 29 1018 67 10000 4.02 50 23:48 21.10.2021
5153 Clouds 29 1018 64 10000 6.26 80 22:40 21.10.2021
5154 Clouds 30 1018 64 10000 5.36 90 21:23 21.10.2021
5155 Clouds 30 1018 64 10000 5.81 80 20:21 21.10.2021
5156 Clouds 30 1019 63 10000 5.36 70 19:31 21.10.2021
5157 Clouds 30 1020 65 10000 1.79 80 18:59 21.10.2021
5158 Clouds 29 1020 65 10000 5.81 80 18:27 21.10.2021
5159 Clear 29 1020 64 10000 6.26 80 17:47 21.10.2021
5160 Clear 29 1020 64 10000 6.26 80 17:47 21.10.2021
5161 Clouds 29 1021 67 10000 4.47 60 16:40 21.10.2021
5162 Clouds 28 1020 70 10000 3.58 70 15:22 21.10.2021
5163 Clouds 27 1020 73 10000 3.58 60 14:50 21.10.2021
5164 Clouds 25 1019 75 10000 3.13 60 13:39 21.10.2021
5165 Clouds 25 1018 75 10000 3.58 70 11:47 21.10.2021
5166 Clouds 26 1019 77 10000 1.34 66 09:26 21.10.2021
5167 Clouds 26 1019 75 10000 1.34 36 07:33 21.10.2021
5168 Clouds 26 1021 72 10000 0.89 75 05:33 21.10.2021
5169 Clouds 27 1019 67 10000 5.36 60 00:32 21.10.2021
5170 Clouds 28 1019 62 10000 6.71 60 22:23 20.10.2021
5171 Clouds 29 1020 61 10000 6.71 70 21:47 20.10.2021
5172 Clouds 29 1020 62 10000 2.68 60 20:58 20.10.2021
5173 Clouds 29 1020 61 10000 6.26 70 20:37 20.10.2021
5174 Clouds 29 1020 62 10000 2.68 63 20:00 20.10.2021
5175 Clouds 29 1021 61 10000 5.81 80 19:18 20.10.2021
5176 Clouds 29 1021 59 10000 7.15 60 18:29 20.10.2021
5177 Clouds 29 1021 59 10000 7.15 60 18:29 20.10.2021
5178 Clouds 27 1021 70 10000 1.79 63 15:57 20.10.2021
5179 Clouds 25 1020 73 10000 3.13 40 13:46 20.10.2021
5180 Clouds 25 1019 69 10000 4.47 50 09:52 20.10.2021
5181 Clouds 26 1020 72 10000 5.81 60 05:29 20.10.2021
5182 Clouds 26 1019 62 10000 5.81 60 01:27 20.10.2021
5183 Clouds 27 1018 66 10000 5.81 50 00:32 20.10.2021
5184 Clouds 28 1018 58 10000 6.26 90 22:28 19.10.2021
5185 Clouds 29 1018 54 10000 5.36 80 21:33 19.10.2021
5186 Clouds 29 1018 53 10000 8.05 80 20:26 19.10.2021
5187 Clouds 29 1019 53 10000 6.71 70 19:51 19.10.2021
5188 Clouds 29 1019 54 10000 6.71 70 19:29 19.10.2021
5189 Clouds 29 1019 52 10000 5.81 70 18:31 19.10.2021
5190 Clouds 28 1020 52 10000 4.02 60 17:20 19.10.2021
5191 Clouds 26 1019 59 10000 4.02 60 15:26 19.10.2021
5192 Clouds 25 1018 64 10000 1.34 10 14:31 19.10.2021
5193 Clouds 24 1018 65 10000 0.45 50 13:49 19.10.2021
5194 Clouds 24 1017 66 10000 1.34 350 11:38 19.10.2021
5195 Clouds 24 1017 67 10000 2.24 360 10:51 19.10.2021
5196 Clouds 24 1017 67 10000 2.24 360 09:35 19.10.2021
5197 Clouds 24 1017 66 10000 1.34 47 08:53 19.10.2021
5198 Clouds 27 1016 62 10000 4.47 60 00:28 19.10.2021
5199 Clouds 27 1016 63 10000 2.24 36 23:56 18.10.2021
5200 Clouds 28 1016 59 10000 4.02 40 23:22 18.10.2021
5201 Clouds 28 1016 58 10000 2.24 40 22:55 18.10.2021
5202 Clouds 29 1016 57 10000 1.79 48 21:58 18.10.2021
5203 Clouds 29 1016 56 10000 5.81 40 20:46 18.10.2021
5204 Clouds 29 1016 57 10000 5.81 40 20:21 18.10.2021
5205 Clouds 29 1016 57 10000 5.81 50 19:31 18.10.2021
5206 Clouds 29 1017 57 10000 2.68 38 18:58 18.10.2021
5207 Clouds 27 1017 62 10000 5.81 70 16:33 18.10.2021
5208 Clouds 25 1016 69 10000 2.68 30 14:41 18.10.2021
5209 Clouds 25 1015 74 10000 1.79 36 11:53 18.10.2021
5210 Clouds 25 1015 79 10000 2.24 0 09:47 18.10.2021
5211 Clouds 25 1016 85 10000 3.13 360 07:31 18.10.2021
5212 Clouds 28 1013 77 10000 3.13 130 23:54 17.10.2021
5213 Clouds 29 1013 73 10000 3.58 120 22:30 17.10.2021
5214 Clouds 30 1013 70 10000 4.02 340 21:44 17.10.2021
5215 Clear 30 1013 68 10000 1.34 98 20:56 17.10.2021
5216 Clouds 32 1014 61 10000 0.89 127 19:59 17.10.2021
5217 Clouds 32 1014 58 10000 2.68 0 19:38 17.10.2021
5218 Clear 31 1015 59 10000 3.13 0 18:28 17.10.2021
5219 Clear 31 1015 59 10000 3.13 0 18:28 17.10.2021
5220 Clouds 29 1015 67 10000 2.68 300 16:40 17.10.2021
5221 Clouds 24 1014 93 10000 0.45 360 14:40 17.10.2021
5222 Clouds 24 1014 93 10000 0 0 14:20 17.10.2021
5223 Clear 23 1014 89 10000 1.34 270 13:33 17.10.2021
5224 Clear 24 1014 86 10000 0 0 11:31 17.10.2021
5225 Clear 24 1014 87 10000 0 0 10:19 17.10.2021
5226 Clear 24 1014 82 10000 0 0 08:47 17.10.2021
5227 Clear 26 1014 77 10000 3.58 90 03:21 17.10.2021
5228 Clouds 28 1012 72 10000 2.68 140 00:31 17.10.2021
5229 Clouds 30 1012 64 10000 2.24 0 23:22 16.10.2021
5230 Clouds 32 1012 54 10000 1.79 301 20:55 16.10.2021
5231 Clouds 32 1013 50 10000 2.68 300 20:29 16.10.2021
5232 Clouds 31 1013 53 10000 2.24 0 19:41 16.10.2021
5233 Clouds 31 1013 54 10000 2.24 0 19:20 16.10.2021
5234 Clouds 31 1014 56 10000 4.47 300 18:45 16.10.2021
5235 Clouds 31 1014 58 10000 4.47 300 18:24 16.10.2021
5236 Clouds 30 1015 65 10000 2.68 0 17:35 16.10.2021
5237 Clouds 28 1015 74 10000 2.24 300 16:28 16.10.2021
5238 Clouds 24 1014 87 10000 0 0 13:26 16.10.2021
5239 Clouds 24 1013 86 10000 1.34 300 11:25 16.10.2021
5240 Clouds 25 1013 82 10000 0 0 09:38 16.10.2021
5241 Clouds 26 1014 75 10000 2.24 60 04:47 16.10.2021
5242 Clouds 27 1013 76 10000 0.45 83 01:23 16.10.2021
5243 Clouds 29 1012 72 10000 0.89 89 23:27 15.10.2021
5244 Clouds 29 1012 73 10000 0.89 86 22:22 15.10.2021
5245 Clouds 29 1013 74 10000 0.89 94 21:45 15.10.2021
5246 Clouds 29 1013 75 10000 0.45 117 21:19 15.10.2021
5247 Clouds 29 1013 77 10000 1.34 91 20:41 15.10.2021
5248 Clouds 29 1014 72 10000 1.34 28 19:20 15.10.2021
5249 Clouds 29 1014 75 10000 5.36 40 18:25 15.10.2021
5250 Clouds 29 1014 78 10000 2.24 40 16:19 15.10.2021
5251 Clouds 25 1013 89 10000 0.45 40 14:37 15.10.2021
5252 Clouds 24 1012 87 10000 1.54 350 12:27 15.10.2021
5253 Clouds 25 1012 84 10000 1.54 330 11:20 15.10.2021
5254 Clouds 25 1012 82 10000 0 0 10:34 15.10.2021
5255 Clouds 25 1012 81 10000 1.34 20 08:36 15.10.2021
5256 Clouds 26 1014 80 10000 1.34 30 05:31 15.10.2021
5257 Clouds 28 1012 74 10000 5.36 90 00:30 15.10.2021
5258 Clouds 30 1011 69 10000 3.13 50 23:34 14.10.2021
5259 Clouds 30 1011 67 10000 4.47 90 22:44 14.10.2021
5260 Clouds 30 1012 69 10000 5.81 50 21:41 14.10.2021
5261 Clouds 30 1012 69 10000 4.47 90 20:22 14.10.2021
5262 Clouds 31 1013 66 10000 3.58 80 19:52 14.10.2021
5263 Clouds 30 1013 68 10000 5.36 40 18:50 14.10.2021
5264 Clouds 30 1014 70 10000 2.24 70 17:25 14.10.2021
5265 Clouds 29 1014 73 10000 2.68 0 16:46 14.10.2021
5266 Clouds 28 1014 79 10000 1.34 0 15:22 14.10.2021
5267 Clouds 26 1013 88 10000 1.34 0 14:40 14.10.2021
5268 Clouds 25 1013 87 10000 1.34 350 13:35 14.10.2021
5269 Clouds 25 1012 85 10000 1.34 360 11:40 14.10.2021
5270 Clouds 26 1012 83 10000 1.34 340 09:33 14.10.2021
5271 Clear 26 1013 86 10000 2.68 70 06:46 14.10.2021
5272 Clear 28 1013 78 10000 4.02 100 00:52 14.10.2021
5273 Clouds 30 1012 71 10000 4.02 90 22:47 13.10.2021
5274 Clouds 30 1012 71 10000 3.13 80 21:37 13.10.2021
5275 Clouds 30 1013 69 10000 2.24 59 20:46 13.10.2021
5276 Clouds 31 1013 69 10000 3.58 20 19:47 13.10.2021
5277 Clouds 31 1014 68 10000 4.02 60 18:49 13.10.2021
5278 Clouds 31 1014 68 10000 4.02 60 18:49 13.10.2021
5279 Clouds 30 1015 68 10000 4.02 80 17:35 13.10.2021
5280 Clouds 28 1015 79 10000 1.34 30 15:21 13.10.2021
5281 Clouds 26 1014 85 10000 0 0 14:43 13.10.2021
5282 Clear 25 1013 84 10000 2.56 85 12:54 13.10.2021
5283 Clear 25 1013 83 10000 2.75 93 11:55 13.10.2021
5284 Clouds 25 1013 83 10000 0 0 10:21 13.10.2021
5285 Clear 26 1013 81 10000 0.45 98 07:54 13.10.2021
5286 Clouds 26 1014 81 10000 3.13 90 05:41 13.10.2021
5287 Clouds 27 1014 79 10000 4.02 110 02:24 13.10.2021
5288 Clear 29 1013 75 10000 1.34 153 23:54 12.10.2021
5289 Clouds 29 1013 73 10000 5.36 100 23:28 12.10.2021
5290 Clouds 29 1012 70 10000 5.81 120 22:42 12.10.2021
5291 Clouds 30 1013 69 10000 1.79 109 20:55 12.10.2021
5292 Clouds 30 1013 67 10000 5.36 120 20:32 12.10.2021
5293 Clouds 30 1013 68 10000 4.02 120 19:50 12.10.2021
5294 Clouds 30 1015 68 10000 4.47 130 18:26 12.10.2021
5295 Clouds 30 1015 70 10000 1.34 137 17:35 12.10.2021
5296 Clouds 29 1015 74 10000 1.34 120 16:35 12.10.2021
5297 Clouds 27 1015 82 10000 0 0 15:35 12.10.2021
5298 Clouds 25 1014 87 10000 0 0 14:25 12.10.2021
5299 Clouds 24 1014 87 10000 0 0 13:41 12.10.2021
5300 Clouds 25 1013 85 10000 0.89 0 11:36 12.10.2021
5301 Clouds 25 1013 85 10000 1.34 60 09:41 12.10.2021
5302 Clouds 25 1013 85 10000 1.79 141 08:42 12.10.2021
5303 Clouds 25 1013 83 10000 0.89 119 06:49 12.10.2021
5304 Clouds 26 1013 83 10000 2.68 110 05:29 12.10.2021
5305 Clouds 26 1013 82 10000 1.34 100 04:29 12.10.2021
5306 Clouds 28 1011 75 10000 3.58 130 00:18 12.10.2021
5307 Clouds 28 1011 75 10000 3.58 130 00:18 12.10.2021
5308 Clouds 29 1011 72 10000 4.02 110 23:37 11.10.2021
5309 Clouds 29 1011 70 10000 0.89 157 22:55 11.10.2021
5310 Clouds 29 1012 69 10000 0.45 331 21:41 11.10.2021
5311 Thunderstorm 30 1012 67 10000 1.79 162 20:32 11.10.2021
5312 Thunderstorm 29 1012 74 10000 0.89 156 19:36 11.10.2021
5313 Clouds 28 1013 78 10000 0.89 121 18:24 11.10.2021
5314 Clouds 28 1013 76 10000 0.45 120 16:48 11.10.2021
5315 Clouds 28 1013 79 10000 0 0 16:28 11.10.2021
5316 Clouds 26 1013 84 10000 0 0 15:45 11.10.2021
5317 Clear 25 1012 85 10000 1.98 69 14:54 11.10.2021
5318 Clouds 24 1012 83 10000 0 0 14:22 11.10.2021
5319 Clouds 23 1012 83 10000 0 0 13:36 11.10.2021
5320 Clouds 24 1011 84 10000 2.06 350 11:25 11.10.2021
5321 Clouds 24 1011 86 10000 0 0 09:47 11.10.2021
5322 Clouds 25 1011 82 10000 0 0 08:40 11.10.2021
5323 Clouds 26 1011 77 10000 3.6 60 01:47 11.10.2021
5324 Clouds 27 1011 77 10000 0.89 76 01:20 11.10.2021
5325 Clouds 27 1010 74 10000 0.45 73 00:42 11.10.2021
5326 Clouds 29 1010 72 10000 0.89 51 23:35 10.10.2021
5327 Clouds 29 1010 71 10000 1.79 57 21:51 10.10.2021
5328 Clouds 30 1010 69 10000 1.34 63 21:26 10.10.2021
5329 Clouds 30 1011 68 10000 0.89 59 20:41 10.10.2021
5330 Clouds 31 1011 67 10000 0.89 51 20:20 10.10.2021
5331 Clouds 30 1011 66 10000 0.45 0 19:49 10.10.2021
5332 Clouds 30 1012 66 10000 0.45 72 19:30 10.10.2021
5333 Clouds 30 1012 68 10000 0.89 64 18:23 10.10.2021
5334 Clouds 26 1013 83 10000 0.89 0 15:54 10.10.2021
5335 Clouds 26 1013 84 10000 0.45 71 15:35 10.10.2021
5336 Clouds 23 1012 85 10000 0 0 13:41 10.10.2021
5337 Clouds 23 1012 90 10000 1.54 330 12:44 10.10.2021
5338 Clouds 23 1011 90 10000 1.54 330 12:22 10.10.2021
5339 Clouds 23 1012 91 10000 0 0 10:31 10.10.2021
5340 Clouds 23 1012 89 10000 1.54 330 09:22 10.10.2021
5341 Clouds 23 1012 87 10000 1.54 20 08:51 10.10.2021
5342 Clouds 23 1013 86 10000 1.54 190 06:19 10.10.2021
5343 Clouds 24 1012 81 10000 0 0 02:23 10.10.2021
5344 Clouds 25 1011 61 10000 2.73 73 00:54 10.10.2021
5345 Clouds 25 1013 85 10000 3.09 0 23:52 09.10.2021
5346 Thunderstorm 27 1012 78 10000 4.12 140 22:21 09.10.2021
5347 Rain 28 1012 79 10000 2.24 140 21:30 09.10.2021
5348 Thunderstorm 28 1012 79 10000 2.24 140 21:30 09.10.2021
5349 Rain 30 1012 74 10000 3.58 210 20:43 09.10.2021
5350 Clouds 31 1013 69 10000 4.02 230 19:41 09.10.2021
5351 Clouds 31 1014 70 10000 3.13 240 18:51 09.10.2021
5352 Clouds 31 1014 71 10000 3.13 240 18:27 09.10.2021
5353 Clouds 27 1015 82 10000 0 0 16:26 09.10.2021
5354 Clouds 23 1014 88 10000 0 0 14:48 09.10.2021
5355 Clouds 23 1013 91 10000 1.54 40 13:40 09.10.2021
5356 Clouds 23 1013 91 10000 0 0 12:35 09.10.2021
5357 Clouds 23 1013 88 10000 2.57 270 11:26 09.10.2021
5358 Clouds 23 1013 88 10000 1.54 40 10:22 09.10.2021
5359 Rain 23 1013 91 10000 4.63 160 09:29 09.10.2021
5360 Rain 24 1016 93 10000 3.09 140 08:28 09.10.2021
5361 Thunderstorm 27 1016 84 10000 1.34 140 06:47 09.10.2021
5362 Clouds 27 1016 81 10000 0 0 05:20 09.10.2021
5363 Clouds 28 1015 81 10000 2.68 130 02:47 09.10.2021
5364 Clouds 28 1014 79 10000 2.24 170 00:45 09.10.2021
5365 Rain 29 1014 79 10000 2.24 0 23:35 08.10.2021
5366 Thunderstorm 29 1014 75 10000 5.36 120 22:49 08.10.2021
5367 Clouds 30 1015 71 10000 3.58 120 21:47 08.10.2021
5368 Clouds 31 1016 68 10000 4.47 120 20:31 08.10.2021
5369 Clouds 31 1017 68 10000 2.68 130 18:23 08.10.2021
5370 Clouds 31 1017 71 10000 3.13 140 17:26 08.10.2021
5371 Clouds 30 1017 74 10000 3.13 160 16:44 08.10.2021
5372 Clouds 30 1017 74 10000 3.13 160 16:22 08.10.2021
5373 Clouds 26 1016 87 10000 0 0 13:49 08.10.2021
5374 Clouds 26 1016 88 10000 3.56 128 11:57 08.10.2021
5375 Rain 27 1015 85 10000 1.34 130 10:50 08.10.2021
5376 Clouds 27 1015 84 10000 1.34 130 10:25 08.10.2021
5377 Clouds 28 1016 82 10000 3.13 120 06:49 08.10.2021
5378 Clouds 30 1016 73 10000 4.47 130 23:29 07.10.2021
5379 Clear 31 1016 74 10000 0.45 247 22:56 07.10.2021
5380 Clouds 31 1017 69 10000 5.36 130 21:33 07.10.2021
5381 Clouds 32 1018 69 10000 4.47 130 20:43 07.10.2021
5382 Clouds 32 1018 69 10000 7.15 120 19:39 07.10.2021
5383 Clouds 32 1020 70 10000 0.89 209 18:59 07.10.2021
5384 Clouds 31 1019 71 10000 5.36 110 17:35 07.10.2021
5385 Clouds 31 1018 73 10000 4.02 120 16:42 07.10.2021
5386 Clouds 29 1018 79 10000 0.45 184 14:57 07.10.2021
5387 Clouds 27 1017 85 10000 2.24 100 13:44 07.10.2021
5388 Clouds 27 1017 86 10000 2.24 100 13:20 07.10.2021
5389 Clouds 27 1017 86 10000 3.58 110 11:48 07.10.2021
5390 Clouds 27 1016 86 10000 3.13 110 10:48 07.10.2021
5391 Clouds 27 1016 86 10000 3.13 110 10:48 07.10.2021
5392 Clouds 28 1016 86 10000 4.02 110 09:51 07.10.2021
5393 Clouds 27 1016 88 10000 5.89 123 08:55 07.10.2021
5394 Clouds 28 1016 87 10000 3.58 110 08:25 07.10.2021
5395 Clouds 28 1017 86 10000 3.58 100 07:40 07.10.2021
5396 Clouds 28 1017 85 10000 4.02 100 06:47 07.10.2021
5397 Clouds 29 1016 81 10000 4.41 100 00:59 07.10.2021
5398 Clouds 29 1016 75 10000 5.36 130 23:30 06.10.2021
5399 Clouds 30 1016 72 10000 4.47 120 22:41 06.10.2021
5400 Clouds 31 1016 69 10000 4.02 90 21:41 06.10.2021
5401 Clouds 32 1016 68 10000 5.81 120 20:34 06.10.2021
5402 Clouds 32 1017 68 10000 4.47 120 19:26 06.10.2021
5403 Clouds 31 1018 72 10000 3.6 120 17:56 06.10.2021
5404 Clouds 30 1018 74 10000 4.12 100 16:40 06.10.2021
5405 Clouds 29 1018 79 10000 3.6 110 15:18 06.10.2021
5406 Clouds 26 1016 86 10000 2.57 100 13:31 06.10.2021
5407 Clouds 26 1016 85 10000 3.23 115 12:53 06.10.2021
5408 Clouds 26 1016 85 10000 2.06 120 12:29 06.10.2021
5409 Clouds 26 1016 85 10000 2.06 120 11:39 06.10.2021
5410 Clouds 26 1016 85 10000 2.06 100 09:45 06.10.2021
5411 Clouds 26 1016 85 10000 2.06 100 09:26 06.10.2021
5412 Clouds 26 1016 84 10000 2.06 90 08:39 06.10.2021
5413 Clouds 27 1017 83 10000 2.68 80 06:19 06.10.2021
5414 Clouds 27 1017 82 10000 3.58 90 04:24 06.10.2021
5415 Clouds 27 1017 82 10000 3.58 90 04:24 06.10.2021
5416 Clouds 29 1014 71 10000 3.58 110 00:24 06.10.2021
5417 Clouds 30 1014 68 10000 4.47 100 23:52 05.10.2021
5418 Clouds 30 1014 68 10000 4.47 100 23:52 05.10.2021
5419 Clouds 30 1014 68 10000 4.47 100 23:51 05.10.2021
5420 Clouds 30 1014 67 10000 4.47 100 23:32 05.10.2021
5421 Clouds 31 1014 66 10000 5.81 130 22:38 05.10.2021
5422 Clouds 31 1014 66 10000 0.89 233 21:57 05.10.2021
5423 Clouds 31 1014 64 10000 5.81 100 21:32 05.10.2021
5424 Clouds 31 1015 64 10000 3.13 100 20:38 05.10.2021
5425 Clouds 31 1015 63 10000 3.13 100 20:18 05.10.2021
5426 Clouds 31 1015 64 10000 3.13 130 19:25 05.10.2021
5427 Clouds 31 1016 66 10000 4.02 80 18:21 05.10.2021
5428 Clouds 29 1016 73 10000 3.09 90 15:39 05.10.2021
5429 Clouds 26 1015 80 10000 3.26 105 13:55 05.10.2021
5430 Clouds 25 1014 84 10000 0 0 13:27 05.10.2021
5431 Clouds 25 1014 85 10000 0 0 12:35 05.10.2021
5432 Clouds 25 1014 84 10000 0 0 11:41 05.10.2021
5433 Clouds 25 1014 85 10000 0 0 10:38 05.10.2021
5434 Clouds 26 1015 81 10000 1.34 70 08:36 05.10.2021
5435 Clouds 27 1014 75 10000 4.47 70 01:47 05.10.2021
5436 Clouds 29 1013 68 10000 5.36 110 23:39 04.10.2021
5437 Clouds 30 1014 68 10000 3.13 110 21:42 04.10.2021
5438 Clouds 30 1016 70 10000 0.45 58 18:54 04.10.2021
5439 Rain 30 1015 67 10000 5.81 90 17:44 04.10.2021
5440 Clouds 29 1015 71 10000 4.42 78 15:59 04.10.2021
5441 Clouds 28 1015 74 10000 1.34 330 15:29 04.10.2021
5442 Clouds 25 1014 82 10000 0 0 14:34 04.10.2021
5443 Clouds 24 1014 80 10000 0 0 13:47 04.10.2021
5444 Clouds 24 1014 80 10000 1.54 340 12:51 04.10.2021
5445 Clouds 25 1014 78 10000 0 0 11:34 04.10.2021
5446 Clouds 25 1014 76 10000 1.54 350 10:47 04.10.2021
5447 Clouds 25 1014 75 10000 0 0 09:47 04.10.2021
5448 Clouds 25 1014 74 10000 1.34 20 08:30 04.10.2021
5449 Clouds 26 1015 71 10000 2.24 40 06:51 04.10.2021
5450 Clouds 29 1014 66 10000 5.81 80 23:42 03.10.2021
5451 Clouds 29 1014 64 10000 5.81 100 22:32 03.10.2021
5452 Clouds 30 1014 61 10000 5.81 60 21:35 03.10.2021
5453 Clouds 30 1015 61 10000 4.47 80 20:50 03.10.2021
5454 Clouds 30 1016 63 10000 1.34 74 19:54 03.10.2021
5455 Clouds 30 1017 64 10000 8.05 70 18:31 03.10.2021
5456 Clouds 29 1017 66 10000 7.15 80 17:40 03.10.2021
5457 Clouds 28 1016 69 10000 5.36 90 15:30 03.10.2021
5458 Clouds 28 1016 69 10000 5.36 90 15:30 03.10.2021
5459 Clouds 27 1016 73 10000 4.47 90 14:35 03.10.2021
5460 Clouds 26 1015 74 10000 3.58 100 13:36 03.10.2021
5461 Clouds 26 1015 74 10000 3.58 100 13:36 03.10.2021
5462 Clouds 26 1015 76 10000 3.13 80 12:50 03.10.2021
5463 Clouds 26 1015 76 10000 2.24 50 11:48 03.10.2021
5464 Clouds 26 1015 73 10000 4.02 70 10:31 03.10.2021
5465 Clouds 26 1017 68 10000 2.68 50 07:39 03.10.2021
5466 Clouds 29 1017 64 10000 6.26 60 23:50 02.10.2021
5467 Clouds 30 1017 65 10000 8.05 80 22:18 02.10.2021
5468 Clouds 30 1017 70 10000 6.71 70 20:35 02.10.2021
5469 Clouds 28 1020 78 10000 1.34 76 18:57 02.10.2021
5470 Clouds 28 1019 80 10000 6.26 40 18:27 02.10.2021
5471 Clouds 28 1020 79 10000 1.34 70 17:38 02.10.2021
5472 Thunderstorm 28 1019 80 10000 4.47 50 16:39 02.10.2021
5473 Clouds 27 1018 79 10000 2.24 50 14:35 02.10.2021
5474 Clouds 28 1016 76 10000 3.13 360 15:38 30.09.2021
5475 Clouds 26 1015 79 10000 1.34 340 14:29 30.09.2021
5476 Clouds 25 1014 75 10000 4.31 61 11:59 30.09.2021
5477 Clouds 25 1015 74 10000 1.34 340 11:23 30.09.2021
5478 Clouds 25 1015 75 10000 1.34 330 10:25 30.09.2021
5479 Clouds 25 1015 75 10000 1.34 330 10:25 30.09.2021
5480 Clouds 26 1015 72 10000 0 0 08:32 30.09.2021
5481 Clouds 26 1016 71 10000 0 0 07:48 30.09.2021
5482 Clouds 26 1016 70 10000 1.34 40 05:25 30.09.2021
5483 Clouds 27 1015 71 10000 3.13 50 02:33 30.09.2021
5484 Clouds 28 1014 67 10000 5.36 80 00:33 30.09.2021
5485 Clouds 30 1013 64 10000 5.81 110 22:42 29.09.2021
5486 Clouds 30 1014 63 10000 5.36 80 21:42 29.09.2021
5487 Clouds 31 1014 63 10000 5.36 70 20:38 29.09.2021
5488 Clouds 31 1015 63 10000 5.36 70 20:19 29.09.2021
5489 Clouds 31 1015 61 10000 4.02 60 19:22 29.09.2021
5490 Clouds 30 1016 60 10000 3.13 70 18:18 29.09.2021
5491 Clouds 30 1016 64 10000 0.45 91 16:55 29.09.2021
5492 Clouds 29 1016 67 10000 2.06 40 16:25 29.09.2021
5493 Clouds 27 1015 78 10000 2.24 320 15:24 29.09.2021
5494 Clouds 25 1015 83 10000 2.24 340 14:36 29.09.2021
5495 Clouds 24 1015 80 10000 0 0 13:33 29.09.2021
5496 Clouds 24 1015 85 10000 0 0 12:38 29.09.2021
5497 Rain 24 1014 82 10000 1.34 330 11:20 29.09.2021
5498 Clouds 24 1014 77 10000 0 0 10:27 29.09.2021
5499 Clouds 25 1014 77 10000 0 0 09:40 29.09.2021
5500 Clouds 25 1014 73 10000 0 0 07:51 29.09.2021
5501 Clouds 26 1015 71 10000 2.24 20 06:27 29.09.2021
5502 Clear 29 1013 60 10000 0.45 94 23:59 28.09.2021
5503 Clouds 30 1013 51 10000 5.36 40 22:25 28.09.2021
5504 Clouds 31 1014 51 10000 3.58 60 21:46 28.09.2021
5505 Clouds 31 1014 52 10000 3.58 60 21:19 28.09.2021
5506 Clouds 31 1015 55 10000 4.12 50 19:49 28.09.2021
5507 Clouds 31 1016 55 10000 4.12 50 19:27 28.09.2021
5508 Clouds 31 1016 58 10000 3.58 40 18:40 28.09.2021
5509 Clear 30 1017 65 10000 0.89 21 16:54 28.09.2021
5510 Clouds 27 1016 70 10000 2.24 20 15:19 28.09.2021
5511 Clouds 25 1016 73 10000 1.34 350 13:25 28.09.2021
5512 Clouds 25 1015 74 10000 1.34 350 12:24 28.09.2021
5513 Clouds 25 1015 74 10000 1.34 340 11:47 28.09.2021
5514 Clouds 25 1015 74 10000 1.54 340 11:26 28.09.2021
5515 Clouds 25 1015 73 10000 1.34 340 10:27 28.09.2021
5516 Clouds 26 1015 74 10000 1.34 350 09:29 28.09.2021
5517 Clouds 26 1015 74 10000 1.34 340 08:43 28.09.2021
5518 Clouds 26 1016 75 10000 1.34 340 08:18 28.09.2021
5519 Clouds 26 1016 74 10000 1.34 360 06:46 28.09.2021
5520 Clouds 28 1016 70 10000 4.47 40 01:35 28.09.2021
5521 Clouds 29 1016 70 10000 5.36 50 00:32 28.09.2021
5522 Clouds 29 1016 69 10000 5.36 60 23:49 27.09.2021
5523 Clouds 30 1015 66 10000 5.36 60 23:24 27.09.2021
5524 Clouds 30 1016 64 10000 5.36 50 22:21 27.09.2021
5525 Clouds 31 1016 63 10000 3.58 40 21:38 27.09.2021
5526 Clouds 31 1017 61 10000 4.02 50 20:27 27.09.2021
5527 Clouds 31 1017 61 10000 4.02 20 19:37 27.09.2021
5528 Clear 31 1018 63 10000 1.34 108 18:54 27.09.2021
5529 Clouds 30 1018 59 10000 4.47 40 17:41 27.09.2021
5530 Clouds 30 1018 59 10000 4.47 40 17:41 27.09.2021
5531 Clouds 30 1019 60 10000 4.47 40 17:21 27.09.2021
5532 Clouds 29 1019 63 10000 2.68 0 16:35 27.09.2021
5533 Clouds 28 1018 67 10000 2.24 30 15:39 27.09.2021
5534 Clear 24 1018 77 10000 1.34 360 13:50 27.09.2021
5535 Clear 24 1017 72 10000 1.54 360 12:25 27.09.2021
5536 Clear 25 1017 71 10000 1.34 330 10:50 27.09.2021
5537 Clear 25 1017 69 10000 1.34 10 09:42 27.09.2021
5538 Clear 25 1016 75 10000 5.28 52 07:57 27.09.2021
5539 Clouds 27 1018 73 10000 4.02 50 03:40 27.09.2021
5540 Clouds 29 1016 70 10000 0.89 21 23:53 26.09.2021
5541 Clouds 31 1016 66 10000 5.36 50 22:18 26.09.2021
5542 Clouds 31 1016 64 10000 6.71 70 21:30 26.09.2021
5543 Clouds 31 1017 63 10000 4.02 60 20:38 26.09.2021
5544 Clouds 31 1017 66 10000 0.45 308 19:59 26.09.2021
5545 Clouds 31 1017 64 10000 5.81 60 19:26 26.09.2021
5546 Clouds 31 1017 64 10000 5.81 60 19:26 26.09.2021
5547 Clouds 31 1017 64 10000 5.81 60 19:26 26.09.2021
5548 Clouds 31 1017 64 10000 5.81 60 19:26 26.09.2021
5549 Clouds 31 1017 64 10000 5.81 60 19:26 26.09.2021
5550 Clouds 31 1017 64 10000 5.81 60 19:26 26.09.2021
5551 Clouds 31 1018 65 10000 4.02 40 18:41 26.09.2021
5552 Clouds 30 1018 69 10000 4.02 20 17:49 26.09.2021
5553 Clouds 30 1018 71 10000 4.02 20 17:20 26.09.2021
5554 Clouds 29 1017 77 10000 1.34 0 16:24 26.09.2021
5555 Clouds 28 1017 84 10000 1.34 360 15:47 26.09.2021
5556 Clouds 26 1016 88 10000 1.34 340 14:26 26.09.2021
5557 Clouds 26 1016 87 10000 1.34 340 13:44 26.09.2021
5558 Clouds 26 1016 85 10000 1.34 340 12:31 26.09.2021
5559 Clouds 26 1016 85 10000 1.34 340 12:31 26.09.2021
5560 Clouds 26 1016 88 10000 1.34 10 11:58 26.09.2021
5561 Clouds 26 1016 88 10000 1.34 10 11:33 26.09.2021
5562 Clouds 26 1016 83 10000 1.34 360 09:52 26.09.2021
5563 Clouds 26 1016 84 10000 2.57 360 08:54 26.09.2021
5564 Rain 27 1015 87 10000 0 0 01:28 26.09.2021
5565 Rain 27 1015 87 10000 0 0 00:20 26.09.2021
5566 Thunderstorm 27 1014 89 10000 1.54 150 22:42 25.09.2021
5567 Rain 28 1014 89 10000 3.09 100 22:23 25.09.2021
5568 Thunderstorm 28 1014 88 10000 4.63 90 21:47 25.09.2021
5569 Thunderstorm 30 1014 74 10000 4.02 110 20:53 25.09.2021
5570 Clouds 31 1015 77 10000 0.45 110 19:53 25.09.2021
5571 Clouds 31 1016 68 10000 0 0 18:39 25.09.2021
5572 Clouds 31 1016 68 10000 0 0 17:46 25.09.2021
5573 Clouds 27 1016 88 10000 0 0 14:49 25.09.2021
5574 Clouds 26 1015 92 10000 1.02 80 13:56 25.09.2021
5575 Clouds 25 1014 94 10000 0 0 12:48 25.09.2021
5576 Clouds 25 1014 91 10000 0 0 11:38 25.09.2021
5577 Clouds 25 1014 90 10000 2.24 350 10:21 25.09.2021
5578 Clouds 25 1014 90 10000 0 0 09:24 25.09.2021
5579 Clouds 26 1014 89 10000 1.34 340 07:50 25.09.2021
5580 Clouds 27 1012 89 10000 2.41 105 00:59 25.09.2021
5581 Clouds 28 1013 84 10000 2.57 220 23:33 24.09.2021
5582 Thunderstorm 28 1014 84 6437 0 0 21:39 24.09.2021
5583 Clouds 30 1014 76 10000 4.63 70 20:33 24.09.2021
5584 Clouds 31 1014 72 9656 2.68 120 19:44 24.09.2021
5585 Clouds 31 1015 70 10000 0 0 18:30 24.09.2021
5586 Clouds 31 1015 71 10000 0.45 154 17:53 24.09.2021
5587 Clouds 30 1015 73 10000 1.34 260 17:35 24.09.2021
5588 Clouds 30 1016 76 10000 0.99 34 16:35 24.09.2021
5589 Clouds 25 1012 98 10000 0.99 264 13:54 24.09.2021
5590 Clouds 24 1013 96 10000 0 0 12:45 24.09.2021
5591 Clouds 24 1013 96 10000 0 0 12:26 24.09.2021
5592 Clouds 24 1013 97 10000 0 0 11:28 24.09.2021
5593 Clouds 24 1012 96 10000 0 0 10:24 24.09.2021
5594 Clouds 25 1012 95 10000 0 0 08:24 24.09.2021
5595 Clouds 25 1013 94 10000 1.54 340 07:32 24.09.2021
5596 Clouds 25 1014 95 10000 1.54 210 06:44 24.09.2021
5597 Clouds 25 1013 94 10000 3.29 225 04:53 24.09.2021
5598 Clouds 30 1011 79 10000 5.14 270 22:46 23.09.2021
5599 Clouds 30 1011 79 10000 5.14 270 22:19 23.09.2021
5600 Clouds 30 1011 76 10000 0.89 222 21:44 23.09.2021
5601 Clouds 31 1011 72 10000 0.45 191 20:33 23.09.2021
5602 Clouds 31 1012 70 10000 3.09 130 19:18 23.09.2021
5603 Clouds 31 1012 70 10000 3.09 130 19:18 23.09.2021
5604 Clouds 32 1012 70 10000 3.09 130 19:18 23.09.2021
5605 Clouds 30 1013 75 10000 3.09 160 17:18 23.09.2021
5606 Clouds 27 1013 87 10000 1.54 270 15:20 23.09.2021
5607 Clouds 26 1013 91 10000 1.64 217 14:58 23.09.2021
5608 Clouds 24 1012 94 10000 0 0 13:45 23.09.2021
5609 Clouds 23 1012 94 10000 0 0 13:18 23.09.2021
5610 Clear 24 1012 88 10000 1.54 250 12:47 23.09.2021
5611 Clear 24 1012 88 10000 1.54 250 12:22 23.09.2021
5612 Clouds 24 1012 94 10000 0 0 11:20 23.09.2021
5613 Clouds 24 1012 91 10000 0 0 10:19 23.09.2021
5614 Clear 24 1012 91 10000 0 0 09:49 23.09.2021
5615 Clouds 24 1013 94 10000 0 0 06:49 23.09.2021
5616 Clouds 24 1012 88 10000 1.54 350 01:18 23.09.2021
5617 Mist 24 1013 88 8047 5.14 320 22:58 22.09.2021
5618 Thunderstorm 26 1013 83 10000 2.57 270 22:24 22.09.2021
5619 Thunderstorm 28 1013 81 10000 3.6 270 21:51 22.09.2021
5620 Thunderstorm 28 1013 80 10000 4.63 250 21:32 22.09.2021
5621 Clouds 30 1013 75 10000 4.12 110 20:39 22.09.2021
5622 Clouds 31 1014 76 10000 4.12 120 19:28 22.09.2021
5623 Clouds 30 1014 77 10000 3.09 120 18:36 22.09.2021
5624 Clouds 29 1015 82 10000 0.45 158 17:43 22.09.2021
5625 Clouds 28 1015 86 10000 3.2 105 16:37 22.09.2021
5626 Clouds 25 1016 74 10000 3.6 90 14:55 22.09.2021
5627 Thunderstorm 25 1015 86 10000 1.54 340 13:25 22.09.2021
5628 Thunderstorm 25 1015 86 10000 1.54 340 13:25 22.09.2021
5629 Clouds 25 1014 93 10000 2.06 350 11:41 22.09.2021
5630 Clouds 25 1014 88 10000 1.54 340 10:37 22.09.2021
5631 Clouds 26 1014 83 10000 3.54 87 08:57 22.09.2021
5632 Clouds 26 1015 89 10000 0 0 07:50 22.09.2021
5633 Clouds 26 1016 84 10000 4.18 82 06:57 22.09.2021
5634 Clouds 26 1016 86 10000 2.57 40 05:51 22.09.2021
5635 Clouds 26 1017 87 10000 2.57 40 05:31 22.09.2021
5636 Clouds 26 1016 88 10000 1.54 20 03:44 22.09.2021
5637 Clouds 26 1016 85 10000 2.57 350 00:21 22.09.2021
5638 Clouds 29 1016 82 10000 2.57 110 22:49 21.09.2021
5639 Thunderstorm 30 1016 79 10000 3.6 120 21:31 21.09.2021
5640 Clouds 30 1016 77 10000 0.45 189 19:42 21.09.2021
5641 Clouds 30 1017 80 10000 0.45 43 19:20 21.09.2021
5642 Clouds 28 1017 83 10000 3.96 126 17:20 21.09.2021
5643 Clouds 28 1017 83 10000 0 0 16:34 21.09.2021
5644 Clouds 28 1016 87 10000 1.54 0 15:35 21.09.2021
5645 Clouds 28 1017 84 10000 3.85 108 14:56 21.09.2021
5646 Clouds 27 1014 87 10000 0.45 357 13:56 21.09.2021
5647 Clouds 27 1015 84 10000 0 0 13:36 21.09.2021
5648 Clouds 27 1014 90 10000 0 0 11:44 21.09.2021
5649 Clouds 26 1014 69 10000 4.73 107 09:55 21.09.2021
5650 Clouds 29 1015 67 10000 4.31 84 07:59 21.09.2021
5651 Clouds 27 1017 83 10000 1.54 360 06:38 21.09.2021
5652 Clouds 30 1014 63 10000 3.78 117 23:58 20.09.2021
5653 Clouds 30 1015 64 10000 3.6 160 22:24 20.09.2021
5654 Clouds 31 1016 64 10000 4.12 120 21:37 20.09.2021
5655 Clouds 32 1016 67 10000 5.14 120 20:30 20.09.2021
5656 Clouds 32 1017 71 10000 3.6 130 19:29 20.09.2021
5657 Clouds 32 1017 70 10000 3.6 120 17:46 20.09.2021
5658 Clouds 31 1017 74 10000 3.6 120 16:43 20.09.2021
5659 Clouds 29 1016 83 10000 0 0 15:49 20.09.2021
5660 Clouds 28 1016 85 10000 0 0 15:24 20.09.2021
5661 Clear 27 1016 87 10000 0 0 14:24 20.09.2021
5662 Clouds 25 1015 89 10000 1.54 10 12:35 20.09.2021
5663 Clouds 25 1015 90 10000 0 0 11:25 20.09.2021
5664 Clouds 26 1014 90 10000 1.77 112 09:59 20.09.2021
5665 Clouds 26 1015 88 10000 0 0 09:36 20.09.2021
5666 Clouds 26 1015 88 10000 0 0 09:18 20.09.2021
5667 Clouds 26 1016 87 10000 0 0 07:45 20.09.2021
5668 Clouds 30 1014 77 10000 2.57 120 23:49 19.09.2021
5669 Clouds 29 1014 79 10000 4.9 115 22:26 19.09.2021
5670 Clouds 29 1014 81 10000 4.9 115 21:43 19.09.2021
5671 Clouds 30 1014 77 10000 5.32 108 20:43 19.09.2021
5672 Clouds 32 1016 71 10000 4.12 100 19:32 19.09.2021
5673 Clouds 32 1017 72 10000 1.54 10 18:29 19.09.2021
5674 Clouds 31 1017 71 10000 2.57 310 17:23 19.09.2021
5675 Clouds 30 1017 77 10000 0.89 60 15:59 19.09.2021
5676 Clouds 29 1017 79 10000 1.54 10 15:30 19.09.2021
5677 Clouds 29 1017 79 10000 1.54 10 15:30 19.09.2021
5678 Clouds 27 1016 89 10000 0 0 14:48 19.09.2021
5679 Clouds 25 1017 92 10000 0 0 13:29 19.09.2021
5680 Clear 25 1016 89 10000 0 0 12:51 19.09.2021
5681 Clouds 26 1016 89 10000 0 0 11:28 19.09.2021
5682 Rain 25 1015 93 10000 1.21 319 10:53 19.09.2021
5683 Rain 26 1016 89 10000 1.54 270 09:40 19.09.2021
5684 Rain 26 1016 90 10000 0 0 08:35 19.09.2021
5685 Rain 26 1017 89 10000 0 0 06:42 19.09.2021
5686 Clouds 30 1015 74 10000 3.6 110 23:43 18.09.2021
5687 Clouds 30 1016 75 10000 3.6 100 22:24 18.09.2021
5688 Clouds 31 1016 71 10000 0.89 256 20:56 18.09.2021
5689 Clouds 32 1017 69 10000 2.57 250 20:36 18.09.2021
5690 Clouds 32 1018 71 10000 2.06 0 19:39 18.09.2021
5691 Clouds 32 1018 70 10000 2.06 0 19:20 18.09.2021
5692 Clouds 31 1019 71 10000 1.54 0 18:32 18.09.2021
5693 Clouds 31 1019 72 10000 2.06 320 17:34 18.09.2021
5694 Clouds 29 1019 80 10000 0 0 16:20 18.09.2021
5695 Clouds 24 1018 93 10000 0 0 13:49 18.09.2021
5696 Clouds 24 1018 94 10000 0 0 13:29 18.09.2021
5697 Clouds 24 1018 95 10000 0 0 12:49 18.09.2021
5698 Clouds 24 1017 97 10000 0 0 11:41 18.09.2021
5699 Clouds 24 1018 94 10000 0 0 10:32 18.09.2021
5700 Clouds 24 1018 93 10000 0 0 09:28 18.09.2021
5701 Clouds 24 1016 91 10000 2.27 301 08:57 18.09.2021
5702 Clouds 25 1019 61 10000 4.11 270 03:51 18.09.2021
5703 Clouds 28 1017 79 10000 3.9 183 00:41 18.09.2021
5704 Clouds 28 1017 80 10000 4.72 170 23:48 17.09.2021
5705 Thunderstorm 26 1018 84 4023 5.66 140 22:38 17.09.2021
5706 Thunderstorm 27 1018 81 4023 5.66 140 22:19 17.09.2021
5707 Thunderstorm 30 1018 75 10000 2.06 0 20:47 17.09.2021
5708 Clouds 32 1019 69 10000 3.09 260 19:22 17.09.2021
5709 Clouds 31 1019 70 10000 4.12 220 17:20 17.09.2021
5710 Clouds 30 1019 77 10000 2.06 160 16:24 17.09.2021
5711 Clouds 25 1018 91 10000 1.54 70 13:21 17.09.2021
5712 Clear 24 1017 88 10000 2.06 20 10:42 17.09.2021
5713 Clouds 25 1017 87 10000 0 0 08:45 17.09.2021
5714 Clear 26 1018 89 10000 0 0 06:50 17.09.2021
5715 Clouds 28 1015 76 10000 3.09 320 01:26 17.09.2021
5716 Clouds 28 1015 77 10000 4.63 280 23:23 16.09.2021
5717 Clouds 29 1014 80 10000 4.12 230 22:25 16.09.2021
5718 Clouds 29 1016 76 10000 5.14 170 21:41 16.09.2021
5719 Rain 30 1016 61 10000 6.17 220 21:20 16.09.2021
5720 Clouds 30 1015 77 10000 2.57 190 20:18 16.09.2021
5721 Clouds 30 1015 77 10000 2.57 190 20:18 16.09.2021
5722 Clouds 29 1016 78 10000 4.12 190 18:20 16.09.2021
5723 Clouds 29 1016 78 10000 3.6 160 17:32 16.09.2021
5724 Clouds 27 1015 93 10000 0.45 157 14:56 16.09.2021
5725 Clouds 25 1014 96 10000 1.9 185 13:56 16.09.2021
5726 Clouds 25 1013 93 10000 0 0 12:49 16.09.2021
5727 Clouds 25 1013 93 10000 0 0 12:28 16.09.2021
5728 Clouds 25 1013 90 10000 0 0 11:25 16.09.2021
5729 Clouds 25 1013 93 10000 0 0 10:33 16.09.2021
5730 Clouds 25 1013 90 10000 2.63 191 09:53 16.09.2021
5731 Clouds 25 1014 90 10000 0 0 08:42 16.09.2021
5732 Clouds 26 1015 89 10000 0 0 07:22 16.09.2021
5733 Clouds 26 1015 89 10000 0 0 06:43 16.09.2021
5734 Clouds 26 1014 90 10000 2.73 163 04:55 16.09.2021
5735 Clouds 27 1013 84 10000 2.57 160 01:40 16.09.2021
5736 Clouds 29 1012 70 10000 0 0 23:45 15.09.2021
5737 Clouds 29 1012 71 10000 0.89 231 22:47 15.09.2021
5738 Clouds 30 1013 69 10000 4.12 280 21:44 15.09.2021
5739 Thunderstorm 31 1013 67 10000 0.89 36 21:25 15.09.2021
5740 Thunderstorm 32 1013 67 10000 4.12 140 19:58 15.09.2021
5741 Clouds 32 1014 65 10000 2.57 120 19:21 15.09.2021
5742 Clouds 31 1013 71 10000 0.45 205 17:57 15.09.2021
5743 Clouds 30 1014 73 10000 0.45 90 16:55 15.09.2021
5744 Clouds 29 1014 82 10000 2.06 20 15:46 15.09.2021
5745 Clouds 27 1013 86 10000 0 0 14:45 15.09.2021
5746 Clouds 26 1013 84 10000 0 0 13:52 15.09.2021
5747 Clouds 25 1013 81 10000 0 0 13:30 15.09.2021
5748 Clouds 25 1013 84 10000 1.54 350 12:48 15.09.2021
5749 Clouds 25 1013 85 10000 0 0 11:52 15.09.2021
5750 Clouds 25 1013 85 10000 0 0 11:31 15.09.2021
5751 Clouds 25 1012 90 10000 3.16 104 10:55 15.09.2021
5752 Clouds 25 1014 85 10000 1.54 30 09:29 15.09.2021
5753 Clouds 26 1015 84 10000 0 0 07:48 15.09.2021
5754 Clouds 27 1016 81 10000 1.54 120 04:24 15.09.2021
5755 Clouds 30 1013 67 10000 5.14 110 23:45 14.09.2021
5756 Clouds 31 1014 66 10000 5.14 100 21:41 14.09.2021
5757 Clouds 31 1014 72 10000 5.14 120 20:39 14.09.2021
5758 Clouds 31 1015 73 10000 5.66 110 19:41 14.09.2021
5759 Clouds 31 1017 66 10000 4.63 100 17:40 14.09.2021
5760 Clouds 31 1017 66 10000 4.63 100 17:40 14.09.2021
5761 Clouds 31 1017 68 10000 0.45 108 16:58 14.09.2021
5762 Clouds 29 1017 82 10000 1.54 0 15:30 14.09.2021
5763 Clouds 27 1016 89 10000 1.54 360 14:31 14.09.2021
5764 Clouds 26 1015 88 10000 0 0 12:39 14.09.2021
5765 Clouds 26 1014 88 10000 4.35 96 10:54 14.09.2021
5766 Clouds 26 1016 88 10000 1.54 120 09:50 14.09.2021
5767 Clouds 26 1016 89 10000 0 0 08:39 14.09.2021
5768 Clouds 27 1017 89 10000 1.54 30 06:24 14.09.2021
5769 Rain 28 1016 90 10000 4.79 90 23:57 13.09.2021
5770 Clouds 28 1017 84 10000 2.06 0 22:46 13.09.2021
5771 Clouds 28 1017 83 10000 2.06 0 22:23 13.09.2021
5772 Thunderstorm 28 1018 83 10000 5.14 100 21:45 13.09.2021
5773 Thunderstorm 29 1018 78 10000 7.2 100 20:50 13.09.2021
5774 Clouds 31 1019 77 10000 3.09 60 18:46 13.09.2021
5775 Clouds 29 1020 83 10000 6.17 80 17:49 13.09.2021
5776 Rain 28 1020 83 10000 2.06 10 16:50 13.09.2021
5777 Clouds 27 1019 89 10000 2.57 40 15:22 13.09.2021
5778 Clouds 26 1018 89 10000 4.17 94 11:55 13.09.2021
5779 Clouds 27 1017 85 10000 4.39 92 10:58 13.09.2021
5780 Clouds 27 1019 84 10000 3.6 20 09:35 13.09.2021
5781 Clouds 28 1020 86 10000 0.45 358 04:57 13.09.2021
5782 Clouds 29 1019 78 10000 5.14 100 23:32 12.09.2021
5783 Clouds 31 1019 73 10000 5.66 70 22:25 12.09.2021
5784 Clouds 31 1019 76 10000 5.14 90 21:36 12.09.2021
5785 Clouds 32 1020 68 10000 6.17 100 20:28 12.09.2021
5786 Clouds 32 1020 65 10000 6.69 100 19:50 12.09.2021
5787 Clouds 32 1020 68 10000 6.69 100 19:19 12.09.2021
5788 Clouds 31 1021 68 10000 6.17 100 18:20 12.09.2021
5789 Clouds 31 1021 67 10000 5.66 80 16:31 12.09.2021
5790 Clouds 29 1020 83 10000 3.09 80 14:52 12.09.2021
5791 Clouds 28 1019 86 10000 2.57 40 12:48 12.09.2021
5792 Clouds 28 1019 85 10000 2.57 50 11:31 12.09.2021
5793 Clouds 28 1019 87 10000 0.45 145 08:59 12.09.2021
5794 Clouds 28 1019 83 10000 2.06 40 08:37 12.09.2021
5795 Clouds 29 1019 73 10000 4.63 80 01:49 12.09.2021
5796 Clouds 32 1018 64 10000 0.89 70 23:19 11.09.2021
5797 Clouds 32 1018 62 10000 1.79 56 21:41 11.09.2021
5798 Clouds 32 1019 63 10000 1.79 60 20:21 11.09.2021
5799 Clouds 32 1020 64 10000 1.79 75 18:35 11.09.2021
5800 Clouds 31 1020 65 10000 1.34 80 17:29 11.09.2021
5801 Clouds 29 1020 79 10000 2.06 40 15:43 11.09.2021
5802 Clouds 24 1018 89 10000 0 0 13:30 11.09.2021
5803 Clouds 25 1018 77 10000 0 0 12:30 11.09.2021
5804 Clouds 25 1017 83 10000 1.54 350 11:18 11.09.2021
5805 Clouds 25 1017 83 10000 0 0 09:31 11.09.2021
5806 Clouds 25 1018 86 10000 2.06 30 07:44 11.09.2021
5807 Clear 25 1018 86 10000 1.54 60 06:31 11.09.2021
5808 Clouds 32 1015 67 10000 1.79 175 22:48 10.09.2021
5809 Clouds 32 1015 67 10000 1.79 175 22:48 10.09.2021
5810 Clouds 32 1015 66 10000 1.79 196 22:22 10.09.2021
5811 Thunderstorm 32 1015 66 10000 1.79 210 21:46 10.09.2021
5812 Clouds 33 1016 64 10000 1.79 114 19:41 10.09.2021
5813 Clouds 32 1017 63 10000 3.09 120 18:20 10.09.2021
5814 Clouds 31 1017 71 10000 0.45 77 16:34 10.09.2021
5815 Clouds 25 1017 72 10000 1.93 309 13:54 10.09.2021
5816 Clear 25 1015 72 10000 0 0 11:46 10.09.2021
5817 Clear 26 1015 78 10000 0 0 08:29 10.09.2021
5818 Clouds 26 1015 78 10000 0 0 07:45 10.09.2021
5819 Clouds 31 1013 64 10000 4.12 240 00:42 10.09.2021
5820 Clouds 32 1013 68 10000 2.57 20 22:18 09.09.2021
5821 Rain 32 1014 64 10000 5.14 150 21:28 09.09.2021
5822 Rain 33 1015 62 10000 2.24 129 20:41 09.09.2021
5823 Clear 33 1015 62 10000 2.24 147 18:55 09.09.2021
5824 Clear 32 1015 63 10000 1.34 126 17:54 09.09.2021
5825 Clouds 31 1016 76 10000 0.89 0 16:40 09.09.2021
5826 Clouds 28 1015 90 10000 0.45 219 15:26 09.09.2021
5827 Clear 25 1014 81 10000 0 0 12:34 09.09.2021
5828 Clear 25 1014 78 10000 0 0 11:33 09.09.2021
5829 Clouds 26 1014 83 10000 0 0 09:39 09.09.2021
5830 Clouds 26 1014 87 10000 1.54 210 08:32 09.09.2021
5831 Clouds 26 1016 77 10000 0 0 06:24 09.09.2021
5832 Clouds 27 1014 87 10000 0 0 01:31 09.09.2021
5833 Clouds 27 1014 87 10000 0 0 01:31 09.09.2021
5834 Clouds 27 1014 87 10000 0 0 01:31 09.09.2021
5835 Clouds 27 1014 87 10000 0 0 01:31 09.09.2021
5836 Thunderstorm 30 1014 76 10000 1.34 159 21:50 08.09.2021
5837 Clouds 31 1014 74 10000 0.89 110 20:57 08.09.2021
5838 Thunderstorm 31 1015 67 10000 0.89 192 19:48 08.09.2021
5839 Thunderstorm 32 1016 69 10000 2.24 232 18:49 08.09.2021
5840 Clouds 32 1016 66 10000 1.79 146 18:27 08.09.2021
5841 Clouds 32 1016 66 10000 1.79 137 17:52 08.09.2021
5842 Clear 31 1016 73 10000 0.89 0 16:24 08.09.2021
5843 Clouds 25 1015 84 10000 0 0 13:46 08.09.2021
5844 Clouds 25 1015 83 10000 0 0 12:42 08.09.2021
5845 Clouds 25 1015 85 10000 0 0 12:23 08.09.2021
5846 Clear 25 1015 83 10000 0 0 11:26 08.09.2021
5847 Clouds 25 1014 88 10000 0 0 10:31 08.09.2021
5848 Clouds 25 1015 86 10000 0.95 201 09:57 08.09.2021
5849 Clouds 25 1016 88 10000 0 0 07:47 08.09.2021
5850 Clouds 25 1016 89 10000 0 0 07:29 08.09.2021
5851 Clouds 29 1015 69 10000 0.89 133 23:41 07.09.2021
5852 Clouds 29 1015 69 10000 0.89 133 23:41 07.09.2021
5853 Thunderstorm 30 1014 68 10000 1.34 126 22:19 07.09.2021
5854 Clouds 32 1015 66 10000 2.24 131 20:50 07.09.2021
5855 Clouds 33 1015 62 10000 1.34 109 19:40 07.09.2021
5856 Clouds 32 1016 62 10000 2.24 143 18:37 07.09.2021
5857 Clouds 31 1016 64 10000 1.34 0 17:40 07.09.2021
5858 Clouds 30 1016 77 10000 0.91 205 15:57 07.09.2021
5859 Clouds 27 1015 86 10000 0.92 239 14:54 07.09.2021
5860 Clouds 25 1015 97 10000 0 0 13:52 07.09.2021
5861 Clouds 25 1015 92 10000 0 0 12:23 07.09.2021
5862 Clouds 25 1013 86 10000 1.59 221 10:59 07.09.2021
5863 Clear 25 1014 89 10000 0 0 10:37 07.09.2021
5864 Clouds 26 1016 86 10000 0 0 07:51 07.09.2021
5865 Clouds 26 1016 87 10000 0 0 06:42 07.09.2021
5866 Clouds 28 1015 84 10000 2.06 170 02:43 07.09.2021
5867 Clouds 28 1015 65 10000 0.89 232 02:23 07.09.2021
5868 Thunderstorm 29 1014 75 10000 0.45 266 00:21 07.09.2021
5869 Thunderstorm 30 1014 71 10000 2.68 136 23:31 06.09.2021
5870 Thunderstorm 31 1013 69 10000 2.24 124 22:53 06.09.2021
5871 Clouds 32 1014 66 10000 2.24 133 22:25 06.09.2021
5872 Clouds 33 1015 64 10000 1.34 111 20:37 06.09.2021
5873 Clouds 33 1016 60 10000 1.79 148 19:22 06.09.2021
5874 Clouds 33 1017 59 10000 0.45 222 18:36 06.09.2021
5875 Clouds 32 1017 64 10000 0.89 0 17:54 06.09.2021
5876 Clouds 30 1017 75 10000 0.89 302 16:35 06.09.2021
5877 Clouds 28 1017 82 10000 0.45 304 15:34 06.09.2021
5878 Clouds 25 1016 72 10000 0 0 13:45 06.09.2021
5879 Clouds 24 1015 89 10000 0 0 12:45 06.09.2021
5880 Clouds 25 1014 87 10000 0 0 10:40 06.09.2021
5881 Clouds 25 1016 69 10000 2.26 250 07:54 06.09.2021
5882 Clouds 25 1016 87 10000 0 0 04:38 06.09.2021
5883 Thunderstorm 27 1015 84 10000 2.06 0 23:24 05.09.2021
5884 Thunderstorm 28 1014 80 10000 3.09 130 22:34 05.09.2021
5885 Thunderstorm 30 1014 70 10000 1.54 0 21:56 05.09.2021
5886 Clouds 31 1014 68 10000 2.24 147 21:21 05.09.2021
5887 Clouds 33 1015 62 10000 1.79 116 19:48 05.09.2021
5888 Clouds 32 1016 62 10000 0.89 199 18:32 05.09.2021
5889 Clouds 31 1016 72 10000 0.45 262 16:53 05.09.2021
5890 Clouds 28 1015 85 10000 0 0 15:24 05.09.2021
5891 Clouds 25 1013 91 10000 0 0 12:45 05.09.2021
5892 Clouds 25 1013 92 10000 0 0 11:45 05.09.2021
5893 Clouds 25 1013 89 10000 0 0 10:46 05.09.2021
5894 Clouds 25 1014 88 10000 1.54 0 09:42 05.09.2021
5895 Clouds 25 1015 88 10000 0 0 08:37 05.09.2021
5896 Clouds 26 1016 86 10000 0 0 06:45 05.09.2021
5897 Clouds 29 1013 78 10000 2.06 210 00:42 05.09.2021
5898 Clouds 29 1012 79 10000 4.06 249 23:59 04.09.2021
5899 Clouds 28 1013 81 10000 2.06 150 23:26 04.09.2021
5900 Rain 27 1014 84 10000 1.54 140 22:35 04.09.2021
5901 Rain 27 1014 89 4828 5.14 180 21:44 04.09.2021
5902 Haze 32 1014 67 10000 1.79 134 19:40 04.09.2021
5903 Haze 31 1015 69 10000 0.45 296 17:43 04.09.2021
5904 Haze 28 1015 82 10000 0.45 300 15:52 04.09.2021
5905 Clouds 24 1013 69 10000 3.2 263 11:54 04.09.2021
5906 Clouds 24 1012 68 10000 3.44 255 10:55 04.09.2021
5907 Clouds 24 1015 94 10000 0 0 08:46 04.09.2021
5908 Clouds 28 1013 56 10000 6.06 279 01:59 04.09.2021
5909 Clouds 29 1014 71 10000 0 0 00:23 04.09.2021
5910 Clouds 28 1014 76 10000 2.06 230 23:23 03.09.2021
5911 Rain 28 1015 78 10000 5.14 220 21:43 03.09.2021
5912 Rain 28 1016 74 10000 4.63 210 21:24 03.09.2021
5913 Thunderstorm 27 1016 82 6437 3.09 190 20:34 03.09.2021
5914 Thunderstorm 28 1016 78 10000 2.57 280 19:44 03.09.2021
5915 Rain 26 1017 86 10000 0 0 18:37 03.09.2021
5916 Rain 27 1016 81 4828 0 0 17:32 03.09.2021
5917 Clouds 28 1016 81 10000 0.89 0 15:46 03.09.2021
5918 Clouds 26 1015 81 10000 0.45 229 14:47 03.09.2021
5919 Clouds 24 1014 94 10000 0 0 11:22 03.09.2021
5920 Clouds 24 1014 89 10000 0 0 10:21 03.09.2021
5921 Clouds 24 1015 91 10000 0 0 08:22 03.09.2021
5922 Clouds 24 1016 94 10000 1.54 210 06:51 03.09.2021
5923 Thunderstorm 26 1015 83 10000 6.17 220 23:59 02.09.2021
5924 Thunderstorm 26 1015 82 10000 4.12 160 22:22 02.09.2021
5925 Thunderstorm 28 1015 72 3219 3.6 110 20:59 02.09.2021
5926 Clouds 32 1015 69 10000 1.34 138 18:57 02.09.2021
5927 Clouds 31 1015 70 10000 0.89 229 16:57 02.09.2021
5928 Clouds 28 1015 75 10000 1.54 260 15:43 02.09.2021
5929 Clear 25 1015 62 10000 0 0 13:43 02.09.2021
5930 Clouds 25 1013 71 10000 0 0 11:46 02.09.2021
5931 Clouds 25 1013 66 10000 0 0 11:27 02.09.2021
5932 Clouds 26 1014 71 10000 0 0 09:21 02.09.2021
5933 Clear 26 1014 83 10000 0 0 07:40 02.09.2021
5934 Clouds 27 1014 80 10000 2.57 320 06:47 02.09.2021
5935 Thunderstorm 27 1013 76 10000 3.09 130 02:38 02.09.2021
5936 Thunderstorm 27 1013 79 10000 3.6 90 01:53 02.09.2021
5937 Thunderstorm 29 1012 73 10000 6.17 180 00:24 02.09.2021
5938 Thunderstorm 31 1013 69 10000 3.09 170 23:28 01.09.2021
5939 Thunderstorm 33 1013 64 10000 0.89 0 22:31 01.09.2021
5940 Clouds 33 1013 65 10000 1.79 102 21:33 01.09.2021
5941 Clouds 33 1014 65 10000 2.24 0 19:38 01.09.2021
5942 Clear 32 1014 66 10000 0.89 159 17:58 01.09.2021
5943 Clouds 31 1015 68 10000 0.45 287 17:18 01.09.2021
5944 Clouds 31 1014 73 10000 0.89 272 16:46 01.09.2021
5945 Clouds 28 1014 84 10000 0.89 305 15:18 01.09.2021
5946 Clear 25 1013 76 10000 0 0 11:48 01.09.2021
5947 Clear 25 1012 80 10000 1.54 240 10:39 01.09.2021
5948 Clouds 25 1013 80 10000 0 0 08:46 01.09.2021
5949 Clouds 26 1014 78 10000 1.54 180 07:50 01.09.2021
5950 Rain 29 1012 72 10000 0.45 92 23:33 31.08.2021
5951 Clouds 31 1013 66 10000 1.79 225 22:24 31.08.2021
5952 Thunderstorm 33 1013 65 10000 1.79 117 20:34 31.08.2021
5953 Clouds 32 1014 66 10000 2.68 136 19:43 31.08.2021
5954 Clouds 32 1014 66 10000 1.79 111 17:53 31.08.2021
5955 Clouds 32 1015 64 10000 1.34 139 17:26 31.08.2021
5956 Clouds 31 1015 69 10000 1.79 132 16:41 31.08.2021
5957 Clouds 29 1014 75 10000 0.45 265 15:39 31.08.2021
5958 Clouds 25 1013 69 10000 1.57 163 12:54 31.08.2021
5959 Clouds 25 1014 79 10000 0 0 11:20 31.08.2021
5960 Clouds 25 1014 77 10000 0 0 10:43 31.08.2021
5961 Clouds 25 1014 78 10000 0.45 269 09:42 31.08.2021
5962 Clouds 26 1014 72 10000 2.26 110 07:57 31.08.2021
5963 Clouds 26 1014 75 10000 2.64 100 05:57 31.08.2021
5964 Thunderstorm 31 1013 70 10000 2.24 140 23:36 30.08.2021
5965 Thunderstorm 31 1013 69 10000 1.34 100 22:52 30.08.2021
5966 Clouds 31 1014 74 10000 1.79 88 21:38 30.08.2021
5967 Thunderstorm 32 1015 69 10000 1.79 129 20:41 30.08.2021
5968 Clouds 32 1015 68 10000 2.24 130 19:54 30.08.2021
5969 Clouds 32 1015 68 10000 2.24 130 19:54 30.08.2021
5970 Thunderstorm 32 1016 69 10000 1.79 109 19:24 30.08.2021
5971 Clouds 32 1017 69 10000 1.79 136 17:51 30.08.2021
5972 Clouds 31 1017 72 10000 0.89 115 16:29 30.08.2021
5973 Clouds 30 1017 73 10000 0.89 77 15:45 30.08.2021
5974 Clouds 28 1016 83 10000 0 0 14:24 30.08.2021
5975 Clouds 27 1016 84 10000 0 0 13:21 30.08.2021
5976 Clouds 27 1016 82 10000 2.06 90 11:29 30.08.2021
5977 Clouds 28 1018 79 10000 0.45 65 04:57 30.08.2021
5978 Clouds 32 1017 69 10000 1.34 0 21:58 29.08.2021
5979 Clouds 32 1017 69 10000 1.34 105 20:54 29.08.2021
5980 Clouds 32 1019 68 10000 1.34 69 19:28 29.08.2021
5981 Clouds 32 1019 69 10000 1.34 103 18:28 29.08.2021
5982 Clouds 30 1019 75 10000 1.34 129 15:58 29.08.2021
5983 Clouds 28 1019 81 10000 1.34 40 14:29 29.08.2021
5984 Clouds 28 1019 84 10000 0.89 104 13:55 29.08.2021
5985 Clouds 28 1018 82 10000 0.89 73 12:58 29.08.2021
5986 Clouds 28 1018 81 10000 0.45 81 12:18 29.08.2021
5987 Clouds 28 1017 80 10000 0.89 73 11:40 29.08.2021
5988 Clouds 28 1017 80 10000 0.89 82 10:47 29.08.2021
5989 Clouds 28 1017 80 10000 1.34 63 10:28 29.08.2021
5990 Clouds 28 1017 79 10000 0.89 56 09:32 29.08.2021
5991 Clouds 29 1018 79 10000 0.45 91 04:19 29.08.2021
5992 Clouds 31 1017 73 10000 1.79 105 22:57 28.08.2021
5993 Clouds 32 1018 68 10000 2.68 123 20:31 28.08.2021
5994 Clouds 32 1018 70 10000 2.24 127 19:20 28.08.2021
5995 Clouds 32 1018 71 10000 1.79 100 18:22 28.08.2021
5996 Clouds 31 1018 71 10000 2.24 94 17:45 28.08.2021
5997 Clouds 31 1017 72 10000 2.24 113 16:32 28.08.2021
5998 Clouds 29 1017 77 10000 1.79 105 14:52 28.08.2021
5999 Clouds 28 1016 78 10000 1.79 86 13:58 28.08.2021
6000 Clouds 28 1016 79 10000 1.79 94 13:39 28.08.2021
6001 Clouds 28 1015 79 10000 2.24 91 12:30 28.08.2021
6002 Clouds 29 1015 78 10000 1.34 54 10:46 28.08.2021
6003 Clouds 29 1015 77 10000 0.89 96 09:34 28.08.2021
6004 Clouds 29 1016 78 10000 0.89 87 07:34 28.08.2021
6005 Clouds 31 1014 71 10000 2.24 119 23:45 27.08.2021
6006 Clouds 32 1015 67 10000 1.79 79 21:26 27.08.2021
6007 Clouds 32 1015 67 10000 2.68 110 20:36 27.08.2021
6008 Clouds 32 1015 69 10000 0.89 72 19:32 27.08.2021
6009 Clouds 32 1016 68 10000 2.68 79 18:38 27.08.2021
6010 Clouds 31 1015 70 10000 2.24 73 17:45 27.08.2021
6011 Clouds 31 1015 71 10000 2.24 76 16:31 27.08.2021
6012 Clouds 29 1014 79 10000 1.79 78 14:44 27.08.2021
6013 Clouds 26 1014 90 10000 5.9 104 12:57 27.08.2021
6014 Clouds 27 1014 80 3219 0.89 46 11:43 27.08.2021
6015 Clouds 28 1014 78 10000 0.89 82 10:49 27.08.2021
6016 Clouds 28 1014 76 10000 0.89 50 09:58 27.08.2021
6017 Clouds 29 1014 79 10000 1.34 89 08:56 27.08.2021
6018 Clouds 28 1014 78 10000 0.89 0 08:35 27.08.2021
6019 Clouds 29 1015 77 10000 1.34 53 05:35 27.08.2021
6020 Clouds 30 1014 74 10000 1.34 96 00:40 27.08.2021
6021 Clouds 30 1014 73 10000 0.89 89 00:18 27.08.2021
6022 Clouds 32 1014 69 10000 1.79 75 22:25 26.08.2021
6023 Clouds 32 1015 68 10000 3.13 117 21:36 26.08.2021
6024 Clouds 32 1016 71 10000 1.34 78 19:30 26.08.2021
6025 Clouds 30 1016 78 10000 1.34 0 17:52 26.08.2021
6026 Clouds 29 1016 80 10000 0.45 23 17:25 26.08.2021
6027 Clouds 28 1016 79 10000 0.89 334 16:26 26.08.2021
6028 Thunderstorm 24 1015 94 10000 0 0 14:21 26.08.2021
6029 Mist 26 1015 88 10000 1.54 180 13:20 26.08.2021
6030 Clouds 27 1015 79 10000 0.45 173 12:33 26.08.2021
6031 Clouds 28 1014 81 10000 1.34 152 11:37 26.08.2021
6032 Clouds 27 1014 82 10000 0.45 28 08:36 26.08.2021
6033 Clouds 27 1014 81 10000 0.89 55 07:54 26.08.2021
6034 Clouds 30 1014 65 10000 3.58 37 23:25 25.08.2021
6035 Clouds 31 1015 62 10000 2.68 72 22:37 25.08.2021
6036 Clouds 31 1015 60 10000 3.58 50 22:19 25.08.2021
6037 Clouds 31 1016 63 10000 3.13 64 20:57 25.08.2021
6038 Clouds 31 1016 62 10000 3.13 55 20:29 25.08.2021
6039 Clouds 31 1017 60 10000 2.68 68 18:46 25.08.2021
6040 Clear 29 1018 71 10000 2.68 57 17:53 25.08.2021
6041 Clouds 30 1017 71 10000 1.34 57 15:51 25.08.2021
6042 Clouds 29 1017 71 10000 0.89 64 15:26 25.08.2021
6043 Clouds 28 1017 72 10000 1.54 100 14:45 25.08.2021
6044 Clouds 26 1016 75 10000 6.69 150 13:44 25.08.2021
6045 Clouds 28 1016 78 10000 0.45 29 11:36 25.08.2021
6046 Clouds 28 1016 79 10000 0.89 40 10:56 25.08.2021
6047 Clouds 28 1016 80 10000 1.34 64 09:59 25.08.2021
6048 Clouds 28 1016 79 10000 1.34 51 09:30 25.08.2021
6049 Clouds 28 1016 79 10000 0.45 0 08:33 25.08.2021
6050 Clouds 28 1017 78 10000 0.45 73 06:19 25.08.2021
6051 Clouds 31 1015 69 10000 0.89 107 00:56 25.08.2021
6052 Clouds 32 1016 68 10000 2.24 141 22:52 24.08.2021
6053 Clouds 33 1017 66 10000 0.89 121 20:54 24.08.2021
6054 Clouds 32 1018 67 10000 2.24 0 19:54 24.08.2021
6055 Clouds 32 1018 68 10000 1.79 99 18:54 24.08.2021
6056 Clouds 32 1018 66 10000 1.79 100 17:52 24.08.2021
6057 Clouds 32 1018 68 10000 1.79 77 17:21 24.08.2021
6058 Clouds 30 1016 74 10000 0.45 0 14:56 24.08.2021
6059 Clouds 29 1015 77 10000 0.89 109 13:38 24.08.2021
6060 Clouds 29 1015 77 10000 0.89 110 12:41 24.08.2021
6061 Clouds 29 1015 76 10000 1.34 101 11:19 24.08.2021
6062 Clouds 29 1015 76 10000 1.79 124 10:46 24.08.2021
6063 Clouds 29 1015 76 10000 2.24 97 09:24 24.08.2021
6064 Clouds 29 1016 78 10000 1.34 75 07:35 24.08.2021
6065 Clouds 29 1016 77 10000 1.34 48 05:37 24.08.2021
6066 Clouds 30 1016 74 10000 0.89 86 02:40 24.08.2021
6067 Clouds 32 1015 69 10000 1.79 140 23:31 23.08.2021
6068 Clouds 33 1015 68 10000 2.24 124 22:43 23.08.2021
6069 Clouds 33 1016 67 10000 1.79 121 20:59 23.08.2021
6070 Clouds 33 1017 66 10000 1.34 96 19:30 23.08.2021
6071 Clouds 33 1017 66 10000 1.34 96 19:30 23.08.2021
6072 Clouds 32 1017 69 10000 2.24 140 17:23 23.08.2021
6073 Clouds 31 1017 75 10000 1.34 110 15:32 23.08.2021
6074 Clouds 28 1016 83 10000 0 0 13:47 23.08.2021
6075 Clouds 28 1016 82 10000 1.34 134 12:30 23.08.2021
6076 Clouds 28 1015 82 10000 1.34 122 10:46 23.08.2021
6077 Clouds 28 1015 82 10000 1.54 40 09:52 23.08.2021
6078 Clouds 28 1016 82 10000 1.54 80 08:34 23.08.2021
6079 Clouds 29 1016 81 10000 0.45 102 06:57 23.08.2021
6080 Clouds 29 1016 80 10000 0.89 110 06:38 23.08.2021
6081 Clouds 31 1015 74 10000 1.34 107 00:59 23.08.2021
6082 Clouds 32 1015 71 10000 2.24 136 23:38 22.08.2021
6083 Clouds 33 1015 70 10000 2.24 126 22:40 22.08.2021
6084 Clouds 33 1016 67 10000 2.68 177 20:46 22.08.2021
6085 Clouds 33 1017 67 10000 2.68 198 20:18 22.08.2021
6086 Clouds 33 1018 70 10000 1.79 117 17:41 22.08.2021
6087 Clouds 31 1017 73 10000 1.34 152 15:48 22.08.2021
6088 Clouds 30 1017 78 10000 0.89 71 14:53 22.08.2021
6089 Clouds 28 1016 83 10000 0 0 13:38 22.08.2021
6090 Clouds 28 1016 82 10000 0 0 13:19 22.08.2021
6091 Clouds 28 1016 83 10000 0 0 12:29 22.08.2021
6092 Clouds 28 1015 84 10000 2.06 150 11:43 22.08.2021
6093 Clouds 28 1015 82 10000 0.45 0 10:53 22.08.2021
6094 Clouds 28 1015 79 10000 0.45 66 08:41 22.08.2021
6095 Clouds 29 1017 79 10000 0.89 66 04:59 22.08.2021
6096 Clouds 31 1014 69 10000 0.89 148 00:32 22.08.2021
6097 Clouds 33 1014 64 10000 2.68 129 22:36 21.08.2021
6098 Clouds 33 1015 64 10000 2.24 136 21:34 21.08.2021
6099 Clouds 33 1016 65 10000 2.24 99 18:46 21.08.2021
6100 Clouds 33 1016 65 10000 2.68 195 18:21 21.08.2021
6101 Clouds 32 1016 68 10000 1.34 135 16:58 21.08.2021
6102 Clouds 31 1015 68 10000 1.79 116 16:29 21.08.2021
6103 Clouds 30 1015 71 10000 1.79 0 15:38 21.08.2021
6104 Clouds 30 1015 71 10000 1.79 0 15:38 21.08.2021
6105 Clouds 30 1015 72 10000 1.34 126 15:20 21.08.2021
6106 Clouds 27 1015 76 10000 0 0 13:35 21.08.2021
6107 Clouds 26 1014 74 10000 1.54 150 12:39 21.08.2021
6108 Clouds 27 1014 77 10000 1.54 250 09:32 21.08.2021
6109 Clouds 27 1014 77 10000 1.54 210 07:50 21.08.2021
6110 Clouds 27 1014 77 10000 1.54 210 07:50 21.08.2021
6111 Clouds 32 1013 65 10000 1.34 147 23:50 20.08.2021
6112 Clouds 33 1013 63 10000 1.34 0 21:54 20.08.2021
6113 Clouds 33 1015 65 10000 1.79 108 18:43 20.08.2021
6114 Clouds 31 1016 70 10000 1.34 0 16:29 20.08.2021
6115 Clouds 26 1015 79 10000 0 0 13:54 20.08.2021
6116 Clouds 26 1015 70 10000 1.23 146 11:54 20.08.2021
6117 Clouds 26 1015 75 10000 0 0 11:26 20.08.2021
6118 Clouds 26 1016 74 10000 0 0 09:45 20.08.2021
6119 Clouds 27 1015 77 10000 2.03 91 08:54 20.08.2021
6120 Clouds 27 1016 72 10000 1.54 360 08:35 20.08.2021
6121 Clouds 28 1017 78 10000 0.45 0 04:36 20.08.2021
6122 Clouds 28 1017 78 10000 0.45 31 04:18 20.08.2021
6123 Clouds 32 1016 67 10000 2.24 82 23:26 19.08.2021
6124 Clouds 32 1017 67 10000 1.79 72 22:36 19.08.2021
6125 Clouds 33 1018 66 10000 1.79 71 21:33 19.08.2021
6126 Clouds 33 1018 67 10000 1.34 77 19:55 19.08.2021
6127 Rain 31 1019 73 10000 0.45 184 17:29 19.08.2021
6128 Clouds 31 1019 72 10000 1.34 60 16:34 19.08.2021
6129 Clouds 28 1019 82 10000 0.45 59 14:25 19.08.2021
6130 Clouds 27 1018 79 10000 2.06 80 12:40 19.08.2021
6131 Clouds 27 1018 79 10000 2.06 80 12:18 19.08.2021
6132 Clouds 27 1018 82 10000 0.45 49 10:42 19.08.2021
6133 Clouds 28 1019 80 10000 0.89 61 09:48 19.08.2021
6134 Clouds 28 1019 81 10000 0.89 62 09:24 19.08.2021
6135 Clouds 28 1018 85 10000 2.57 100 08:24 19.08.2021
6136 Clear 29 1019 77 10000 1.34 88 02:53 19.08.2021
6137 Clouds 30 1019 75 10000 0.89 91 01:58 19.08.2021
6138 Clouds 32 1019 68 10000 2.68 69 23:21 18.08.2021
6139 Clouds 33 1020 67 10000 2.24 88 21:44 18.08.2021
6140 Clouds 33 1020 68 10000 2.24 82 20:39 18.08.2021
6141 Clouds 33 1020 68 10000 1.34 105 20:18 18.08.2021
6142 Clouds 33 1020 68 10000 1.34 105 20:18 18.08.2021
6143 Clouds 32 1021 70 10000 2.24 84 18:57 18.08.2021
6144 Clouds 32 1021 70 10000 2.24 49 18:33 18.08.2021
6145 Clouds 32 1020 73 10000 1.79 83 16:41 18.08.2021
6146 Clouds 31 1019 75 10000 2.24 83 15:40 18.08.2021
6147 Clouds 30 1019 75 10000 2.24 69 15:21 18.08.2021
6148 Clouds 29 1017 80 10000 1.79 83 12:44 18.08.2021
6149 Clouds 29 1017 79 10000 0.89 96 12:26 18.08.2021
6150 Clouds 29 1017 80 10000 1.79 115 11:22 18.08.2021
6151 Clouds 29 1017 79 10000 0.89 105 07:53 18.08.2021
6152 Clouds 30 1017 76 10000 1.79 75 00:59 18.08.2021
6153 Clouds 32 1016 72 10000 1.79 89 22:38 17.08.2021
6154 Clouds 32 1016 72 10000 2.24 65 21:46 17.08.2021
6155 Clouds 32 1017 71 10000 1.79 30 20:47 17.08.2021
6156 Clouds 32 1018 72 10000 1.79 85 19:20 17.08.2021
6157 Clouds 32 1017 72 10000 1.79 70 17:33 17.08.2021
6158 Clouds 31 1017 73 10000 1.34 57 16:50 17.08.2021
6159 Clear 31 1017 75 10000 0.89 96 15:41 17.08.2021
6160 Clouds 29 1016 81 10000 0.45 75 14:47 17.08.2021
6161 Clouds 27 1015 85 10000 0.89 111 12:37 17.08.2021
6162 Clouds 27 1015 83 10000 1.54 0 09:27 17.08.2021
6163 Clouds 28 1015 82 10000 0.45 120 08:36 17.08.2021
6164 Clouds 28 1015 80 10000 0.45 89 06:41 17.08.2021
6165 Clouds 30 1014 72 10000 2.24 123 23:24 16.08.2021
6166 Clouds 31 1014 71 10000 1.79 129 22:52 16.08.2021
6167 Clouds 31 1014 70 10000 2.24 127 22:34 16.08.2021
6168 Clouds 32 1014 67 10000 2.68 120 21:37 16.08.2021
6169 Clouds 33 1014 67 10000 2.68 96 20:50 16.08.2021
6170 Clouds 32 1015 69 10000 2.68 133 19:27 16.08.2021
6171 Clouds 32 1015 69 10000 1.79 132 18:25 16.08.2021
6172 Clouds 32 1015 69 10000 1.79 150 17:52 16.08.2021
6173 Clouds 31 1015 73 10000 1.79 147 16:25 16.08.2021
6174 Clouds 29 1015 80 10000 1.34 154 15:18 16.08.2021
6175 Clouds 26 1014 88 10000 0 0 13:41 16.08.2021
6176 Clouds 26 1014 86 10000 0.45 124 12:59 16.08.2021
6177 Clouds 26 1013 91 10000 0 0 11:31 16.08.2021
6178 Clouds 27 1013 83 10000 0 0 09:22 16.08.2021
6179 Clouds 27 1014 82 10000 2.06 120 08:41 16.08.2021
6180 Clouds 28 1014 80 10000 0.89 88 07:29 16.08.2021
6181 Clouds 28 1015 80 10000 1.79 83 05:54 16.08.2021
6182 Clouds 29 1015 80 10000 0.89 76 23:54 15.08.2021
6183 Clouds 30 1015 75 10000 1.34 95 21:21 15.08.2021
6184 Clouds 30 1017 74 10000 1.79 77 19:25 15.08.2021
6185 Clouds 29 1017 73 10000 1.34 99 18:38 15.08.2021
6186 Rain 29 1017 75 10000 1.79 84 17:42 15.08.2021
6187 Clouds 28 1017 81 10000 0.89 87 16:30 15.08.2021
6188 Clouds 28 1017 82 10000 1.79 25 15:34 15.08.2021
6189 Clouds 28 1016 80 10000 2.24 178 14:32 15.08.2021
6190 Clouds 27 1015 83 10000 0.45 0 12:39 15.08.2021
6191 Clouds 26 1015 72 10000 1.79 184 09:56 15.08.2021
6192 Clouds 26 1018 83 10000 3.09 110 06:31 15.08.2021
6193 Clouds 29 1016 77 10000 1.34 74 01:21 15.08.2021
6194 Clouds 29 1016 76 10000 0.89 66 00:28 15.08.2021
6195 Clouds 29 1017 77 10000 0.89 92 21:21 14.08.2021
6196 Clouds 28 1018 77 10000 3.13 134 19:45 14.08.2021
6197 Clouds 28 1018 78 10000 4.02 127 19:25 14.08.2021
6198 Clouds 30 1018 72 10000 2.24 107 17:32 14.08.2021
6199 Clouds 30 1018 72 10000 2.68 99 16:35 14.08.2021
6200 Clouds 29 1018 74 10000 1.79 112 15:33 14.08.2021
6201 Clouds 28 1017 76 10000 2.24 105 12:49 14.08.2021
6202 Clouds 28 1016 78 10000 2.24 71 10:55 14.08.2021
6203 Clouds 28 1017 79 10000 1.34 71 08:28 14.08.2021
6204 Clouds 31 1016 74 10000 1.79 61 23:56 13.08.2021
6205 Clouds 31 1016 72 10000 2.24 73 23:38 13.08.2021
6206 Clouds 31 1016 74 10000 1.34 96 21:47 13.08.2021
6207 Thunderstorm 30 1018 75 10000 0.89 62 19:29 13.08.2021
6208 Thunderstorm 30 1019 80 10000 5.66 70 18:35 13.08.2021
6209 Clouds 29 1018 77 10000 1.34 48 16:51 13.08.2021
6210 Clouds 29 1018 81 10000 0.89 56 15:41 13.08.2021
6211 Clouds 26 1016 95 10000 1.54 350 11:21 13.08.2021
6212 Clouds 26 1016 92 10000 1.54 0 10:39 13.08.2021
6213 Rain 26 1018 92 9656 0 0 08:39 13.08.2021
6214 Mist 26 1018 91 8047 0 0 07:48 13.08.2021
6215 Rain 27 1018 83 10000 2.57 120 05:36 13.08.2021
6216 Clouds 29 1017 65 10000 5.14 90 23:59 12.08.2021
6217 Clouds 32 1017 68 10000 2.68 0 21:43 12.08.2021
6218 Clouds 32 1019 71 10000 1.79 63 20:26 12.08.2021
6219 Clouds 32 1018 66 10000 2.24 64 19:49 12.08.2021
6220 Clouds 32 1019 67 10000 2.24 71 17:56 12.08.2021
6221 Clouds 31 1019 70 10000 2.24 74 16:50 12.08.2021
6222 Clouds 30 1018 73 10000 0.45 27 15:35 12.08.2021
6223 Clouds 28 1018 78 10000 1.34 70 13:46 12.08.2021
6224 Clouds 28 1017 79 10000 0.89 56 11:34 12.08.2021
6225 Clouds 28 1018 79 10000 1.34 46 08:53 12.08.2021
6226 Clouds 28 1019 79 10000 0.89 53 07:18 12.08.2021
6227 Clouds 31 1018 68 10000 1.79 58 23:21 11.08.2021
6228 Clouds 32 1019 67 10000 1.34 29 21:37 11.08.2021
6229 Clear 32 1020 68 10000 1.79 107 18:53 11.08.2021
6230 Clouds 32 1020 66 10000 1.79 60 18:24 11.08.2021
6231 Clouds 30 1019 72 10000 1.79 59 15:21 11.08.2021
6232 Clouds 29 1019 77 10000 1.79 87 14:37 11.08.2021
6233 Clouds 28 1018 80 10000 1.79 70 12:47 11.08.2021
6234 Clouds 28 1018 79 10000 0.89 64 12:29 11.08.2021
6235 Clouds 28 1018 80 10000 0.45 54 11:40 11.08.2021
6236 Clouds 28 1018 80 10000 1.34 51 11:18 11.08.2021
6237 Clear 28 1019 78 10000 0.45 19 08:53 11.08.2021
6238 Clouds 29 1020 75 10000 1.34 68 03:29 11.08.2021
6239 Clouds 32 1020 65 10000 1.79 107 22:33 10.08.2021
6240 Clouds 33 1020 66 10000 1.79 79 21:44 10.08.2021
6241 Clouds 32 1020 66 10000 1.79 85 20:51 10.08.2021
6242 Clouds 33 1021 66 10000 1.79 73 19:25 10.08.2021
6243 Clouds 31 1021 70 10000 0.89 106 17:30 10.08.2021
6244 Clouds 29 1021 77 10000 0.89 72 15:22 10.08.2021
6245 Thunderstorm 28 1020 80 10000 0 0 14:39 10.08.2021
6246 Clouds 28 1019 77 10000 0.89 91 10:47 10.08.2021
6247 Clouds 28 1019 76 10000 0.89 92 09:26 10.08.2021
6248 Clouds 29 1021 77 10000 0.89 69 05:27 10.08.2021
6249 Clouds 31 1018 70 10000 1.34 74 00:38 10.08.2021
6250 Clouds 32 1018 68 10000 1.34 82 23:25 09.08.2021
6251 Clouds 32 1019 69 10000 2.24 54 21:53 09.08.2021
6252 Clear 32 1019 70 10000 2.24 70 21:19 09.08.2021
6253 Clouds 32 1020 67 10000 1.34 107 18:47 09.08.2021
6254 Clouds 32 1020 66 10000 1.79 140 16:36 09.08.2021
6255 Clouds 30 1019 73 10000 1.34 119 14:37 09.08.2021
6256 Clouds 28 1019 78 10000 0.45 103 13:30 09.08.2021
6257 Clouds 28 1018 78 10000 0.89 80 11:48 09.08.2021
6258 Clouds 28 1018 78 10000 0.89 80 11:48 09.08.2021
6259 Clouds 28 1018 79 10000 0.89 0 09:41 09.08.2021
6260 Clouds 28 1018 79 10000 1.34 105 08:18 09.08.2021
6261 Clouds 32 1018 67 10000 2.24 85 21:32 08.08.2021
6262 Clouds 32 1018 70 10000 1.34 135 20:54 08.08.2021
6263 Thunderstorm 30 1020 74 10000 1.79 165 17:43 08.08.2021
6264 Clouds 30 1019 79 10000 0.89 104 16:38 08.08.2021
6265 Clouds 27 1018 88 10000 1.54 10 14:34 08.08.2021
6266 Clouds 27 1017 76 10000 0 0 12:47 08.08.2021
6267 Clouds 27 1017 83 10000 2.06 130 10:36 08.08.2021
6268 Clouds 27 1019 76 10000 0.45 59 06:42 08.08.2021
6269 Clouds 28 1019 79 10000 1.54 230 03:40 08.08.2021
6270 Thunderstorm 30 1018 70 10000 0.89 124 00:25 08.08.2021
6271 Thunderstorm 32 1018 68 10000 1.79 119 21:47 07.08.2021
6272 Thunderstorm 32 1018 68 10000 1.79 119 21:47 07.08.2021
6273 Thunderstorm 32 1018 68 10000 1.79 119 21:47 07.08.2021
6274 Thunderstorm 32 1018 67 10000 2.68 179 21:19 07.08.2021
6275 Clouds 32 1019 68 10000 2.68 137 18:22 07.08.2021
6276 Thunderstorm 31 1019 72 10000 2.68 143 16:52 07.08.2021
6277 Clear 30 1019 78 10000 2.24 124 15:36 07.08.2021
6278 Clear 27 1018 92 10000 0.45 75 13:53 07.08.2021
6279 Clouds 27 1018 81 10000 0 0 11:37 07.08.2021
6280 Clouds 27 1019 82 10000 1.54 30 07:52 07.08.2021
6281 Clouds 28 1020 80 10000 0 0 04:45 07.08.2021
6282 Clouds 32 1018 68 10000 6.26 140 22:51 06.08.2021
6283 Clouds 33 1019 67 10000 5.81 130 20:36 06.08.2021
6284 Clouds 33 1019 67 10000 5.81 130 20:36 06.08.2021
6285 Clouds 33 1019 69 10000 2.68 135 19:59 06.08.2021
6286 Clouds 33 1020 67 10000 5.81 110 19:37 06.08.2021
6287 Clouds 33 1020 67 10000 5.81 110 19:37 06.08.2021
6288 Clouds 32 1020 67 10000 3.58 120 17:44 06.08.2021
6289 Clouds 27 1018 83 10000 2.24 110 12:25 06.08.2021
6290 Clouds 27 1018 80 10000 0.45 108 09:57 06.08.2021
6291 Clouds 28 1019 81 10000 3.6 110 08:23 06.08.2021
6292 Clouds 31 1018 69 10000 2.68 350 23:36 05.08.2021
6293 Clouds 32 1018 66 10000 1.79 268 22:33 05.08.2021
6294 Clouds 33 1018 64 10000 4.02 150 20:48 05.08.2021
6295 Clouds 32 1019 66 10000 2.68 170 19:30 05.08.2021
6296 Clouds 32 1019 69 10000 5.36 120 18:25 05.08.2021
6297 Clouds 30 1018 76 10000 0.89 124 15:31 05.08.2021
6298 Clouds 26 1017 81 10000 0.45 94 11:39 05.08.2021
6299 Clouds 27 1017 81 10000 2.24 100 08:51 05.08.2021
6300 Clouds 27 1019 80 10000 3.13 110 05:47 05.08.2021
6301 Clouds 28 1017 76 10000 4.56 33 00:55 05.08.2021
6302 Clouds 27 1018 78 4460 1.79 255 21:53 04.08.2021
6303 Thunderstorm 27 1018 82 10000 1.79 235 21:22 04.08.2021
6304 Clouds 33 1018 65 10000 2.24 146 18:56 04.08.2021
6305 Clouds 30 1018 73 10000 2.24 147 16:43 04.08.2021
6306 Clouds 28 1017 83 10000 2.24 150 14:45 04.08.2021
6307 Clouds 26 1016 80 10000 1.79 0 11:49 04.08.2021
6308 Clouds 23 1017 65 10000 3.39 195 04:56 04.08.2021
6309 Rain 28 1017 81 10000 4.47 130 20:41 03.08.2021
6310 Clouds 29 1017 80 10000 2.24 118 19:59 03.08.2021
6311 Clouds 30 1017 75 10000 3.58 160 18:33 03.08.2021
6312 Clouds 31 1017 70 10000 1.79 200 16:27 03.08.2021
6313 Clouds 28 1016 80 10000 0.89 228 13:31 03.08.2021
6314 Clouds 28 1016 85 10000 1.54 180 10:40 03.08.2021
6315 Clear 28 1017 80 10000 0.45 216 07:40 03.08.2021
6316 Rain 32 1019 70 10000 0.45 109 17:59 02.08.2021
6317 Clouds 31 1019 74 10000 0.45 94 16:39 02.08.2021
6318 Clouds 30 1019 78 10000 1.34 0 15:30 02.08.2021
6319 Clouds 27 1018 80 10000 3.06 201 11:59 02.08.2021
6320 Clouds 27 1018 80 10000 3.06 201 11:59 02.08.2021
6321 Clouds 27 1017 80 10000 1.34 250 11:36 02.08.2021
6322 Clouds 27 1017 88 10000 2.24 220 09:49 02.08.2021
6323 Clouds 29 1018 77 10000 0.89 153 04:22 02.08.2021
6324 Clouds 33 1019 67 10000 2.68 120 18:20 01.08.2021
6325 Clouds 30 1019 77 10000 0.45 352 15:30 01.08.2021
6326 Clouds 27 1018 79 10000 1.34 250 11:38 01.08.2021
6327 Clouds 27 1018 78 10000 0 0 09:28 01.08.2021
6328 Clouds 29 1018 74 10000 4.47 140 03:48 01.08.2021
6329 Clouds 33 1018 64 10000 6.26 120 22:52 31.07.2021
6330 Clouds 33 1018 65 10000 2.24 109 20:53 31.07.2021
6331 Clouds 32 1019 70 10000 2.68 110 17:49 31.07.2021
6332 Clouds 31 1019 73 10000 2.24 0 16:36 31.07.2021
6333 Clouds 26 1018 79 10000 0 0 12:50 31.07.2021
6334 Clouds 27 1018 79 10000 3.09 181 08:53 31.07.2021
6335 Clouds 30 1017 74 10000 2.06 170 01:39 31.07.2021
6336 Clouds 33 1018 62 10000 2.68 0 20:31 30.07.2021
6337 Clouds 33 1018 62 10000 2.24 148 19:58 30.07.2021
6338 Clouds 27 1016 77 10000 0.45 314 08:31 30.07.2021
6339 Clouds 32 1018 69 10000 1.34 120 17:33 29.07.2021
6340 Clouds 27 1017 75 10000 0 0 06:38 29.07.2021
6341 Clouds 28 1017 73 10000 0 0 04:29 29.07.2021
6342 Thunderstorm 32 1017 63 10000 2.68 210 21:22 28.07.2021
6343 Clouds 32 1018 67 10000 2.24 0 17:22 28.07.2021
6344 Clouds 30 1018 74 10000 0.45 199 15:25 28.07.2021
6345 Clouds 26 1017 88 10000 0 0 08:24 28.07.2021
6346 Thunderstorm 31 1016 69 10000 2.24 109 23:31 27.07.2021
6347 Thunderstorm 33 1016 67 10000 2.24 110 21:28 27.07.2021
6348 Clouds 29 1017 80 10000 0.45 0 14:53 27.07.2021
6349 Clouds 26 1015 83 10000 0 0 11:19 27.07.2021
6350 Clouds 27 1015 82 10000 0 0 09:49 27.07.2021
6351 Clouds 31 1016 72 10000 1.34 92 17:54 26.07.2021
6352 Clouds 30 1015 76 10000 3.13 120 15:31 26.07.2021
6353 Clouds 28 1014 77 10000 2.24 170 04:52 26.07.2021
6354 Thunderstorm 30 1014 72 10000 1.79 199 20:56 25.07.2021
6355 Clouds 32 1014 67 10000 3.13 240 18:25 25.07.2021
6356 Clouds 29 1014 76 10000 0.45 246 15:46 25.07.2021
6357 Clouds 25 1013 85 10000 2.48 235 10:56 25.07.2021
6358 Clouds 25 1014 87 10000 0 0 08:19 25.07.2021
6359 Thunderstorm 30 1015 69 10000 0.89 128 21:37 24.07.2021
6360 Thunderstorm 30 1016 67 10000 2.57 220 20:19 24.07.2021
6361 Clouds 28 1016 83 10000 0.89 239 14:37 24.07.2021
6362 Clouds 27 1018 70 10000 2.06 190 04:20 24.07.2021
6363 Clouds 29 1020 80 10000 0.45 302 14:38 23.07.2021
6364 Clouds 27 1019 81 10000 0 0 12:41 23.07.2021
6365 Clouds 29 1021 79 10000 3.13 130 04:48 23.07.2021
6366 Clouds 33 1021 65 10000 1.79 86 20:33 22.07.2021
6367 Clear 27 1020 76 10000 1.54 220 11:28 22.07.2021
6368 Clouds 27 1020 83 10000 2.36 159 08:54 22.07.2021
6369 Clouds 29 1019 75 10000 3.58 150 03:22 22.07.2021
6370 Clouds 33 1018 66 10000 2.68 124 21:45 21.07.2021
6371 Clouds 33 1018 66 10000 2.68 128 21:27 21.07.2021
6372 Clouds 26 1018 86 10000 2.68 110 13:23 21.07.2021
6373 Clouds 27 1017 81 10000 1.34 130 09:24 21.07.2021
6374 Clouds 27 1018 80 10000 0.45 130 07:25 21.07.2021
6375 Thunderstorm 29 1016 79 10000 1.34 300 23:28 20.07.2021
6376 Clouds 30 1017 78 10000 2.24 133 16:37 20.07.2021
6377 Clouds 30 1018 79 10000 1.79 128 16:00 20.07.2021
6378 Clouds 29 1017 81 10000 2.24 121 15:24 20.07.2021
6379 Clouds 27 1016 82 10000 2.57 140 10:22 20.07.2021
6380 Clouds 28 1019 78 10000 4.02 110 04:48 20.07.2021
6381 Clouds 32 1017 68 10000 6.26 110 22:25 19.07.2021
6382 Clouds 27 1019 80 10000 0.45 90 12:53 19.07.2021
6383 Clouds 27 1019 80 10000 0.89 0 10:29 19.07.2021
6384 Clouds 32 1021 68 10000 1.34 75 19:38 18.07.2021
6385 Clouds 27 1020 79 10000 3.13 110 13:49 18.07.2021
6386 Clouds 27 1020 83 10000 0.89 60 10:18 18.07.2021
6387 Clouds 30 1020 67 10000 4.02 110 22:25 17.07.2021
6388 Clouds 31 1020 71 10000 2.68 150 21:45 17.07.2021
6389 Clouds 30 1020 71 10000 2.68 150 21:23 17.07.2021
6390 Clouds 27 1019 79 10000 3.13 110 12:28 17.07.2021
6391 Clear 27 1019 79 10000 0.45 53 08:55 17.07.2021
6392 Clouds 28 1018 75 10000 1.34 101 02:46 17.07.2021
6393 Clouds 28 1019 80 10000 1.34 85 14:22 16.07.2021
6394 Clouds 27 1018 79 10000 3.58 110 07:33 16.07.2021
6395 Clouds 30 1018 72 10000 2.24 54 00:41 16.07.2021
6396 Clouds 26 1020 84 10000 0.45 60 13:53 15.07.2021
6397 Clouds 26 1020 82 10000 0.45 35 12:25 15.07.2021
6398 Clouds 27 1021 80 10000 2.68 90 07:27 15.07.2021
6399 Clouds 31 1022 71 10000 2.24 53 19:39 14.07.2021
6400 Clouds 29 1023 74 10000 0.45 100 15:55 14.07.2021
6401 Clouds 25 1021 79 10000 4.02 100 09:52 14.07.2021
6402 Rain 24 1022 95 8047 2.06 70 23:19 13.07.2021
6403 Rain 29 1022 80 10000 0.45 74 19:57 13.07.2021
6404 Rain 30 1022 78 10000 8.23 90 19:28 13.07.2021
6405 Clouds 29 1022 78 10000 2.68 79 18:49 13.07.2021
6406 Clouds 29 1022 76 10000 2.24 56 18:31 13.07.2021
6407 Thunderstorm 29 1022 77 10000 5.36 80 17:56 13.07.2021
6408 Clouds 27 1021 79 10000 1.34 79 13:21 13.07.2021
6409 Clouds 27 1021 80 10000 1.79 89 08:50 13.07.2021
6410 Thunderstorm 23 1022 81 10000 3.6 50 20:24 12.07.2021
6411 Clouds 28 1021 72 10000 0 0 16:46 12.07.2021
6412 Thunderstorm 26 1020 80 10000 2.68 120 12:21 12.07.2021
6413 Thunderstorm 26 1020 80 10000 2.68 120 12:21 12.07.2021
6414 Thunderstorm 26 1020 80 10000 2.68 120 12:21 12.07.2021
6415 Thunderstorm 26 1020 80 10000 2.68 120 12:21 12.07.2021
6416 Thunderstorm 26 1020 80 10000 2.68 120 12:21 12.07.2021
6417 Clouds 31 1019 67 10000 5.36 100 23:21 11.07.2021
6418 Clouds 31 1020 68 10000 1.34 82 19:56 11.07.2021
6419 Clouds 25 1018 91 10000 0 0 11:32 11.07.2021
6420 Clouds 30 1019 75 10000 1.34 64 22:58 10.07.2021
6421 Clouds 27 1019 73 10000 0.45 81 12:37 10.07.2021
6422 Clouds 25 1022 72 10000 2.24 30 07:49 10.07.2021
6423 Clouds 30 1019 73 10000 0.89 68 01:27 10.07.2021
6424 Clouds 32 1022 67 10000 1.34 117 18:20 09.07.2021
6425 Clouds 28 1021 83 10000 2.06 110 14:49 09.07.2021
6426 Clouds 26 1020 89 10000 1.54 20 08:41 09.07.2021
6427 Clouds 30 1019 71 10000 5.36 130 23:51 08.07.2021
6428 Clouds 31 1019 70 10000 5.81 140 22:35 08.07.2021
6429 Clouds 32 1020 69 10000 2.68 128 18:56 08.07.2021
6430 Clouds 31 1019 71 10000 4.47 120 17:42 08.07.2021
6431 Clouds 26 1018 85 10000 0 0 13:31 08.07.2021
6432 Clouds 26 1017 85 10000 0 0 12:43 08.07.2021
6433 Clouds 26 1017 84 10000 0.45 157 11:32 08.07.2021
6434 Clouds 27 1016 83 10000 2.24 140 09:52 08.07.2021
6435 Clouds 28 1018 79 10000 3.58 120 04:42 08.07.2021
6436 Clouds 29 1016 75 10000 4.47 120 00:47 08.07.2021
6437 Clouds 30 1016 75 10000 2.68 124 22:56 07.07.2021
6438 Clouds 30 1016 72 10000 6.26 120 22:18 07.07.2021
6439 Clouds 30 1017 72 10000 2.68 136 21:41 07.07.2021
6440 Clouds 30 1017 71 10000 2.68 131 21:22 07.07.2021
6441 Clouds 31 1018 72 10000 2.68 140 19:56 07.07.2021
6442 Clear 31 1018 71 10000 2.24 134 19:28 07.07.2021
6443 Clouds 30 1018 72 10000 4.47 160 17:36 07.07.2021
6444 Clouds 29 1018 77 10000 3.13 140 15:30 07.07.2021
6445 Clouds 27 1016 82 10000 3.58 160 12:24 07.07.2021
6446 Clouds 27 1016 82 10000 3.58 160 12:24 07.07.2021
6447 Clouds 27 1016 89 10000 1.34 164 07:56 07.07.2021
6448 Clouds 28 1016 87 10000 4.02 130 06:18 07.07.2021
6449 Clouds 28 1017 81 10000 4.47 130 05:41 07.07.2021
6450 Clouds 26 1017 73 10000 8.05 110 21:29 06.07.2021
6451 Clouds 29 1018 79 10000 5.81 120 19:29 06.07.2021
6452 Clouds 29 1018 79 10000 7.6 110 18:46 06.07.2021
6453 Clouds 29 1018 78 10000 7.6 110 18:24 06.07.2021
6454 Clouds 27 1016 84 10000 4.47 110 13:45 06.07.2021
6455 Rain 26 1016 75 4828 0.45 201 10:57 06.07.2021
6456 Thunderstorm 26 1016 92 10000 3.09 140 09:41 06.07.2021
6457 Rain 26 1016 83 10000 1.34 120 08:33 06.07.2021
6458 Clear 26 1017 79 10000 0.45 146 06:30 06.07.2021
6459 Clear 26 1017 79 10000 0.45 146 06:30 06.07.2021
6460 Rain 27 1016 66 10000 7.72 143 00:59 06.07.2021
6461 Thunderstorm 24 1017 91 8047 3.09 190 22:39 05.07.2021
6462 Clouds 32 1017 71 10000 5.36 90 18:35 05.07.2021
6463 Clouds 28 1016 80 10000 1.34 85 14:29 05.07.2021
6464 Haze 28 1016 82 10000 3.58 90 07:21 05.07.2021
6465 Haze 28 1017 82 9656 2.68 40 05:45 05.07.2021
6466 Clouds 28 1016 81 10000 1.34 40 04:40 05.07.2021
6467 Clouds 32 1014 69 10000 5.36 110 23:18 04.07.2021
6468 Clouds 32 1016 66 10000 4.47 130 18:52 04.07.2021
6469 Clouds 31 1016 70 10000 1.34 62 16:31 04.07.2021
6470 Clear 26 1015 82 10000 1.34 330 11:50 04.07.2021
6471 Clouds 27 1015 82 10000 0.45 298 09:24 04.07.2021
6472 Clouds 33 1014 67 10000 2.24 160 23:33 03.07.2021
6473 Clouds 33 1015 70 10000 2.24 0 22:40 03.07.2021
6474 Clear 28 1016 82 10000 0.89 233 14:57 03.07.2021
6475 Clouds 24 1016 86 10000 1.34 250 12:38 03.07.2021
6476 Clouds 25 1016 84 10000 1.54 220 09:30 03.07.2021
6477 Clouds 25 1016 84 10000 1.54 220 09:30 03.07.2021
6478 Clouds 25 1016 81 10000 1.54 170 08:46 03.07.2021
6479 Clouds 26 1016 67 10000 0.45 159 07:29 03.07.2021
6480 Clouds 30 1017 72 10000 1.34 0 17:21 02.07.2021
6481 Clouds 25 1016 85 10000 0 0 07:41 02.07.2021
6482 Clouds 25 1016 90 10000 1.34 180 05:44 02.07.2021
6483 Clouds 29 1016 78 10000 1.79 131 22:55 01.07.2021
6484 Clouds 28 1015 78 10000 1.79 118 21:55 01.07.2021
6485 Thunderstorm 28 1016 77 10000 1.79 129 21:20 01.07.2021
6486 Thunderstorm 30 1017 75 10000 1.79 160 19:36 01.07.2021
6487 Thunderstorm 29 1017 77 10000 1.79 129 19:18 01.07.2021
6488 Clouds 30 1017 74 10000 0.89 116 18:33 01.07.2021
6489 Clouds 30 1017 75 10000 1.34 134 17:18 01.07.2021
6490 Clouds 27 1017 84 10000 0 0 15:31 01.07.2021
6491 Clouds 25 1017 88 10000 1.54 30 14:24 01.07.2021
6492 Clouds 24 1016 66 10000 1.63 87 10:56 01.07.2021
6493 Clouds 25 1017 94 10000 0 0 07:36 01.07.2021
6494 Clouds 26 1017 86 10000 3.6 140 23:23 30.06.2021
6495 Clouds 27 1018 86 10000 6.26 100 22:20 30.06.2021
6496 Rain 27 1017 81 10000 1.34 350 21:23 30.06.2021
6497 Rain 26 1018 73 10000 1.54 10 20:28 30.06.2021
6498 Rain 25 1019 89 10000 0 0 19:19 30.06.2021
6499 Clouds 25 1019 88 10000 0 0 14:31 30.06.2021
6500 Clouds 25 1019 82 10000 1.34 50 13:24 30.06.2021
6501 Clouds 24 1019 88 10000 2.06 50 08:24 30.06.2021
6502 Haze 28 1019 82 10000 2.68 120 21:50 29.06.2021
6503 Clouds 29 1020 77 10000 7.15 100 18:45 29.06.2021
6504 Clouds 30 1021 75 10000 5.36 110 17:43 29.06.2021
6505 Clouds 29 1020 77 10000 1.34 69 16:59 29.06.2021
6506 Clouds 27 1020 81 10000 2.68 30 15:50 29.06.2021
6507 Clouds 26 1020 81 10000 0 0 14:54 29.06.2021
6508 Rain 26 1020 84 10000 1.34 63 13:19 29.06.2021
6509 Clouds 27 1018 79 10000 1.34 360 01:24 29.06.2021
6510 Clouds 27 1019 82 10000 0 0 21:48 28.06.2021
6511 Clouds 29 1018 74 10000 0.89 94 19:53 28.06.2021
6512 Rain 28 1019 85 10000 2.57 170 17:32 28.06.2021
6513 Clouds 28 1018 80 10000 1.79 0 15:23 28.06.2021
6514 Mist 26 1018 83 8047 0.45 25 14:24 28.06.2021
6515 Clouds 26 1016 80 10000 2.24 130 10:50 28.06.2021
6516 Clouds 30 1016 69 10000 6.71 60 23:47 27.06.2021
6517 Clouds 31 1016 66 10000 6.26 70 22:31 27.06.2021
6518 Clouds 31 1017 66 10000 6.71 100 19:43 27.06.2021
6519 Clouds 30 1017 72 10000 1.79 66 16:55 27.06.2021
6520 Clouds 28 1016 78 10000 2.68 90 14:30 27.06.2021
6521 Clouds 27 1016 79 10000 3.58 100 09:33 27.06.2021
6522 Clouds 29 1016 75 10000 1.34 71 23:57 26.06.2021
6523 Clouds 30 1017 70 10000 6.71 100 21:24 26.06.2021
6524 Clouds 30 1017 69 10000 4.02 90 20:44 26.06.2021
6525 Clouds 30 1018 72 10000 5.36 100 19:25 26.06.2021
6526 Clouds 29 1017 76 10000 0.45 92 15:39 26.06.2021
6527 Clear 27 1016 82 10000 0.89 76 13:52 26.06.2021
6528 Clouds 26 1015 81 10000 1.34 69 09:58 26.06.2021
6529 Clouds 27 1018 79 10000 1.34 54 06:23 26.06.2021
6530 Clouds 29 1017 73 10000 3.58 110 21:23 25.06.2021
6531 Clouds 29 1018 75 10000 3.13 100 20:20 25.06.2021
6532 Clouds 28 1019 78 9656 1.34 100 17:58 25.06.2021
6533 Clouds 28 1018 76 10000 6.26 60 16:57 25.06.2021
6534 Haze 28 1018 74 10000 7.15 100 15:51 25.06.2021
6535 Clouds 27 1017 81 10000 4.47 100 13:27 25.06.2021
6536 Clouds 26 1017 76 10000 2.24 30 09:36 25.06.2021
6537 Clouds 24 1019 91 10000 2.06 30 07:22 25.06.2021
6538 Rain 27 1019 76 10000 1.34 61 03:56 25.06.2021
6539 Clouds 28 1018 74 10000 3.58 90 22:52 24.06.2021
6540 Rain 27 1018 72 10000 4.47 90 21:48 24.06.2021
6541 Clouds 28 1019 76 10000 5.81 80 20:41 24.06.2021
6542 Clouds 27 1020 75 10000 1.79 66 19:35 24.06.2021
6543 Rain 25 1020 80 10000 2.57 60 17:21 24.06.2021
6544 Rain 26 1019 76 10000 1.34 0 15:22 24.06.2021
6545 Rain 27 1019 77 10000 1.34 360 14:50 24.06.2021
6546 Clouds 26 1018 73 10000 0 0 12:30 24.06.2021
6547 Clouds 26 1017 79 10000 2.24 110 09:46 24.06.2021
6548 Clouds 27 1018 77 10000 1.34 60 08:26 24.06.2021
6549 Clouds 27 1019 76 10000 4.02 80 06:29 24.06.2021
6550 Clouds 29 1019 69 10000 4.47 290 23:31 23.06.2021
6551 Clouds 31 1018 65 10000 1.34 100 22:18 23.06.2021
6552 Clouds 32 1018 67 10000 1.34 117 20:59 23.06.2021
6553 Clouds 32 1019 62 10000 4.02 140 19:51 23.06.2021
6554 Clouds 32 1020 64 10000 4.47 120 18:28 23.06.2021
6555 Clouds 30 1020 69 10000 3.58 120 16:52 23.06.2021
6556 Clouds 28 1019 78 10000 2.57 110 14:30 23.06.2021
6557 Clouds 24 1017 86 10000 0 0 12:37 23.06.2021
6558 Clouds 25 1017 85 10000 1.54 30 11:22 23.06.2021
6559 Clouds 24 1018 88 10000 2.06 70 09:26 23.06.2021
6560 Clouds 24 1019 85 10000 0 0 08:38 23.06.2021
6561 Clouds 24 1019 86 10000 1.54 210 07:48 23.06.2021
6562 Clouds 29 1019 77 10000 3.13 190 04:35 23.06.2021
6563 Clouds 31 1016 70 10000 6.71 130 00:49 23.06.2021
6564 Clouds 32 1016 70 10000 2.68 147 23:58 22.06.2021
6565 Clouds 32 1016 68 10000 5.81 130 23:32 22.06.2021
6566 Clouds 33 1017 67 10000 6.71 160 22:32 22.06.2021
6567 Clouds 33 1017 68 10000 6.71 160 21:39 22.06.2021
6568 Clouds 32 1017 67 10000 6.26 150 20:27 22.06.2021
6569 Rain 32 1018 73 10000 4.02 160 18:59 22.06.2021
6570 Clouds 32 1018 73 10000 7.15 140 18:28 22.06.2021
6571 Clouds 31 1019 72 10000 6.71 140 17:27 22.06.2021
6572 Clouds 31 1019 71 10000 7.15 120 16:39 22.06.2021
6573 Clouds 29 1018 80 10000 2.68 127 14:54 22.06.2021
6574 Clouds 28 1018 83 10000 3.58 120 14:25 22.06.2021
6575 Clouds 28 1017 89 10000 3.58 120 13:34 22.06.2021
6576 Clouds 28 1017 83 10000 0.89 104 11:53 22.06.2021
6577 Clouds 28 1016 80 10000 0.89 102 10:37 22.06.2021
6578 Clouds 28 1018 79 10000 0.89 103 07:59 22.06.2021
6579 Clouds 31 1016 70 10000 4.02 160 00:51 22.06.2021
6580 Clouds 32 1016 67 10000 6.26 160 23:35 21.06.2021
6581 Clouds 32 1017 68 10000 5.36 150 22:34 21.06.2021
6582 Clouds 32 1018 67 10000 5.81 140 21:29 21.06.2021
6583 Clouds 32 1018 66 10000 6.71 140 20:47 21.06.2021
6584 Clouds 32 1019 67 10000 2.68 116 19:55 21.06.2021
6585 Clouds 32 1020 68 10000 2.24 116 18:58 21.06.2021
6586 Clouds 31 1020 69 10000 3.13 160 17:37 21.06.2021
6587 Clouds 31 1020 72 10000 4.02 170 16:47 21.06.2021
6588 Clouds 30 1020 74 10000 4.02 170 16:25 21.06.2021
6589 Clouds 29 1020 78 10000 1.79 187 15:46 21.06.2021
6590 Clouds 28 1019 84 10000 1.34 160 14:24 21.06.2021
6591 Clouds 27 1018 90 10000 1.34 170 13:35 21.06.2021
6592 Clouds 27 1018 85 10000 1.79 132 12:38 21.06.2021
6593 Clouds 27 1017 92 10000 0.89 172 11:56 21.06.2021
6594 Clouds 27 1017 92 10000 0.89 172 11:56 21.06.2021
6595 Clouds 27 1017 86 10000 1.54 140 10:31 21.06.2021
6596 Clouds 27 1017 86 10000 1.34 103 09:34 21.06.2021
6597 Clouds 27 1017 91 10000 2.06 130 08:24 21.06.2021
6598 Clouds 27 1018 82 10000 1.34 150 07:44 21.06.2021
6599 Rain 26 1018 77 6437 2.57 80 00:44 21.06.2021
6600 Clouds 30 1018 69 10000 2.68 0 23:36 20.06.2021
6601 Clouds 31 1017 67 10000 5.36 140 22:59 20.06.2021
6602 Clouds 32 1017 65 10000 7.15 130 22:19 20.06.2021
6603 Clouds 33 1018 65 10000 6.26 130 21:32 20.06.2021
6604 Clouds 33 1018 68 10000 2.68 123 19:54 20.06.2021
6605 Clouds 33 1018 68 10000 4.47 220 19:32 20.06.2021
6606 Clouds 32 1019 70 10000 4.02 200 18:34 20.06.2021
6607 Clouds 31 1019 73 10000 4.02 170 16:52 20.06.2021
6608 Clouds 30 1019 76 10000 1.79 149 15:58 20.06.2021
6609 Clouds 30 1019 79 10000 0.89 153 15:34 20.06.2021
6610 Clouds 29 1019 88 10000 4.98 165 14:54 20.06.2021
6611 Clouds 27 1018 83 10000 0.45 193 13:51 20.06.2021
6612 Clouds 27 1018 90 10000 3.93 170 12:58 20.06.2021
6613 Clouds 27 1017 83 10000 0.45 221 11:47 20.06.2021
6614 Clouds 28 1017 82 10000 1.34 186 10:46 20.06.2021
6615 Clouds 28 1017 83 10000 0.89 196 09:47 20.06.2021
6616 Clouds 28 1017 82 10000 4.63 120 07:47 20.06.2021
6617 Clouds 30 1017 73 10000 5.36 140 00:31 20.06.2021
6618 Clouds 31 1017 72 10000 5.36 130 23:20 19.06.2021
6619 Clouds 31 1018 69 10000 3.58 120 22:20 19.06.2021
6620 Clouds 31 1018 68 10000 5.81 120 21:43 19.06.2021
6621 Clouds 31 1020 73 10000 1.79 0 18:56 19.06.2021
6622 Clouds 31 1020 71 10000 5.36 140 18:31 19.06.2021
6623 Clouds 31 1019 69 10000 4.47 140 17:27 19.06.2021
6624 Clouds 30 1019 71 10000 6.26 120 16:51 19.06.2021
6625 Clouds 29 1019 75 10000 5.36 120 15:42 19.06.2021
6626 Clouds 28 1019 79 10000 3.13 140 13:36 19.06.2021
6627 Clouds 27 1018 80